<?xml version='1.0' encoding='UTF-8'?>
<gpx version="1.1" creator="https://www.komoot.de" xmlns="http://www.topografix.com/GPX/1/1" xmlns:xsi="http://www.w3.org/2001/XMLSchema-instance" xsi:schemaLocation="http://www.topografix.com/GPX/1/1 http://www.topografix.com/GPX/1/1/gpx.xsd">
  <metadata>
    <name>Breitenbach_Olten</name>
    <author>
      <link href="https://www.komoot.de">
        <text>komoot</text>
        <type>text/html</type>
      </link>
    </author>
  </metadata>
  <trk>
    <name>Breitenbach_Olten</name>
    <trkseg>
      <trkpt lat="47.402444" lon="7.541306">
        <ele>398.353515</ele>
        <time>2022-08-25T13:28:15.000Z</time>
      </trkpt>
      <trkpt lat="47.402521" lon="7.541379">
        <ele>398.353515</ele>
        <time>2022-08-25T13:28:18.000Z</time>
      </trkpt>
      <trkpt lat="47.402611" lon="7.541446">
        <ele>398.353515</ele>
        <time>2022-08-25T13:28:21.000Z</time>
      </trkpt>
      <trkpt lat="47.402729" lon="7.541515">
        <ele>398.353515</ele>
        <time>2022-08-25T13:28:24.000Z</time>
      </trkpt>
      <trkpt lat="47.402815" lon="7.541568">
        <ele>398.353515</ele>
        <time>2022-08-25T13:28:26.000Z</time>
      </trkpt>
      <trkpt lat="47.402899" lon="7.541621">
        <ele>398.353515</ele>
        <time>2022-08-25T13:28:28.000Z</time>
      </trkpt>
      <trkpt lat="47.402979" lon="7.541701">
        <ele>398.353515</ele>
        <time>2022-08-25T13:28:30.000Z</time>
      </trkpt>
      <trkpt lat="47.403105" lon="7.541784">
        <ele>398.353515</ele>
        <time>2022-08-25T13:28:33.000Z</time>
      </trkpt>
      <trkpt lat="47.403194" lon="7.541853">
        <ele>398.353515</ele>
        <time>2022-08-25T13:28:35.000Z</time>
      </trkpt>
      <trkpt lat="47.403271" lon="7.541923">
        <ele>398.369257</ele>
        <time>2022-08-25T13:28:37.000Z</time>
      </trkpt>
      <trkpt lat="47.403355" lon="7.541982">
        <ele>398.418307</ele>
        <time>2022-08-25T13:28:39.000Z</time>
      </trkpt>
      <trkpt lat="47.403442" lon="7.542088">
        <ele>398.477776</ele>
        <time>2022-08-25T13:28:42.000Z</time>
      </trkpt>
      <trkpt lat="47.403494" lon="7.542210">
        <ele>398.529238</ele>
        <time>2022-08-25T13:28:45.000Z</time>
      </trkpt>
      <trkpt lat="47.403503" lon="7.542350">
        <ele>398.579435</ele>
        <time>2022-08-25T13:28:48.000Z</time>
      </trkpt>
      <trkpt lat="47.403506" lon="7.542500">
        <ele>398.632999</ele>
        <time>2022-08-25T13:28:52.000Z</time>
      </trkpt>
      <trkpt lat="47.403659" lon="7.542678">
        <ele>398.735699</ele>
        <time>2022-08-25T13:29:17.000Z</time>
      </trkpt>
      <trkpt lat="47.403767" lon="7.542709">
        <ele>398.793720</ele>
        <time>2022-08-25T13:29:19.000Z</time>
      </trkpt>
      <trkpt lat="47.403876" lon="7.542749">
        <ele>398.852950</ele>
        <time>2022-08-25T13:29:21.000Z</time>
      </trkpt>
      <trkpt lat="47.403987" lon="7.542782">
        <ele>398.912661</ele>
        <time>2022-08-25T13:29:23.000Z</time>
      </trkpt>
      <trkpt lat="47.404095" lon="7.542819">
        <ele>398.971129</ele>
        <time>2022-08-25T13:29:25.000Z</time>
      </trkpt>
      <trkpt lat="47.404217" lon="7.542868">
        <ele>399.037803</ele>
        <time>2022-08-25T13:29:26.999Z</time>
      </trkpt>
      <trkpt lat="47.404334" lon="7.542920">
        <ele>399.102236</ele>
        <time>2022-08-25T13:29:28.999Z</time>
      </trkpt>
      <trkpt lat="47.404444" lon="7.542991">
        <ele>399.165541</ele>
        <time>2022-08-25T13:29:30.999Z</time>
      </trkpt>
      <trkpt lat="47.404561" lon="7.543057">
        <ele>399.231587</ele>
        <time>2022-08-25T13:29:32.999Z</time>
      </trkpt>
      <trkpt lat="47.404674" lon="7.543125">
        <ele>399.295933</ele>
        <time>2022-08-25T13:29:34.999Z</time>
      </trkpt>
      <trkpt lat="47.404784" lon="7.543192">
        <ele>399.263615</ele>
        <time>2022-08-25T13:29:36.999Z</time>
      </trkpt>
      <trkpt lat="47.404896" lon="7.543264">
        <ele>399.219867</ele>
        <time>2022-08-25T13:29:38.999Z</time>
      </trkpt>
      <trkpt lat="47.405008" lon="7.543315">
        <ele>399.177889</ele>
        <time>2022-08-25T13:29:40.999Z</time>
      </trkpt>
      <trkpt lat="47.405107" lon="7.543370">
        <ele>399.140005</ele>
        <time>2022-08-25T13:29:42.999Z</time>
      </trkpt>
      <trkpt lat="47.405145" lon="7.543516">
        <ele>399.102085</ele>
        <time>2022-08-25T13:29:44.999Z</time>
      </trkpt>
      <trkpt lat="47.405110" lon="7.543656">
        <ele>399.065906</ele>
        <time>2022-08-25T13:29:46.999Z</time>
      </trkpt>
      <trkpt lat="47.405070" lon="7.543822">
        <ele>399.023190</ele>
        <time>2022-08-25T13:29:49.999Z</time>
      </trkpt>
      <trkpt lat="47.405038" lon="7.543988">
        <ele>398.981348</ele>
        <time>2022-08-25T13:29:53.000Z</time>
      </trkpt>
      <trkpt lat="47.404998" lon="7.544167">
        <ele>398.935651</ele>
        <time>2022-08-25T13:29:56.000Z</time>
      </trkpt>
      <trkpt lat="47.404957" lon="7.544343">
        <ele>398.890529</ele>
        <time>2022-08-25T13:29:59.000Z</time>
      </trkpt>
      <trkpt lat="47.404925" lon="7.544529">
        <ele>398.844005</ele>
        <time>2022-08-25T13:30:02.000Z</time>
      </trkpt>
      <trkpt lat="47.404855" lon="7.544692">
        <ele>398.797207</ele>
        <time>2022-08-25T13:30:05.000Z</time>
      </trkpt>
      <trkpt lat="47.404759" lon="7.544687">
        <ele>398.762801</ele>
        <time>2022-08-25T13:30:07.000Z</time>
      </trkpt>
      <trkpt lat="47.404644" lon="7.544654">
        <ele>398.720841</ele>
        <time>2022-08-25T13:30:10.000Z</time>
      </trkpt>
      <trkpt lat="47.404554" lon="7.544750">
        <ele>398.681082</ele>
        <time>2022-08-25T13:30:13.000Z</time>
      </trkpt>
      <trkpt lat="47.404506" lon="7.544931">
        <ele>398.645956</ele>
        <time>2022-08-25T13:30:16.000Z</time>
      </trkpt>
      <trkpt lat="47.404471" lon="7.545057">
        <ele>398.629533</ele>
        <time>2022-08-25T13:30:18.000Z</time>
      </trkpt>
      <trkpt lat="47.404429" lon="7.545186">
        <ele>398.612271</ele>
        <time>2022-08-25T13:30:20.000Z</time>
      </trkpt>
      <trkpt lat="47.404384" lon="7.545317">
        <ele>398.594557</ele>
        <time>2022-08-25T13:30:22.000Z</time>
      </trkpt>
      <trkpt lat="47.404340" lon="7.545448">
        <ele>398.576922</ele>
        <time>2022-08-25T13:30:24.000Z</time>
      </trkpt>
      <trkpt lat="47.404301" lon="7.545588">
        <ele>398.558667</ele>
        <time>2022-08-25T13:30:26.000Z</time>
      </trkpt>
      <trkpt lat="47.404261" lon="7.545719">
        <ele>398.541337</ele>
        <time>2022-08-25T13:30:29.000Z</time>
      </trkpt>
      <trkpt lat="47.404353" lon="7.545701">
        <ele>398.524803</ele>
        <time>2022-08-25T13:30:33.000Z</time>
      </trkpt>
      <trkpt lat="47.404452" lon="7.545765">
        <ele>398.505551</ele>
        <time>2022-08-25T13:30:38.000Z</time>
      </trkpt>
      <trkpt lat="47.404548" lon="7.545829">
        <ele>398.486787</ele>
        <time>2022-08-25T13:30:50.000Z</time>
      </trkpt>
      <trkpt lat="47.404618" lon="7.545916">
        <ele>398.470490</ele>
        <time>2022-08-25T13:30:53.000Z</time>
      </trkpt>
      <trkpt lat="47.404730" lon="7.545983">
        <ele>398.448963</ele>
        <time>2022-08-25T13:30:56.000Z</time>
      </trkpt>
      <trkpt lat="47.404851" lon="7.546054">
        <ele>398.425767</ele>
        <time>2022-08-25T13:30:59.000Z</time>
      </trkpt>
      <trkpt lat="47.404940" lon="7.546109">
        <ele>398.408580</ele>
        <time>2022-08-25T13:31:01.000Z</time>
      </trkpt>
      <trkpt lat="47.405030" lon="7.546167">
        <ele>398.391087</ele>
        <time>2022-08-25T13:31:03.000Z</time>
      </trkpt>
      <trkpt lat="47.405123" lon="7.546227">
        <ele>398.373007</ele>
        <time>2022-08-25T13:31:05.000Z</time>
      </trkpt>
      <trkpt lat="47.405213" lon="7.546285">
        <ele>398.355514</ele>
        <time>2022-08-25T13:31:07.000Z</time>
      </trkpt>
      <trkpt lat="47.405311" lon="7.546336">
        <ele>398.337236</ele>
        <time>2022-08-25T13:31:09.000Z</time>
      </trkpt>
      <trkpt lat="47.405403" lon="7.546399">
        <ele>398.330215</ele>
        <time>2022-08-25T13:31:11.000Z</time>
      </trkpt>
      <trkpt lat="47.405480" lon="7.546486">
        <ele>398.323504</ele>
        <time>2022-08-25T13:31:13.000Z</time>
      </trkpt>
      <trkpt lat="47.405577" lon="7.546539">
        <ele>398.316344</ele>
        <time>2022-08-25T13:31:15.000Z</time>
      </trkpt>
      <trkpt lat="47.405659" lon="7.546614">
        <ele>398.309667</ele>
        <time>2022-08-25T13:31:17.000Z</time>
      </trkpt>
      <trkpt lat="47.405793" lon="7.546640">
        <ele>398.300310</ele>
        <time>2022-08-25T13:31:20.000Z</time>
      </trkpt>
      <trkpt lat="47.405855" lon="7.546527">
        <ele>398.293493</ele>
        <time>2022-08-25T13:31:22.000Z</time>
      </trkpt>
      <trkpt lat="47.405913" lon="7.546425">
        <ele>398.287251</ele>
        <time>2022-08-25T13:31:24.000Z</time>
      </trkpt>
      <trkpt lat="47.405976" lon="7.546303">
        <ele>398.280060</ele>
        <time>2022-08-25T13:31:27.000Z</time>
      </trkpt>
      <trkpt lat="47.406039" lon="7.546445">
        <ele>398.272104</ele>
        <time>2022-08-25T13:31:28.000Z</time>
      </trkpt>
      <trkpt lat="47.406128" lon="7.546574">
        <ele>398.263472</ele>
        <time>2022-08-25T13:31:31.000Z</time>
      </trkpt>
      <trkpt lat="47.406214" lon="7.546703">
        <ele>398.254987</ele>
        <time>2022-08-25T13:31:34.000Z</time>
      </trkpt>
      <trkpt lat="47.406299" lon="7.546830">
        <ele>398.246618</ele>
        <time>2022-08-25T13:31:37.000Z</time>
      </trkpt>
      <trkpt lat="47.406380" lon="7.546898">
        <ele>398.240168</ele>
        <time>2022-08-25T13:31:39.000Z</time>
      </trkpt>
      <trkpt lat="47.406464" lon="7.546974">
        <ele>398.233348</ele>
        <time>2022-08-25T13:31:41.000Z</time>
      </trkpt>
      <trkpt lat="47.406548" lon="7.547045">
        <ele>398.226648</ele>
        <time>2022-08-25T13:31:43.000Z</time>
      </trkpt>
      <trkpt lat="47.406646" lon="7.547099">
        <ele>398.219407</ele>
        <time>2022-08-25T13:31:45.000Z</time>
      </trkpt>
      <trkpt lat="47.406735" lon="7.547143">
        <ele>398.212909</ele>
        <time>2022-08-25T13:31:47.000Z</time>
      </trkpt>
      <trkpt lat="47.406837" lon="7.547184">
        <ele>398.295275</ele>
        <time>2022-08-25T13:31:49.000Z</time>
      </trkpt>
      <trkpt lat="47.406946" lon="7.547243">
        <ele>398.386463</ele>
        <time>2022-08-25T13:31:51.000Z</time>
      </trkpt>
      <trkpt lat="47.406956" lon="7.547412">
        <ele>398.476653</ele>
        <time>2022-08-25T13:31:56.000Z</time>
      </trkpt>
      <trkpt lat="47.406885" lon="7.547549">
        <ele>398.568389</ele>
        <time>2022-08-25T13:31:59.000Z</time>
      </trkpt>
      <trkpt lat="47.406806" lon="7.547710">
        <ele>398.674112</ele>
        <time>2022-08-25T13:32:02.000Z</time>
      </trkpt>
      <trkpt lat="47.406758" lon="7.547828">
        <ele>398.747305</ele>
        <time>2022-08-25T13:32:04.000Z</time>
      </trkpt>
      <trkpt lat="47.406694" lon="7.547935">
        <ele>398.823223</ele>
        <time>2022-08-25T13:32:06.000Z</time>
      </trkpt>
      <trkpt lat="47.406642" lon="7.548055">
        <ele>398.898976</ele>
        <time>2022-08-25T13:32:08.000Z</time>
      </trkpt>
      <trkpt lat="47.406593" lon="7.548184">
        <ele>398.977621</ele>
        <time>2022-08-25T13:32:10.000Z</time>
      </trkpt>
      <trkpt lat="47.406548" lon="7.548301">
        <ele>399.049166</ele>
        <time>2022-08-25T13:32:12.000Z</time>
      </trkpt>
      <trkpt lat="47.406507" lon="7.548457">
        <ele>399.138136</ele>
        <time>2022-08-25T13:32:15.000Z</time>
      </trkpt>
      <trkpt lat="47.406477" lon="7.548619">
        <ele>399.227428</ele>
        <time>2022-08-25T13:32:18.000Z</time>
      </trkpt>
      <trkpt lat="47.406456" lon="7.548752">
        <ele>399.300036</ele>
        <time>2022-08-25T13:32:20.000Z</time>
      </trkpt>
      <trkpt lat="47.406446" lon="7.548887">
        <ele>399.372236</ele>
        <time>2022-08-25T13:32:22.000Z</time>
      </trkpt>
      <trkpt lat="47.406447" lon="7.549041">
        <ele>399.454113</ele>
        <time>2022-08-25T13:32:24.000Z</time>
      </trkpt>
      <trkpt lat="47.406454" lon="7.549179">
        <ele>399.527686</ele>
        <time>2022-08-25T13:32:26.000Z</time>
      </trkpt>
      <trkpt lat="47.406462" lon="7.549351">
        <ele>399.619344</ele>
        <time>2022-08-25T13:32:29.000Z</time>
      </trkpt>
      <trkpt lat="47.406483" lon="7.549492">
        <ele>399.747422</ele>
        <time>2022-08-25T13:32:32.000Z</time>
      </trkpt>
      <trkpt lat="47.406502" lon="7.549635">
        <ele>399.881419</ele>
        <time>2022-08-25T13:32:37.000Z</time>
      </trkpt>
      <trkpt lat="47.406548" lon="7.549346">
        <ele>400.154402</ele>
        <time>2022-08-25T13:33:20.000Z</time>
      </trkpt>
      <trkpt lat="47.406526" lon="7.549199">
        <ele>400.292833</ele>
        <time>2022-08-25T13:33:22.000Z</time>
      </trkpt>
      <trkpt lat="47.406514" lon="7.549040">
        <ele>400.439938</ele>
        <time>2022-08-25T13:33:24.000Z</time>
      </trkpt>
      <trkpt lat="47.406430" lon="7.548929">
        <ele>400.593043</ele>
        <time>2022-08-25T13:33:27.000Z</time>
      </trkpt>
      <trkpt lat="47.406337" lon="7.549081">
        <ele>400.781452</ele>
        <time>2022-08-25T13:33:30.000Z</time>
      </trkpt>
      <trkpt lat="47.406279" lon="7.549198">
        <ele>400.914805</ele>
        <time>2022-08-25T13:33:32.000Z</time>
      </trkpt>
      <trkpt lat="47.406210" lon="7.549345">
        <ele>401.079297</ele>
        <time>2022-08-25T13:33:35.000Z</time>
      </trkpt>
      <trkpt lat="47.406106" lon="7.549626">
        <ele>401.373786</ele>
        <time>2022-08-25T13:35:30.000Z</time>
      </trkpt>
      <trkpt lat="47.406066" lon="7.549788">
        <ele>401.532349</ele>
        <time>2022-08-25T13:35:34.001Z</time>
      </trkpt>
      <trkpt lat="47.406033" lon="7.549941">
        <ele>401.680003</ele>
        <time>2022-08-25T13:35:38.001Z</time>
      </trkpt>
      <trkpt lat="47.406017" lon="7.550090">
        <ele>401.818723</ele>
        <time>2022-08-25T13:35:42.001Z</time>
      </trkpt>
      <trkpt lat="47.406019" lon="7.550241">
        <ele>401.957594</ele>
        <time>2022-08-25T13:35:45.000Z</time>
      </trkpt>
      <trkpt lat="47.406003" lon="7.550422">
        <ele>402.180734</ele>
        <time>2022-08-25T13:35:48.000Z</time>
      </trkpt>
      <trkpt lat="47.406009" lon="7.550612">
        <ele>402.528189</ele>
        <time>2022-08-25T13:35:51.000Z</time>
      </trkpt>
      <trkpt lat="47.406033" lon="7.550784">
        <ele>402.848993</ele>
        <time>2022-08-25T13:35:54.000Z</time>
      </trkpt>
      <trkpt lat="47.406059" lon="7.550916">
        <ele>403.100124</ele>
        <time>2022-08-25T13:35:58.000Z</time>
      </trkpt>
      <trkpt lat="47.406088" lon="7.551067">
        <ele>403.386849</ele>
        <time>2022-08-25T13:36:02.000Z</time>
      </trkpt>
      <trkpt lat="47.406101" lon="7.551203">
        <ele>403.637748</ele>
        <time>2022-08-25T13:36:06.000Z</time>
      </trkpt>
      <trkpt lat="47.406101" lon="7.551365">
        <ele>403.933677</ele>
        <time>2022-08-25T13:36:11.000Z</time>
      </trkpt>
      <trkpt lat="47.406082" lon="7.551499">
        <ele>404.183771</ele>
        <time>2022-08-25T13:36:15.000Z</time>
      </trkpt>
      <trkpt lat="47.406056" lon="7.551629">
        <ele>404.431396</ele>
        <time>2022-08-25T13:36:20.000Z</time>
      </trkpt>
      <trkpt lat="47.406088" lon="7.551460">
        <ele>404.751966</ele>
        <time>2022-08-25T13:36:28.000Z</time>
      </trkpt>
      <trkpt lat="47.406256" lon="7.551162">
        <ele>405.460443</ele>
        <time>2022-08-25T13:36:30.000Z</time>
      </trkpt>
      <trkpt lat="47.406008" lon="7.550995">
        <ele>406.196048</ele>
        <time>2022-08-25T13:36:40.000Z</time>
      </trkpt>
      <trkpt lat="47.405893" lon="7.551071">
        <ele>406.536073</ele>
        <time>2022-08-25T13:36:43.000Z</time>
      </trkpt>
      <trkpt lat="47.405802" lon="7.551190">
        <ele>406.864068</ele>
        <time>2022-08-25T13:36:46.000Z</time>
      </trkpt>
      <trkpt lat="47.405713" lon="7.551316">
        <ele>407.213575</ele>
        <time>2022-08-25T13:36:49.000Z</time>
      </trkpt>
      <trkpt lat="47.405631" lon="7.551436">
        <ele>407.544293</ele>
        <time>2022-08-25T13:36:52.000Z</time>
      </trkpt>
      <trkpt lat="47.405550" lon="7.551551">
        <ele>407.866188</ele>
        <time>2022-08-25T13:36:55.000Z</time>
      </trkpt>
      <trkpt lat="47.405465" lon="7.551668">
        <ele>408.199075</ele>
        <time>2022-08-25T13:36:58.000Z</time>
      </trkpt>
      <trkpt lat="47.405380" lon="7.551784">
        <ele>408.530643</ele>
        <time>2022-08-25T13:37:01.000Z</time>
      </trkpt>
      <trkpt lat="47.405297" lon="7.551899">
        <ele>408.856695</ele>
        <time>2022-08-25T13:37:04.000Z</time>
      </trkpt>
      <trkpt lat="47.405218" lon="7.552030">
        <ele>409.196980</ele>
        <time>2022-08-25T13:37:07.000Z</time>
      </trkpt>
      <trkpt lat="47.405113" lon="7.552135">
        <ele>409.560294</ele>
        <time>2022-08-25T13:37:10.000Z</time>
      </trkpt>
      <trkpt lat="47.405011" lon="7.552258">
        <ele>409.937567</ele>
        <time>2022-08-25T13:37:13.000Z</time>
      </trkpt>
      <trkpt lat="47.404911" lon="7.552373">
        <ele>410.300686</ele>
        <time>2022-08-25T13:37:16.000Z</time>
      </trkpt>
      <trkpt lat="47.404808" lon="7.552489">
        <ele>410.671800</ele>
        <time>2022-08-25T13:37:19.000Z</time>
      </trkpt>
      <trkpt lat="47.404707" lon="7.552605">
        <ele>411.038373</ele>
        <time>2022-08-25T13:37:22.000Z</time>
      </trkpt>
      <trkpt lat="47.404614" lon="7.552710">
        <ele>411.373765</ele>
        <time>2022-08-25T13:37:25.000Z</time>
      </trkpt>
      <trkpt lat="47.404532" lon="7.552805">
        <ele>411.672360</ele>
        <time>2022-08-25T13:37:28.000Z</time>
      </trkpt>
      <trkpt lat="47.404440" lon="7.552907">
        <ele>412.001955</ele>
        <time>2022-08-25T13:37:31.000Z</time>
      </trkpt>
      <trkpt lat="47.404342" lon="7.553015">
        <ele>412.748829</ele>
        <time>2022-08-25T13:37:34.001Z</time>
      </trkpt>
      <trkpt lat="47.404268" lon="7.553097">
        <ele>413.397204</ele>
        <time>2022-08-25T13:37:37.001Z</time>
      </trkpt>
      <trkpt lat="47.404191" lon="7.553184">
        <ele>414.076666</ele>
        <time>2022-08-25T13:37:40.001Z</time>
      </trkpt>
      <trkpt lat="47.404095" lon="7.553292">
        <ele>414.922441</ele>
        <time>2022-08-25T13:37:43.001Z</time>
      </trkpt>
      <trkpt lat="47.403998" lon="7.553402">
        <ele>415.779549</ele>
        <time>2022-08-25T13:37:46.001Z</time>
      </trkpt>
      <trkpt lat="47.403906" lon="7.553517">
        <ele>416.624252</ele>
        <time>2022-08-25T13:37:49.001Z</time>
      </trkpt>
      <trkpt lat="47.403816" lon="7.553631">
        <ele>417.455208</ele>
        <time>2022-08-25T13:37:52.000Z</time>
      </trkpt>
      <trkpt lat="47.403731" lon="7.553737">
        <ele>418.234876</ele>
        <time>2022-08-25T13:37:55.000Z</time>
      </trkpt>
      <trkpt lat="47.403646" lon="7.553849">
        <ele>419.033201</ele>
        <time>2022-08-25T13:37:58.000Z</time>
      </trkpt>
      <trkpt lat="47.403567" lon="7.553978">
        <ele>419.858545</ele>
        <time>2022-08-25T13:38:01.000Z</time>
      </trkpt>
      <trkpt lat="47.403481" lon="7.554091">
        <ele>420.665261</ele>
        <time>2022-08-25T13:38:04.000Z</time>
      </trkpt>
      <trkpt lat="47.403404" lon="7.554196">
        <ele>421.399741</ele>
        <time>2022-08-25T13:38:07.000Z</time>
      </trkpt>
      <trkpt lat="47.403331" lon="7.554309">
        <ele>422.140845</ele>
        <time>2022-08-25T13:38:10.000Z</time>
      </trkpt>
      <trkpt lat="47.403257" lon="7.554425">
        <ele>422.897099</ele>
        <time>2022-08-25T13:38:13.000Z</time>
      </trkpt>
      <trkpt lat="47.403172" lon="7.554526">
        <ele>423.661686</ele>
        <time>2022-08-25T13:38:16.000Z</time>
      </trkpt>
      <trkpt lat="47.403100" lon="7.554633">
        <ele>424.377508</ele>
        <time>2022-08-25T13:38:19.000Z</time>
      </trkpt>
      <trkpt lat="47.403038" lon="7.554766">
        <ele>424.985487</ele>
        <time>2022-08-25T13:38:22.000Z</time>
      </trkpt>
      <trkpt lat="47.402952" lon="7.554868">
        <ele>425.491513</ele>
        <time>2022-08-25T13:38:25.000Z</time>
      </trkpt>
      <trkpt lat="47.402872" lon="7.554999">
        <ele>426.039476</ele>
        <time>2022-08-25T13:38:28.000Z</time>
      </trkpt>
      <trkpt lat="47.402789" lon="7.555135">
        <ele>426.608190</ele>
        <time>2022-08-25T13:38:31.000Z</time>
      </trkpt>
      <trkpt lat="47.402705" lon="7.555288">
        <ele>427.220023</ele>
        <time>2022-08-25T13:38:34.000Z</time>
      </trkpt>
      <trkpt lat="47.402644" lon="7.555386">
        <ele>427.633512</ele>
        <time>2022-08-25T13:38:36.000Z</time>
      </trkpt>
      <trkpt lat="47.402580" lon="7.555490">
        <ele>428.070043</ele>
        <time>2022-08-25T13:38:38.000Z</time>
      </trkpt>
      <trkpt lat="47.402511" lon="7.555593">
        <ele>428.520113</ele>
        <time>2022-08-25T13:38:40.000Z</time>
      </trkpt>
      <trkpt lat="47.402436" lon="7.555699">
        <ele>428.996351</ele>
        <time>2022-08-25T13:38:42.000Z</time>
      </trkpt>
      <trkpt lat="47.402359" lon="7.555801">
        <ele>429.470880</ele>
        <time>2022-08-25T13:38:44.000Z</time>
      </trkpt>
      <trkpt lat="47.402285" lon="7.555896">
        <ele>429.920702</ele>
        <time>2022-08-25T13:38:46.000Z</time>
      </trkpt>
      <trkpt lat="47.402185" lon="7.556024">
        <ele>430.527800</ele>
        <time>2022-08-25T13:38:49.000Z</time>
      </trkpt>
      <trkpt lat="47.402086" lon="7.556137">
        <ele>431.101830</ele>
        <time>2022-08-25T13:38:52.000Z</time>
      </trkpt>
      <trkpt lat="47.401997" lon="7.556289">
        <ele>431.726022</ele>
        <time>2022-08-25T13:38:55.000Z</time>
      </trkpt>
      <trkpt lat="47.401921" lon="7.556441">
        <ele>432.312924</ele>
        <time>2022-08-25T13:38:58.000Z</time>
      </trkpt>
      <trkpt lat="47.401851" lon="7.556584">
        <ele>432.861015</ele>
        <time>2022-08-25T13:39:01.000Z</time>
      </trkpt>
      <trkpt lat="47.401783" lon="7.556726">
        <ele>433.437805</ele>
        <time>2022-08-25T13:39:04.000Z</time>
      </trkpt>
      <trkpt lat="47.401719" lon="7.556865">
        <ele>434.001185</ele>
        <time>2022-08-25T13:39:07.000Z</time>
      </trkpt>
      <trkpt lat="47.401651" lon="7.557006">
        <ele>434.581383</ele>
        <time>2022-08-25T13:39:10.000Z</time>
      </trkpt>
      <trkpt lat="47.401570" lon="7.557163">
        <ele>435.242943</ele>
        <time>2022-08-25T13:39:13.000Z</time>
      </trkpt>
      <trkpt lat="47.401508" lon="7.557292">
        <ele>435.773153</ele>
        <time>2022-08-25T13:39:15.000Z</time>
      </trkpt>
      <trkpt lat="47.401439" lon="7.557420">
        <ele>436.321529</ele>
        <time>2022-08-25T13:39:17.000Z</time>
      </trkpt>
      <trkpt lat="47.401367" lon="7.557558">
        <ele>436.905447</ele>
        <time>2022-08-25T13:39:19.000Z</time>
      </trkpt>
      <trkpt lat="47.401295" lon="7.557696">
        <ele>437.489365</ele>
        <time>2022-08-25T13:39:21.000Z</time>
      </trkpt>
      <trkpt lat="47.401228" lon="7.557826">
        <ele>438.036946</ele>
        <time>2022-08-25T13:39:23.000Z</time>
      </trkpt>
      <trkpt lat="47.401168" lon="7.557947">
        <ele>438.539621</ele>
        <time>2022-08-25T13:39:25.000Z</time>
      </trkpt>
      <trkpt lat="47.401111" lon="7.558062">
        <ele>439.017297</ele>
        <time>2022-08-25T13:39:27.000Z</time>
      </trkpt>
      <trkpt lat="47.401058" lon="7.558170">
        <ele>439.464351</ele>
        <time>2022-08-25T13:39:29.000Z</time>
      </trkpt>
      <trkpt lat="47.401004" lon="7.558280">
        <ele>439.919738</ele>
        <time>2022-08-25T13:39:31.000Z</time>
      </trkpt>
      <trkpt lat="47.400949" lon="7.558395">
        <ele>440.391633</ele>
        <time>2022-08-25T13:39:33.000Z</time>
      </trkpt>
      <trkpt lat="47.400891" lon="7.558515">
        <ele>440.885790</ele>
        <time>2022-08-25T13:39:35.000Z</time>
      </trkpt>
      <trkpt lat="47.400833" lon="7.558635">
        <ele>441.379948</ele>
        <time>2022-08-25T13:39:37.000Z</time>
      </trkpt>
      <trkpt lat="47.400774" lon="7.558754">
        <ele>441.870098</ele>
        <time>2022-08-25T13:39:39.000Z</time>
      </trkpt>
      <trkpt lat="47.400716" lon="7.558871">
        <ele>442.288693</ele>
        <time>2022-08-25T13:39:41.000Z</time>
      </trkpt>
      <trkpt lat="47.400661" lon="7.558983">
        <ele>442.688089</ele>
        <time>2022-08-25T13:39:43.000Z</time>
      </trkpt>
      <trkpt lat="47.400582" lon="7.559131">
        <ele>443.232131</ele>
        <time>2022-08-25T13:39:46.000Z</time>
      </trkpt>
      <trkpt lat="47.400508" lon="7.559266">
        <ele>443.733548</ele>
        <time>2022-08-25T13:39:49.000Z</time>
      </trkpt>
      <trkpt lat="47.400437" lon="7.559396">
        <ele>444.215700</ele>
        <time>2022-08-25T13:39:52.000Z</time>
      </trkpt>
      <trkpt lat="47.400354" lon="7.559546">
        <ele>444.774925</ele>
        <time>2022-08-25T13:39:55.000Z</time>
      </trkpt>
      <trkpt lat="47.400293" lon="7.559654">
        <ele>445.180934</ele>
        <time>2022-08-25T13:39:57.000Z</time>
      </trkpt>
      <trkpt lat="47.400232" lon="7.559766">
        <ele>445.595875</ele>
        <time>2022-08-25T13:39:59.000Z</time>
      </trkpt>
      <trkpt lat="47.400167" lon="7.559886">
        <ele>446.039501</ele>
        <time>2022-08-25T13:40:01.000Z</time>
      </trkpt>
      <trkpt lat="47.400104" lon="7.560003">
        <ele>446.471039</ele>
        <time>2022-08-25T13:40:03.000Z</time>
      </trkpt>
      <trkpt lat="47.400021" lon="7.560158">
        <ele>447.041513</ele>
        <time>2022-08-25T13:40:06.000Z</time>
      </trkpt>
      <trkpt lat="47.399943" lon="7.560314">
        <ele>447.601328</ele>
        <time>2022-08-25T13:40:09.000Z</time>
      </trkpt>
      <trkpt lat="47.399875" lon="7.560454">
        <ele>448.098707</ele>
        <time>2022-08-25T13:40:12.000Z</time>
      </trkpt>
      <trkpt lat="47.399806" lon="7.560596">
        <ele>448.603263</ele>
        <time>2022-08-25T13:40:15.000Z</time>
      </trkpt>
      <trkpt lat="47.399731" lon="7.560741">
        <ele>449.130009</ele>
        <time>2022-08-25T13:40:18.000Z</time>
      </trkpt>
      <trkpt lat="47.399675" lon="7.560853">
        <ele>449.531309</ele>
        <time>2022-08-25T13:40:20.000Z</time>
      </trkpt>
      <trkpt lat="47.399616" lon="7.560979">
        <ele>449.958141</ele>
        <time>2022-08-25T13:40:22.000Z</time>
      </trkpt>
      <trkpt lat="47.399580" lon="7.561141">
        <ele>450.433157</ele>
        <time>2022-08-25T13:40:24.000Z</time>
      </trkpt>
      <trkpt lat="47.399569" lon="7.561299">
        <ele>450.875653</ele>
        <time>2022-08-25T13:40:26.000Z</time>
      </trkpt>
      <trkpt lat="47.399560" lon="7.561458">
        <ele>451.320158</ele>
        <time>2022-08-25T13:40:28.000Z</time>
      </trkpt>
      <trkpt lat="47.399515" lon="7.561589">
        <ele>451.729419</ele>
        <time>2022-08-25T13:40:30.000Z</time>
      </trkpt>
      <trkpt lat="47.399449" lon="7.561690">
        <ele>452.120524</ele>
        <time>2022-08-25T13:40:32.000Z</time>
      </trkpt>
      <trkpt lat="47.399376" lon="7.561777">
        <ele>452.506552</ele>
        <time>2022-08-25T13:40:34.000Z</time>
      </trkpt>
      <trkpt lat="47.399299" lon="7.561862">
        <ele>452.902167</ele>
        <time>2022-08-25T13:40:36.000Z</time>
      </trkpt>
      <trkpt lat="47.399222" lon="7.561950">
        <ele>453.302842</ele>
        <time>2022-08-25T13:40:38.000Z</time>
      </trkpt>
      <trkpt lat="47.399145" lon="7.562044">
        <ele>453.713957</ele>
        <time>2022-08-25T13:40:40.000Z</time>
      </trkpt>
      <trkpt lat="47.399068" lon="7.562143">
        <ele>454.134083</ele>
        <time>2022-08-25T13:40:42.000Z</time>
      </trkpt>
      <trkpt lat="47.398991" lon="7.562247">
        <ele>454.563482</ele>
        <time>2022-08-25T13:40:44.000Z</time>
      </trkpt>
      <trkpt lat="47.398921" lon="7.562355">
        <ele>454.980057</ele>
        <time>2022-08-25T13:40:46.000Z</time>
      </trkpt>
      <trkpt lat="47.398856" lon="7.562462">
        <ele>455.380596</ele>
        <time>2022-08-25T13:40:48.000Z</time>
      </trkpt>
      <trkpt lat="47.398796" lon="7.562570">
        <ele>455.769843</ele>
        <time>2022-08-25T13:40:50.000Z</time>
      </trkpt>
      <trkpt lat="47.398742" lon="7.562681">
        <ele>456.150666</ele>
        <time>2022-08-25T13:40:52.000Z</time>
      </trkpt>
      <trkpt lat="47.398673" lon="7.562834">
        <ele>456.662857</ele>
        <time>2022-08-25T13:40:55.000Z</time>
      </trkpt>
      <trkpt lat="47.398621" lon="7.563009">
        <ele>457.119366</ele>
        <time>2022-08-25T13:40:58.000Z</time>
      </trkpt>
      <trkpt lat="47.398592" lon="7.563135">
        <ele>457.388973</ele>
        <time>2022-08-25T13:41:00.000Z</time>
      </trkpt>
      <trkpt lat="47.398565" lon="7.563269">
        <ele>457.672206</ele>
        <time>2022-08-25T13:41:02.000Z</time>
      </trkpt>
      <trkpt lat="47.398537" lon="7.563407">
        <ele>457.964059</ele>
        <time>2022-08-25T13:41:04.000Z</time>
      </trkpt>
      <trkpt lat="47.398509" lon="7.563552">
        <ele>458.269524</ele>
        <time>2022-08-25T13:41:06.000Z</time>
      </trkpt>
      <trkpt lat="47.398479" lon="7.563692">
        <ele>458.567013</ele>
        <time>2022-08-25T13:41:08.000Z</time>
      </trkpt>
      <trkpt lat="47.398449" lon="7.563828">
        <ele>458.856787</ele>
        <time>2022-08-25T13:41:10.000Z</time>
      </trkpt>
      <trkpt lat="47.398417" lon="7.563975">
        <ele>459.169606</ele>
        <time>2022-08-25T13:41:12.000Z</time>
      </trkpt>
      <trkpt lat="47.398388" lon="7.564105">
        <ele>459.446897</ele>
        <time>2022-08-25T13:41:14.000Z</time>
      </trkpt>
      <trkpt lat="47.398343" lon="7.564290">
        <ele>459.845141</ele>
        <time>2022-08-25T13:41:17.000Z</time>
      </trkpt>
      <trkpt lat="47.398311" lon="7.564426">
        <ele>460.136826</ele>
        <time>2022-08-25T13:41:19.000Z</time>
      </trkpt>
      <trkpt lat="47.398279" lon="7.564565">
        <ele>460.434258</ele>
        <time>2022-08-25T13:41:21.000Z</time>
      </trkpt>
      <trkpt lat="47.398248" lon="7.564694">
        <ele>460.711572</ele>
        <time>2022-08-25T13:41:23.000Z</time>
      </trkpt>
      <trkpt lat="47.398208" lon="7.564878">
        <ele>461.103078</ele>
        <time>2022-08-25T13:41:26.000Z</time>
      </trkpt>
      <trkpt lat="47.398188" lon="7.565022">
        <ele>461.400877</ele>
        <time>2022-08-25T13:41:28.000Z</time>
      </trkpt>
      <trkpt lat="47.398181" lon="7.565164">
        <ele>461.689309</ele>
        <time>2022-08-25T13:41:30.000Z</time>
      </trkpt>
      <trkpt lat="47.398174" lon="7.565356">
        <ele>462.078835</ele>
        <time>2022-08-25T13:41:33.000Z</time>
      </trkpt>
      <trkpt lat="47.398158" lon="7.565532">
        <ele>462.647376</ele>
        <time>2022-08-25T13:41:36.000Z</time>
      </trkpt>
      <trkpt lat="47.398088" lon="7.565640">
        <ele>463.406699</ele>
        <time>2022-08-25T13:41:38.000Z</time>
      </trkpt>
      <trkpt lat="47.398034" lon="7.565750">
        <ele>464.096736</ele>
        <time>2022-08-25T13:41:40.000Z</time>
      </trkpt>
      <trkpt lat="47.397984" lon="7.565867">
        <ele>464.799386</ele>
        <time>2022-08-25T13:41:42.000Z</time>
      </trkpt>
      <trkpt lat="47.397917" lon="7.566024">
        <ele>465.741883</ele>
        <time>2022-08-25T13:41:45.000Z</time>
      </trkpt>
      <trkpt lat="47.397848" lon="7.566161">
        <ele>466.609048</ele>
        <time>2022-08-25T13:41:48.000Z</time>
      </trkpt>
      <trkpt lat="47.397792" lon="7.566302">
        <ele>467.439226</ele>
        <time>2022-08-25T13:41:51.000Z</time>
      </trkpt>
      <trkpt lat="47.397724" lon="7.566436">
        <ele>468.289697</ele>
        <time>2022-08-25T13:41:54.000Z</time>
      </trkpt>
      <trkpt lat="47.397657" lon="7.566574">
        <ele>469.152113</ele>
        <time>2022-08-25T13:41:57.000Z</time>
      </trkpt>
      <trkpt lat="47.397599" lon="7.566709">
        <ele>469.964102</ele>
        <time>2022-08-25T13:42:00.000Z</time>
      </trkpt>
      <trkpt lat="47.397551" lon="7.566823">
        <ele>470.645879</ele>
        <time>2022-08-25T13:42:02.999Z</time>
      </trkpt>
      <trkpt lat="47.397491" lon="7.566954">
        <ele>471.449105</ele>
        <time>2022-08-25T13:42:06.999Z</time>
      </trkpt>
      <trkpt lat="47.397450" lon="7.567111">
        <ele>472.303664</ele>
        <time>2022-08-25T13:42:10.999Z</time>
      </trkpt>
      <trkpt lat="47.397453" lon="7.567260">
        <ele>473.060658</ele>
        <time>2022-08-25T13:42:16.000Z</time>
      </trkpt>
      <trkpt lat="47.397471" lon="7.567114">
        <ele>473.814279</ele>
        <time>2022-08-25T13:42:40.000Z</time>
      </trkpt>
      <trkpt lat="47.397404" lon="7.567007">
        <ele>474.554483</ele>
        <time>2022-08-25T13:42:44.000Z</time>
      </trkpt>
      <trkpt lat="47.397437" lon="7.567150">
        <ele>475.321713</ele>
        <time>2022-08-25T13:42:49.000Z</time>
      </trkpt>
      <trkpt lat="47.397458" lon="7.567291">
        <ele>476.516236</ele>
        <time>2022-08-25T13:42:53.000Z</time>
      </trkpt>
      <trkpt lat="47.397435" lon="7.567448">
        <ele>478.772645</ele>
        <time>2022-08-25T13:42:58.000Z</time>
      </trkpt>
      <trkpt lat="47.397368" lon="7.567566">
        <ele>480.936083</ele>
        <time>2022-08-25T13:43:03.000Z</time>
      </trkpt>
      <trkpt lat="47.397284" lon="7.567669">
        <ele>483.201427</ele>
        <time>2022-08-25T13:43:07.000Z</time>
      </trkpt>
      <trkpt lat="47.397214" lon="7.567776">
        <ele>485.291669</ele>
        <time>2022-08-25T13:43:12.000Z</time>
      </trkpt>
      <trkpt lat="47.397154" lon="7.567900">
        <ele>487.432735</ele>
        <time>2022-08-25T13:43:16.000Z</time>
      </trkpt>
      <trkpt lat="47.397112" lon="7.568046">
        <ele>489.661098</ele>
        <time>2022-08-25T13:43:22.000Z</time>
      </trkpt>
      <trkpt lat="47.397092" lon="7.568195">
        <ele>491.794843</ele>
        <time>2022-08-25T13:43:29.000Z</time>
      </trkpt>
      <trkpt lat="47.397074" lon="7.568333">
        <ele>493.768979</ele>
        <time>2022-08-25T13:43:34.000Z</time>
      </trkpt>
      <trkpt lat="47.397056" lon="7.568470">
        <ele>495.729324</ele>
        <time>2022-08-25T13:43:40.000Z</time>
      </trkpt>
      <trkpt lat="47.397035" lon="7.568623">
        <ele>497.922242</ele>
        <time>2022-08-25T13:43:46.000Z</time>
      </trkpt>
      <trkpt lat="47.397026" lon="7.568761">
        <ele>499.869697</ele>
        <time>2022-08-25T13:43:52.000Z</time>
      </trkpt>
      <trkpt lat="47.397024" lon="7.568909">
        <ele>501.949059</ele>
        <time>2022-08-25T13:43:59.000Z</time>
      </trkpt>
      <trkpt lat="47.396999" lon="7.569051">
        <ele>504.010087</ele>
        <time>2022-08-25T13:44:05.000Z</time>
      </trkpt>
      <trkpt lat="47.396967" lon="7.569198">
        <ele>506.179138</ele>
        <time>2022-08-25T13:44:10.999Z</time>
      </trkpt>
      <trkpt lat="47.396931" lon="7.569328">
        <ele>508.152143</ele>
        <time>2022-08-25T13:44:16.999Z</time>
      </trkpt>
      <trkpt lat="47.396901" lon="7.569472">
        <ele>510.268540</ele>
        <time>2022-08-25T13:44:24.000Z</time>
      </trkpt>
      <trkpt lat="47.396854" lon="7.569606">
        <ele>512.388513</ele>
        <time>2022-08-25T13:44:30.000Z</time>
      </trkpt>
      <trkpt lat="47.396815" lon="7.569727">
        <ele>513.956771</ele>
        <time>2022-08-25T13:44:37.000Z</time>
      </trkpt>
      <trkpt lat="47.396729" lon="7.569920">
        <ele>516.317794</ele>
        <time>2022-08-25T13:45:07.000Z</time>
      </trkpt>
      <trkpt lat="47.396687" lon="7.570038">
        <ele>517.680056</ele>
        <time>2022-08-25T13:45:12.000Z</time>
      </trkpt>
      <trkpt lat="47.396632" lon="7.570150">
        <ele>519.093917</ele>
        <time>2022-08-25T13:45:17.000Z</time>
      </trkpt>
      <trkpt lat="47.396567" lon="7.570271">
        <ele>520.672332</ele>
        <time>2022-08-25T13:45:24.000Z</time>
      </trkpt>
      <trkpt lat="47.396497" lon="7.570373">
        <ele>522.156519</ele>
        <time>2022-08-25T13:45:30.000Z</time>
      </trkpt>
      <trkpt lat="47.396413" lon="7.570463">
        <ele>523.722891</ele>
        <time>2022-08-25T13:45:36.000Z</time>
      </trkpt>
      <trkpt lat="47.396342" lon="7.570579">
        <ele>525.320893</ele>
        <time>2022-08-25T13:45:42.000Z</time>
      </trkpt>
      <trkpt lat="47.396282" lon="7.570714">
        <ele>526.971107</ele>
        <time>2022-08-25T13:45:48.000Z</time>
      </trkpt>
      <trkpt lat="47.396254" lon="7.570858">
        <ele>528.502031</ele>
        <time>2022-08-25T13:45:54.000Z</time>
      </trkpt>
      <trkpt lat="47.396222" lon="7.571010">
        <ele>530.128582</ele>
        <time>2022-08-25T13:45:59.000Z</time>
      </trkpt>
      <trkpt lat="47.396197" lon="7.571157">
        <ele>531.677342</ele>
        <time>2022-08-25T13:46:05.000Z</time>
      </trkpt>
      <trkpt lat="47.396161" lon="7.571279">
        <ele>533.037262</ele>
        <time>2022-08-25T13:46:10.001Z</time>
      </trkpt>
      <trkpt lat="47.396147" lon="7.571412">
        <ele>534.412621</ele>
        <time>2022-08-25T13:46:16.000Z</time>
      </trkpt>
      <trkpt lat="47.396157" lon="7.571559">
        <ele>535.922268</ele>
        <time>2022-08-25T13:46:22.000Z</time>
      </trkpt>
      <trkpt lat="47.396166" lon="7.571701">
        <ele>537.379604</ele>
        <time>2022-08-25T13:46:28.000Z</time>
      </trkpt>
      <trkpt lat="47.396171" lon="7.571848">
        <ele>538.883580</ele>
        <time>2022-08-25T13:46:34.000Z</time>
      </trkpt>
      <trkpt lat="47.396077" lon="7.571885">
        <ele>540.315304</ele>
        <time>2022-08-25T13:46:40.000Z</time>
      </trkpt>
      <trkpt lat="47.395991" lon="7.571925">
        <ele>541.076245</ele>
        <time>2022-08-25T13:46:46.000Z</time>
      </trkpt>
      <trkpt lat="47.395996" lon="7.572076">
        <ele>541.939951</ele>
        <time>2022-08-25T13:46:51.000Z</time>
      </trkpt>
      <trkpt lat="47.396016" lon="7.572222">
        <ele>542.790968</ele>
        <time>2022-08-25T13:46:56.000Z</time>
      </trkpt>
      <trkpt lat="47.396022" lon="7.572375">
        <ele>543.666533</ele>
        <time>2022-08-25T13:47:01.000Z</time>
      </trkpt>
      <trkpt lat="47.396017" lon="7.572523">
        <ele>544.513120</ele>
        <time>2022-08-25T13:47:06.000Z</time>
      </trkpt>
      <trkpt lat="47.396035" lon="7.572669">
        <ele>545.360950</ele>
        <time>2022-08-25T13:47:10.000Z</time>
      </trkpt>
      <trkpt lat="47.396048" lon="7.572834">
        <ele>546.309970</ele>
        <time>2022-08-25T13:47:14.000Z</time>
      </trkpt>
      <trkpt lat="47.396067" lon="7.572965">
        <ele>547.075368</ele>
        <time>2022-08-25T13:47:17.000Z</time>
      </trkpt>
      <trkpt lat="47.396096" lon="7.573105">
        <ele>547.911807</ele>
        <time>2022-08-25T13:47:20.000Z</time>
      </trkpt>
      <trkpt lat="47.396144" lon="7.573243">
        <ele>548.798199</ele>
        <time>2022-08-25T13:47:23.000Z</time>
      </trkpt>
      <trkpt lat="47.396211" lon="7.573374">
        <ele>549.736210</ele>
        <time>2022-08-25T13:47:26.000Z</time>
      </trkpt>
      <trkpt lat="47.396289" lon="7.573477">
        <ele>550.619172</ele>
        <time>2022-08-25T13:47:29.000Z</time>
      </trkpt>
      <trkpt lat="47.396367" lon="7.573571">
        <ele>551.468732</ele>
        <time>2022-08-25T13:47:32.000Z</time>
      </trkpt>
      <trkpt lat="47.396427" lon="7.573672">
        <ele>552.236438</ele>
        <time>2022-08-25T13:47:35.000Z</time>
      </trkpt>
      <trkpt lat="47.396467" lon="7.573815">
        <ele>553.120403</ele>
        <time>2022-08-25T13:47:39.000Z</time>
      </trkpt>
      <trkpt lat="47.396387" lon="7.573904">
        <ele>553.965622</ele>
        <time>2022-08-25T13:47:42.000Z</time>
      </trkpt>
      <trkpt lat="47.396358" lon="7.574048">
        <ele>554.823935</ele>
        <time>2022-08-25T13:47:46.000Z</time>
      </trkpt>
      <trkpt lat="47.396330" lon="7.574194">
        <ele>555.681175</ele>
        <time>2022-08-25T13:47:50.000Z</time>
      </trkpt>
      <trkpt lat="47.396303" lon="7.574350">
        <ele>556.564249</ele>
        <time>2022-08-25T13:47:54.000Z</time>
      </trkpt>
      <trkpt lat="47.396275" lon="7.574499">
        <ele>557.412315</ele>
        <time>2022-08-25T13:47:58.000Z</time>
      </trkpt>
      <trkpt lat="47.396245" lon="7.574658">
        <ele>558.317560</ele>
        <time>2022-08-25T13:48:02.001Z</time>
      </trkpt>
      <trkpt lat="47.396215" lon="7.574806">
        <ele>559.164848</ele>
        <time>2022-08-25T13:48:06.001Z</time>
      </trkpt>
      <trkpt lat="47.396182" lon="7.574940">
        <ele>559.946870</ele>
        <time>2022-08-25T13:48:10.001Z</time>
      </trkpt>
      <trkpt lat="47.396131" lon="7.575085">
        <ele>560.843036</ele>
        <time>2022-08-25T13:48:15.001Z</time>
      </trkpt>
      <trkpt lat="47.396080" lon="7.575218">
        <ele>561.681353</ele>
        <time>2022-08-25T13:48:20.001Z</time>
      </trkpt>
      <trkpt lat="47.396027" lon="7.575338">
        <ele>562.467166</ele>
        <time>2022-08-25T13:48:24.000Z</time>
      </trkpt>
      <trkpt lat="47.395969" lon="7.575465">
        <ele>563.307368</ele>
        <time>2022-08-25T13:48:28.000Z</time>
      </trkpt>
      <trkpt lat="47.395915" lon="7.575588">
        <ele>564.111392</ele>
        <time>2022-08-25T13:48:32.000Z</time>
      </trkpt>
      <trkpt lat="47.395866" lon="7.575700">
        <ele>564.842761</ele>
        <time>2022-08-25T13:48:36.000Z</time>
      </trkpt>
      <trkpt lat="47.395813" lon="7.575823">
        <ele>565.642407</ele>
        <time>2022-08-25T13:48:41.000Z</time>
      </trkpt>
      <trkpt lat="47.395756" lon="7.575958">
        <ele>566.515011</ele>
        <time>2022-08-25T13:48:45.000Z</time>
      </trkpt>
      <trkpt lat="47.395709" lon="7.576078">
        <ele>567.275356</ele>
        <time>2022-08-25T13:48:49.000Z</time>
      </trkpt>
      <trkpt lat="47.395659" lon="7.576205">
        <ele>568.081105</ele>
        <time>2022-08-25T13:48:53.000Z</time>
      </trkpt>
      <trkpt lat="47.395611" lon="7.576330">
        <ele>568.869273</ele>
        <time>2022-08-25T13:48:57.000Z</time>
      </trkpt>
      <trkpt lat="47.395563" lon="7.576458">
        <ele>569.671793</ele>
        <time>2022-08-25T13:49:02.000Z</time>
      </trkpt>
      <trkpt lat="47.395673" lon="7.576571">
        <ele>570.621725</ele>
        <time>2022-08-25T13:49:06.000Z</time>
      </trkpt>
      <trkpt lat="47.395756" lon="7.576665">
        <ele>571.313029</ele>
        <time>2022-08-25T13:49:09.000Z</time>
      </trkpt>
      <trkpt lat="47.395861" lon="7.576784">
        <ele>572.187799</ele>
        <time>2022-08-25T13:49:12.000Z</time>
      </trkpt>
      <trkpt lat="47.395930" lon="7.576913">
        <ele>572.923454</ele>
        <time>2022-08-25T13:49:14.000Z</time>
      </trkpt>
      <trkpt lat="47.395977" lon="7.577086">
        <ele>573.757555</ele>
        <time>2022-08-25T13:49:16.000Z</time>
      </trkpt>
      <trkpt lat="47.396025" lon="7.577275">
        <ele>574.660791</ele>
        <time>2022-08-25T13:49:18.000Z</time>
      </trkpt>
      <trkpt lat="47.396065" lon="7.577441">
        <ele>575.449211</ele>
        <time>2022-08-25T13:49:20.000Z</time>
      </trkpt>
      <trkpt lat="47.396106" lon="7.577597">
        <ele>576.197993</ele>
        <time>2022-08-25T13:49:23.000Z</time>
      </trkpt>
      <trkpt lat="47.396148" lon="7.577742">
        <ele>576.903693</ele>
        <time>2022-08-25T13:49:27.000Z</time>
      </trkpt>
      <trkpt lat="47.396213" lon="7.577843">
        <ele>577.527256</ele>
        <time>2022-08-25T13:49:30.000Z</time>
      </trkpt>
      <trkpt lat="47.396277" lon="7.577942">
        <ele>578.139781</ele>
        <time>2022-08-25T13:49:33.000Z</time>
      </trkpt>
      <trkpt lat="47.396350" lon="7.578025">
        <ele>578.748679</ele>
        <time>2022-08-25T13:49:36.000Z</time>
      </trkpt>
      <trkpt lat="47.396431" lon="7.578091">
        <ele>579.360131</ele>
        <time>2022-08-25T13:49:39.000Z</time>
      </trkpt>
      <trkpt lat="47.396527" lon="7.578185">
        <ele>580.121424</ele>
        <time>2022-08-25T13:49:43.000Z</time>
      </trkpt>
      <trkpt lat="47.396564" lon="7.578306">
        <ele>580.715508</ele>
        <time>2022-08-25T13:50:00.000Z</time>
      </trkpt>
      <trkpt lat="47.396321" lon="7.578354">
        <ele>582.357653</ele>
        <time>2022-08-25T13:50:01.000Z</time>
      </trkpt>
      <trkpt lat="47.396344" lon="7.578513">
        <ele>583.122084</ele>
        <time>2022-08-25T13:50:04.000Z</time>
      </trkpt>
      <trkpt lat="47.396324" lon="7.578656">
        <ele>583.808611</ele>
        <time>2022-08-25T13:50:08.000Z</time>
      </trkpt>
      <trkpt lat="47.396271" lon="7.578793">
        <ele>584.550497</ele>
        <time>2022-08-25T13:50:12.000Z</time>
      </trkpt>
      <trkpt lat="47.396377" lon="7.578944">
        <ele>585.573260</ele>
        <time>2022-08-25T13:50:17.000Z</time>
      </trkpt>
      <trkpt lat="47.396487" lon="7.578990">
        <ele>586.367289</ele>
        <time>2022-08-25T13:50:21.000Z</time>
      </trkpt>
      <trkpt lat="47.396366" lon="7.579283">
        <ele>587.980970</ele>
        <time>2022-08-25T13:50:46.000Z</time>
      </trkpt>
      <trkpt lat="47.396278" lon="7.579368">
        <ele>588.711231</ele>
        <time>2022-08-25T13:50:49.000Z</time>
      </trkpt>
      <trkpt lat="47.396191" lon="7.579455">
        <ele>589.440919</ele>
        <time>2022-08-25T13:50:52.000Z</time>
      </trkpt>
      <trkpt lat="47.396103" lon="7.579541">
        <ele>590.173764</ele>
        <time>2022-08-25T13:50:55.000Z</time>
      </trkpt>
      <trkpt lat="47.396015" lon="7.579636">
        <ele>590.930780</ele>
        <time>2022-08-25T13:50:58.000Z</time>
      </trkpt>
      <trkpt lat="47.395941" lon="7.579747">
        <ele>591.663257</ele>
        <time>2022-08-25T13:51:01.000Z</time>
      </trkpt>
      <trkpt lat="47.395847" lon="7.579822">
        <ele>592.405277</ele>
        <time>2022-08-25T13:51:04.000Z</time>
      </trkpt>
      <trkpt lat="47.395763" lon="7.579914">
        <ele>593.131558</ele>
        <time>2022-08-25T13:51:07.000Z</time>
      </trkpt>
      <trkpt lat="47.395681" lon="7.580012">
        <ele>593.864135</ele>
        <time>2022-08-25T13:51:10.000Z</time>
      </trkpt>
      <trkpt lat="47.395592" lon="7.580100">
        <ele>594.668167</ele>
        <time>2022-08-25T13:51:13.000Z</time>
      </trkpt>
      <trkpt lat="47.395483" lon="7.580205">
        <ele>595.836851</ele>
        <time>2022-08-25T13:51:16.000Z</time>
      </trkpt>
      <trkpt lat="47.395368" lon="7.580288">
        <ele>596.986354</ele>
        <time>2022-08-25T13:51:19.000Z</time>
      </trkpt>
      <trkpt lat="47.395249" lon="7.580370">
        <ele>598.165659</ele>
        <time>2022-08-25T13:51:22.000Z</time>
      </trkpt>
      <trkpt lat="47.395137" lon="7.580457">
        <ele>599.302129</ele>
        <time>2022-08-25T13:51:25.000Z</time>
      </trkpt>
      <trkpt lat="47.395024" lon="7.580524">
        <ele>600.395688</ele>
        <time>2022-08-25T13:51:28.000Z</time>
      </trkpt>
      <trkpt lat="47.394910" lon="7.580571">
        <ele>601.458659</ele>
        <time>2022-08-25T13:51:31.000Z</time>
      </trkpt>
      <trkpt lat="47.394804" lon="7.580628">
        <ele>602.471767</ele>
        <time>2022-08-25T13:51:35.000Z</time>
      </trkpt>
      <trkpt lat="47.394764" lon="7.580757">
        <ele>603.334408</ele>
        <time>2022-08-25T13:51:38.000Z</time>
      </trkpt>
      <trkpt lat="47.394727" lon="7.580902">
        <ele>604.276514</ele>
        <time>2022-08-25T13:51:41.000Z</time>
      </trkpt>
      <trkpt lat="47.394694" lon="7.581055">
        <ele>605.252782</ele>
        <time>2022-08-25T13:51:44.000Z</time>
      </trkpt>
      <trkpt lat="47.394668" lon="7.581192">
        <ele>606.117814</ele>
        <time>2022-08-25T13:51:47.000Z</time>
      </trkpt>
      <trkpt lat="47.394642" lon="7.581358">
        <ele>607.153706</ele>
        <time>2022-08-25T13:51:51.000Z</time>
      </trkpt>
      <trkpt lat="47.394618" lon="7.581526">
        <ele>608.197592</ele>
        <time>2022-08-25T13:51:55.000Z</time>
      </trkpt>
      <trkpt lat="47.394601" lon="7.581664">
        <ele>609.050371</ele>
        <time>2022-08-25T13:51:58.000Z</time>
      </trkpt>
      <trkpt lat="47.394573" lon="7.581806">
        <ele>609.949569</ele>
        <time>2022-08-25T13:52:01.000Z</time>
      </trkpt>
      <trkpt lat="47.394539" lon="7.581951">
        <ele>610.740330</ele>
        <time>2022-08-25T13:52:05.000Z</time>
      </trkpt>
      <trkpt lat="47.394479" lon="7.582104">
        <ele>611.346678</ele>
        <time>2022-08-25T13:52:09.000Z</time>
      </trkpt>
      <trkpt lat="47.394409" lon="7.582220">
        <ele>611.879572</ele>
        <time>2022-08-25T13:52:13.000Z</time>
      </trkpt>
      <trkpt lat="47.394346" lon="7.582325">
        <ele>612.360715</ele>
        <time>2022-08-25T13:52:17.000Z</time>
      </trkpt>
      <trkpt lat="47.394364" lon="7.582514">
        <ele>613.015219</ele>
        <time>2022-08-25T13:52:20.000Z</time>
      </trkpt>
      <trkpt lat="47.394360" lon="7.582671">
        <ele>613.553987</ele>
        <time>2022-08-25T13:52:23.000Z</time>
      </trkpt>
      <trkpt lat="47.394307" lon="7.582807">
        <ele>614.092120</ele>
        <time>2022-08-25T13:52:26.000Z</time>
      </trkpt>
      <trkpt lat="47.394282" lon="7.582939">
        <ele>614.562160</ele>
        <time>2022-08-25T13:52:29.000Z</time>
      </trkpt>
      <trkpt lat="47.394250" lon="7.583108">
        <ele>615.163942</ele>
        <time>2022-08-25T13:52:33.000Z</time>
      </trkpt>
      <trkpt lat="47.394220" lon="7.583261">
        <ele>615.710179</ele>
        <time>2022-08-25T13:52:38.000Z</time>
      </trkpt>
      <trkpt lat="47.394224" lon="7.583419">
        <ele>616.252376</ele>
        <time>2022-08-25T13:52:42.000Z</time>
      </trkpt>
      <trkpt lat="47.394204" lon="7.583593">
        <ele>616.857601</ele>
        <time>2022-08-25T13:52:46.000Z</time>
      </trkpt>
      <trkpt lat="47.394202" lon="7.583750">
        <ele>617.396085</ele>
        <time>2022-08-25T13:52:49.000Z</time>
      </trkpt>
      <trkpt lat="47.394239" lon="7.583547">
        <ele>618.117009</ele>
        <time>2022-08-25T13:53:16.000Z</time>
      </trkpt>
      <trkpt lat="47.394203" lon="7.583405">
        <ele>618.636987</ele>
        <time>2022-08-25T13:53:19.000Z</time>
      </trkpt>
      <trkpt lat="47.394125" lon="7.583474">
        <ele>619.097542</ele>
        <time>2022-08-25T13:53:22.000Z</time>
      </trkpt>
      <trkpt lat="47.394093" lon="7.583599">
        <ele>619.555823</ele>
        <time>2022-08-25T13:53:25.000Z</time>
      </trkpt>
      <trkpt lat="47.394067" lon="7.583754">
        <ele>619.713513</ele>
        <time>2022-08-25T13:53:28.000Z</time>
      </trkpt>
      <trkpt lat="47.394040" lon="7.583933">
        <ele>619.779562</ele>
        <time>2022-08-25T13:53:31.000Z</time>
      </trkpt>
      <trkpt lat="47.394038" lon="7.584129">
        <ele>619.850161</ele>
        <time>2022-08-25T13:53:34.000Z</time>
      </trkpt>
      <trkpt lat="47.394048" lon="7.584316">
        <ele>619.917720</ele>
        <time>2022-08-25T13:53:37.000Z</time>
      </trkpt>
      <trkpt lat="47.394056" lon="7.584479">
        <ele>619.976580</ele>
        <time>2022-08-25T13:53:40.000Z</time>
      </trkpt>
      <trkpt lat="47.394037" lon="7.584642">
        <ele>620.036150</ele>
        <time>2022-08-25T13:53:43.000Z</time>
      </trkpt>
      <trkpt lat="47.394009" lon="7.584837">
        <ele>620.107943</ele>
        <time>2022-08-25T13:53:46.000Z</time>
      </trkpt>
      <trkpt lat="47.393980" lon="7.584972">
        <ele>620.158953</ele>
        <time>2022-08-25T13:53:48.000Z</time>
      </trkpt>
      <trkpt lat="47.393950" lon="7.585105">
        <ele>620.209444</ele>
        <time>2022-08-25T13:53:50.000Z</time>
      </trkpt>
      <trkpt lat="47.393905" lon="7.585286">
        <ele>620.278890</ele>
        <time>2022-08-25T13:53:53.000Z</time>
      </trkpt>
      <trkpt lat="47.393822" lon="7.585417">
        <ele>620.343511</ele>
        <time>2022-08-25T13:53:56.000Z</time>
      </trkpt>
      <trkpt lat="47.393782" lon="7.585561">
        <ele>620.399571</ele>
        <time>2022-08-25T13:53:59.000Z</time>
      </trkpt>
      <trkpt lat="47.393737" lon="7.585707">
        <ele>620.457348</ele>
        <time>2022-08-25T13:54:03.000Z</time>
      </trkpt>
      <trkpt lat="47.393699" lon="7.585830">
        <ele>620.506043</ele>
        <time>2022-08-25T13:54:08.000Z</time>
      </trkpt>
      <trkpt lat="47.393650" lon="7.585942">
        <ele>620.554071</ele>
        <time>2022-08-25T13:54:17.000Z</time>
      </trkpt>
      <trkpt lat="47.393597" lon="7.586100">
        <ele>620.617580</ele>
        <time>2022-08-25T13:54:22.000Z</time>
      </trkpt>
      <trkpt lat="47.393454" lon="7.586057">
        <ele>619.143486</ele>
        <time>2022-08-25T13:54:23.000Z</time>
      </trkpt>
      <trkpt lat="47.393452" lon="7.586197">
        <ele>618.084414</ele>
        <time>2022-08-25T13:54:26.000Z</time>
      </trkpt>
      <trkpt lat="47.393489" lon="7.586466">
        <ele>616.008367</ele>
        <time>2022-08-25T13:56:15.000Z</time>
      </trkpt>
      <trkpt lat="47.393515" lon="7.586599">
        <ele>614.961372</ele>
        <time>2022-08-25T13:56:18.000Z</time>
      </trkpt>
      <trkpt lat="47.393534" lon="7.586741">
        <ele>613.866634</ele>
        <time>2022-08-25T13:56:22.000Z</time>
      </trkpt>
      <trkpt lat="47.393546" lon="7.586907">
        <ele>612.604021</ele>
        <time>2022-08-25T13:56:27.000Z</time>
      </trkpt>
      <trkpt lat="47.393596" lon="7.587029">
        <ele>611.525404</ele>
        <time>2022-08-25T13:56:30.000Z</time>
      </trkpt>
      <trkpt lat="47.393640" lon="7.587152">
        <ele>610.473248</ele>
        <time>2022-08-25T13:56:33.000Z</time>
      </trkpt>
      <trkpt lat="47.393613" lon="7.587306">
        <ele>609.270104</ele>
        <time>2022-08-25T13:56:36.000Z</time>
      </trkpt>
      <trkpt lat="47.393594" lon="7.587471">
        <ele>608.004269</ele>
        <time>2022-08-25T13:56:39.000Z</time>
      </trkpt>
      <trkpt lat="47.393565" lon="7.587631">
        <ele>606.751551</ele>
        <time>2022-08-25T13:56:42.000Z</time>
      </trkpt>
      <trkpt lat="47.393519" lon="7.587795">
        <ele>605.408949</ele>
        <time>2022-08-25T13:56:45.000Z</time>
      </trkpt>
      <trkpt lat="47.393469" lon="7.587973">
        <ele>603.951421</ele>
        <time>2022-08-25T13:56:48.000Z</time>
      </trkpt>
      <trkpt lat="47.393463" lon="7.588182">
        <ele>602.369310</ele>
        <time>2022-08-25T13:56:51.000Z</time>
      </trkpt>
      <trkpt lat="47.393479" lon="7.588326">
        <ele>601.265649</ele>
        <time>2022-08-25T13:56:53.000Z</time>
      </trkpt>
      <trkpt lat="47.393472" lon="7.588499">
        <ele>600.137548</ele>
        <time>2022-08-25T13:56:55.000Z</time>
      </trkpt>
      <trkpt lat="47.393469" lon="7.588645">
        <ele>599.383726</ele>
        <time>2022-08-25T13:56:57.000Z</time>
      </trkpt>
      <trkpt lat="47.393461" lon="7.588791">
        <ele>598.627786</ele>
        <time>2022-08-25T13:57:00.000Z</time>
      </trkpt>
      <trkpt lat="47.393358" lon="7.588908">
        <ele>597.637252</ele>
        <time>2022-08-25T13:57:03.000Z</time>
      </trkpt>
      <trkpt lat="47.393278" lon="7.589014">
        <ele>596.817978</ele>
        <time>2022-08-25T13:57:05.000Z</time>
      </trkpt>
      <trkpt lat="47.393172" lon="7.589120">
        <ele>595.842137</ele>
        <time>2022-08-25T13:57:07.000Z</time>
      </trkpt>
      <trkpt lat="47.393037" lon="7.589208">
        <ele>594.717217</ele>
        <time>2022-08-25T13:57:09.000Z</time>
      </trkpt>
      <trkpt lat="47.392900" lon="7.589308">
        <ele>593.552251</ele>
        <time>2022-08-25T13:57:11.000Z</time>
      </trkpt>
      <trkpt lat="47.392765" lon="7.589440">
        <ele>592.318043</ele>
        <time>2022-08-25T13:57:13.000Z</time>
      </trkpt>
      <trkpt lat="47.392731" lon="7.589564">
        <ele>591.627598</ele>
        <time>2022-08-25T13:57:14.000Z</time>
      </trkpt>
      <trkpt lat="47.392669" lon="7.589800">
        <ele>590.321137</ele>
        <time>2022-08-25T13:57:16.000Z</time>
      </trkpt>
      <trkpt lat="47.392670" lon="7.589936">
        <ele>589.619218</ele>
        <time>2022-08-25T13:57:17.000Z</time>
      </trkpt>
      <trkpt lat="47.392675" lon="7.590194">
        <ele>588.287169</ele>
        <time>2022-08-25T13:57:19.000Z</time>
      </trkpt>
      <trkpt lat="47.392674" lon="7.590454">
        <ele>586.945322</ele>
        <time>2022-08-25T13:57:21.000Z</time>
      </trkpt>
      <trkpt lat="47.392621" lon="7.590685">
        <ele>586.367616</ele>
        <time>2022-08-25T13:57:23.000Z</time>
      </trkpt>
      <trkpt lat="47.392578" lon="7.590814">
        <ele>586.072217</ele>
        <time>2022-08-25T13:57:24.000Z</time>
      </trkpt>
      <trkpt lat="47.392536" lon="7.590943">
        <ele>585.778146</ele>
        <time>2022-08-25T13:57:25.000Z</time>
      </trkpt>
      <trkpt lat="47.392495" lon="7.591075">
        <ele>585.479787</ele>
        <time>2022-08-25T13:57:26.000Z</time>
      </trkpt>
      <trkpt lat="47.392452" lon="7.591210">
        <ele>585.173280</ele>
        <time>2022-08-25T13:57:27.000Z</time>
      </trkpt>
      <trkpt lat="47.392414" lon="7.591357">
        <ele>584.850018</ele>
        <time>2022-08-25T13:57:28.000Z</time>
      </trkpt>
      <trkpt lat="47.392409" lon="7.591517">
        <ele>584.520966</ele>
        <time>2022-08-25T13:57:29.000Z</time>
      </trkpt>
      <trkpt lat="47.392392" lon="7.591669">
        <ele>584.204467</ele>
        <time>2022-08-25T13:57:30.000Z</time>
      </trkpt>
      <trkpt lat="47.392380" lon="7.591823">
        <ele>583.886002</ele>
        <time>2022-08-25T13:57:31.000Z</time>
      </trkpt>
      <trkpt lat="47.392367" lon="7.591971">
        <ele>583.579404</ele>
        <time>2022-08-25T13:57:32.000Z</time>
      </trkpt>
      <trkpt lat="47.392345" lon="7.592113">
        <ele>583.280139</ele>
        <time>2022-08-25T13:57:33.000Z</time>
      </trkpt>
      <trkpt lat="47.392288" lon="7.592229">
        <ele>582.985671</ele>
        <time>2022-08-25T13:57:34.000Z</time>
      </trkpt>
      <trkpt lat="47.392250" lon="7.592357">
        <ele>582.698535</ele>
        <time>2022-08-25T13:57:35.000Z</time>
      </trkpt>
      <trkpt lat="47.392194" lon="7.592599">
        <ele>582.173129</ele>
        <time>2022-08-25T13:57:37.000Z</time>
      </trkpt>
      <trkpt lat="47.392158" lon="7.592831">
        <ele>581.684149</ele>
        <time>2022-08-25T13:57:39.000Z</time>
      </trkpt>
      <trkpt lat="47.392144" lon="7.593041">
        <ele>581.414025</ele>
        <time>2022-08-25T13:57:41.000Z</time>
      </trkpt>
      <trkpt lat="47.392119" lon="7.593222">
        <ele>581.602846</ele>
        <time>2022-08-25T13:57:43.000Z</time>
      </trkpt>
      <trkpt lat="47.392107" lon="7.593386">
        <ele>581.771455</ele>
        <time>2022-08-25T13:57:45.000Z</time>
      </trkpt>
      <trkpt lat="47.392103" lon="7.593531">
        <ele>581.919790</ele>
        <time>2022-08-25T13:57:47.000Z</time>
      </trkpt>
      <trkpt lat="47.392096" lon="7.593674">
        <ele>582.066340</ele>
        <time>2022-08-25T13:57:49.000Z</time>
      </trkpt>
      <trkpt lat="47.392093" lon="7.593822">
        <ele>582.217687</ele>
        <time>2022-08-25T13:57:51.000Z</time>
      </trkpt>
      <trkpt lat="47.392098" lon="7.593963">
        <ele>582.362008</ele>
        <time>2022-08-25T13:57:53.000Z</time>
      </trkpt>
      <trkpt lat="47.392099" lon="7.594098">
        <ele>582.500007</ele>
        <time>2022-08-25T13:57:55.000Z</time>
      </trkpt>
      <trkpt lat="47.392110" lon="7.594265">
        <ele>582.671513</ele>
        <time>2022-08-25T13:57:58.000Z</time>
      </trkpt>
      <trkpt lat="47.392063" lon="7.594398">
        <ele>582.824866</ele>
        <time>2022-08-25T13:58:01.000Z</time>
      </trkpt>
      <trkpt lat="47.392103" lon="7.594258">
        <ele>582.980191</ele>
        <time>2022-08-25T13:58:07.000Z</time>
      </trkpt>
      <trkpt lat="47.392090" lon="7.594123">
        <ele>583.119571</ele>
        <time>2022-08-25T13:58:10.000Z</time>
      </trkpt>
      <trkpt lat="47.392086" lon="7.593981">
        <ele>583.264842</ele>
        <time>2022-08-25T13:58:13.000Z</time>
      </trkpt>
      <trkpt lat="47.392091" lon="7.593839">
        <ele>583.410184</ele>
        <time>2022-08-25T13:58:17.000Z</time>
      </trkpt>
      <trkpt lat="47.392089" lon="7.593987">
        <ele>583.561493</ele>
        <time>2022-08-25T13:58:39.001Z</time>
      </trkpt>
      <trkpt lat="47.392096" lon="7.594126">
        <ele>583.703965</ele>
        <time>2022-08-25T13:58:41.001Z</time>
      </trkpt>
      <trkpt lat="47.392113" lon="7.594314">
        <ele>583.897837</ele>
        <time>2022-08-25T13:58:44.001Z</time>
      </trkpt>
      <trkpt lat="47.392140" lon="7.594445">
        <ele>584.037807</ele>
        <time>2022-08-25T13:58:46.001Z</time>
      </trkpt>
      <trkpt lat="47.392153" lon="7.594585">
        <ele>584.150951</ele>
        <time>2022-08-25T13:58:48.001Z</time>
      </trkpt>
      <trkpt lat="47.392179" lon="7.594726">
        <ele>584.256542</ele>
        <time>2022-08-25T13:58:50.001Z</time>
      </trkpt>
      <trkpt lat="47.392200" lon="7.594871">
        <ele>584.363682</ele>
        <time>2022-08-25T13:58:52.000Z</time>
      </trkpt>
      <trkpt lat="47.392216" lon="7.595007">
        <ele>584.463421</ele>
        <time>2022-08-25T13:58:54.000Z</time>
      </trkpt>
      <trkpt lat="47.392234" lon="7.595146">
        <ele>584.565676</ele>
        <time>2022-08-25T13:58:56.000Z</time>
      </trkpt>
      <trkpt lat="47.392251" lon="7.595296">
        <ele>584.675566</ele>
        <time>2022-08-25T13:58:58.000Z</time>
      </trkpt>
      <trkpt lat="47.392267" lon="7.595443">
        <ele>584.783144</ele>
        <time>2022-08-25T13:59:00.000Z</time>
      </trkpt>
      <trkpt lat="47.392264" lon="7.595581">
        <ele>584.882907</ele>
        <time>2022-08-25T13:59:02.000Z</time>
      </trkpt>
      <trkpt lat="47.392255" lon="7.595751">
        <ele>585.006114</ele>
        <time>2022-08-25T13:59:05.000Z</time>
      </trkpt>
      <trkpt lat="47.392227" lon="7.595896">
        <ele>585.115062</ele>
        <time>2022-08-25T13:59:08.000Z</time>
      </trkpt>
      <trkpt lat="47.392213" lon="7.596051">
        <ele>585.228049</ele>
        <time>2022-08-25T13:59:11.000Z</time>
      </trkpt>
      <trkpt lat="47.392134" lon="7.596124">
        <ele>585.327506</ele>
        <time>2022-08-25T13:59:16.000Z</time>
      </trkpt>
      <trkpt lat="47.392117" lon="7.596301">
        <ele>585.456677</ele>
        <time>2022-08-25T13:59:21.000Z</time>
      </trkpt>
      <trkpt lat="47.392080" lon="7.596431">
        <ele>585.558572</ele>
        <time>2022-08-25T13:59:24.000Z</time>
      </trkpt>
      <trkpt lat="47.392131" lon="7.596561">
        <ele>585.667135</ele>
        <time>2022-08-25T13:59:33.000Z</time>
      </trkpt>
      <trkpt lat="47.392109" lon="7.596722">
        <ele>585.785812</ele>
        <time>2022-08-25T13:59:36.000Z</time>
      </trkpt>
      <trkpt lat="47.392077" lon="7.596905">
        <ele>585.922378</ele>
        <time>2022-08-25T13:59:39.000Z</time>
      </trkpt>
      <trkpt lat="47.392038" lon="7.597088">
        <ele>586.089616</ele>
        <time>2022-08-25T13:59:42.000Z</time>
      </trkpt>
      <trkpt lat="47.391998" lon="7.597245">
        <ele>586.263526</ele>
        <time>2022-08-25T13:59:45.000Z</time>
      </trkpt>
      <trkpt lat="47.391964" lon="7.597386">
        <ele>586.418699</ele>
        <time>2022-08-25T13:59:48.000Z</time>
      </trkpt>
      <trkpt lat="47.391933" lon="7.597537">
        <ele>586.582284</ele>
        <time>2022-08-25T13:59:52.000Z</time>
      </trkpt>
      <trkpt lat="47.391899" lon="7.597675">
        <ele>586.734531</ele>
        <time>2022-08-25T13:59:55.000Z</time>
      </trkpt>
      <trkpt lat="47.391856" lon="7.597838">
        <ele>586.915893</ele>
        <time>2022-08-25T13:59:58.000Z</time>
      </trkpt>
      <trkpt lat="47.391818" lon="7.598027">
        <ele>587.120293</ele>
        <time>2022-08-25T14:00:01.000Z</time>
      </trkpt>
      <trkpt lat="47.391794" lon="7.598157">
        <ele>587.259988</ele>
        <time>2022-08-25T14:00:03.000Z</time>
      </trkpt>
      <trkpt lat="47.391759" lon="7.598351">
        <ele>587.468132</ele>
        <time>2022-08-25T14:00:06.000Z</time>
      </trkpt>
      <trkpt lat="47.391738" lon="7.598485">
        <ele>587.610726</ele>
        <time>2022-08-25T14:00:08.000Z</time>
      </trkpt>
      <trkpt lat="47.391717" lon="7.598619">
        <ele>587.753321</ele>
        <time>2022-08-25T14:00:10.000Z</time>
      </trkpt>
      <trkpt lat="47.391694" lon="7.598762">
        <ele>587.905699</ele>
        <time>2022-08-25T14:00:12.000Z</time>
      </trkpt>
      <trkpt lat="47.391665" lon="7.598898">
        <ele>588.053522</ele>
        <time>2022-08-25T14:00:14.000Z</time>
      </trkpt>
      <trkpt lat="47.391632" lon="7.599037">
        <ele>588.206232</ele>
        <time>2022-08-25T14:00:16.000Z</time>
      </trkpt>
      <trkpt lat="47.391599" lon="7.599170">
        <ele>588.353085</ele>
        <time>2022-08-25T14:00:18.000Z</time>
      </trkpt>
      <trkpt lat="47.391561" lon="7.599296">
        <ele>588.496089</ele>
        <time>2022-08-25T14:00:20.000Z</time>
      </trkpt>
      <trkpt lat="47.391506" lon="7.599479">
        <ele>588.703666</ele>
        <time>2022-08-25T14:00:23.000Z</time>
      </trkpt>
      <trkpt lat="47.391436" lon="7.599570">
        <ele>588.902058</ele>
        <time>2022-08-25T14:00:25.000Z</time>
      </trkpt>
      <trkpt lat="47.391360" lon="7.599649">
        <ele>589.126061</ele>
        <time>2022-08-25T14:00:27.000Z</time>
      </trkpt>
      <trkpt lat="47.391243" lon="7.599710">
        <ele>589.425130</ele>
        <time>2022-08-25T14:00:30.000Z</time>
      </trkpt>
      <trkpt lat="47.391227" lon="7.599963">
        <ele>589.839778</ele>
        <time>2022-08-25T14:00:34.000Z</time>
      </trkpt>
      <trkpt lat="47.391258" lon="7.600102">
        <ele>590.078591</ele>
        <time>2022-08-25T14:00:37.000Z</time>
      </trkpt>
      <trkpt lat="47.391326" lon="7.600239">
        <ele>590.355800</ele>
        <time>2022-08-25T14:00:40.000Z</time>
      </trkpt>
      <trkpt lat="47.391398" lon="7.600410">
        <ele>590.684407</ele>
        <time>2022-08-25T14:00:43.000Z</time>
      </trkpt>
      <trkpt lat="47.391422" lon="7.600543">
        <ele>590.909016</ele>
        <time>2022-08-25T14:00:45.000Z</time>
      </trkpt>
      <trkpt lat="47.391448" lon="7.600684">
        <ele>591.147484</ele>
        <time>2022-08-25T14:00:47.000Z</time>
      </trkpt>
      <trkpt lat="47.391465" lon="7.600823">
        <ele>591.377977</ele>
        <time>2022-08-25T14:00:49.000Z</time>
      </trkpt>
      <trkpt lat="47.391494" lon="7.600973">
        <ele>591.632534</ele>
        <time>2022-08-25T14:00:51.000Z</time>
      </trkpt>
      <trkpt lat="47.391529" lon="7.601107">
        <ele>591.866907</ele>
        <time>2022-08-25T14:00:53.000Z</time>
      </trkpt>
      <trkpt lat="47.391558" lon="7.601241">
        <ele>592.096471</ele>
        <time>2022-08-25T14:00:55.000Z</time>
      </trkpt>
      <trkpt lat="47.391588" lon="7.601375">
        <ele>592.326780</ele>
        <time>2022-08-25T14:00:57.000Z</time>
      </trkpt>
      <trkpt lat="47.391618" lon="7.601509">
        <ele>592.557089</ele>
        <time>2022-08-25T14:00:59.000Z</time>
      </trkpt>
      <trkpt lat="47.391648" lon="7.601644">
        <ele>592.788947</ele>
        <time>2022-08-25T14:01:01.000Z</time>
      </trkpt>
      <trkpt lat="47.391677" lon="7.601776">
        <ele>593.015404</ele>
        <time>2022-08-25T14:01:03.000Z</time>
      </trkpt>
      <trkpt lat="47.391695" lon="7.601908">
        <ele>593.437925</ele>
        <time>2022-08-25T14:01:05.000Z</time>
      </trkpt>
      <trkpt lat="47.391708" lon="7.602043">
        <ele>593.961162</ele>
        <time>2022-08-25T14:01:07.000Z</time>
      </trkpt>
      <trkpt lat="47.391723" lon="7.602182">
        <ele>594.501268</ele>
        <time>2022-08-25T14:01:09.000Z</time>
      </trkpt>
      <trkpt lat="47.391739" lon="7.602317">
        <ele>595.027170</ele>
        <time>2022-08-25T14:01:11.000Z</time>
      </trkpt>
      <trkpt lat="47.391772" lon="7.602511">
        <ele>595.794727</ele>
        <time>2022-08-25T14:01:14.000Z</time>
      </trkpt>
      <trkpt lat="47.391811" lon="7.602694">
        <ele>596.530908</ele>
        <time>2022-08-25T14:01:17.000Z</time>
      </trkpt>
      <trkpt lat="47.391843" lon="7.602867">
        <ele>597.219076</ele>
        <time>2022-08-25T14:01:20.000Z</time>
      </trkpt>
      <trkpt lat="47.391860" lon="7.603052">
        <ele>597.935468</ele>
        <time>2022-08-25T14:01:23.000Z</time>
      </trkpt>
      <trkpt lat="47.391870" lon="7.603237">
        <ele>598.647608</ele>
        <time>2022-08-25T14:01:26.000Z</time>
      </trkpt>
      <trkpt lat="47.391879" lon="7.603417">
        <ele>599.340185</ele>
        <time>2022-08-25T14:01:29.000Z</time>
      </trkpt>
      <trkpt lat="47.391888" lon="7.603601">
        <ele>600.048069</ele>
        <time>2022-08-25T14:01:32.000Z</time>
      </trkpt>
      <trkpt lat="47.391906" lon="7.603792">
        <ele>600.788041</ele>
        <time>2022-08-25T14:01:35.000Z</time>
      </trkpt>
      <trkpt lat="47.391928" lon="7.603977">
        <ele>601.508791</ele>
        <time>2022-08-25T14:01:38.000Z</time>
      </trkpt>
      <trkpt lat="47.391952" lon="7.604166">
        <ele>602.246668</ele>
        <time>2022-08-25T14:01:41.000Z</time>
      </trkpt>
      <trkpt lat="47.391971" lon="7.604352">
        <ele>602.968465</ele>
        <time>2022-08-25T14:01:44.000Z</time>
      </trkpt>
      <trkpt lat="47.391997" lon="7.604481">
        <ele>603.735240</ele>
        <time>2022-08-25T14:01:46.000Z</time>
      </trkpt>
      <trkpt lat="47.392057" lon="7.604654">
        <ele>605.392032</ele>
        <time>2022-08-25T14:01:49.000Z</time>
      </trkpt>
      <trkpt lat="47.392133" lon="7.604795">
        <ele>606.928234</ele>
        <time>2022-08-25T14:01:52.000Z</time>
      </trkpt>
      <trkpt lat="47.392201" lon="7.604917">
        <ele>608.275186</ele>
        <time>2022-08-25T14:01:55.000Z</time>
      </trkpt>
      <trkpt lat="47.392272" lon="7.605031">
        <ele>609.595496</ele>
        <time>2022-08-25T14:01:58.000Z</time>
      </trkpt>
      <trkpt lat="47.392356" lon="7.605131">
        <ele>610.953795</ele>
        <time>2022-08-25T14:02:01.000Z</time>
      </trkpt>
      <trkpt lat="47.392440" lon="7.605190">
        <ele>612.124856</ele>
        <time>2022-08-25T14:02:04.000Z</time>
      </trkpt>
      <trkpt lat="47.392548" lon="7.605194">
        <ele>613.485043</ele>
        <time>2022-08-25T14:02:08.000Z</time>
      </trkpt>
      <trkpt lat="47.392640" lon="7.605204">
        <ele>614.646489</ele>
        <time>2022-08-25T14:02:12.000Z</time>
      </trkpt>
      <trkpt lat="47.392740" lon="7.605204">
        <ele>615.905526</ele>
        <time>2022-08-25T14:02:16.000Z</time>
      </trkpt>
      <trkpt lat="47.392845" lon="7.605191">
        <ele>617.232150</ele>
        <time>2022-08-25T14:02:21.000Z</time>
      </trkpt>
      <trkpt lat="47.392937" lon="7.605216">
        <ele>618.409900</ele>
        <time>2022-08-25T14:02:26.000Z</time>
      </trkpt>
      <trkpt lat="47.392930" lon="7.605363">
        <ele>619.665915</ele>
        <time>2022-08-25T14:02:31.000Z</time>
      </trkpt>
      <trkpt lat="47.392958" lon="7.605516">
        <ele>621.016784</ele>
        <time>2022-08-25T14:02:36.000Z</time>
      </trkpt>
      <trkpt lat="47.392986" lon="7.605665">
        <ele>622.334771</ele>
        <time>2022-08-25T14:02:41.000Z</time>
      </trkpt>
      <trkpt lat="47.393010" lon="7.605794">
        <ele>623.475036</ele>
        <time>2022-08-25T14:02:45.000Z</time>
      </trkpt>
      <trkpt lat="47.393036" lon="7.605935">
        <ele>624.720599</ele>
        <time>2022-08-25T14:02:49.000Z</time>
      </trkpt>
      <trkpt lat="47.393063" lon="7.606077">
        <ele>625.957784</ele>
        <time>2022-08-25T14:02:53.000Z</time>
      </trkpt>
      <trkpt lat="47.393087" lon="7.606205">
        <ele>626.656975</ele>
        <time>2022-08-25T14:02:57.000Z</time>
      </trkpt>
      <trkpt lat="47.393117" lon="7.606359">
        <ele>627.500565</ele>
        <time>2022-08-25T14:03:01.000Z</time>
      </trkpt>
      <trkpt lat="47.393143" lon="7.606494">
        <ele>628.239438</ele>
        <time>2022-08-25T14:03:04.000Z</time>
      </trkpt>
      <trkpt lat="47.393175" lon="7.606660">
        <ele>629.148039</ele>
        <time>2022-08-25T14:03:08.000Z</time>
      </trkpt>
      <trkpt lat="47.393222" lon="7.606802">
        <ele>629.980124</ele>
        <time>2022-08-25T14:03:12.000Z</time>
      </trkpt>
      <trkpt lat="47.393265" lon="7.606940">
        <ele>630.779847</ele>
        <time>2022-08-25T14:03:16.000Z</time>
      </trkpt>
      <trkpt lat="47.393304" lon="7.607066">
        <ele>631.509183</ele>
        <time>2022-08-25T14:03:20.000Z</time>
      </trkpt>
      <trkpt lat="47.393330" lon="7.607207">
        <ele>632.278481</ele>
        <time>2022-08-25T14:03:24.000Z</time>
      </trkpt>
      <trkpt lat="47.393371" lon="7.607335">
        <ele>633.023922</ele>
        <time>2022-08-25T14:03:28.000Z</time>
      </trkpt>
      <trkpt lat="47.393448" lon="7.607444">
        <ele>633.853242</ele>
        <time>2022-08-25T14:03:33.000Z</time>
      </trkpt>
      <trkpt lat="47.393537" lon="7.607521">
        <ele>634.655292</ele>
        <time>2022-08-25T14:03:38.000Z</time>
      </trkpt>
      <trkpt lat="47.393434" lon="7.607679">
        <ele>635.809988</ele>
        <time>2022-08-25T14:03:41.000Z</time>
      </trkpt>
      <trkpt lat="47.393578" lon="7.607654">
        <ele>636.937474</ele>
        <time>2022-08-25T14:03:42.000Z</time>
      </trkpt>
      <trkpt lat="47.393546" lon="7.607804">
        <ele>637.765384</ele>
        <time>2022-08-25T14:03:45.000Z</time>
      </trkpt>
      <trkpt lat="47.393550" lon="7.607958">
        <ele>638.576666</ele>
        <time>2022-08-25T14:03:48.000Z</time>
      </trkpt>
      <trkpt lat="47.393570" lon="7.608119">
        <ele>639.438353</ele>
        <time>2022-08-25T14:03:52.000Z</time>
      </trkpt>
      <trkpt lat="47.393565" lon="7.608268">
        <ele>640.092088</ele>
        <time>2022-08-25T14:03:56.000Z</time>
      </trkpt>
      <trkpt lat="47.393574" lon="7.608429">
        <ele>640.583184</ele>
        <time>2022-08-25T14:03:59.000Z</time>
      </trkpt>
      <trkpt lat="47.393591" lon="7.608612">
        <ele>641.144705</ele>
        <time>2022-08-25T14:04:02.000Z</time>
      </trkpt>
      <trkpt lat="47.393602" lon="7.608785">
        <ele>641.672929</ele>
        <time>2022-08-25T14:04:05.000Z</time>
      </trkpt>
      <trkpt lat="47.393650" lon="7.608904">
        <ele>642.094029</ele>
        <time>2022-08-25T14:04:07.000Z</time>
      </trkpt>
      <trkpt lat="47.393704" lon="7.609018">
        <ele>642.516995</ele>
        <time>2022-08-25T14:04:09.000Z</time>
      </trkpt>
      <trkpt lat="47.393751" lon="7.609135">
        <ele>642.930574</ele>
        <time>2022-08-25T14:04:11.000Z</time>
      </trkpt>
      <trkpt lat="47.393791" lon="7.609316">
        <ele>643.509377</ele>
        <time>2022-08-25T14:04:14.000Z</time>
      </trkpt>
      <trkpt lat="47.393813" lon="7.609471">
        <ele>643.990810</ele>
        <time>2022-08-25T14:04:18.000Z</time>
      </trkpt>
      <trkpt lat="47.393846" lon="7.609618">
        <ele>644.461609</ele>
        <time>2022-08-25T14:04:23.000Z</time>
      </trkpt>
      <trkpt lat="47.393868" lon="7.609779">
        <ele>644.960907</ele>
        <time>2022-08-25T14:04:26.000Z</time>
      </trkpt>
      <trkpt lat="47.393889" lon="7.609940">
        <ele>645.459336</ele>
        <time>2022-08-25T14:04:29.000Z</time>
      </trkpt>
      <trkpt lat="47.393916" lon="7.610103">
        <ele>645.969461</ele>
        <time>2022-08-25T14:04:32.000Z</time>
      </trkpt>
      <trkpt lat="47.393941" lon="7.610264">
        <ele>646.471598</ele>
        <time>2022-08-25T14:04:35.000Z</time>
      </trkpt>
      <trkpt lat="47.393959" lon="7.610425">
        <ele>646.967654</ele>
        <time>2022-08-25T14:04:38.000Z</time>
      </trkpt>
      <trkpt lat="47.393973" lon="7.610580">
        <ele>647.443016</ele>
        <time>2022-08-25T14:04:41.000Z</time>
      </trkpt>
      <trkpt lat="47.393959" lon="7.610733">
        <ele>647.912352</ele>
        <time>2022-08-25T14:04:44.000Z</time>
      </trkpt>
      <trkpt lat="47.393948" lon="7.610884">
        <ele>647.859215</ele>
        <time>2022-08-25T14:04:47.000Z</time>
      </trkpt>
      <trkpt lat="47.393916" lon="7.611016">
        <ele>647.715267</ele>
        <time>2022-08-25T14:04:50.000Z</time>
      </trkpt>
      <trkpt lat="47.393868" lon="7.611150">
        <ele>647.559621</ele>
        <time>2022-08-25T14:04:53.000Z</time>
      </trkpt>
      <trkpt lat="47.393811" lon="7.611295">
        <ele>647.387474</ele>
        <time>2022-08-25T14:04:56.000Z</time>
      </trkpt>
      <trkpt lat="47.393752" lon="7.611471">
        <ele>647.185838</ele>
        <time>2022-08-25T14:04:59.000Z</time>
      </trkpt>
      <trkpt lat="47.393710" lon="7.611609">
        <ele>647.030497</ele>
        <time>2022-08-25T14:05:01.000Z</time>
      </trkpt>
      <trkpt lat="47.393662" lon="7.611767">
        <ele>646.852697</ele>
        <time>2022-08-25T14:05:03.000Z</time>
      </trkpt>
      <trkpt lat="47.393610" lon="7.611940">
        <ele>646.658361</ele>
        <time>2022-08-25T14:05:05.000Z</time>
      </trkpt>
      <trkpt lat="47.393554" lon="7.612134">
        <ele>646.441835</ele>
        <time>2022-08-25T14:05:07.000Z</time>
      </trkpt>
      <trkpt lat="47.393507" lon="7.612331">
        <ele>646.227387</ele>
        <time>2022-08-25T14:05:09.000Z</time>
      </trkpt>
      <trkpt lat="47.393439" lon="7.612560">
        <ele>645.970653</ele>
        <time>2022-08-25T14:05:11.000Z</time>
      </trkpt>
      <trkpt lat="47.393439" lon="7.612748">
        <ele>645.777638</ele>
        <time>2022-08-25T14:05:13.000Z</time>
      </trkpt>
      <trkpt lat="47.393429" lon="7.612953">
        <ele>645.566623</ele>
        <time>2022-08-25T14:05:15.000Z</time>
      </trkpt>
      <trkpt lat="47.393427" lon="7.613117">
        <ele>645.398220</ele>
        <time>2022-08-25T14:05:17.000Z</time>
      </trkpt>
      <trkpt lat="47.393430" lon="7.613282">
        <ele>645.146236</ele>
        <time>2022-08-25T14:05:20.000Z</time>
      </trkpt>
      <trkpt lat="47.393319" lon="7.613346">
        <ele>644.508177</ele>
        <time>2022-08-25T14:05:24.000Z</time>
      </trkpt>
      <trkpt lat="47.393191" lon="7.613390">
        <ele>643.804445</ele>
        <time>2022-08-25T14:05:27.000Z</time>
      </trkpt>
      <trkpt lat="47.393097" lon="7.613423">
        <ele>643.287071</ele>
        <time>2022-08-25T14:05:29.000Z</time>
      </trkpt>
      <trkpt lat="47.393005" lon="7.613456">
        <ele>642.780110</ele>
        <time>2022-08-25T14:05:31.000Z</time>
      </trkpt>
      <trkpt lat="47.392916" lon="7.613487">
        <ele>642.290460</ele>
        <time>2022-08-25T14:05:33.000Z</time>
      </trkpt>
      <trkpt lat="47.392809" lon="7.613523">
        <ele>641.702819</ele>
        <time>2022-08-25T14:05:36.000Z</time>
      </trkpt>
      <trkpt lat="47.392688" lon="7.613568">
        <ele>641.034665</ele>
        <time>2022-08-25T14:05:39.000Z</time>
      </trkpt>
      <trkpt lat="47.392573" lon="7.613605">
        <ele>640.404422</ele>
        <time>2022-08-25T14:05:42.000Z</time>
      </trkpt>
      <trkpt lat="47.392442" lon="7.613636">
        <ele>639.693994</ele>
        <time>2022-08-25T14:05:45.000Z</time>
      </trkpt>
      <trkpt lat="47.392347" lon="7.613661">
        <ele>639.177276</ele>
        <time>2022-08-25T14:05:47.000Z</time>
      </trkpt>
      <trkpt lat="47.392256" lon="7.613690">
        <ele>638.678775</ele>
        <time>2022-08-25T14:05:49.000Z</time>
      </trkpt>
      <trkpt lat="47.392166" lon="7.613750">
        <ele>638.150031</ele>
        <time>2022-08-25T14:05:52.000Z</time>
      </trkpt>
      <trkpt lat="47.392102" lon="7.613944">
        <ele>637.367703</ele>
        <time>2022-08-25T14:05:57.000Z</time>
      </trkpt>
      <trkpt lat="47.392128" lon="7.614084">
        <ele>636.841439</ele>
        <time>2022-08-25T14:06:00.000Z</time>
      </trkpt>
      <trkpt lat="47.392159" lon="7.614254">
        <ele>636.203207</ele>
        <time>2022-08-25T14:06:03.000Z</time>
      </trkpt>
      <trkpt lat="47.392190" lon="7.614423">
        <ele>635.591517</ele>
        <time>2022-08-25T14:06:05.000Z</time>
      </trkpt>
      <trkpt lat="47.392229" lon="7.614631">
        <ele>635.102469</ele>
        <time>2022-08-25T14:06:07.000Z</time>
      </trkpt>
      <trkpt lat="47.392275" lon="7.614878">
        <ele>634.522004</ele>
        <time>2022-08-25T14:06:09.000Z</time>
      </trkpt>
      <trkpt lat="47.392300" lon="7.615013">
        <ele>634.204871</ele>
        <time>2022-08-25T14:06:10.000Z</time>
      </trkpt>
      <trkpt lat="47.392331" lon="7.615160">
        <ele>633.856000</ele>
        <time>2022-08-25T14:06:11.000Z</time>
      </trkpt>
      <trkpt lat="47.392364" lon="7.615307">
        <ele>633.505079</ele>
        <time>2022-08-25T14:06:12.000Z</time>
      </trkpt>
      <trkpt lat="47.392397" lon="7.615457">
        <ele>633.147700</ele>
        <time>2022-08-25T14:06:13.000Z</time>
      </trkpt>
      <trkpt lat="47.392440" lon="7.615613">
        <ele>632.766045</ele>
        <time>2022-08-25T14:06:14.000Z</time>
      </trkpt>
      <trkpt lat="47.392482" lon="7.615758">
        <ele>632.408682</ele>
        <time>2022-08-25T14:06:15.000Z</time>
      </trkpt>
      <trkpt lat="47.392521" lon="7.615902">
        <ele>632.057254</ele>
        <time>2022-08-25T14:06:16.000Z</time>
      </trkpt>
      <trkpt lat="47.392562" lon="7.616046">
        <ele>631.703284</ele>
        <time>2022-08-25T14:06:17.000Z</time>
      </trkpt>
      <trkpt lat="47.392613" lon="7.616181">
        <ele>631.352986</ele>
        <time>2022-08-25T14:06:18.000Z</time>
      </trkpt>
      <trkpt lat="47.392658" lon="7.616303">
        <ele>631.038180</ele>
        <time>2022-08-25T14:06:19.000Z</time>
      </trkpt>
      <trkpt lat="47.392720" lon="7.616537">
        <ele>630.468803</ele>
        <time>2022-08-25T14:06:21.000Z</time>
      </trkpt>
      <trkpt lat="47.392748" lon="7.616737">
        <ele>630.006041</ele>
        <time>2022-08-25T14:06:23.000Z</time>
      </trkpt>
      <trkpt lat="47.392769" lon="7.616903">
        <ele>629.623397</ele>
        <time>2022-08-25T14:06:25.000Z</time>
      </trkpt>
      <trkpt lat="47.392781" lon="7.617070">
        <ele>630.204595</ele>
        <time>2022-08-25T14:06:28.000Z</time>
      </trkpt>
      <trkpt lat="47.392664" lon="7.617158">
        <ele>630.917125</ele>
        <time>2022-08-25T14:06:34.000Z</time>
      </trkpt>
      <trkpt lat="47.392550" lon="7.617114">
        <ele>631.556573</ele>
        <time>2022-08-25T14:06:37.000Z</time>
      </trkpt>
      <trkpt lat="47.392430" lon="7.617073">
        <ele>632.225007</ele>
        <time>2022-08-25T14:06:40.000Z</time>
      </trkpt>
      <trkpt lat="47.392319" lon="7.617029">
        <ele>632.848717</ele>
        <time>2022-08-25T14:06:43.000Z</time>
      </trkpt>
      <trkpt lat="47.392217" lon="7.617008">
        <ele>633.407622</ele>
        <time>2022-08-25T14:06:53.000Z</time>
      </trkpt>
      <trkpt lat="47.392205" lon="7.617189">
        <ele>634.075788</ele>
        <time>2022-08-25T14:06:58.000Z</time>
      </trkpt>
      <trkpt lat="47.392229" lon="7.617328">
        <ele>634.602816</ele>
        <time>2022-08-25T14:07:01.000Z</time>
      </trkpt>
      <trkpt lat="47.392166" lon="7.617453">
        <ele>635.175355</ele>
        <time>2022-08-25T14:07:04.000Z</time>
      </trkpt>
      <trkpt lat="47.392058" lon="7.617492">
        <ele>635.778731</ele>
        <time>2022-08-25T14:07:07.000Z</time>
      </trkpt>
      <trkpt lat="47.391950" lon="7.617540">
        <ele>636.390803</ele>
        <time>2022-08-25T14:07:10.000Z</time>
      </trkpt>
      <trkpt lat="47.391845" lon="7.617594">
        <ele>636.994187</ele>
        <time>2022-08-25T14:07:13.000Z</time>
      </trkpt>
      <trkpt lat="47.391741" lon="7.617634">
        <ele>637.577414</ele>
        <time>2022-08-25T14:07:16.000Z</time>
      </trkpt>
      <trkpt lat="47.391643" lon="7.617684">
        <ele>638.140091</ele>
        <time>2022-08-25T14:07:19.000Z</time>
      </trkpt>
      <trkpt lat="47.391557" lon="7.617735">
        <ele>638.643021</ele>
        <time>2022-08-25T14:07:22.000Z</time>
      </trkpt>
      <trkpt lat="47.391470" lon="7.617772">
        <ele>639.134350</ele>
        <time>2022-08-25T14:07:25.000Z</time>
      </trkpt>
      <trkpt lat="47.391378" lon="7.617814">
        <ele>639.852690</ele>
        <time>2022-08-25T14:07:29.000Z</time>
      </trkpt>
      <trkpt lat="47.391323" lon="7.618013">
        <ele>641.183011</ele>
        <time>2022-08-25T14:07:35.000Z</time>
      </trkpt>
      <trkpt lat="47.391396" lon="7.618152">
        <ele>642.271814</ele>
        <time>2022-08-25T14:07:38.000Z</time>
      </trkpt>
      <trkpt lat="47.391476" lon="7.618305">
        <ele>643.468306</ele>
        <time>2022-08-25T14:07:41.000Z</time>
      </trkpt>
      <trkpt lat="47.391533" lon="7.618423">
        <ele>644.365473</ele>
        <time>2022-08-25T14:07:44.000Z</time>
      </trkpt>
      <trkpt lat="47.391595" lon="7.618543">
        <ele>645.299748</ele>
        <time>2022-08-25T14:07:48.000Z</time>
      </trkpt>
      <trkpt lat="47.391505" lon="7.618568">
        <ele>646.136965</ele>
        <time>2022-08-25T14:07:50.000Z</time>
      </trkpt>
      <trkpt lat="47.391423" lon="7.618627">
        <ele>646.970828</ele>
        <time>2022-08-25T14:07:53.000Z</time>
      </trkpt>
      <trkpt lat="47.391247" lon="7.618717">
        <ele>648.673538</ele>
        <time>2022-08-25T14:08:31.000Z</time>
      </trkpt>
      <trkpt lat="47.391157" lon="7.618679">
        <ele>649.529286</ele>
        <time>2022-08-25T14:08:48.000Z</time>
      </trkpt>
      <trkpt lat="47.390998" lon="7.618727">
        <ele>651.012938</ele>
        <time>2022-08-25T14:09:28.999Z</time>
      </trkpt>
      <trkpt lat="47.390834" lon="7.618818">
        <ele>652.614549</ele>
        <time>2022-08-25T14:12:23.000Z</time>
      </trkpt>
      <trkpt lat="47.390758" lon="7.618889">
        <ele>653.436652</ele>
        <time>2022-08-25T14:12:38.000Z</time>
      </trkpt>
      <trkpt lat="47.390668" lon="7.618910">
        <ele>654.269650</ele>
        <time>2022-08-25T14:12:42.000Z</time>
      </trkpt>
      <trkpt lat="47.390581" lon="7.618964">
        <ele>655.132385</ele>
        <time>2022-08-25T14:12:46.000Z</time>
      </trkpt>
      <trkpt lat="47.390490" lon="7.619036">
        <ele>656.342474</ele>
        <time>2022-08-25T14:12:50.000Z</time>
      </trkpt>
      <trkpt lat="47.390394" lon="7.619072">
        <ele>658.169526</ele>
        <time>2022-08-25T14:12:55.000Z</time>
      </trkpt>
      <trkpt lat="47.390303" lon="7.619137">
        <ele>660.034134</ele>
        <time>2022-08-25T14:13:00.000Z</time>
      </trkpt>
      <trkpt lat="47.390209" lon="7.619202">
        <ele>661.948714</ele>
        <time>2022-08-25T14:13:05.000Z</time>
      </trkpt>
      <trkpt lat="47.390120" lon="7.619259">
        <ele>663.738142</ele>
        <time>2022-08-25T14:13:10.000Z</time>
      </trkpt>
      <trkpt lat="47.390033" lon="7.619299">
        <ele>665.418944</ele>
        <time>2022-08-25T14:13:15.000Z</time>
      </trkpt>
      <trkpt lat="47.389943" lon="7.619360">
        <ele>667.245574</ele>
        <time>2022-08-25T14:13:20.000Z</time>
      </trkpt>
      <trkpt lat="47.389857" lon="7.619429">
        <ele>669.050906</ele>
        <time>2022-08-25T14:13:25.000Z</time>
      </trkpt>
      <trkpt lat="47.389768" lon="7.619494">
        <ele>670.882374</ele>
        <time>2022-08-25T14:13:30.000Z</time>
      </trkpt>
      <trkpt lat="47.389671" lon="7.619559">
        <ele>672.847218</ele>
        <time>2022-08-25T14:13:36.000Z</time>
      </trkpt>
      <trkpt lat="47.389570" lon="7.619630">
        <ele>674.910560</ele>
        <time>2022-08-25T14:13:42.000Z</time>
      </trkpt>
      <trkpt lat="47.389477" lon="7.619698">
        <ele>676.824779</ele>
        <time>2022-08-25T14:13:47.000Z</time>
      </trkpt>
      <trkpt lat="47.389389" lon="7.619768">
        <ele>678.668507</ele>
        <time>2022-08-25T14:13:52.000Z</time>
      </trkpt>
      <trkpt lat="47.389300" lon="7.619826">
        <ele>680.462943</ele>
        <time>2022-08-25T14:13:57.000Z</time>
      </trkpt>
      <trkpt lat="47.389213" lon="7.619883">
        <ele>682.218589</ele>
        <time>2022-08-25T14:14:02.000Z</time>
      </trkpt>
      <trkpt lat="47.389121" lon="7.619967">
        <ele>684.213733</ele>
        <time>2022-08-25T14:14:08.000Z</time>
      </trkpt>
      <trkpt lat="47.389020" lon="7.620008">
        <ele>686.145921</ele>
        <time>2022-08-25T14:14:14.000Z</time>
      </trkpt>
      <trkpt lat="47.388929" lon="7.620070">
        <ele>687.994535</ele>
        <time>2022-08-25T14:14:20.000Z</time>
      </trkpt>
      <trkpt lat="47.388831" lon="7.620070">
        <ele>689.604222</ele>
        <time>2022-08-25T14:14:26.000Z</time>
      </trkpt>
      <trkpt lat="47.388738" lon="7.620077">
        <ele>690.901375</ele>
        <time>2022-08-25T14:14:32.000Z</time>
      </trkpt>
      <trkpt lat="47.388634" lon="7.620065">
        <ele>692.354489</ele>
        <time>2022-08-25T14:14:38.000Z</time>
      </trkpt>
      <trkpt lat="47.388546" lon="7.620023">
        <ele>693.642717</ele>
        <time>2022-08-25T14:14:44.000Z</time>
      </trkpt>
      <trkpt lat="47.388444" lon="7.620017">
        <ele>695.064684</ele>
        <time>2022-08-25T14:14:51.000Z</time>
      </trkpt>
      <trkpt lat="47.388340" lon="7.619992">
        <ele>696.532444</ele>
        <time>2022-08-25T14:14:58.000Z</time>
      </trkpt>
      <trkpt lat="47.388248" lon="7.619953">
        <ele>697.865722</ele>
        <time>2022-08-25T14:15:04.000Z</time>
      </trkpt>
      <trkpt lat="47.388157" lon="7.619951">
        <ele>699.133475</ele>
        <time>2022-08-25T14:15:10.000Z</time>
      </trkpt>
      <trkpt lat="47.388152" lon="7.620109">
        <ele>700.625180</ele>
        <time>2022-08-25T14:15:15.000Z</time>
      </trkpt>
      <trkpt lat="47.388114" lon="7.620233">
        <ele>701.908830</ele>
        <time>2022-08-25T14:15:19.000Z</time>
      </trkpt>
      <trkpt lat="47.388105" lon="7.620396">
        <ele>703.451167</ele>
        <time>2022-08-25T14:15:23.000Z</time>
      </trkpt>
      <trkpt lat="47.388077" lon="7.620545">
        <ele>704.909495</ele>
        <time>2022-08-25T14:15:27.000Z</time>
      </trkpt>
      <trkpt lat="47.388061" lon="7.620690">
        <ele>706.295017</ele>
        <time>2022-08-25T14:15:31.000Z</time>
      </trkpt>
      <trkpt lat="47.388049" lon="7.620842">
        <ele>707.738225</ele>
        <time>2022-08-25T14:15:35.000Z</time>
      </trkpt>
      <trkpt lat="47.388064" lon="7.620987">
        <ele>709.121576</ele>
        <time>2022-08-25T14:15:39.000Z</time>
      </trkpt>
      <trkpt lat="47.388080" lon="7.621129">
        <ele>710.479181</ele>
        <time>2022-08-25T14:15:43.000Z</time>
      </trkpt>
      <trkpt lat="47.388106" lon="7.621266">
        <ele>711.821014</ele>
        <time>2022-08-25T14:15:47.000Z</time>
      </trkpt>
      <trkpt lat="47.388135" lon="7.621395">
        <ele>713.102912</ele>
        <time>2022-08-25T14:15:51.000Z</time>
      </trkpt>
      <trkpt lat="47.388175" lon="7.621522">
        <ele>714.357511</ele>
        <time>2022-08-25T14:15:55.000Z</time>
      </trkpt>
      <trkpt lat="47.388210" lon="7.621658">
        <ele>715.487259</ele>
        <time>2022-08-25T14:15:59.000Z</time>
      </trkpt>
      <trkpt lat="47.388241" lon="7.621785">
        <ele>716.535536</ele>
        <time>2022-08-25T14:16:03.000Z</time>
      </trkpt>
      <trkpt lat="47.388282" lon="7.621907">
        <ele>717.593141</ele>
        <time>2022-08-25T14:16:07.000Z</time>
      </trkpt>
      <trkpt lat="47.388330" lon="7.622058">
        <ele>718.888448</ele>
        <time>2022-08-25T14:16:12.000Z</time>
      </trkpt>
      <trkpt lat="47.388356" lon="7.622210">
        <ele>720.105797</ele>
        <time>2022-08-25T14:16:16.000Z</time>
      </trkpt>
      <trkpt lat="47.388362" lon="7.622346">
        <ele>721.164060</ele>
        <time>2022-08-25T14:16:20.000Z</time>
      </trkpt>
      <trkpt lat="47.388377" lon="7.622490">
        <ele>722.295359</ele>
        <time>2022-08-25T14:16:24.000Z</time>
      </trkpt>
      <trkpt lat="47.388385" lon="7.622633">
        <ele>723.409520</ele>
        <time>2022-08-25T14:16:28.000Z</time>
      </trkpt>
      <trkpt lat="47.388400" lon="7.622766">
        <ele>724.456479</ele>
        <time>2022-08-25T14:16:32.000Z</time>
      </trkpt>
      <trkpt lat="47.388416" lon="7.622899">
        <ele>725.505383</ele>
        <time>2022-08-25T14:16:36.000Z</time>
      </trkpt>
      <trkpt lat="47.388430" lon="7.623032">
        <ele>726.550519</ele>
        <time>2022-08-25T14:16:40.000Z</time>
      </trkpt>
      <trkpt lat="47.388420" lon="7.623199">
        <ele>727.852313</ele>
        <time>2022-08-25T14:16:45.000Z</time>
      </trkpt>
      <trkpt lat="47.388406" lon="7.623359">
        <ele>729.105025</ele>
        <time>2022-08-25T14:16:50.000Z</time>
      </trkpt>
      <trkpt lat="47.388386" lon="7.623515">
        <ele>730.337872</ele>
        <time>2022-08-25T14:16:55.000Z</time>
      </trkpt>
      <trkpt lat="47.388363" lon="7.623676">
        <ele>731.615545</ele>
        <time>2022-08-25T14:17:00.000Z</time>
      </trkpt>
      <trkpt lat="47.388345" lon="7.623817">
        <ele>732.729686</ele>
        <time>2022-08-25T14:17:04.000Z</time>
      </trkpt>
      <trkpt lat="47.388330" lon="7.623963">
        <ele>733.876337</ele>
        <time>2022-08-25T14:17:08.000Z</time>
      </trkpt>
      <trkpt lat="47.388292" lon="7.624121">
        <ele>735.177759</ele>
        <time>2022-08-25T14:17:12.000Z</time>
      </trkpt>
      <trkpt lat="47.388254" lon="7.624279">
        <ele>736.478317</ele>
        <time>2022-08-25T14:17:16.000Z</time>
      </trkpt>
      <trkpt lat="47.388243" lon="7.624413">
        <ele>737.525300</ele>
        <time>2022-08-25T14:17:19.000Z</time>
      </trkpt>
      <trkpt lat="47.388220" lon="7.624544">
        <ele>738.575014</ele>
        <time>2022-08-25T14:17:22.000Z</time>
      </trkpt>
      <trkpt lat="47.388204" lon="7.624680">
        <ele>739.645707</ele>
        <time>2022-08-25T14:17:25.000Z</time>
      </trkpt>
      <trkpt lat="47.388179" lon="7.624817">
        <ele>740.746272</ele>
        <time>2022-08-25T14:17:28.000Z</time>
      </trkpt>
      <trkpt lat="47.388149" lon="7.624951">
        <ele>741.840999</ele>
        <time>2022-08-25T14:17:31.000Z</time>
      </trkpt>
      <trkpt lat="47.388129" lon="7.625082">
        <ele>742.882618</ele>
        <time>2022-08-25T14:17:34.000Z</time>
      </trkpt>
      <trkpt lat="47.388105" lon="7.625217">
        <ele>743.965247</ele>
        <time>2022-08-25T14:17:37.000Z</time>
      </trkpt>
      <trkpt lat="47.388079" lon="7.625356">
        <ele>745.083796</ele>
        <time>2022-08-25T14:17:40.000Z</time>
      </trkpt>
      <trkpt lat="47.388063" lon="7.625488">
        <ele>746.123938</ele>
        <time>2022-08-25T14:17:43.000Z</time>
      </trkpt>
      <trkpt lat="47.388037" lon="7.625661">
        <ele>747.498482</ele>
        <time>2022-08-25T14:17:47.000Z</time>
      </trkpt>
      <trkpt lat="47.388009" lon="7.625813">
        <ele>748.720337</ele>
        <time>2022-08-25T14:17:51.000Z</time>
      </trkpt>
      <trkpt lat="47.387989" lon="7.625976">
        <ele>750.005249</ele>
        <time>2022-08-25T14:17:55.000Z</time>
      </trkpt>
      <trkpt lat="47.387953" lon="7.626098">
        <ele>751.037522</ele>
        <time>2022-08-25T14:17:58.000Z</time>
      </trkpt>
      <trkpt lat="47.387900" lon="7.626238">
        <ele>752.281675</ele>
        <time>2022-08-25T14:18:02.000Z</time>
      </trkpt>
      <trkpt lat="47.387851" lon="7.626389">
        <ele>753.580501</ele>
        <time>2022-08-25T14:18:06.000Z</time>
      </trkpt>
      <trkpt lat="47.387797" lon="7.626536">
        <ele>754.877742</ele>
        <time>2022-08-25T14:18:10.000Z</time>
      </trkpt>
      <trkpt lat="47.387738" lon="7.626651">
        <ele>755.959544</ele>
        <time>2022-08-25T14:18:14.000Z</time>
      </trkpt>
      <trkpt lat="47.387648" lon="7.626721">
        <ele>757.063809</ele>
        <time>2022-08-25T14:18:17.000Z</time>
      </trkpt>
      <trkpt lat="47.387545" lon="7.626764">
        <ele>758.225827</ele>
        <time>2022-08-25T14:18:21.000Z</time>
      </trkpt>
      <trkpt lat="47.387459" lon="7.626847">
        <ele>759.341122</ele>
        <time>2022-08-25T14:18:24.000Z</time>
      </trkpt>
      <trkpt lat="47.387368" lon="7.626930">
        <ele>760.502239</ele>
        <time>2022-08-25T14:18:26.000Z</time>
      </trkpt>
      <trkpt lat="47.387316" lon="7.627080">
        <ele>761.740897</ele>
        <time>2022-08-25T14:18:30.000Z</time>
      </trkpt>
      <trkpt lat="47.387294" lon="7.627216">
        <ele>762.768663</ele>
        <time>2022-08-25T14:18:33.000Z</time>
      </trkpt>
      <trkpt lat="47.387280" lon="7.627380">
        <ele>763.983642</ele>
        <time>2022-08-25T14:18:37.000Z</time>
      </trkpt>
      <trkpt lat="47.387293" lon="7.627541">
        <ele>765.175413</ele>
        <time>2022-08-25T14:18:41.000Z</time>
      </trkpt>
      <trkpt lat="47.387264" lon="7.627673">
        <ele>766.195445</ele>
        <time>2022-08-25T14:18:45.000Z</time>
      </trkpt>
      <trkpt lat="47.387153" lon="7.627730">
        <ele>767.471259</ele>
        <time>2022-08-25T14:19:12.000Z</time>
      </trkpt>
      <trkpt lat="47.387075" lon="7.627627">
        <ele>768.607143</ele>
        <time>2022-08-25T14:19:16.000Z</time>
      </trkpt>
      <trkpt lat="47.387019" lon="7.627474">
        <ele>769.885545</ele>
        <time>2022-08-25T14:19:20.000Z</time>
      </trkpt>
      <trkpt lat="47.386968" lon="7.627333">
        <ele>771.060557</ele>
        <time>2022-08-25T14:19:24.000Z</time>
      </trkpt>
      <trkpt lat="47.386910" lon="7.627211">
        <ele>772.156283</ele>
        <time>2022-08-25T14:19:28.000Z</time>
      </trkpt>
      <trkpt lat="47.386851" lon="7.627058">
        <ele>773.450494</ele>
        <time>2022-08-25T14:19:32.000Z</time>
      </trkpt>
      <trkpt lat="47.386820" lon="7.626921">
        <ele>774.512233</ele>
        <time>2022-08-25T14:19:35.000Z</time>
      </trkpt>
      <trkpt lat="47.386841" lon="7.626764">
        <ele>775.210991</ele>
        <time>2022-08-25T14:19:39.000Z</time>
      </trkpt>
      <trkpt lat="47.386881" lon="7.626635">
        <ele>775.686830</ele>
        <time>2022-08-25T14:19:42.000Z</time>
      </trkpt>
      <trkpt lat="47.386934" lon="7.626475">
        <ele>776.284200</ele>
        <time>2022-08-25T14:19:46.000Z</time>
      </trkpt>
      <trkpt lat="47.386949" lon="7.626326">
        <ele>776.789392</ele>
        <time>2022-08-25T14:19:49.000Z</time>
      </trkpt>
      <trkpt lat="47.386942" lon="7.626164">
        <ele>777.333794</ele>
        <time>2022-08-25T14:19:52.000Z</time>
      </trkpt>
      <trkpt lat="47.386930" lon="7.625991">
        <ele>777.917018</ele>
        <time>2022-08-25T14:19:55.000Z</time>
      </trkpt>
      <trkpt lat="47.386913" lon="7.625844">
        <ele>778.417149</ele>
        <time>2022-08-25T14:19:58.000Z</time>
      </trkpt>
      <trkpt lat="47.386890" lon="7.625686">
        <ele>778.959140</ele>
        <time>2022-08-25T14:20:02.000Z</time>
      </trkpt>
      <trkpt lat="47.386870" lon="7.625526">
        <ele>779.504799</ele>
        <time>2022-08-25T14:20:06.000Z</time>
      </trkpt>
      <trkpt lat="47.386918" lon="7.625378">
        <ele>780.055153</ele>
        <time>2022-08-25T14:20:10.000Z</time>
      </trkpt>
      <trkpt lat="47.386984" lon="7.625282">
        <ele>780.513994</ele>
        <time>2022-08-25T14:20:13.000Z</time>
      </trkpt>
      <trkpt lat="47.387027" lon="7.625127">
        <ele>781.075759</ele>
        <time>2022-08-25T14:20:17.000Z</time>
      </trkpt>
      <trkpt lat="47.387010" lon="7.624961">
        <ele>781.638802</ele>
        <time>2022-08-25T14:20:21.000Z</time>
      </trkpt>
      <trkpt lat="47.386991" lon="7.624814">
        <ele>782.140696</ele>
        <time>2022-08-25T14:20:25.000Z</time>
      </trkpt>
      <trkpt lat="47.386967" lon="7.624666">
        <ele>782.651079</ele>
        <time>2022-08-25T14:20:29.000Z</time>
      </trkpt>
      <trkpt lat="47.386942" lon="7.624510">
        <ele>783.188709</ele>
        <time>2022-08-25T14:20:33.000Z</time>
      </trkpt>
      <trkpt lat="47.386891" lon="7.624363">
        <ele>783.734803</ele>
        <time>2022-08-25T14:20:37.000Z</time>
      </trkpt>
      <trkpt lat="47.386844" lon="7.624237">
        <ele>784.052166</ele>
        <time>2022-08-25T14:20:41.000Z</time>
      </trkpt>
      <trkpt lat="47.386895" lon="7.624389">
        <ele>784.426410</ele>
        <time>2022-08-25T14:20:50.000Z</time>
      </trkpt>
      <trkpt lat="47.386932" lon="7.624517">
        <ele>784.733449</ele>
        <time>2022-08-25T14:20:58.000Z</time>
      </trkpt>
      <trkpt lat="47.386954" lon="7.624656">
        <ele>785.048363</ele>
        <time>2022-08-25T14:21:01.000Z</time>
      </trkpt>
      <trkpt lat="47.386974" lon="7.624820">
        <ele>785.415983</ele>
        <time>2022-08-25T14:21:04.000Z</time>
      </trkpt>
      <trkpt lat="47.387011" lon="7.624991">
        <ele>785.812020</ele>
        <time>2022-08-25T14:21:07.000Z</time>
      </trkpt>
      <trkpt lat="47.387015" lon="7.625143">
        <ele>786.147598</ele>
        <time>2022-08-25T14:21:10.000Z</time>
      </trkpt>
      <trkpt lat="47.386971" lon="7.625293">
        <ele>786.508234</ele>
        <time>2022-08-25T14:21:13.000Z</time>
      </trkpt>
      <trkpt lat="47.386898" lon="7.625416">
        <ele>786.869080</ele>
        <time>2022-08-25T14:21:16.000Z</time>
      </trkpt>
      <trkpt lat="47.386852" lon="7.625533">
        <ele>787.167556</ele>
        <time>2022-08-25T14:21:20.000Z</time>
      </trkpt>
      <trkpt lat="47.386758" lon="7.625518">
        <ele>787.475629</ele>
        <time>2022-08-25T14:21:37.000Z</time>
      </trkpt>
      <trkpt lat="47.386642" lon="7.625530">
        <ele>787.854531</ele>
        <time>2022-08-25T14:21:43.000Z</time>
      </trkpt>
      <trkpt lat="47.386555" lon="7.625623">
        <ele>788.204467</ele>
        <time>2022-08-25T14:21:47.000Z</time>
      </trkpt>
      <trkpt lat="47.386504" lon="7.625774">
        <ele>788.576738</ele>
        <time>2022-08-25T14:21:52.000Z</time>
      </trkpt>
      <trkpt lat="47.386476" lon="7.625920">
        <ele>788.911502</ele>
        <time>2022-08-25T14:21:56.000Z</time>
      </trkpt>
      <trkpt lat="47.386419" lon="7.626045">
        <ele>789.243979</ele>
        <time>2022-08-25T14:22:00.000Z</time>
      </trkpt>
      <trkpt lat="47.386363" lon="7.626164">
        <ele>789.563692</ele>
        <time>2022-08-25T14:22:03.000Z</time>
      </trkpt>
      <trkpt lat="47.386308" lon="7.626292">
        <ele>790.733998</ele>
        <time>2022-08-25T14:22:07.000Z</time>
      </trkpt>
      <trkpt lat="47.386283" lon="7.626448">
        <ele>792.018075</ele>
        <time>2022-08-25T14:22:11.000Z</time>
      </trkpt>
      <trkpt lat="47.386271" lon="7.626602">
        <ele>793.259748</ele>
        <time>2022-08-25T14:22:15.000Z</time>
      </trkpt>
      <trkpt lat="47.386317" lon="7.626752">
        <ele>794.578740</ele>
        <time>2022-08-25T14:22:19.000Z</time>
      </trkpt>
      <trkpt lat="47.386307" lon="7.626913">
        <ele>795.873755</ele>
        <time>2022-08-25T14:22:23.000Z</time>
      </trkpt>
      <trkpt lat="47.386273" lon="7.627070">
        <ele>797.194079</ele>
        <time>2022-08-25T14:22:27.000Z</time>
      </trkpt>
      <trkpt lat="47.386218" lon="7.627186">
        <ele>798.328413</ele>
        <time>2022-08-25T14:22:30.000Z</time>
      </trkpt>
      <trkpt lat="47.386158" lon="7.627300">
        <ele>799.484996</ele>
        <time>2022-08-25T14:22:33.000Z</time>
      </trkpt>
      <trkpt lat="47.386095" lon="7.627432">
        <ele>800.778606</ele>
        <time>2022-08-25T14:22:37.000Z</time>
      </trkpt>
      <trkpt lat="47.386024" lon="7.627563">
        <ele>802.122704</ele>
        <time>2022-08-25T14:22:41.000Z</time>
      </trkpt>
      <trkpt lat="47.385984" lon="7.627695">
        <ele>803.281091</ele>
        <time>2022-08-25T14:22:45.000Z</time>
      </trkpt>
      <trkpt lat="47.385931" lon="7.627826">
        <ele>804.503468</ele>
        <time>2022-08-25T14:22:49.000Z</time>
      </trkpt>
      <trkpt lat="47.385895" lon="7.627980">
        <ele>805.808463</ele>
        <time>2022-08-25T14:22:54.000Z</time>
      </trkpt>
      <trkpt lat="47.385907" lon="7.628112">
        <ele>806.875271</ele>
        <time>2022-08-25T14:22:58.000Z</time>
      </trkpt>
      <trkpt lat="47.385958" lon="7.628262">
        <ele>808.219757</ele>
        <time>2022-08-25T14:23:03.000Z</time>
      </trkpt>
      <trkpt lat="47.386036" lon="7.628372">
        <ele>809.495637</ele>
        <time>2022-08-25T14:23:07.000Z</time>
      </trkpt>
      <trkpt lat="47.386114" lon="7.628469">
        <ele>810.701960</ele>
        <time>2022-08-25T14:23:11.000Z</time>
      </trkpt>
      <trkpt lat="47.386183" lon="7.628599">
        <ele>812.094367</ele>
        <time>2022-08-25T14:23:15.000Z</time>
      </trkpt>
      <trkpt lat="47.386186" lon="7.628770">
        <ele>813.545969</ele>
        <time>2022-08-25T14:23:19.000Z</time>
      </trkpt>
      <trkpt lat="47.386171" lon="7.628932">
        <ele>814.933506</ele>
        <time>2022-08-25T14:23:22.000Z</time>
      </trkpt>
      <trkpt lat="47.386162" lon="7.629073">
        <ele>816.135345</ele>
        <time>2022-08-25T14:23:25.000Z</time>
      </trkpt>
      <trkpt lat="47.386144" lon="7.629235">
        <ele>817.528475</ele>
        <time>2022-08-25T14:23:30.000Z</time>
      </trkpt>
      <trkpt lat="47.386128" lon="7.629390">
        <ele>818.859014</ele>
        <time>2022-08-25T14:23:35.000Z</time>
      </trkpt>
      <trkpt lat="47.386081" lon="7.629543">
        <ele>820.284772</ele>
        <time>2022-08-25T14:23:41.000Z</time>
      </trkpt>
      <trkpt lat="47.386052" lon="7.629671">
        <ele>821.430191</ele>
        <time>2022-08-25T14:23:45.000Z</time>
      </trkpt>
      <trkpt lat="47.386028" lon="7.629832">
        <ele>822.829172</ele>
        <time>2022-08-25T14:23:50.000Z</time>
      </trkpt>
      <trkpt lat="47.386022" lon="7.629987">
        <ele>824.146662</ele>
        <time>2022-08-25T14:23:55.000Z</time>
      </trkpt>
      <trkpt lat="47.386036" lon="7.630120">
        <ele>825.288869</ele>
        <time>2022-08-25T14:24:00.000Z</time>
      </trkpt>
      <trkpt lat="47.386054" lon="7.630251">
        <ele>826.423207</ele>
        <time>2022-08-25T14:24:05.000Z</time>
      </trkpt>
      <trkpt lat="47.386088" lon="7.630389">
        <ele>827.669411</ele>
        <time>2022-08-25T14:24:11.000Z</time>
      </trkpt>
      <trkpt lat="47.386121" lon="7.630523">
        <ele>828.879431</ele>
        <time>2022-08-25T14:24:17.000Z</time>
      </trkpt>
      <trkpt lat="47.386137" lon="7.630659">
        <ele>830.050829</ele>
        <time>2022-08-25T14:24:22.000Z</time>
      </trkpt>
      <trkpt lat="47.386151" lon="7.630793">
        <ele>831.201420</ele>
        <time>2022-08-25T14:24:27.000Z</time>
      </trkpt>
      <trkpt lat="47.386163" lon="7.630940">
        <ele>832.457905</ele>
        <time>2022-08-25T14:24:32.000Z</time>
      </trkpt>
      <trkpt lat="47.386205" lon="7.631061">
        <ele>833.616941</ele>
        <time>2022-08-25T14:24:37.000Z</time>
      </trkpt>
      <trkpt lat="47.386266" lon="7.631169">
        <ele>834.839930</ele>
        <time>2022-08-25T14:24:42.000Z</time>
      </trkpt>
      <trkpt lat="47.386310" lon="7.631301">
        <ele>836.119302</ele>
        <time>2022-08-25T14:24:48.000Z</time>
      </trkpt>
      <trkpt lat="47.386356" lon="7.631439">
        <ele>837.456826</ele>
        <time>2022-08-25T14:24:54.000Z</time>
      </trkpt>
      <trkpt lat="47.386385" lon="7.631578">
        <ele>838.721582</ele>
        <time>2022-08-25T14:24:59.000Z</time>
      </trkpt>
      <trkpt lat="47.386384" lon="7.631745">
        <ele>840.173783</ele>
        <time>2022-08-25T14:25:04.000Z</time>
      </trkpt>
      <trkpt lat="47.386400" lon="7.631905">
        <ele>841.580152</ele>
        <time>2022-08-25T14:25:09.000Z</time>
      </trkpt>
      <trkpt lat="47.386401" lon="7.632054">
        <ele>842.875841</ele>
        <time>2022-08-25T14:25:14.000Z</time>
      </trkpt>
      <trkpt lat="47.386411" lon="7.632206">
        <ele>844.203778</ele>
        <time>2022-08-25T14:25:19.000Z</time>
      </trkpt>
      <trkpt lat="47.386431" lon="7.632370">
        <ele>845.652783</ele>
        <time>2022-08-25T14:25:24.000Z</time>
      </trkpt>
      <trkpt lat="47.386468" lon="7.632495">
        <ele>846.839053</ele>
        <time>2022-08-25T14:25:28.000Z</time>
      </trkpt>
      <trkpt lat="47.386495" lon="7.632635">
        <ele>848.104842</ele>
        <time>2022-08-25T14:25:33.000Z</time>
      </trkpt>
      <trkpt lat="47.386535" lon="7.632786">
        <ele>849.514778</ele>
        <time>2022-08-25T14:25:38.000Z</time>
      </trkpt>
      <trkpt lat="47.386566" lon="7.632929">
        <ele>850.820412</ele>
        <time>2022-08-25T14:25:43.000Z</time>
      </trkpt>
      <trkpt lat="47.386605" lon="7.633060">
        <ele>852.064775</ele>
        <time>2022-08-25T14:25:48.000Z</time>
      </trkpt>
      <trkpt lat="47.386659" lon="7.633169">
        <ele>853.239217</ele>
        <time>2022-08-25T14:25:52.000Z</time>
      </trkpt>
      <trkpt lat="47.386657" lon="7.633331">
        <ele>854.648110</ele>
        <time>2022-08-25T14:25:57.000Z</time>
      </trkpt>
      <trkpt lat="47.386675" lon="7.633496">
        <ele>856.101361</ele>
        <time>2022-08-25T14:26:02.000Z</time>
      </trkpt>
      <trkpt lat="47.386671" lon="7.633657">
        <ele>858.001656</ele>
        <time>2022-08-25T14:26:07.000Z</time>
      </trkpt>
      <trkpt lat="47.386689" lon="7.633810">
        <ele>860.027207</ele>
        <time>2022-08-25T14:26:12.001Z</time>
      </trkpt>
      <trkpt lat="47.386678" lon="7.633963">
        <ele>862.034074</ele>
        <time>2022-08-25T14:26:17.001Z</time>
      </trkpt>
      <trkpt lat="47.386681" lon="7.634110">
        <ele>863.952331</ele>
        <time>2022-08-25T14:26:22.001Z</time>
      </trkpt>
      <trkpt lat="47.386671" lon="7.634256">
        <ele>865.866394</ele>
        <time>2022-08-25T14:26:27.001Z</time>
      </trkpt>
      <trkpt lat="47.386653" lon="7.634398">
        <ele>867.750747</ele>
        <time>2022-08-25T14:26:33.000Z</time>
      </trkpt>
      <trkpt lat="47.386583" lon="7.634486">
        <ele>869.521658</ele>
        <time>2022-08-25T14:28:23.000Z</time>
      </trkpt>
      <trkpt lat="47.386538" lon="7.634608">
        <ele>871.333789</ele>
        <time>2022-08-25T14:28:43.000Z</time>
      </trkpt>
      <trkpt lat="47.386454" lon="7.634794">
        <ele>874.250076</ele>
        <time>2022-08-25T14:32:26.000Z</time>
      </trkpt>
      <trkpt lat="47.386440" lon="7.634930">
        <ele>876.044379</ele>
        <time>2022-08-25T14:35:26.000Z</time>
      </trkpt>
      <trkpt lat="47.386383" lon="7.635038">
        <ele>877.830518</ele>
        <time>2022-08-25T14:35:43.000Z</time>
      </trkpt>
      <trkpt lat="47.386348" lon="7.635163">
        <ele>879.594885</ele>
        <time>2022-08-25T14:36:02.000Z</time>
      </trkpt>
      <trkpt lat="47.386259" lon="7.635197">
        <ele>881.365912</ele>
        <time>2022-08-25T14:39:39.000Z</time>
      </trkpt>
      <trkpt lat="47.386216" lon="7.635324">
        <ele>883.218032</ele>
        <time>2022-08-25T14:45:45.000Z</time>
      </trkpt>
      <trkpt lat="47.386266" lon="7.635453">
        <ele>885.156865</ele>
        <time>2022-08-25T14:45:55.000Z</time>
      </trkpt>
      <trkpt lat="47.386212" lon="7.635560">
        <ele>886.897593</ele>
        <time>2022-08-25T14:46:09.000Z</time>
      </trkpt>
      <trkpt lat="47.386203" lon="7.635695">
        <ele>888.666990</ele>
        <time>2022-08-25T14:46:20.999Z</time>
      </trkpt>
      <trkpt lat="47.386182" lon="7.635826">
        <ele>890.422938</ele>
        <time>2022-08-25T14:46:35.000Z</time>
      </trkpt>
      <trkpt lat="47.386208" lon="7.636059">
        <ele>892.796833</ele>
        <time>2022-08-25T14:47:47.000Z</time>
      </trkpt>
      <trkpt lat="47.386191" lon="7.636198">
        <ele>894.085130</ele>
        <time>2022-08-25T14:48:04.999Z</time>
      </trkpt>
      <trkpt lat="47.386181" lon="7.636340">
        <ele>895.387258</ele>
        <time>2022-08-25T14:48:19.999Z</time>
      </trkpt>
      <trkpt lat="47.386163" lon="7.636487">
        <ele>896.749753</ele>
        <time>2022-08-25T14:48:33.999Z</time>
      </trkpt>
      <trkpt lat="47.386163" lon="7.636634">
        <ele>898.090498</ele>
        <time>2022-08-25T14:49:48.000Z</time>
      </trkpt>
      <trkpt lat="47.386159" lon="7.636770">
        <ele>899.332086</ele>
        <time>2022-08-25T14:50:05.000Z</time>
      </trkpt>
      <trkpt lat="47.386139" lon="7.636900">
        <ele>900.548004</ele>
        <time>2022-08-25T14:50:27.999Z</time>
      </trkpt>
      <trkpt lat="47.386205" lon="7.637051">
        <ele>902.187288</ele>
        <time>2022-08-25T14:54:18.000Z</time>
      </trkpt>
      <trkpt lat="47.386157" lon="7.637193">
        <ele>903.634874</ele>
        <time>2022-08-25T14:55:40.000Z</time>
      </trkpt>
      <trkpt lat="47.386127" lon="7.637319">
        <ele>904.853073</ele>
        <time>2022-08-25T14:56:09.000Z</time>
      </trkpt>
      <trkpt lat="47.385979" lon="7.637270">
        <ele>906.896285</ele>
        <time>2022-08-25T14:57:10.000Z</time>
      </trkpt>
      <trkpt lat="47.385905" lon="7.637374">
        <ele>908.272333</ele>
        <time>2022-08-25T14:57:16.000Z</time>
      </trkpt>
      <trkpt lat="47.385856" lon="7.637524">
        <ele>909.791364</ele>
        <time>2022-08-25T14:57:29.000Z</time>
      </trkpt>
      <trkpt lat="47.385832" lon="7.637693">
        <ele>911.366316</ele>
        <time>2022-08-25T14:57:33.000Z</time>
      </trkpt>
      <trkpt lat="47.385817" lon="7.637845">
        <ele>912.767322</ele>
        <time>2022-08-25T14:57:36.000Z</time>
      </trkpt>
      <trkpt lat="47.385803" lon="7.638022">
        <ele>914.392679</ele>
        <time>2022-08-25T14:57:39.000Z</time>
      </trkpt>
      <trkpt lat="47.385792" lon="7.638209">
        <ele>915.452480</ele>
        <time>2022-08-25T14:57:42.000Z</time>
      </trkpt>
      <trkpt lat="47.385768" lon="7.638388">
        <ele>915.609310</ele>
        <time>2022-08-25T14:57:45.000Z</time>
      </trkpt>
      <trkpt lat="47.385740" lon="7.638543">
        <ele>915.747185</ele>
        <time>2022-08-25T14:57:48.000Z</time>
      </trkpt>
      <trkpt lat="47.385698" lon="7.638683">
        <ele>915.878792</ele>
        <time>2022-08-25T14:57:51.000Z</time>
      </trkpt>
      <trkpt lat="47.385648" lon="7.638813">
        <ele>916.007290</ele>
        <time>2022-08-25T14:57:54.000Z</time>
      </trkpt>
      <trkpt lat="47.385581" lon="7.638944">
        <ele>916.148392</ele>
        <time>2022-08-25T14:57:57.000Z</time>
      </trkpt>
      <trkpt lat="47.385517" lon="7.639064">
        <ele>916.279682</ele>
        <time>2022-08-25T14:58:00.000Z</time>
      </trkpt>
      <trkpt lat="47.385452" lon="7.639163">
        <ele>916.398205</ele>
        <time>2022-08-25T14:58:03.000Z</time>
      </trkpt>
      <trkpt lat="47.385366" lon="7.639271">
        <ele>916.541500</ele>
        <time>2022-08-25T14:58:07.000Z</time>
      </trkpt>
      <trkpt lat="47.385287" lon="7.639374">
        <ele>916.675266</ele>
        <time>2022-08-25T14:58:11.000Z</time>
      </trkpt>
      <trkpt lat="47.385192" lon="7.639469">
        <ele>916.820899</ele>
        <time>2022-08-25T14:58:15.000Z</time>
      </trkpt>
      <trkpt lat="47.385095" lon="7.639531">
        <ele>916.955066</ele>
        <time>2022-08-25T14:58:19.000Z</time>
      </trkpt>
      <trkpt lat="47.384996" lon="7.639562">
        <ele>917.083530</ele>
        <time>2022-08-25T14:58:23.000Z</time>
      </trkpt>
      <trkpt lat="47.385083" lon="7.639598">
        <ele>917.198220</ele>
        <time>2022-08-25T14:58:29.000Z</time>
      </trkpt>
      <trkpt lat="47.385153" lon="7.639501">
        <ele>917.320064</ele>
        <time>2022-08-25T14:58:32.000Z</time>
      </trkpt>
      <trkpt lat="47.385227" lon="7.639403">
        <ele>917.446231</ele>
        <time>2022-08-25T14:59:58.000Z</time>
      </trkpt>
      <trkpt lat="47.385151" lon="7.639497">
        <ele>917.572065</ele>
        <time>2022-08-25T15:00:02.000Z</time>
      </trkpt>
      <trkpt lat="47.385065" lon="7.639535">
        <ele>917.678510</ele>
        <time>2022-08-25T15:00:05.000Z</time>
      </trkpt>
      <trkpt lat="47.384952" lon="7.639572">
        <ele>917.764848</ele>
        <time>2022-08-25T15:00:09.000Z</time>
      </trkpt>
      <trkpt lat="47.384826" lon="7.639550">
        <ele>917.859491</ele>
        <time>2022-08-25T15:00:13.000Z</time>
      </trkpt>
      <trkpt lat="47.384726" lon="7.639508">
        <ele>917.937043</ele>
        <time>2022-08-25T15:00:16.000Z</time>
      </trkpt>
      <trkpt lat="47.384603" lon="7.639455">
        <ele>918.032619</ele>
        <time>2022-08-25T15:00:19.000Z</time>
      </trkpt>
      <trkpt lat="47.384514" lon="7.639426">
        <ele>918.100604</ele>
        <time>2022-08-25T15:00:21.000Z</time>
      </trkpt>
      <trkpt lat="47.384427" lon="7.639390">
        <ele>918.168000</ele>
        <time>2022-08-25T15:00:24.000Z</time>
      </trkpt>
      <trkpt lat="47.384306" lon="7.639359">
        <ele>918.259607</ele>
        <time>2022-08-25T15:00:27.000Z</time>
      </trkpt>
      <trkpt lat="47.384215" lon="7.639325">
        <ele>918.329626</ele>
        <time>2022-08-25T15:00:30.000Z</time>
      </trkpt>
      <trkpt lat="47.384098" lon="7.639278">
        <ele>918.420072</ele>
        <time>2022-08-25T15:00:34.000Z</time>
      </trkpt>
      <trkpt lat="47.384003" lon="7.639275">
        <ele>918.490953</ele>
        <time>2022-08-25T15:00:37.000Z</time>
      </trkpt>
      <trkpt lat="47.383908" lon="7.639353">
        <ele>918.572032</ele>
        <time>2022-08-25T15:00:41.000Z</time>
      </trkpt>
      <trkpt lat="47.383853" lon="7.639489">
        <ele>918.652040</ele>
        <time>2022-08-25T15:00:45.000Z</time>
      </trkpt>
      <trkpt lat="47.383829" lon="7.639617">
        <ele>918.719121</ele>
        <time>2022-08-25T15:00:48.000Z</time>
      </trkpt>
      <trkpt lat="47.383812" lon="7.639797">
        <ele>918.810913</ele>
        <time>2022-08-25T15:00:51.000Z</time>
      </trkpt>
      <trkpt lat="47.383825" lon="7.639946">
        <ele>918.886790</ele>
        <time>2022-08-25T15:00:53.000Z</time>
      </trkpt>
      <trkpt lat="47.383848" lon="7.640119">
        <ele>918.975835</ele>
        <time>2022-08-25T15:00:55.000Z</time>
      </trkpt>
      <trkpt lat="47.383879" lon="7.640263">
        <ele>919.100055</ele>
        <time>2022-08-25T15:00:56.998Z</time>
      </trkpt>
      <trkpt lat="47.383893" lon="7.640415">
        <ele>919.264551</ele>
        <time>2022-08-25T15:00:58.998Z</time>
      </trkpt>
      <trkpt lat="47.383918" lon="7.640558">
        <ele>919.422924</ele>
        <time>2022-08-25T15:01:00.998Z</time>
      </trkpt>
      <trkpt lat="47.383930" lon="7.640707">
        <ele>919.583827</ele>
        <time>2022-08-25T15:01:02.998Z</time>
      </trkpt>
      <trkpt lat="47.383947" lon="7.640847">
        <ele>919.736349</ele>
        <time>2022-08-25T15:01:04.998Z</time>
      </trkpt>
      <trkpt lat="47.383983" lon="7.641010">
        <ele>919.920203</ele>
        <time>2022-08-25T15:01:06.998Z</time>
      </trkpt>
      <trkpt lat="47.383994" lon="7.641169">
        <ele>920.091591</ele>
        <time>2022-08-25T15:01:08.999Z</time>
      </trkpt>
      <trkpt lat="47.384025" lon="7.641341">
        <ele>920.282455</ele>
        <time>2022-08-25T15:01:10.999Z</time>
      </trkpt>
      <trkpt lat="47.384055" lon="7.641515">
        <ele>920.474994</ele>
        <time>2022-08-25T15:01:12.999Z</time>
      </trkpt>
      <trkpt lat="47.384082" lon="7.641678">
        <ele>920.654939</ele>
        <time>2022-08-25T15:01:14.999Z</time>
      </trkpt>
      <trkpt lat="47.384112" lon="7.641858">
        <ele>920.853719</ele>
        <time>2022-08-25T15:01:16.999Z</time>
      </trkpt>
      <trkpt lat="47.384146" lon="7.642036">
        <ele>921.052044</ele>
        <time>2022-08-25T15:01:18.999Z</time>
      </trkpt>
      <trkpt lat="47.384172" lon="7.642197">
        <ele>921.229531</ele>
        <time>2022-08-25T15:01:20.999Z</time>
      </trkpt>
      <trkpt lat="47.384181" lon="7.642370">
        <ele>921.415591</ele>
        <time>2022-08-25T15:01:22.999Z</time>
      </trkpt>
      <trkpt lat="47.384227" lon="7.642548">
        <ele>921.619895</ele>
        <time>2022-08-25T15:01:24.999Z</time>
      </trkpt>
      <trkpt lat="47.384251" lon="7.642691">
        <ele>921.777878</ele>
        <time>2022-08-25T15:01:26.999Z</time>
      </trkpt>
      <trkpt lat="47.384281" lon="7.642865">
        <ele>922.125524</ele>
        <time>2022-08-25T15:01:28.999Z</time>
      </trkpt>
      <trkpt lat="47.384319" lon="7.643031">
        <ele>922.572938</ele>
        <time>2022-08-25T15:01:30.999Z</time>
      </trkpt>
      <trkpt lat="47.384350" lon="7.643191">
        <ele>922.997861</ele>
        <time>2022-08-25T15:01:32.999Z</time>
      </trkpt>
      <trkpt lat="47.384377" lon="7.643359">
        <ele>923.438732</ele>
        <time>2022-08-25T15:01:34.999Z</time>
      </trkpt>
      <trkpt lat="47.384399" lon="7.643531">
        <ele>923.885664</ele>
        <time>2022-08-25T15:01:36.999Z</time>
      </trkpt>
      <trkpt lat="47.384409" lon="7.643713">
        <ele>924.351889</ele>
        <time>2022-08-25T15:01:38.999Z</time>
      </trkpt>
      <trkpt lat="47.384414" lon="7.643894">
        <ele>924.814418</ele>
        <time>2022-08-25T15:01:40.999Z</time>
      </trkpt>
      <trkpt lat="47.384423" lon="7.644063">
        <ele>925.247256</ele>
        <time>2022-08-25T15:01:42.999Z</time>
      </trkpt>
      <trkpt lat="47.384439" lon="7.644228">
        <ele>925.672846</ele>
        <time>2022-08-25T15:01:44.999Z</time>
      </trkpt>
      <trkpt lat="47.384445" lon="7.644390">
        <ele>926.087096</ele>
        <time>2022-08-25T15:01:46.999Z</time>
      </trkpt>
      <trkpt lat="47.384455" lon="7.644553">
        <ele>926.504986</ele>
        <time>2022-08-25T15:01:48.999Z</time>
      </trkpt>
      <trkpt lat="47.384463" lon="7.644718">
        <ele>926.927356</ele>
        <time>2022-08-25T15:01:51.000Z</time>
      </trkpt>
      <trkpt lat="47.384468" lon="7.644877">
        <ele>927.333765</ele>
        <time>2022-08-25T15:01:53.000Z</time>
      </trkpt>
      <trkpt lat="47.384462" lon="7.645033">
        <ele>927.732719</ele>
        <time>2022-08-25T15:01:55.000Z</time>
      </trkpt>
      <trkpt lat="47.384455" lon="7.645182">
        <ele>928.114072</ele>
        <time>2022-08-25T15:01:57.000Z</time>
      </trkpt>
      <trkpt lat="47.384427" lon="7.645344">
        <ele>928.540968</ele>
        <time>2022-08-25T15:02:00.000Z</time>
      </trkpt>
      <trkpt lat="47.384388" lon="7.645505">
        <ele>929.643987</ele>
        <time>2022-08-25T15:02:03.000Z</time>
      </trkpt>
      <trkpt lat="47.384349" lon="7.645638">
        <ele>930.746530</ele>
        <time>2022-08-25T15:02:06.000Z</time>
      </trkpt>
      <trkpt lat="47.384307" lon="7.645772">
        <ele>931.869796</ele>
        <time>2022-08-25T15:02:09.000Z</time>
      </trkpt>
      <trkpt lat="47.384263" lon="7.645902">
        <ele>932.975387</ele>
        <time>2022-08-25T15:02:12.000Z</time>
      </trkpt>
      <trkpt lat="47.384217" lon="7.646028">
        <ele>934.064331</ele>
        <time>2022-08-25T15:02:15.000Z</time>
      </trkpt>
      <trkpt lat="47.384166" lon="7.646156">
        <ele>935.194117</ele>
        <time>2022-08-25T15:02:18.000Z</time>
      </trkpt>
      <trkpt lat="47.384115" lon="7.646294">
        <ele>936.390088</ele>
        <time>2022-08-25T15:02:21.000Z</time>
      </trkpt>
      <trkpt lat="47.384071" lon="7.646420">
        <ele>937.468551</ele>
        <time>2022-08-25T15:02:24.000Z</time>
      </trkpt>
      <trkpt lat="47.384027" lon="7.646570">
        <ele>938.712095</ele>
        <time>2022-08-25T15:02:28.000Z</time>
      </trkpt>
      <trkpt lat="47.383978" lon="7.646721">
        <ele>939.985875</ele>
        <time>2022-08-25T15:02:32.000Z</time>
      </trkpt>
      <trkpt lat="47.383921" lon="7.646863">
        <ele>941.241646</ele>
        <time>2022-08-25T15:02:36.000Z</time>
      </trkpt>
      <trkpt lat="47.383859" lon="7.646987">
        <ele>942.414249</ele>
        <time>2022-08-25T15:02:40.000Z</time>
      </trkpt>
      <trkpt lat="47.383785" lon="7.647114">
        <ele>943.688839</ele>
        <time>2022-08-25T15:02:45.000Z</time>
      </trkpt>
      <trkpt lat="47.383718" lon="7.647220">
        <ele>944.791946</ele>
        <time>2022-08-25T15:02:49.000Z</time>
      </trkpt>
      <trkpt lat="47.383654" lon="7.647336">
        <ele>945.930237</ele>
        <time>2022-08-25T15:02:53.000Z</time>
      </trkpt>
      <trkpt lat="47.383591" lon="7.647458">
        <ele>947.097419</ele>
        <time>2022-08-25T15:02:57.000Z</time>
      </trkpt>
      <trkpt lat="47.383527" lon="7.647562">
        <ele>948.166502</ele>
        <time>2022-08-25T15:03:01.000Z</time>
      </trkpt>
      <trkpt lat="47.383440" lon="7.647653">
        <ele>949.113935</ele>
        <time>2022-08-25T15:03:05.999Z</time>
      </trkpt>
      <trkpt lat="47.383338" lon="7.647650">
        <ele>949.703471</ele>
        <time>2022-08-25T15:03:09.999Z</time>
      </trkpt>
      <trkpt lat="47.383238" lon="7.647628">
        <ele>950.287710</ele>
        <time>2022-08-25T15:03:12.999Z</time>
      </trkpt>
      <trkpt lat="47.383117" lon="7.647622">
        <ele>950.987317</ele>
        <time>2022-08-25T15:03:15.999Z</time>
      </trkpt>
      <trkpt lat="47.383013" lon="7.647624">
        <ele>951.588345</ele>
        <time>2022-08-25T15:03:18.999Z</time>
      </trkpt>
      <trkpt lat="47.382923" lon="7.647674">
        <ele>952.144000</ele>
        <time>2022-08-25T15:03:23.000Z</time>
      </trkpt>
      <trkpt lat="47.382876" lon="7.647798">
        <ele>952.700018</ele>
        <time>2022-08-25T15:03:28.000Z</time>
      </trkpt>
      <trkpt lat="47.382943" lon="7.647888">
        <ele>953.223375</ele>
        <time>2022-08-25T15:03:34.000Z</time>
      </trkpt>
      <trkpt lat="47.383038" lon="7.647882">
        <ele>953.772846</ele>
        <time>2022-08-25T15:03:38.000Z</time>
      </trkpt>
      <trkpt lat="47.383133" lon="7.647920">
        <ele>954.341594</ele>
        <time>2022-08-25T15:03:42.000Z</time>
      </trkpt>
      <trkpt lat="47.383216" lon="7.647976">
        <ele>954.868898</ele>
        <time>2022-08-25T15:03:46.000Z</time>
      </trkpt>
      <trkpt lat="47.383277" lon="7.648086">
        <ele>955.425217</ele>
        <time>2022-08-25T15:03:52.000Z</time>
      </trkpt>
      <trkpt lat="47.383199" lon="7.647970">
        <ele>956.064870</ele>
        <time>2022-08-25T15:04:01.000Z</time>
      </trkpt>
      <trkpt lat="47.383111" lon="7.647906">
        <ele>956.631701</ele>
        <time>2022-08-25T15:04:04.000Z</time>
      </trkpt>
      <trkpt lat="47.383020" lon="7.647880">
        <ele>957.167306</ele>
        <time>2022-08-25T15:04:07.000Z</time>
      </trkpt>
      <trkpt lat="47.382908" lon="7.647861">
        <ele>957.818767</ele>
        <time>2022-08-25T15:04:10.000Z</time>
      </trkpt>
      <trkpt lat="47.382818" lon="7.647866">
        <ele>958.339211</ele>
        <time>2022-08-25T15:04:13.000Z</time>
      </trkpt>
      <trkpt lat="47.382703" lon="7.647957">
        <ele>959.093128</ele>
        <time>2022-08-25T15:06:23.001Z</time>
      </trkpt>
      <trkpt lat="47.382650" lon="7.648080">
        <ele>960.525866</ele>
        <time>2022-08-25T15:06:27.001Z</time>
      </trkpt>
      <trkpt lat="47.382577" lon="7.648182">
        <ele>962.295804</ele>
        <time>2022-08-25T15:06:32.001Z</time>
      </trkpt>
      <trkpt lat="47.382489" lon="7.648282">
        <ele>964.251402</ele>
        <time>2022-08-25T15:06:37.001Z</time>
      </trkpt>
      <trkpt lat="47.382423" lon="7.648410">
        <ele>966.170078</ele>
        <time>2022-08-25T15:06:42.001Z</time>
      </trkpt>
      <trkpt lat="47.382342" lon="7.648491">
        <ele>967.892959</ele>
        <time>2022-08-25T15:06:48.001Z</time>
      </trkpt>
      <trkpt lat="47.382265" lon="7.648582">
        <ele>969.629879</ele>
        <time>2022-08-25T15:06:53.001Z</time>
      </trkpt>
      <trkpt lat="47.382209" lon="7.648689">
        <ele>971.242655</ele>
        <time>2022-08-25T15:06:58.001Z</time>
      </trkpt>
      <trkpt lat="47.382166" lon="7.648817">
        <ele>972.946670</ele>
        <time>2022-08-25T15:07:03.001Z</time>
      </trkpt>
      <trkpt lat="47.382154" lon="7.648962">
        <ele>974.688741</ele>
        <time>2022-08-25T15:07:08.001Z</time>
      </trkpt>
      <trkpt lat="47.382145" lon="7.649108">
        <ele>976.437071</ele>
        <time>2022-08-25T15:07:14.000Z</time>
      </trkpt>
      <trkpt lat="47.382134" lon="7.649254">
        <ele>978.188946</ele>
        <time>2022-08-25T15:07:20.000Z</time>
      </trkpt>
      <trkpt lat="47.382120" lon="7.649393">
        <ele>979.864836</ele>
        <time>2022-08-25T15:07:26.000Z</time>
      </trkpt>
      <trkpt lat="47.382107" lon="7.649544">
        <ele>981.680091</ele>
        <time>2022-08-25T15:07:32.000Z</time>
      </trkpt>
      <trkpt lat="47.382067" lon="7.649688">
        <ele>983.536263</ele>
        <time>2022-08-25T15:07:38.000Z</time>
      </trkpt>
      <trkpt lat="47.382040" lon="7.649831">
        <ele>985.306679</ele>
        <time>2022-08-25T15:07:44.000Z</time>
      </trkpt>
      <trkpt lat="47.382013" lon="7.649970">
        <ele>987.031195</ele>
        <time>2022-08-25T15:07:50.000Z</time>
      </trkpt>
      <trkpt lat="47.381987" lon="7.650125">
        <ele>988.935536</ele>
        <time>2022-08-25T15:07:56.000Z</time>
      </trkpt>
      <trkpt lat="47.381961" lon="7.650274">
        <ele>990.770505</ele>
        <time>2022-08-25T15:08:02.000Z</time>
      </trkpt>
      <trkpt lat="47.381969" lon="7.650409">
        <ele>991.208946</ele>
        <time>2022-08-25T15:08:08.000Z</time>
      </trkpt>
      <trkpt lat="47.381948" lon="7.650566">
        <ele>991.583712</ele>
        <time>2022-08-25T15:08:14.000Z</time>
      </trkpt>
      <trkpt lat="47.381919" lon="7.650693">
        <ele>991.897577</ele>
        <time>2022-08-25T15:08:20.000Z</time>
      </trkpt>
      <trkpt lat="47.381883" lon="7.650828">
        <ele>992.237354</ele>
        <time>2022-08-25T15:08:25.000Z</time>
      </trkpt>
      <trkpt lat="47.381838" lon="7.650944">
        <ele>992.550427</ele>
        <time>2022-08-25T15:08:29.000Z</time>
      </trkpt>
      <trkpt lat="47.381785" lon="7.651070">
        <ele>992.897794</ele>
        <time>2022-08-25T15:08:34.001Z</time>
      </trkpt>
      <trkpt lat="47.381743" lon="7.651190">
        <ele>993.214133</ele>
        <time>2022-08-25T15:08:38.001Z</time>
      </trkpt>
      <trkpt lat="47.381697" lon="7.651320">
        <ele>993.557630</ele>
        <time>2022-08-25T15:08:42.001Z</time>
      </trkpt>
      <trkpt lat="47.381643" lon="7.651437">
        <ele>993.889219</ele>
        <time>2022-08-25T15:08:46.001Z</time>
      </trkpt>
      <trkpt lat="47.381588" lon="7.651543">
        <ele>994.201952</ele>
        <time>2022-08-25T15:08:49.001Z</time>
      </trkpt>
      <trkpt lat="47.381531" lon="7.651679">
        <ele>994.576514</ele>
        <time>2022-08-25T15:08:54.001Z</time>
      </trkpt>
      <trkpt lat="47.381438" lon="7.651761">
        <ele>994.951119</ele>
        <time>2022-08-25T15:08:59.001Z</time>
      </trkpt>
      <trkpt lat="47.381353" lon="7.651822">
        <ele>995.277964</ele>
        <time>2022-08-25T15:09:06.001Z</time>
      </trkpt>
      <trkpt lat="47.381217" lon="7.651874">
        <ele>995.763831</ele>
        <time>2022-08-25T15:15:56.001Z</time>
      </trkpt>
      <trkpt lat="47.381155" lon="7.652098">
        <ele>996.330535</ele>
        <time>2022-08-25T15:33:17.000Z</time>
      </trkpt>
      <trkpt lat="47.381112" lon="7.652250">
        <ele>996.716310</ele>
        <time>2022-08-25T15:33:33.000Z</time>
      </trkpt>
      <trkpt lat="47.381053" lon="7.652432">
        <ele>997.002911</ele>
        <time>2022-08-25T15:34:31.001Z</time>
      </trkpt>
      <trkpt lat="47.381011" lon="7.652669">
        <ele>995.307680</ele>
        <time>2022-08-25T15:34:47.000Z</time>
      </trkpt>
      <trkpt lat="47.380983" lon="7.652813">
        <ele>994.270955</ele>
        <time>2022-08-25T15:34:51.000Z</time>
      </trkpt>
      <trkpt lat="47.380945" lon="7.652963">
        <ele>993.162715</ele>
        <time>2022-08-25T15:35:02.000Z</time>
      </trkpt>
      <trkpt lat="47.380938" lon="7.653111">
        <ele>992.136086</ele>
        <time>2022-08-25T15:35:09.000Z</time>
      </trkpt>
      <trkpt lat="47.380929" lon="7.653274">
        <ele>991.004411</ele>
        <time>2022-08-25T15:35:14.000Z</time>
      </trkpt>
      <trkpt lat="47.380928" lon="7.653436">
        <ele>989.883353</ele>
        <time>2022-08-25T15:35:18.000Z</time>
      </trkpt>
      <trkpt lat="47.380897" lon="7.653623">
        <ele>988.551130</ele>
        <time>2022-08-25T15:35:21.000Z</time>
      </trkpt>
      <trkpt lat="47.380913" lon="7.653758">
        <ele>987.602751</ele>
        <time>2022-08-25T15:35:24.000Z</time>
      </trkpt>
      <trkpt lat="47.380867" lon="7.653894">
        <ele>986.550775</ele>
        <time>2022-08-25T15:35:29.000Z</time>
      </trkpt>
      <trkpt lat="47.380838" lon="7.654075">
        <ele>985.263700</ele>
        <time>2022-08-25T15:35:32.000Z</time>
      </trkpt>
      <trkpt lat="47.380841" lon="7.654211">
        <ele>984.322103</ele>
        <time>2022-08-25T15:35:34.001Z</time>
      </trkpt>
      <trkpt lat="47.380831" lon="7.654349">
        <ele>983.361713</ele>
        <time>2022-08-25T15:35:36.001Z</time>
      </trkpt>
      <trkpt lat="47.380813" lon="7.654536">
        <ele>982.054694</ele>
        <time>2022-08-25T15:35:39.001Z</time>
      </trkpt>
      <trkpt lat="47.380804" lon="7.654722">
        <ele>980.764322</ele>
        <time>2022-08-25T15:35:42.001Z</time>
      </trkpt>
      <trkpt lat="47.380790" lon="7.654865">
        <ele>979.764496</ele>
        <time>2022-08-25T15:35:44.001Z</time>
      </trkpt>
      <trkpt lat="47.380787" lon="7.655001">
        <ele>978.822898</ele>
        <time>2022-08-25T15:35:46.001Z</time>
      </trkpt>
      <trkpt lat="47.380776" lon="7.655152">
        <ele>978.249349</ele>
        <time>2022-08-25T15:35:48.001Z</time>
      </trkpt>
      <trkpt lat="47.380771" lon="7.655295">
        <ele>977.736926</ele>
        <time>2022-08-25T15:35:50.001Z</time>
      </trkpt>
      <trkpt lat="47.380728" lon="7.655456">
        <ele>977.117570</ele>
        <time>2022-08-25T15:35:53.001Z</time>
      </trkpt>
      <trkpt lat="47.380673" lon="7.655661">
        <ele>976.328466</ele>
        <time>2022-08-25T15:36:41.001Z</time>
      </trkpt>
      <trkpt lat="47.380624" lon="7.655777">
        <ele>975.839193</ele>
        <time>2022-08-25T15:36:47.001Z</time>
      </trkpt>
      <trkpt lat="47.380544" lon="7.655907">
        <ele>975.210551</ele>
        <time>2022-08-25T15:36:50.001Z</time>
      </trkpt>
      <trkpt lat="47.380453" lon="7.656003">
        <ele>974.619513</ele>
        <time>2022-08-25T15:36:53.001Z</time>
      </trkpt>
      <trkpt lat="47.380393" lon="7.656106">
        <ele>974.133284</ele>
        <time>2022-08-25T15:36:56.000Z</time>
      </trkpt>
      <trkpt lat="47.380328" lon="7.656201">
        <ele>973.649972</ele>
        <time>2022-08-25T15:36:59.000Z</time>
      </trkpt>
      <trkpt lat="47.380251" lon="7.656308">
        <ele>973.091197</ele>
        <time>2022-08-25T15:37:03.000Z</time>
      </trkpt>
      <trkpt lat="47.380164" lon="7.656404">
        <ele>972.517228</ele>
        <time>2022-08-25T15:37:58.999Z</time>
      </trkpt>
      <trkpt lat="47.380147" lon="7.656589">
        <ele>971.849109</ele>
        <time>2022-08-25T15:39:30.000Z</time>
      </trkpt>
      <trkpt lat="47.380131" lon="7.656753">
        <ele>971.256150</ele>
        <time>2022-08-25T15:39:34.000Z</time>
      </trkpt>
      <trkpt lat="47.380125" lon="7.656914">
        <ele>970.679114</ele>
        <time>2022-08-25T15:39:38.000Z</time>
      </trkpt>
      <trkpt lat="47.380134" lon="7.657053">
        <ele>970.179413</ele>
        <time>2022-08-25T15:39:41.000Z</time>
      </trkpt>
      <trkpt lat="47.380154" lon="7.657190">
        <ele>969.677872</ele>
        <time>2022-08-25T15:39:44.000Z</time>
      </trkpt>
      <trkpt lat="47.380168" lon="7.657325">
        <ele>969.381350</ele>
        <time>2022-08-25T15:39:47.000Z</time>
      </trkpt>
      <trkpt lat="47.380190" lon="7.657476">
        <ele>970.447091</ele>
        <time>2022-08-25T15:39:51.000Z</time>
      </trkpt>
      <trkpt lat="47.380237" lon="7.657617">
        <ele>971.531481</ele>
        <time>2022-08-25T15:39:56.000Z</time>
      </trkpt>
      <trkpt lat="47.380311" lon="7.657730">
        <ele>972.616162</ele>
        <time>2022-08-25T15:40:01.000Z</time>
      </trkpt>
      <trkpt lat="47.380190" lon="7.657932">
        <ele>974.477056</ele>
        <time>2022-08-25T15:41:47.000Z</time>
      </trkpt>
      <trkpt lat="47.380072" lon="7.657978">
        <ele>975.720664</ele>
        <time>2022-08-25T15:41:50.000Z</time>
      </trkpt>
      <trkpt lat="47.379964" lon="7.658031">
        <ele>976.880356</ele>
        <time>2022-08-25T15:41:53.000Z</time>
      </trkpt>
      <trkpt lat="47.379862" lon="7.658116">
        <ele>978.073796</ele>
        <time>2022-08-25T15:41:56.000Z</time>
      </trkpt>
      <trkpt lat="47.379755" lon="7.658207">
        <ele>979.332002</ele>
        <time>2022-08-25T15:41:59.000Z</time>
      </trkpt>
      <trkpt lat="47.379671" lon="7.658319">
        <ele>980.485213</ele>
        <time>2022-08-25T15:42:02.000Z</time>
      </trkpt>
      <trkpt lat="47.379603" lon="7.658466">
        <ele>981.713610</ele>
        <time>2022-08-25T15:42:05.000Z</time>
      </trkpt>
      <trkpt lat="47.379568" lon="7.658590">
        <ele>982.640573</ele>
        <time>2022-08-25T15:42:08.000Z</time>
      </trkpt>
      <trkpt lat="47.379509" lon="7.658724">
        <ele>983.743458</ele>
        <time>2022-08-25T15:42:12.000Z</time>
      </trkpt>
      <trkpt lat="47.379455" lon="7.658854">
        <ele>984.795794</ele>
        <time>2022-08-25T15:42:15.000Z</time>
      </trkpt>
      <trkpt lat="47.379306" lon="7.659142">
        <ele>987.296659</ele>
        <time>2022-08-25T15:42:59.001Z</time>
      </trkpt>
      <trkpt lat="47.379250" lon="7.659287">
        <ele>988.606409</ele>
        <time>2022-08-25T15:43:03.001Z</time>
      </trkpt>
      <trkpt lat="47.379192" lon="7.659414">
        <ele>989.856291</ele>
        <time>2022-08-25T15:43:07.001Z</time>
      </trkpt>
      <trkpt lat="47.379152" lon="7.659539">
        <ele>990.984358</ele>
        <time>2022-08-25T15:43:11.000Z</time>
      </trkpt>
      <trkpt lat="47.379098" lon="7.659666">
        <ele>992.207944</ele>
        <time>2022-08-25T15:43:15.000Z</time>
      </trkpt>
      <trkpt lat="47.379051" lon="7.659795">
        <ele>993.403185</ele>
        <time>2022-08-25T15:43:19.000Z</time>
      </trkpt>
      <trkpt lat="47.378997" lon="7.659941">
        <ele>994.760569</ele>
        <time>2022-08-25T15:43:24.000Z</time>
      </trkpt>
      <trkpt lat="47.378949" lon="7.660076">
        <ele>996.004696</ele>
        <time>2022-08-25T15:43:29.000Z</time>
      </trkpt>
      <trkpt lat="47.378912" lon="7.660222">
        <ele>997.276656</ele>
        <time>2022-08-25T15:43:34.000Z</time>
      </trkpt>
      <trkpt lat="47.378876" lon="7.660360">
        <ele>998.483316</ele>
        <time>2022-08-25T15:43:38.000Z</time>
      </trkpt>
      <trkpt lat="47.378852" lon="7.660503">
        <ele>999.685408</ele>
        <time>2022-08-25T15:43:41.000Z</time>
      </trkpt>
      <trkpt lat="47.378817" lon="7.660668">
        <ele>1001.096214</ele>
        <time>2022-08-25T15:43:45.000Z</time>
      </trkpt>
      <trkpt lat="47.378781" lon="7.660847">
        <ele>1002.619799</ele>
        <time>2022-08-25T15:43:49.000Z</time>
      </trkpt>
      <trkpt lat="47.378747" lon="7.661024">
        <ele>1004.120994</ele>
        <time>2022-08-25T15:43:52.000Z</time>
      </trkpt>
      <trkpt lat="47.378703" lon="7.661195">
        <ele>1005.613585</ele>
        <time>2022-08-25T15:43:55.000Z</time>
      </trkpt>
      <trkpt lat="47.378641" lon="7.661330">
        <ele>1006.944549</ele>
        <time>2022-08-25T15:43:58.000Z</time>
      </trkpt>
      <trkpt lat="47.378598" lon="7.661466">
        <ele>1008.169231</ele>
        <time>2022-08-25T15:44:01.000Z</time>
      </trkpt>
      <trkpt lat="47.378540" lon="7.661599">
        <ele>1009.398607</ele>
        <time>2022-08-25T15:44:04.000Z</time>
      </trkpt>
      <trkpt lat="47.378500" lon="7.661724">
        <ele>1010.187306</ele>
        <time>2022-08-25T15:44:08.000Z</time>
      </trkpt>
      <trkpt lat="47.378463" lon="7.661877">
        <ele>1011.114113</ele>
        <time>2022-08-25T15:44:11.000Z</time>
      </trkpt>
      <trkpt lat="47.378456" lon="7.662041">
        <ele>1012.051539</ele>
        <time>2022-08-25T15:44:14.000Z</time>
      </trkpt>
      <trkpt lat="47.378388" lon="7.662168">
        <ele>1012.975158</ele>
        <time>2022-08-25T15:44:17.000Z</time>
      </trkpt>
      <trkpt lat="47.378319" lon="7.662263">
        <ele>1013.769895</ele>
        <time>2022-08-25T15:44:20.000Z</time>
      </trkpt>
      <trkpt lat="47.378212" lon="7.662232">
        <ele>1014.688503</ele>
        <time>2022-08-25T15:44:24.000Z</time>
      </trkpt>
      <trkpt lat="47.378093" lon="7.662229">
        <ele>1015.691167</ele>
        <time>2022-08-25T15:44:28.000Z</time>
      </trkpt>
      <trkpt lat="47.377999" lon="7.662319">
        <ele>1016.634947</ele>
        <time>2022-08-25T15:44:31.000Z</time>
      </trkpt>
      <trkpt lat="47.377925" lon="7.662416">
        <ele>1017.468526</ele>
        <time>2022-08-25T15:44:34.000Z</time>
      </trkpt>
      <trkpt lat="47.377866" lon="7.662541">
        <ele>1018.337755</ele>
        <time>2022-08-25T15:44:37.000Z</time>
      </trkpt>
      <trkpt lat="47.377793" lon="7.662671">
        <ele>1019.301192</ele>
        <time>2022-08-25T15:44:40.000Z</time>
      </trkpt>
      <trkpt lat="47.377721" lon="7.662812">
        <ele>1020.308632</ele>
        <time>2022-08-25T15:44:43.000Z</time>
      </trkpt>
      <trkpt lat="47.377663" lon="7.662940">
        <ele>1021.187245</ele>
        <time>2022-08-25T15:44:47.000Z</time>
      </trkpt>
      <trkpt lat="47.377606" lon="7.663047">
        <ele>1021.963899</ele>
        <time>2022-08-25T15:44:50.000Z</time>
      </trkpt>
      <trkpt lat="47.377536" lon="7.663173">
        <ele>1022.893654</ele>
        <time>2022-08-25T15:44:53.000Z</time>
      </trkpt>
      <trkpt lat="47.377490" lon="7.663310">
        <ele>1023.766012</ele>
        <time>2022-08-25T15:44:56.000Z</time>
      </trkpt>
      <trkpt lat="47.377442" lon="7.663448">
        <ele>1024.604525</ele>
        <time>2022-08-25T15:45:00.001Z</time>
      </trkpt>
      <trkpt lat="47.377387" lon="7.663596">
        <ele>1025.382758</ele>
        <time>2022-08-25T15:45:04.000Z</time>
      </trkpt>
      <trkpt lat="47.377341" lon="7.663713">
        <ele>1026.006419</ele>
        <time>2022-08-25T15:45:07.000Z</time>
      </trkpt>
      <trkpt lat="47.377300" lon="7.663846">
        <ele>1026.680063</ele>
        <time>2022-08-25T15:45:11.000Z</time>
      </trkpt>
      <trkpt lat="47.377250" lon="7.664034">
        <ele>1027.611150</ele>
        <time>2022-08-25T15:46:40.000Z</time>
      </trkpt>
      <trkpt lat="47.377208" lon="7.664159">
        <ele>1028.254410</ele>
        <time>2022-08-25T15:46:44.000Z</time>
      </trkpt>
      <trkpt lat="47.377165" lon="7.664293">
        <ele>1028.937972</ele>
        <time>2022-08-25T15:46:49.000Z</time>
      </trkpt>
      <trkpt lat="47.377118" lon="7.664425">
        <ele>1029.625457</ele>
        <time>2022-08-25T15:46:53.000Z</time>
      </trkpt>
      <trkpt lat="47.377058" lon="7.664604">
        <ele>1030.546171</ele>
        <time>2022-08-25T15:46:56.000Z</time>
      </trkpt>
      <trkpt lat="47.377002" lon="7.664741">
        <ele>1031.283855</ele>
        <time>2022-08-25T15:47:00.000Z</time>
      </trkpt>
      <trkpt lat="47.376934" lon="7.664843">
        <ele>1031.943684</ele>
        <time>2022-08-25T15:47:04.000Z</time>
      </trkpt>
      <trkpt lat="47.376893" lon="7.664970">
        <ele>1032.592260</ele>
        <time>2022-08-25T15:47:07.000Z</time>
      </trkpt>
      <trkpt lat="47.376845" lon="7.665131">
        <ele>1033.403190</ele>
        <time>2022-08-25T15:47:09.999Z</time>
      </trkpt>
      <trkpt lat="47.376810" lon="7.665308">
        <ele>1034.253208</ele>
        <time>2022-08-25T15:47:12.999Z</time>
      </trkpt>
      <trkpt lat="47.376753" lon="7.665489">
        <ele>1035.173402</ele>
        <time>2022-08-25T15:47:15.999Z</time>
      </trkpt>
      <trkpt lat="47.376688" lon="7.665640">
        <ele>1035.998224</ele>
        <time>2022-08-25T15:47:18.999Z</time>
      </trkpt>
      <trkpt lat="47.376640" lon="7.665788">
        <ele>1036.784519</ele>
        <time>2022-08-25T15:47:21.999Z</time>
      </trkpt>
      <trkpt lat="47.376587" lon="7.665928">
        <ele>1037.740432</ele>
        <time>2022-08-25T15:47:25.999Z</time>
      </trkpt>
      <trkpt lat="47.376557" lon="7.666067">
        <ele>1038.609910</ele>
        <time>2022-08-25T15:47:28.999Z</time>
      </trkpt>
      <trkpt lat="47.376536" lon="7.666200">
        <ele>1039.423834</ele>
        <time>2022-08-25T15:47:31.999Z</time>
      </trkpt>
      <trkpt lat="47.376489" lon="7.666465">
        <ele>1041.056469</ele>
        <time>2022-08-25T15:47:57.000Z</time>
      </trkpt>
      <trkpt lat="47.376447" lon="7.666634">
        <ele>1042.129374</ele>
        <time>2022-08-25T15:48:00.000Z</time>
      </trkpt>
      <trkpt lat="47.376419" lon="7.666772">
        <ele>1042.987961</ele>
        <time>2022-08-25T15:48:02.000Z</time>
      </trkpt>
      <trkpt lat="47.376377" lon="7.666910">
        <ele>1043.889672</ele>
        <time>2022-08-25T15:48:04.000Z</time>
      </trkpt>
      <trkpt lat="47.376342" lon="7.667042">
        <ele>1044.734533</ele>
        <time>2022-08-25T15:48:06.000Z</time>
      </trkpt>
      <trkpt lat="47.376294" lon="7.667195">
        <ele>1045.739500</ele>
        <time>2022-08-25T15:48:09.000Z</time>
      </trkpt>
      <trkpt lat="47.376285" lon="7.667349">
        <ele>1046.660735</ele>
        <time>2022-08-25T15:48:14.000Z</time>
      </trkpt>
      <trkpt lat="47.376267" lon="7.667490">
        <ele>1047.515882</ele>
        <time>2022-08-25T15:48:19.000Z</time>
      </trkpt>
      <trkpt lat="47.376205" lon="7.667599">
        <ele>1048.364273</ele>
        <time>2022-08-25T15:48:24.000Z</time>
      </trkpt>
      <trkpt lat="47.376148" lon="7.667714">
        <ele>1049.213637</ele>
        <time>2022-08-25T15:48:29.000Z</time>
      </trkpt>
      <trkpt lat="47.376060" lon="7.667813">
        <ele>1050.187277</ele>
        <time>2022-08-25T15:48:34.000Z</time>
      </trkpt>
      <trkpt lat="47.375999" lon="7.667911">
        <ele>1050.980600</ele>
        <time>2022-08-25T15:48:38.000Z</time>
      </trkpt>
      <trkpt lat="47.375917" lon="7.667976">
        <ele>1051.799688</ele>
        <time>2022-08-25T15:48:42.000Z</time>
      </trkpt>
      <trkpt lat="47.375845" lon="7.668062">
        <ele>1052.488291</ele>
        <time>2022-08-25T15:48:46.000Z</time>
      </trkpt>
      <trkpt lat="47.375741" lon="7.668160">
        <ele>1052.533631</ele>
        <time>2022-08-25T15:48:51.000Z</time>
      </trkpt>
      <trkpt lat="47.375655" lon="7.668235">
        <ele>1052.570337</ele>
        <time>2022-08-25T15:48:54.000Z</time>
      </trkpt>
      <trkpt lat="47.375561" lon="7.668296">
        <ele>1052.608071</ele>
        <time>2022-08-25T15:48:57.000Z</time>
      </trkpt>
      <trkpt lat="47.375483" lon="7.668399">
        <ele>1052.646527</ele>
        <time>2022-08-25T15:49:02.000Z</time>
      </trkpt>
      <trkpt lat="47.375446" lon="7.668521">
        <ele>1052.679796</ele>
        <time>2022-08-25T15:49:23.000Z</time>
      </trkpt>
      <trkpt lat="47.375371" lon="7.668748">
        <ele>1052.742656</ele>
        <time>2022-08-25T15:50:32.000Z</time>
      </trkpt>
      <trkpt lat="47.375345" lon="7.668963">
        <ele>1052.797010</ele>
        <time>2022-08-25T15:51:00.000Z</time>
      </trkpt>
      <trkpt lat="47.375332" lon="7.669133">
        <ele>1052.839588</ele>
        <time>2022-08-25T15:51:07.000Z</time>
      </trkpt>
      <trkpt lat="47.375351" lon="7.669294">
        <ele>1052.880261</ele>
        <time>2022-08-25T15:51:10.000Z</time>
      </trkpt>
      <trkpt lat="47.375357" lon="7.669467">
        <ele>1052.923373</ele>
        <time>2022-08-25T15:51:13.000Z</time>
      </trkpt>
      <trkpt lat="47.375374" lon="7.669632">
        <ele>1052.964910</ele>
        <time>2022-08-25T15:51:15.000Z</time>
      </trkpt>
      <trkpt lat="47.375426" lon="7.669785">
        <ele>1053.007514</ele>
        <time>2022-08-25T15:51:18.000Z</time>
      </trkpt>
      <trkpt lat="47.375460" lon="7.669966">
        <ele>1053.054262</ele>
        <time>2022-08-25T15:51:22.001Z</time>
      </trkpt>
      <trkpt lat="47.375516" lon="7.670103">
        <ele>1053.094087</ele>
        <time>2022-08-25T15:51:26.001Z</time>
      </trkpt>
      <trkpt lat="47.375546" lon="7.670252">
        <ele>1053.132774</ele>
        <time>2022-08-25T15:51:29.001Z</time>
      </trkpt>
      <trkpt lat="47.375589" lon="7.670371">
        <ele>1053.261237</ele>
        <time>2022-08-25T15:51:32.001Z</time>
      </trkpt>
      <trkpt lat="47.375629" lon="7.670519">
        <ele>1053.467861</ele>
        <time>2022-08-25T15:51:35.001Z</time>
      </trkpt>
      <trkpt lat="47.375654" lon="7.670667">
        <ele>1053.665646</ele>
        <time>2022-08-25T15:51:38.001Z</time>
      </trkpt>
      <trkpt lat="47.375673" lon="7.670823">
        <ele>1053.871169</ele>
        <time>2022-08-25T15:51:41.000Z</time>
      </trkpt>
      <trkpt lat="47.375686" lon="7.670976">
        <ele>1054.071113</ele>
        <time>2022-08-25T15:51:44.000Z</time>
      </trkpt>
      <trkpt lat="47.375713" lon="7.671128">
        <ele>1054.274871</ele>
        <time>2022-08-25T15:51:47.000Z</time>
      </trkpt>
      <trkpt lat="47.375737" lon="7.671278">
        <ele>1054.474724</ele>
        <time>2022-08-25T15:51:50.000Z</time>
      </trkpt>
      <trkpt lat="47.375773" lon="7.671434">
        <ele>1054.688424</ele>
        <time>2022-08-25T15:51:53.000Z</time>
      </trkpt>
      <trkpt lat="47.375792" lon="7.671577">
        <ele>1054.877380</ele>
        <time>2022-08-25T15:51:56.000Z</time>
      </trkpt>
      <trkpt lat="47.375798" lon="7.671728">
        <ele>1055.073511</ele>
        <time>2022-08-25T15:51:59.000Z</time>
      </trkpt>
      <trkpt lat="47.375797" lon="7.671875">
        <ele>1055.264128</ele>
        <time>2022-08-25T15:52:02.000Z</time>
      </trkpt>
      <trkpt lat="47.375811" lon="7.672014">
        <ele>1055.446344</ele>
        <time>2022-08-25T15:52:05.000Z</time>
      </trkpt>
      <trkpt lat="47.375819" lon="7.672164">
        <ele>1055.641444</ele>
        <time>2022-08-25T15:52:09.000Z</time>
      </trkpt>
      <trkpt lat="47.375840" lon="7.672494">
        <ele>1056.071223</ele>
        <time>2022-08-25T15:53:14.000Z</time>
      </trkpt>
      <trkpt lat="47.375834" lon="7.672631">
        <ele>1056.249235</ele>
        <time>2022-08-25T15:53:18.000Z</time>
      </trkpt>
      <trkpt lat="47.375831" lon="7.672787">
        <ele>1056.451593</ele>
        <time>2022-08-25T15:53:22.000Z</time>
      </trkpt>
      <trkpt lat="47.375824" lon="7.672925">
        <ele>1056.547476</ele>
        <time>2022-08-25T15:53:25.000Z</time>
      </trkpt>
      <trkpt lat="47.375816" lon="7.673104">
        <ele>1056.330846</ele>
        <time>2022-08-25T15:53:29.001Z</time>
      </trkpt>
      <trkpt lat="47.375807" lon="7.673257">
        <ele>1056.145388</ele>
        <time>2022-08-25T15:53:32.001Z</time>
      </trkpt>
      <trkpt lat="47.375803" lon="7.673427">
        <ele>1055.939972</ele>
        <time>2022-08-25T15:53:35.001Z</time>
      </trkpt>
      <trkpt lat="47.375797" lon="7.673597">
        <ele>1055.734402</ele>
        <time>2022-08-25T15:53:38.001Z</time>
      </trkpt>
      <trkpt lat="47.375776" lon="7.673772">
        <ele>1055.519780</ele>
        <time>2022-08-25T15:53:46.000Z</time>
      </trkpt>
      <trkpt lat="47.375752" lon="7.673911">
        <ele>1055.346554</ele>
        <time>2022-08-25T15:53:48.000Z</time>
      </trkpt>
      <trkpt lat="47.375744" lon="7.674045">
        <ele>1055.184108</ele>
        <time>2022-08-25T15:53:50.000Z</time>
      </trkpt>
      <trkpt lat="47.375749" lon="7.674186">
        <ele>1055.013603</ele>
        <time>2022-08-25T15:53:52.000Z</time>
      </trkpt>
      <trkpt lat="47.375750" lon="7.674334">
        <ele>1054.834870</ele>
        <time>2022-08-25T15:53:54.000Z</time>
      </trkpt>
      <trkpt lat="47.375759" lon="7.674537">
        <ele>1054.589203</ele>
        <time>2022-08-25T15:53:57.000Z</time>
      </trkpt>
      <trkpt lat="47.375709" lon="7.674702">
        <ele>1054.370909</ele>
        <time>2022-08-25T15:54:00.000Z</time>
      </trkpt>
      <trkpt lat="47.375722" lon="7.674867">
        <ele>1054.170311</ele>
        <time>2022-08-25T15:54:03.000Z</time>
      </trkpt>
      <trkpt lat="47.375712" lon="7.675021">
        <ele>1053.983488</ele>
        <time>2022-08-25T15:54:06.000Z</time>
      </trkpt>
      <trkpt lat="47.375712" lon="7.675156">
        <ele>1053.820462</ele>
        <time>2022-08-25T15:54:09.000Z</time>
      </trkpt>
      <trkpt lat="47.375728" lon="7.675560">
        <ele>1053.439773</ele>
        <time>2022-08-25T15:55:20.000Z</time>
      </trkpt>
      <trkpt lat="47.375740" lon="7.675697">
        <ele>1053.643948</ele>
        <time>2022-08-25T15:55:22.000Z</time>
      </trkpt>
      <trkpt lat="47.375715" lon="7.675870">
        <ele>1053.905402</ele>
        <time>2022-08-25T15:55:24.000Z</time>
      </trkpt>
      <trkpt lat="47.375696" lon="7.676038">
        <ele>1054.157148</ele>
        <time>2022-08-25T15:55:26.000Z</time>
      </trkpt>
      <trkpt lat="47.375678" lon="7.676189">
        <ele>1054.383761</ele>
        <time>2022-08-25T15:55:28.000Z</time>
      </trkpt>
      <trkpt lat="47.375671" lon="7.676323">
        <ele>1054.582404</ele>
        <time>2022-08-25T15:55:30.000Z</time>
      </trkpt>
      <trkpt lat="47.375676" lon="7.676498">
        <ele>1054.841288</ele>
        <time>2022-08-25T15:55:33.000Z</time>
      </trkpt>
      <trkpt lat="47.375663" lon="7.676702">
        <ele>1055.144136</ele>
        <time>2022-08-25T15:55:36.000Z</time>
      </trkpt>
      <trkpt lat="47.375647" lon="7.676862">
        <ele>1055.383183</ele>
        <time>2022-08-25T15:55:38.000Z</time>
      </trkpt>
      <trkpt lat="47.375635" lon="7.677039">
        <ele>1055.646101</ele>
        <time>2022-08-25T15:55:40.000Z</time>
      </trkpt>
      <trkpt lat="47.375636" lon="7.677212">
        <ele>1055.901808</ele>
        <time>2022-08-25T15:55:42.000Z</time>
      </trkpt>
      <trkpt lat="47.375649" lon="7.677380">
        <ele>1056.151731</ele>
        <time>2022-08-25T15:55:44.000Z</time>
      </trkpt>
      <trkpt lat="47.375650" lon="7.677526">
        <ele>1056.367533</ele>
        <time>2022-08-25T15:55:46.000Z</time>
      </trkpt>
      <trkpt lat="47.375663" lon="7.677659">
        <ele>1056.566147</ele>
        <time>2022-08-25T15:55:48.000Z</time>
      </trkpt>
      <trkpt lat="47.375665" lon="7.677795">
        <ele>1056.767205</ele>
        <time>2022-08-25T15:55:50.000Z</time>
      </trkpt>
      <trkpt lat="47.375647" lon="7.677958">
        <ele>1057.011305</ele>
        <time>2022-08-25T15:55:52.000Z</time>
      </trkpt>
      <trkpt lat="47.375625" lon="7.678115">
        <ele>1057.248270</ele>
        <time>2022-08-25T15:55:54.000Z</time>
      </trkpt>
      <trkpt lat="47.375610" lon="7.678267">
        <ele>1057.233375</ele>
        <time>2022-08-25T15:55:56.000Z</time>
      </trkpt>
      <trkpt lat="47.375593" lon="7.678412">
        <ele>1057.140046</ele>
        <time>2022-08-25T15:55:58.000Z</time>
      </trkpt>
      <trkpt lat="47.375582" lon="7.678599">
        <ele>1057.021001</ele>
        <time>2022-08-25T15:56:01.000Z</time>
      </trkpt>
      <trkpt lat="47.375589" lon="7.678767">
        <ele>1056.914251</ele>
        <time>2022-08-25T15:56:04.000Z</time>
      </trkpt>
      <trkpt lat="47.375584" lon="7.678933">
        <ele>1056.808867</ele>
        <time>2022-08-25T15:56:07.000Z</time>
      </trkpt>
      <trkpt lat="47.375571" lon="7.679078">
        <ele>1056.716103</ele>
        <time>2022-08-25T15:56:10.000Z</time>
      </trkpt>
      <trkpt lat="47.375565" lon="7.679242">
        <ele>1056.611940</ele>
        <time>2022-08-25T15:56:13.000Z</time>
      </trkpt>
      <trkpt lat="47.375534" lon="7.679372">
        <ele>1056.524529</ele>
        <time>2022-08-25T15:56:17.000Z</time>
      </trkpt>
      <trkpt lat="47.375513" lon="7.679506">
        <ele>1056.437298</ele>
        <time>2022-08-25T15:56:21.000Z</time>
      </trkpt>
      <trkpt lat="47.375490" lon="7.679649">
        <ele>1056.344082</ele>
        <time>2022-08-25T15:56:24.000Z</time>
      </trkpt>
      <trkpt lat="47.375455" lon="7.679820">
        <ele>1056.230785</ele>
        <time>2022-08-25T15:56:28.000Z</time>
      </trkpt>
      <trkpt lat="47.375432" lon="7.679988">
        <ele>1056.122081</ele>
        <time>2022-08-25T15:56:32.000Z</time>
      </trkpt>
      <trkpt lat="47.375410" lon="7.680134">
        <ele>1056.027221</ele>
        <time>2022-08-25T15:56:35.000Z</time>
      </trkpt>
      <trkpt lat="47.375390" lon="7.680282">
        <ele>1055.931506</ele>
        <time>2022-08-25T15:56:38.000Z</time>
      </trkpt>
      <trkpt lat="47.375306" lon="7.680537">
        <ele>1055.751661</ele>
        <time>2022-08-25T15:58:43.999Z</time>
      </trkpt>
      <trkpt lat="47.375296" lon="7.680706">
        <ele>1055.644069</ele>
        <time>2022-08-25T15:58:46.999Z</time>
      </trkpt>
      <trkpt lat="47.375279" lon="7.680886">
        <ele>1054.232593</ele>
        <time>2022-08-25T15:58:49.999Z</time>
      </trkpt>
      <trkpt lat="47.375250" lon="7.681045">
        <ele>1052.667963</ele>
        <time>2022-08-25T15:58:51.999Z</time>
      </trkpt>
      <trkpt lat="47.375197" lon="7.681256">
        <ele>1050.529596</ele>
        <time>2022-08-25T15:58:53.999Z</time>
      </trkpt>
      <trkpt lat="47.375185" lon="7.681466">
        <ele>1048.527114</ele>
        <time>2022-08-25T15:58:55.999Z</time>
      </trkpt>
      <trkpt lat="47.375206" lon="7.681690">
        <ele>1046.378398</ele>
        <time>2022-08-25T15:58:57.999Z</time>
      </trkpt>
      <trkpt lat="47.375218" lon="7.681902">
        <ele>1044.356980</ele>
        <time>2022-08-25T15:58:59.999Z</time>
      </trkpt>
      <trkpt lat="47.375207" lon="7.682104">
        <ele>1042.431409</ele>
        <time>2022-08-25T15:59:01.999Z</time>
      </trkpt>
      <trkpt lat="47.375155" lon="7.682340">
        <ele>1040.073256</ele>
        <time>2022-08-25T15:59:03.999Z</time>
      </trkpt>
      <trkpt lat="47.375142" lon="7.682473">
        <ele>1038.796411</ele>
        <time>2022-08-25T15:59:04.999Z</time>
      </trkpt>
      <trkpt lat="47.375158" lon="7.682739">
        <ele>1036.258963</ele>
        <time>2022-08-25T15:59:06.999Z</time>
      </trkpt>
      <trkpt lat="47.375181" lon="7.682870">
        <ele>1034.973064</ele>
        <time>2022-08-25T15:59:07.999Z</time>
      </trkpt>
      <trkpt lat="47.375220" lon="7.683123">
        <ele>1032.507599</ele>
        <time>2022-08-25T15:59:09.999Z</time>
      </trkpt>
      <trkpt lat="47.375214" lon="7.683256">
        <ele>1031.241051</ele>
        <time>2022-08-25T15:59:10.999Z</time>
      </trkpt>
      <trkpt lat="47.375201" lon="7.683460">
        <ele>1030.696412</ele>
        <time>2022-08-25T15:59:12.999Z</time>
      </trkpt>
      <trkpt lat="47.375193" lon="7.683603">
        <ele>1031.086632</ele>
        <time>2022-08-25T15:59:15.999Z</time>
      </trkpt>
      <trkpt lat="47.375210" lon="7.683421">
        <ele>1031.586276</ele>
        <time>2022-08-25T15:59:40.999Z</time>
      </trkpt>
      <trkpt lat="47.375225" lon="7.683280">
        <ele>1031.974434</ele>
        <time>2022-08-25T15:59:44.999Z</time>
      </trkpt>
      <trkpt lat="47.375190" lon="7.683133">
        <ele>1032.398197</ele>
        <time>2022-08-25T15:59:49.999Z</time>
      </trkpt>
      <trkpt lat="47.375168" lon="7.683001">
        <ele>1032.767889</ele>
        <time>2022-08-25T15:59:56.999Z</time>
      </trkpt>
      <trkpt lat="47.374967" lon="7.683116">
        <ele>1033.633555</ele>
        <time>2022-08-25T16:00:01.999Z</time>
      </trkpt>
      <trkpt lat="47.374930" lon="7.683247">
        <ele>1034.019562</ele>
        <time>2022-08-25T16:00:04.999Z</time>
      </trkpt>
      <trkpt lat="47.374882" lon="7.683368">
        <ele>1034.400931</ele>
        <time>2022-08-25T16:00:07.999Z</time>
      </trkpt>
      <trkpt lat="47.374843" lon="7.683507">
        <ele>1034.810112</ele>
        <time>2022-08-25T16:00:12.000Z</time>
      </trkpt>
      <trkpt lat="47.374862" lon="7.683669">
        <ele>1035.257240</ele>
        <time>2022-08-25T16:00:15.000Z</time>
      </trkpt>
      <trkpt lat="47.374857" lon="7.683836">
        <ele>1035.711850</ele>
        <time>2022-08-25T16:00:18.000Z</time>
      </trkpt>
      <trkpt lat="47.374822" lon="7.684003">
        <ele>1036.187270</ele>
        <time>2022-08-25T16:00:21.000Z</time>
      </trkpt>
      <trkpt lat="47.374763" lon="7.684150">
        <ele>1036.651986</ele>
        <time>2022-08-25T16:00:24.000Z</time>
      </trkpt>
      <trkpt lat="47.374697" lon="7.684281">
        <ele>1037.096030</ele>
        <time>2022-08-25T16:00:27.000Z</time>
      </trkpt>
      <trkpt lat="47.374645" lon="7.684397">
        <ele>1037.474356</ele>
        <time>2022-08-25T16:00:31.000Z</time>
      </trkpt>
      <trkpt lat="47.374672" lon="7.684531">
        <ele>1038.183277</ele>
        <time>2022-08-25T16:02:36.000Z</time>
      </trkpt>
      <trkpt lat="47.374637" lon="7.684659">
        <ele>1039.058233</ele>
        <time>2022-08-25T16:02:46.000Z</time>
      </trkpt>
      <trkpt lat="47.374598" lon="7.684816">
        <ele>1040.118199</ele>
        <time>2022-08-25T16:03:47.000Z</time>
      </trkpt>
      <trkpt lat="47.374579" lon="7.684946">
        <ele>1040.961164</ele>
        <time>2022-08-25T16:04:00.000Z</time>
      </trkpt>
      <trkpt lat="47.374559" lon="7.685188">
        <ele>1042.506439</ele>
        <time>2022-08-25T16:04:35.000Z</time>
      </trkpt>
      <trkpt lat="47.374532" lon="7.685317">
        <ele>1043.362257</ele>
        <time>2022-08-25T16:04:47.000Z</time>
      </trkpt>
      <trkpt lat="47.374554" lon="7.685446">
        <ele>1044.205442</ele>
        <time>2022-08-25T16:05:00.000Z</time>
      </trkpt>
      <trkpt lat="47.374540" lon="7.685608">
        <ele>1045.240592</ele>
        <time>2022-08-25T16:05:15.000Z</time>
      </trkpt>
      <trkpt lat="47.374528" lon="7.685760">
        <ele>1046.210556</ele>
        <time>2022-08-25T16:05:19.000Z</time>
      </trkpt>
      <trkpt lat="47.374488" lon="7.685879">
        <ele>1047.052632</ele>
        <time>2022-08-25T16:05:22.000Z</time>
      </trkpt>
      <trkpt lat="47.374477" lon="7.686066">
        <ele>1048.242380</ele>
        <time>2022-08-25T16:05:26.000Z</time>
      </trkpt>
      <trkpt lat="47.374431" lon="7.686215">
        <ele>1049.280315</ele>
        <time>2022-08-25T16:05:30.000Z</time>
      </trkpt>
      <trkpt lat="47.374379" lon="7.686324">
        <ele>1050.125424</ele>
        <time>2022-08-25T16:05:33.000Z</time>
      </trkpt>
      <trkpt lat="47.374328" lon="7.686477">
        <ele>1051.206318</ele>
        <time>2022-08-25T16:05:37.000Z</time>
      </trkpt>
      <trkpt lat="47.374286" lon="7.686598">
        <ele>1052.068146</ele>
        <time>2022-08-25T16:05:40.000Z</time>
      </trkpt>
      <trkpt lat="47.374278" lon="7.686761">
        <ele>1053.104023</ele>
        <time>2022-08-25T16:05:44.000Z</time>
      </trkpt>
      <trkpt lat="47.374275" lon="7.686900">
        <ele>1053.985514</ele>
        <time>2022-08-25T16:05:48.000Z</time>
      </trkpt>
      <trkpt lat="47.374259" lon="7.687032">
        <ele>1054.175186</ele>
        <time>2022-08-25T16:05:52.000Z</time>
      </trkpt>
      <trkpt lat="47.374246" lon="7.687164">
        <ele>1053.600820</ele>
        <time>2022-08-25T16:05:56.000Z</time>
      </trkpt>
      <trkpt lat="47.374228" lon="7.687306">
        <ele>1052.978754</ele>
        <time>2022-08-25T16:06:07.000Z</time>
      </trkpt>
      <trkpt lat="47.374222" lon="7.687443">
        <ele>1052.387605</ele>
        <time>2022-08-25T16:06:11.000Z</time>
      </trkpt>
      <trkpt lat="47.374194" lon="7.687571">
        <ele>1051.808401</ele>
        <time>2022-08-25T16:06:15.000Z</time>
      </trkpt>
      <trkpt lat="47.374170" lon="7.687716">
        <ele>1051.165658</ele>
        <time>2022-08-25T16:06:20.000Z</time>
      </trkpt>
      <trkpt lat="47.374191" lon="7.687872">
        <ele>1050.480785</ele>
        <time>2022-08-25T16:06:25.000Z</time>
      </trkpt>
      <trkpt lat="47.374207" lon="7.688035">
        <ele>1049.771578</ele>
        <time>2022-08-25T16:06:29.000Z</time>
      </trkpt>
      <trkpt lat="47.374227" lon="7.688194">
        <ele>1049.075220</ele>
        <time>2022-08-25T16:06:41.000Z</time>
      </trkpt>
      <trkpt lat="47.374244" lon="7.688329">
        <ele>1048.483950</ele>
        <time>2022-08-25T16:06:44.000Z</time>
      </trkpt>
      <trkpt lat="47.374265" lon="7.688467">
        <ele>1047.874911</ele>
        <time>2022-08-25T16:06:47.000Z</time>
      </trkpt>
      <trkpt lat="47.374276" lon="7.688635">
        <ele>1047.148136</ele>
        <time>2022-08-25T16:06:50.000Z</time>
      </trkpt>
      <trkpt lat="47.374279" lon="7.688810">
        <ele>1046.394352</ele>
        <time>2022-08-25T16:06:54.000Z</time>
      </trkpt>
      <trkpt lat="47.374307" lon="7.688969">
        <ele>1045.686936</ele>
        <time>2022-08-25T16:06:57.000Z</time>
      </trkpt>
      <trkpt lat="47.374329" lon="7.689148">
        <ele>1044.903579</ele>
        <time>2022-08-25T16:07:00.000Z</time>
      </trkpt>
      <trkpt lat="47.374345" lon="7.689344">
        <ele>1044.053503</ele>
        <time>2022-08-25T16:07:03.000Z</time>
      </trkpt>
      <trkpt lat="47.374358" lon="7.689493">
        <ele>1043.406614</ele>
        <time>2022-08-25T16:07:05.000Z</time>
      </trkpt>
      <trkpt lat="47.374356" lon="7.689666">
        <ele>1042.293363</ele>
        <time>2022-08-25T16:07:07.000Z</time>
      </trkpt>
      <trkpt lat="47.374371" lon="7.689835">
        <ele>1040.774316</ele>
        <time>2022-08-25T16:07:09.000Z</time>
      </trkpt>
      <trkpt lat="47.374376" lon="7.689982">
        <ele>1039.462567</ele>
        <time>2022-08-25T16:07:11.000Z</time>
      </trkpt>
      <trkpt lat="47.374376" lon="7.690155">
        <ele>1037.920752</ele>
        <time>2022-08-25T16:07:13.000Z</time>
      </trkpt>
      <trkpt lat="47.374382" lon="7.690346">
        <ele>1036.216687</ele>
        <time>2022-08-25T16:07:16.000Z</time>
      </trkpt>
      <trkpt lat="47.374380" lon="7.690479">
        <ele>1035.031069</ele>
        <time>2022-08-25T16:07:18.000Z</time>
      </trkpt>
      <trkpt lat="47.374385" lon="7.690620">
        <ele>1033.772724</ele>
        <time>2022-08-25T16:07:20.000Z</time>
      </trkpt>
      <trkpt lat="47.374364" lon="7.690821">
        <ele>1031.960174</ele>
        <time>2022-08-25T16:07:23.000Z</time>
      </trkpt>
      <trkpt lat="47.374367" lon="7.690961">
        <ele>1030.711838</ele>
        <time>2022-08-25T16:07:25.000Z</time>
      </trkpt>
      <trkpt lat="47.374375" lon="7.691157">
        <ele>1028.961872</ele>
        <time>2022-08-25T16:07:28.000Z</time>
      </trkpt>
      <trkpt lat="47.374379" lon="7.691290">
        <ele>1027.775377</ele>
        <time>2022-08-25T16:07:30.000Z</time>
      </trkpt>
      <trkpt lat="47.374397" lon="7.691425">
        <ele>1026.549129</ele>
        <time>2022-08-25T16:07:32.000Z</time>
      </trkpt>
      <trkpt lat="47.374395" lon="7.691567">
        <ele>1025.283320</ele>
        <time>2022-08-25T16:07:34.000Z</time>
      </trkpt>
      <trkpt lat="47.374417" lon="7.691699">
        <ele>1024.071803</ele>
        <time>2022-08-25T16:07:36.000Z</time>
      </trkpt>
      <trkpt lat="47.374422" lon="7.691842">
        <ele>1022.795659</ele>
        <time>2022-08-25T16:07:38.000Z</time>
      </trkpt>
      <trkpt lat="47.374437" lon="7.692010">
        <ele>1021.285449</ele>
        <time>2022-08-25T16:07:41.000Z</time>
      </trkpt>
      <trkpt lat="47.374454" lon="7.692149">
        <ele>1020.026612</ele>
        <time>2022-08-25T16:07:44.000Z</time>
      </trkpt>
      <trkpt lat="47.374477" lon="7.692301">
        <ele>1018.656769</ele>
        <time>2022-08-25T16:07:46.000Z</time>
      </trkpt>
      <trkpt lat="47.374494" lon="7.692456">
        <ele>1017.293978</ele>
        <time>2022-08-25T16:07:48.000Z</time>
      </trkpt>
      <trkpt lat="47.374482" lon="7.692667">
        <ele>1015.456238</ele>
        <time>2022-08-25T16:07:51.000Z</time>
      </trkpt>
      <trkpt lat="47.374485" lon="7.692806">
        <ele>1014.249229</ele>
        <time>2022-08-25T16:07:53.000Z</time>
      </trkpt>
      <trkpt lat="47.374490" lon="7.692951">
        <ele>1012.989128</ele>
        <time>2022-08-25T16:07:55.000Z</time>
      </trkpt>
      <trkpt lat="47.374499" lon="7.693091">
        <ele>1011.768590</ele>
        <time>2022-08-25T16:07:57.000Z</time>
      </trkpt>
      <trkpt lat="47.374515" lon="7.693271">
        <ele>1010.192950</ele>
        <time>2022-08-25T16:08:00.000Z</time>
      </trkpt>
      <trkpt lat="47.374534" lon="7.693436">
        <ele>1008.740342</ele>
        <time>2022-08-25T16:08:02.000Z</time>
      </trkpt>
      <trkpt lat="47.374543" lon="7.693580">
        <ele>1007.485239</ele>
        <time>2022-08-25T16:08:04.000Z</time>
      </trkpt>
      <trkpt lat="47.374524" lon="7.693750">
        <ele>1005.989833</ele>
        <time>2022-08-25T16:08:07.000Z</time>
      </trkpt>
      <trkpt lat="47.374529" lon="7.693917">
        <ele>1004.539006</ele>
        <time>2022-08-25T16:08:09.000Z</time>
      </trkpt>
      <trkpt lat="47.374512" lon="7.694049">
        <ele>1003.372831</ele>
        <time>2022-08-25T16:08:11.000Z</time>
      </trkpt>
      <trkpt lat="47.374511" lon="7.694240">
        <ele>1001.715072</ele>
        <time>2022-08-25T16:08:14.000Z</time>
      </trkpt>
      <trkpt lat="47.374493" lon="7.694374">
        <ele>1000.529412</ele>
        <time>2022-08-25T16:08:16.000Z</time>
      </trkpt>
      <trkpt lat="47.374472" lon="7.694530">
        <ele>999.148980</ele>
        <time>2022-08-25T16:08:18.000Z</time>
      </trkpt>
      <trkpt lat="47.374425" lon="7.694670">
        <ele>997.792792</ele>
        <time>2022-08-25T16:08:20.000Z</time>
      </trkpt>
      <trkpt lat="47.374403" lon="7.694807">
        <ele>996.570780</ele>
        <time>2022-08-25T16:08:22.000Z</time>
      </trkpt>
      <trkpt lat="47.374354" lon="7.694957">
        <ele>996.108781</ele>
        <time>2022-08-25T16:08:25.000Z</time>
      </trkpt>
      <trkpt lat="47.374270" lon="7.695057">
        <ele>995.900170</ele>
        <time>2022-08-25T16:08:28.000Z</time>
      </trkpt>
      <trkpt lat="47.374181" lon="7.695015">
        <ele>995.719524</ele>
        <time>2022-08-25T16:08:30.000Z</time>
      </trkpt>
      <trkpt lat="47.374101" lon="7.694921">
        <ele>995.521860</ele>
        <time>2022-08-25T16:08:33.000Z</time>
      </trkpt>
      <trkpt lat="47.373994" lon="7.694874">
        <ele>995.306027</ele>
        <time>2022-08-25T16:08:36.000Z</time>
      </trkpt>
      <trkpt lat="47.373876" lon="7.694855">
        <ele>995.076534</ele>
        <time>2022-08-25T16:08:39.000Z</time>
      </trkpt>
      <trkpt lat="47.373813" lon="7.694982">
        <ele>994.870411</ele>
        <time>2022-08-25T16:08:42.000Z</time>
      </trkpt>
      <trkpt lat="47.373758" lon="7.695105">
        <ele>994.677425</ele>
        <time>2022-08-25T16:08:46.000Z</time>
      </trkpt>
      <trkpt lat="47.373731" lon="7.695234">
        <ele>994.500639</ele>
        <time>2022-08-25T16:09:26.000Z</time>
      </trkpt>
      <trkpt lat="47.373690" lon="7.695357">
        <ele>994.321140</ele>
        <time>2022-08-25T16:09:48.000Z</time>
      </trkpt>
      <trkpt lat="47.373611" lon="7.695472">
        <ele>994.106661</ele>
        <time>2022-08-25T16:12:07.999Z</time>
      </trkpt>
      <trkpt lat="47.373537" lon="7.695345">
        <ele>993.887298</ele>
        <time>2022-08-25T16:13:36.999Z</time>
      </trkpt>
      <trkpt lat="47.373452" lon="7.695241">
        <ele>993.673874</ele>
        <time>2022-08-25T16:15:36.999Z</time>
      </trkpt>
      <trkpt lat="47.373361" lon="7.695236">
        <ele>993.497813</ele>
        <time>2022-08-25T16:16:05.999Z</time>
      </trkpt>
      <trkpt lat="47.373250" lon="7.695162">
        <ele>993.262347</ele>
        <time>2022-08-25T16:16:49.999Z</time>
      </trkpt>
      <trkpt lat="47.373179" lon="7.695076">
        <ele>993.084800</ele>
        <time>2022-08-25T16:17:04.999Z</time>
      </trkpt>
      <trkpt lat="47.373069" lon="7.695042">
        <ele>992.867517</ele>
        <time>2022-08-25T16:20:14.000Z</time>
      </trkpt>
      <trkpt lat="47.372922" lon="7.694949">
        <ele>991.428129</ele>
        <time>2022-08-25T16:22:31.000Z</time>
      </trkpt>
      <trkpt lat="47.372815" lon="7.694901">
        <ele>990.225311</ele>
        <time>2022-08-25T16:22:45.000Z</time>
      </trkpt>
      <trkpt lat="47.372706" lon="7.694824">
        <ele>988.925662</ele>
        <time>2022-08-25T16:25:49.999Z</time>
      </trkpt>
      <trkpt lat="47.372600" lon="7.694793">
        <ele>987.763392</ele>
        <time>2022-08-25T16:25:53.999Z</time>
      </trkpt>
      <trkpt lat="47.372486" lon="7.694762">
        <ele>986.516603</ele>
        <time>2022-08-25T16:25:57.999Z</time>
      </trkpt>
      <trkpt lat="47.372371" lon="7.694747">
        <ele>985.274860</ele>
        <time>2022-08-25T16:26:01.999Z</time>
      </trkpt>
      <trkpt lat="47.372268" lon="7.694704">
        <ele>984.123577</ele>
        <time>2022-08-25T16:26:05.999Z</time>
      </trkpt>
      <trkpt lat="47.372107" lon="7.694650">
        <ele>982.347769</ele>
        <time>2022-08-25T16:26:59.999Z</time>
      </trkpt>
      <trkpt lat="47.372014" lon="7.694624">
        <ele>981.329700</ele>
        <time>2022-08-25T16:27:02.998Z</time>
      </trkpt>
      <trkpt lat="47.371910" lon="7.694653">
        <ele>980.191318</ele>
        <time>2022-08-25T16:27:06.998Z</time>
      </trkpt>
      <trkpt lat="47.371850" lon="7.694771">
        <ele>979.116469</ele>
        <time>2022-08-25T16:27:11.998Z</time>
      </trkpt>
      <trkpt lat="47.371829" lon="7.694933">
        <ele>977.914992</ele>
        <time>2022-08-25T16:27:21.999Z</time>
      </trkpt>
      <trkpt lat="47.371834" lon="7.695079">
        <ele>976.850127</ele>
        <time>2022-08-25T16:27:24.999Z</time>
      </trkpt>
      <trkpt lat="47.371815" lon="7.695224">
        <ele>975.774317</ele>
        <time>2022-08-25T16:27:26.999Z</time>
      </trkpt>
      <trkpt lat="47.371766" lon="7.695336">
        <ele>974.803046</ele>
        <time>2022-08-25T16:27:48.999Z</time>
      </trkpt>
      <trkpt lat="47.371732" lon="7.695524">
        <ele>973.384599</ele>
        <time>2022-08-25T16:27:52.999Z</time>
      </trkpt>
      <trkpt lat="47.371717" lon="7.695656">
        <ele>972.396383</ele>
        <time>2022-08-25T16:27:54.999Z</time>
      </trkpt>
      <trkpt lat="47.371699" lon="7.695834">
        <ele>971.067589</ele>
        <time>2022-08-25T16:27:57.999Z</time>
      </trkpt>
      <trkpt lat="47.371681" lon="7.696012">
        <ele>969.738795</ele>
        <time>2022-08-25T16:28:00.999Z</time>
      </trkpt>
      <trkpt lat="47.371687" lon="7.696168">
        <ele>968.585147</ele>
        <time>2022-08-25T16:28:04.999Z</time>
      </trkpt>
      <trkpt lat="47.371686" lon="7.696445">
        <ele>966.539949</ele>
        <time>2022-08-25T16:29:36.999Z</time>
      </trkpt>
      <trkpt lat="47.371695" lon="7.696607">
        <ele>965.339840</ele>
        <time>2022-08-25T16:29:39.999Z</time>
      </trkpt>
      <trkpt lat="47.371702" lon="7.696762">
        <ele>964.192890</ele>
        <time>2022-08-25T16:29:42.999Z</time>
      </trkpt>
      <trkpt lat="47.371713" lon="7.696927">
        <ele>962.968761</ele>
        <time>2022-08-25T16:29:45.999Z</time>
      </trkpt>
      <trkpt lat="47.371707" lon="7.697099">
        <ele>961.697154</ele>
        <time>2022-08-25T16:29:48.999Z</time>
      </trkpt>
      <trkpt lat="47.371697" lon="7.697485">
        <ele>958.845123</ele>
        <time>2022-08-25T16:30:24.000Z</time>
      </trkpt>
      <trkpt lat="47.371694" lon="7.697651">
        <ele>957.619063</ele>
        <time>2022-08-25T16:30:28.000Z</time>
      </trkpt>
      <trkpt lat="47.371689" lon="7.697829">
        <ele>956.303709</ele>
        <time>2022-08-25T16:30:32.000Z</time>
      </trkpt>
      <trkpt lat="47.371684" lon="7.697985">
        <ele>955.150628</ele>
        <time>2022-08-25T16:30:36.000Z</time>
      </trkpt>
      <trkpt lat="47.371689" lon="7.698157">
        <ele>953.879534</ele>
        <time>2022-08-25T16:30:48.000Z</time>
      </trkpt>
      <trkpt lat="47.371687" lon="7.698294">
        <ele>953.588680</ele>
        <time>2022-08-25T16:30:51.000Z</time>
      </trkpt>
      <trkpt lat="47.371679" lon="7.698477">
        <ele>953.227288</ele>
        <time>2022-08-25T16:30:54.000Z</time>
      </trkpt>
      <trkpt lat="47.371669" lon="7.698616">
        <ele>952.951817</ele>
        <time>2022-08-25T16:30:56.000Z</time>
      </trkpt>
      <trkpt lat="47.371668" lon="7.698791">
        <ele>952.606929</ele>
        <time>2022-08-25T16:30:58.000Z</time>
      </trkpt>
      <trkpt lat="47.371659" lon="7.698969">
        <ele>952.255165</ele>
        <time>2022-08-25T16:31:00.000Z</time>
      </trkpt>
      <trkpt lat="47.371650" lon="7.699119">
        <ele>951.958399</ele>
        <time>2022-08-25T16:31:02.000Z</time>
      </trkpt>
      <trkpt lat="47.371645" lon="7.699290">
        <ele>951.621093</ele>
        <time>2022-08-25T16:31:05.000Z</time>
      </trkpt>
      <trkpt lat="47.371646" lon="7.699492">
        <ele>951.222997</ele>
        <time>2022-08-25T16:31:08.000Z</time>
      </trkpt>
      <trkpt lat="47.371625" lon="7.699652">
        <ele>950.901815</ele>
        <time>2022-08-25T16:31:10.000Z</time>
      </trkpt>
      <trkpt lat="47.371597" lon="7.699812">
        <ele>950.576143</ele>
        <time>2022-08-25T16:31:12.000Z</time>
      </trkpt>
      <trkpt lat="47.371569" lon="7.699998">
        <ele>950.200642</ele>
        <time>2022-08-25T16:31:14.999Z</time>
      </trkpt>
      <trkpt lat="47.371556" lon="7.700143">
        <ele>949.912395</ele>
        <time>2022-08-25T16:31:16.999Z</time>
      </trkpt>
      <trkpt lat="47.371541" lon="7.700278">
        <ele>949.642790</ele>
        <time>2022-08-25T16:31:18.999Z</time>
      </trkpt>
      <trkpt lat="47.371528" lon="7.700416">
        <ele>949.368212</ele>
        <time>2022-08-25T16:31:20.999Z</time>
      </trkpt>
      <trkpt lat="47.371530" lon="7.700565">
        <ele>949.074517</ele>
        <time>2022-08-25T16:31:22.999Z</time>
      </trkpt>
      <trkpt lat="47.371528" lon="7.700704">
        <ele>948.800525</ele>
        <time>2022-08-25T16:31:24.999Z</time>
      </trkpt>
      <trkpt lat="47.371535" lon="7.700882">
        <ele>949.182340</ele>
        <time>2022-08-25T16:31:27.999Z</time>
      </trkpt>
      <trkpt lat="47.371532" lon="7.701059">
        <ele>950.355377</ele>
        <time>2022-08-25T16:31:30.999Z</time>
      </trkpt>
      <trkpt lat="47.371509" lon="7.701244">
        <ele>951.601530</ele>
        <time>2022-08-25T16:31:33.999Z</time>
      </trkpt>
      <trkpt lat="47.371508" lon="7.701402">
        <ele>952.648366</ele>
        <time>2022-08-25T16:31:36.999Z</time>
      </trkpt>
      <trkpt lat="47.371521" lon="7.701585">
        <ele>953.867439</ele>
        <time>2022-08-25T16:31:39.999Z</time>
      </trkpt>
      <trkpt lat="47.371527" lon="7.701722">
        <ele>954.776995</ele>
        <time>2022-08-25T16:31:42.000Z</time>
      </trkpt>
      <trkpt lat="47.371534" lon="7.701912">
        <ele>956.037654</ele>
        <time>2022-08-25T16:31:45.000Z</time>
      </trkpt>
      <trkpt lat="47.371536" lon="7.702076">
        <ele>957.124372</ele>
        <time>2022-08-25T16:31:48.000Z</time>
      </trkpt>
      <trkpt lat="47.371532" lon="7.702226">
        <ele>958.118930</ele>
        <time>2022-08-25T16:31:51.000Z</time>
      </trkpt>
      <trkpt lat="47.371534" lon="7.702361">
        <ele>959.013553</ele>
        <time>2022-08-25T16:31:55.000Z</time>
      </trkpt>
      <trkpt lat="47.371498" lon="7.702574">
        <ele>960.468014</ele>
        <time>2022-08-25T16:33:34.999Z</time>
      </trkpt>
      <trkpt lat="47.371504" lon="7.702432">
        <ele>961.410630</ele>
        <time>2022-08-25T16:34:10.000Z</time>
      </trkpt>
      <trkpt lat="47.371457" lon="7.702296">
        <ele>962.422197</ele>
        <time>2022-08-25T16:34:16.000Z</time>
      </trkpt>
      <trkpt lat="47.371394" lon="7.702190">
        <ele>963.356559</ele>
        <time>2022-08-25T16:34:21.000Z</time>
      </trkpt>
      <trkpt lat="47.371313" lon="7.702097">
        <ele>964.360321</ele>
        <time>2022-08-25T16:34:27.000Z</time>
      </trkpt>
      <trkpt lat="47.371238" lon="7.702006">
        <ele>965.309957</ele>
        <time>2022-08-25T16:34:33.000Z</time>
      </trkpt>
      <trkpt lat="47.371148" lon="7.701915">
        <ele>966.162923</ele>
        <time>2022-08-25T16:34:40.000Z</time>
      </trkpt>
      <trkpt lat="47.371074" lon="7.701825">
        <ele>965.877897</ele>
        <time>2022-08-25T16:34:46.000Z</time>
      </trkpt>
      <trkpt lat="47.370982" lon="7.701845">
        <ele>965.601431</ele>
        <time>2022-08-25T16:34:53.000Z</time>
      </trkpt>
      <trkpt lat="47.370955" lon="7.701975">
        <ele>965.327647</ele>
        <time>2022-08-25T16:34:58.000Z</time>
      </trkpt>
      <trkpt lat="47.370959" lon="7.702129">
        <ele>965.017343</ele>
        <time>2022-08-25T16:35:05.000Z</time>
      </trkpt>
      <trkpt lat="47.370967" lon="7.702285">
        <ele>964.702342</ele>
        <time>2022-08-25T16:35:11.001Z</time>
      </trkpt>
      <trkpt lat="47.370987" lon="7.702427">
        <ele>964.410311</ele>
        <time>2022-08-25T16:35:16.001Z</time>
      </trkpt>
      <trkpt lat="47.371022" lon="7.702572">
        <ele>964.100367</ele>
        <time>2022-08-25T16:35:23.001Z</time>
      </trkpt>
      <trkpt lat="47.370975" lon="7.702407">
        <ele>963.739955</ele>
        <time>2022-08-25T16:36:52.000Z</time>
      </trkpt>
      <trkpt lat="47.370958" lon="7.702267">
        <ele>963.453573</ele>
        <time>2022-08-25T16:36:56.000Z</time>
      </trkpt>
      <trkpt lat="47.370967" lon="7.702135">
        <ele>963.186450</ele>
        <time>2022-08-25T16:37:00.000Z</time>
      </trkpt>
      <trkpt lat="47.370969" lon="7.701985">
        <ele>962.884370</ele>
        <time>2022-08-25T16:37:04.000Z</time>
      </trkpt>
      <trkpt lat="47.370979" lon="7.701836">
        <ele>962.582893</ele>
        <time>2022-08-25T16:37:08.000Z</time>
      </trkpt>
      <trkpt lat="47.371068" lon="7.701820">
        <ele>962.316340</ele>
        <time>2022-08-25T16:37:13.001Z</time>
      </trkpt>
      <trkpt lat="47.371145" lon="7.701907">
        <ele>962.028085</ele>
        <time>2022-08-25T16:37:17.001Z</time>
      </trkpt>
      <trkpt lat="47.371214" lon="7.701997">
        <ele>961.754370</ele>
        <time>2022-08-25T16:37:20.001Z</time>
      </trkpt>
      <trkpt lat="47.371297" lon="7.702092">
        <ele>961.442154</ele>
        <time>2022-08-25T16:37:23.001Z</time>
      </trkpt>
      <trkpt lat="47.371383" lon="7.702190">
        <ele>961.119188</ele>
        <time>2022-08-25T16:37:27.001Z</time>
      </trkpt>
      <trkpt lat="47.371453" lon="7.702279">
        <ele>960.910307</ele>
        <time>2022-08-25T16:37:32.000Z</time>
      </trkpt>
      <trkpt lat="47.371516" lon="7.702405">
        <ele>961.588776</ele>
        <time>2022-08-25T16:37:36.000Z</time>
      </trkpt>
      <trkpt lat="47.371573" lon="7.702529">
        <ele>962.237989</ele>
        <time>2022-08-25T16:37:41.000Z</time>
      </trkpt>
      <trkpt lat="47.371625" lon="7.702669">
        <ele>962.929686</ele>
        <time>2022-08-25T16:37:46.000Z</time>
      </trkpt>
      <trkpt lat="47.371709" lon="7.702733">
        <ele>963.534302</ele>
        <time>2022-08-25T16:37:51.000Z</time>
      </trkpt>
      <trkpt lat="47.371815" lon="7.702671">
        <ele>964.263587</ele>
        <time>2022-08-25T16:37:54.000Z</time>
      </trkpt>
      <trkpt lat="47.371908" lon="7.702630">
        <ele>964.884408</ele>
        <time>2022-08-25T16:37:58.000Z</time>
      </trkpt>
      <trkpt lat="47.371930" lon="7.702827">
        <ele>965.749323</ele>
        <time>2022-08-25T16:38:32.001Z</time>
      </trkpt>
      <trkpt lat="47.371916" lon="7.702959">
        <ele>966.328107</ele>
        <time>2022-08-25T16:38:37.001Z</time>
      </trkpt>
      <trkpt lat="47.371905" lon="7.703105">
        <ele>966.964471</ele>
        <time>2022-08-25T16:38:43.001Z</time>
      </trkpt>
      <trkpt lat="47.371867" lon="7.703228">
        <ele>967.550122</ele>
        <time>2022-08-25T16:38:48.001Z</time>
      </trkpt>
      <trkpt lat="47.371806" lon="7.703334">
        <ele>968.152696</ele>
        <time>2022-08-25T16:38:54.001Z</time>
      </trkpt>
      <trkpt lat="47.371723" lon="7.703406">
        <ele>968.768444</ele>
        <time>2022-08-25T16:39:00.001Z</time>
      </trkpt>
      <trkpt lat="47.371629" lon="7.703474">
        <ele>969.437994</ele>
        <time>2022-08-25T16:39:06.001Z</time>
      </trkpt>
      <trkpt lat="47.371542" lon="7.703529">
        <ele>970.043347</ele>
        <time>2022-08-25T16:39:11.001Z</time>
      </trkpt>
      <trkpt lat="47.371456" lon="7.703615">
        <ele>970.707726</ele>
        <time>2022-08-25T16:39:18.001Z</time>
      </trkpt>
      <trkpt lat="47.371387" lon="7.703729">
        <ele>971.370055</ele>
        <time>2022-08-25T16:39:25.001Z</time>
      </trkpt>
      <trkpt lat="47.371336" lon="7.703846">
        <ele>971.972805</ele>
        <time>2022-08-25T16:39:32.001Z</time>
      </trkpt>
      <trkpt lat="47.371266" lon="7.703962">
        <ele>971.897491</ele>
        <time>2022-08-25T16:39:40.001Z</time>
      </trkpt>
      <trkpt lat="47.371360" lon="7.704004">
        <ele>970.818954</ele>
        <time>2022-08-25T16:39:47.001Z</time>
      </trkpt>
      <trkpt lat="47.371474" lon="7.704108">
        <ele>969.347329</ele>
        <time>2022-08-25T16:40:26.001Z</time>
      </trkpt>
      <trkpt lat="47.371560" lon="7.704160">
        <ele>968.326756</ele>
        <time>2022-08-25T16:40:31.001Z</time>
      </trkpt>
      <trkpt lat="47.371599" lon="7.704032">
        <ele>967.282852</ele>
        <time>2022-08-25T16:40:35.001Z</time>
      </trkpt>
      <trkpt lat="47.371550" lon="7.703891">
        <ele>966.104162</ele>
        <time>2022-08-25T16:40:41.001Z</time>
      </trkpt>
      <trkpt lat="47.371511" lon="7.703748">
        <ele>964.957602</ele>
        <time>2022-08-25T16:40:45.001Z</time>
      </trkpt>
      <trkpt lat="47.371510" lon="7.703606">
        <ele>963.901423</ele>
        <time>2022-08-25T16:40:49.001Z</time>
      </trkpt>
      <trkpt lat="47.371593" lon="7.703482">
        <ele>962.604740</ele>
        <time>2022-08-25T16:40:53.001Z</time>
      </trkpt>
      <trkpt lat="47.371678" lon="7.703432">
        <ele>961.599922</ele>
        <time>2022-08-25T16:40:56.001Z</time>
      </trkpt>
      <trkpt lat="47.371783" lon="7.703362">
        <ele>960.334729</ele>
        <time>2022-08-25T16:41:10.001Z</time>
      </trkpt>
      <trkpt lat="47.371866" lon="7.703243">
        <ele>959.064230</ele>
        <time>2022-08-25T16:41:14.001Z</time>
      </trkpt>
      <trkpt lat="47.371910" lon="7.703090">
        <ele>957.827958</ele>
        <time>2022-08-25T16:41:18.001Z</time>
      </trkpt>
      <trkpt lat="47.371920" lon="7.702920">
        <ele>956.558835</ele>
        <time>2022-08-25T16:41:22.001Z</time>
      </trkpt>
      <trkpt lat="47.371936" lon="7.702748">
        <ele>955.267587</ele>
        <time>2022-08-25T16:41:26.001Z</time>
      </trkpt>
      <trkpt lat="47.371966" lon="7.702608">
        <ele>954.175469</ele>
        <time>2022-08-25T16:41:29.001Z</time>
      </trkpt>
      <trkpt lat="47.372040" lon="7.702494">
        <ele>953.001030</ele>
        <time>2022-08-25T16:41:31.001Z</time>
      </trkpt>
      <trkpt lat="47.372113" lon="7.702395">
        <ele>952.979862</ele>
        <time>2022-08-25T16:41:33.001Z</time>
      </trkpt>
      <trkpt lat="47.372180" lon="7.702295">
        <ele>953.517223</ele>
        <time>2022-08-25T16:41:35.001Z</time>
      </trkpt>
      <trkpt lat="47.372265" lon="7.702169">
        <ele>954.196603</ele>
        <time>2022-08-25T16:41:38.001Z</time>
      </trkpt>
      <trkpt lat="47.372352" lon="7.702064">
        <ele>954.830411</ele>
        <time>2022-08-25T16:41:42.001Z</time>
      </trkpt>
      <trkpt lat="47.372224" lon="7.702222">
        <ele>955.771470</ele>
        <time>2022-08-25T16:42:54.000Z</time>
      </trkpt>
      <trkpt lat="47.372145" lon="7.702336">
        <ele>956.394544</ele>
        <time>2022-08-25T16:42:58.000Z</time>
      </trkpt>
      <trkpt lat="47.372082" lon="7.702437">
        <ele>956.919088</ele>
        <time>2022-08-25T16:43:01.000Z</time>
      </trkpt>
      <trkpt lat="47.372009" lon="7.702525">
        <ele>957.450655</ele>
        <time>2022-08-25T16:43:04.000Z</time>
      </trkpt>
      <trkpt lat="47.371914" lon="7.702616">
        <ele>958.089401</ele>
        <time>2022-08-25T16:43:08.000Z</time>
      </trkpt>
      <trkpt lat="47.371826" lon="7.702666">
        <ele>958.621263</ele>
        <time>2022-08-25T16:43:11.001Z</time>
      </trkpt>
      <trkpt lat="47.371725" lon="7.702684">
        <ele>959.195107</ele>
        <time>2022-08-25T16:43:15.001Z</time>
      </trkpt>
      <trkpt lat="47.371628" lon="7.702628">
        <ele>959.782589</ele>
        <time>2022-08-25T16:43:20.001Z</time>
      </trkpt>
      <trkpt lat="47.371573" lon="7.702507">
        <ele>960.339281</ele>
        <time>2022-08-25T16:43:25.001Z</time>
      </trkpt>
      <trkpt lat="47.371514" lon="7.702402">
        <ele>960.860479</ele>
        <time>2022-08-25T16:43:32.001Z</time>
      </trkpt>
      <trkpt lat="47.371447" lon="7.702282">
        <ele>961.454593</ele>
        <time>2022-08-25T16:43:39.001Z</time>
      </trkpt>
      <trkpt lat="47.371381" lon="7.702171">
        <ele>962.018864</ele>
        <time>2022-08-25T16:43:44.001Z</time>
      </trkpt>
      <trkpt lat="47.371292" lon="7.702084">
        <ele>962.620929</ele>
        <time>2022-08-25T16:44:01.000Z</time>
      </trkpt>
      <trkpt lat="47.371217" lon="7.701990">
        <ele>964.578375</ele>
        <time>2022-08-25T16:44:07.000Z</time>
      </trkpt>
      <trkpt lat="47.371137" lon="7.701907">
        <ele>967.004785</ele>
        <time>2022-08-25T16:44:13.000Z</time>
      </trkpt>
      <trkpt lat="47.371063" lon="7.701810">
        <ele>969.460441</ele>
        <time>2022-08-25T16:44:20.000Z</time>
      </trkpt>
      <trkpt lat="47.370977" lon="7.701857">
        <ele>971.736159</ele>
        <time>2022-08-25T16:44:27.000Z</time>
      </trkpt>
      <trkpt lat="47.370954" lon="7.702012">
        <ele>974.403039</ele>
        <time>2022-08-25T16:44:34.000Z</time>
      </trkpt>
      <trkpt lat="47.370971" lon="7.702153">
        <ele>976.810083</ele>
        <time>2022-08-25T16:44:40.000Z</time>
      </trkpt>
      <trkpt lat="47.370974" lon="7.702286">
        <ele>979.046651</ele>
        <time>2022-08-25T16:44:46.000Z</time>
      </trkpt>
      <trkpt lat="47.370992" lon="7.702423">
        <ele>981.392136</ele>
        <time>2022-08-25T16:44:58.000Z</time>
      </trkpt>
      <trkpt lat="47.371022" lon="7.702555">
        <ele>983.732245</ele>
        <time>2022-08-25T16:45:03.000Z</time>
      </trkpt>
      <trkpt lat="47.370935" lon="7.702690">
        <ele>986.864265</ele>
        <time>2022-08-25T16:45:51.001Z</time>
      </trkpt>
      <trkpt lat="47.370831" lon="7.702614">
        <ele>989.743976</ele>
        <time>2022-08-25T16:48:08.000Z</time>
      </trkpt>
      <trkpt lat="47.370754" lon="7.702536">
        <ele>992.061308</ele>
        <time>2022-08-25T16:48:25.000Z</time>
      </trkpt>
      <trkpt lat="47.370697" lon="7.702423">
        <ele>994.429405</ele>
        <time>2022-08-25T16:48:50.000Z</time>
      </trkpt>
      <trkpt lat="47.370653" lon="7.702305">
        <ele>996.693368</ele>
        <time>2022-08-25T16:49:12.000Z</time>
      </trkpt>
      <trkpt lat="47.370619" lon="7.702177">
        <ele>999.004225</ele>
        <time>2022-08-25T16:49:19.000Z</time>
      </trkpt>
      <trkpt lat="47.370583" lon="7.702023">
        <ele>1001.742366</ele>
        <time>2022-08-25T16:50:17.000Z</time>
      </trkpt>
      <trkpt lat="47.370531" lon="7.701913">
        <ele>1003.996980</ele>
        <time>2022-08-25T16:50:29.000Z</time>
      </trkpt>
      <trkpt lat="47.370453" lon="7.701985">
        <ele>1006.279802</ele>
        <time>2022-08-25T16:51:26.000Z</time>
      </trkpt>
      <trkpt lat="47.370371" lon="7.702206">
        <ele>1009.115764</ele>
        <time>2022-08-25T16:52:54.000Z</time>
      </trkpt>
      <trkpt lat="47.370371" lon="7.702339">
        <ele>1010.347172</ele>
        <time>2022-08-25T16:53:12.000Z</time>
      </trkpt>
      <trkpt lat="47.370382" lon="7.702472">
        <ele>1011.587728</ele>
        <time>2022-08-25T16:53:39.000Z</time>
      </trkpt>
      <trkpt lat="47.370388" lon="7.702606">
        <ele>1012.831103</ele>
        <time>2022-08-25T16:54:01.000Z</time>
      </trkpt>
      <trkpt lat="47.370373" lon="7.702741">
        <ele>1014.097738</ele>
        <time>2022-08-25T16:54:22.000Z</time>
      </trkpt>
      <trkpt lat="47.370357" lon="7.702887">
        <ele>1015.467093</ele>
        <time>2022-08-25T16:54:43.000Z</time>
      </trkpt>
      <trkpt lat="47.370340" lon="7.703021">
        <ele>1016.729340</ele>
        <time>2022-08-25T16:55:04.000Z</time>
      </trkpt>
      <trkpt lat="47.370326" lon="7.703154">
        <ele>1017.975533</ele>
        <time>2022-08-25T16:55:18.000Z</time>
      </trkpt>
      <trkpt lat="47.370297" lon="7.703286">
        <ele>1019.260380</ele>
        <time>2022-08-25T16:55:30.000Z</time>
      </trkpt>
      <trkpt lat="47.370292" lon="7.703424">
        <ele>1020.539910</ele>
        <time>2022-08-25T16:55:45.000Z</time>
      </trkpt>
      <trkpt lat="47.370292" lon="7.703560">
        <ele>1021.799096</ele>
        <time>2022-08-25T16:56:02.000Z</time>
      </trkpt>
      <trkpt lat="47.370295" lon="7.703694">
        <ele>1023.040442</ele>
        <time>2022-08-25T16:56:14.000Z</time>
      </trkpt>
      <trkpt lat="47.370291" lon="7.703827">
        <ele>1024.273066</ele>
        <time>2022-08-25T16:56:25.000Z</time>
      </trkpt>
      <trkpt lat="47.370274" lon="7.703984">
        <ele>1025.745147</ele>
        <time>2022-08-25T16:56:44.000Z</time>
      </trkpt>
      <trkpt lat="47.370278" lon="7.704130">
        <ele>1027.098026</ele>
        <time>2022-08-25T16:56:50.000Z</time>
      </trkpt>
      <trkpt lat="47.370258" lon="7.704263">
        <ele>1028.359426</ele>
        <time>2022-08-25T16:56:56.000Z</time>
      </trkpt>
      <trkpt lat="47.370254" lon="7.704551">
        <ele>1031.026500</ele>
        <time>2022-08-25T16:57:37.000Z</time>
      </trkpt>
      <trkpt lat="47.370252" lon="7.704689">
        <ele>1032.099599</ele>
        <time>2022-08-25T16:57:45.000Z</time>
      </trkpt>
      <trkpt lat="47.370237" lon="7.704858">
        <ele>1032.654543</ele>
        <time>2022-08-25T16:58:24.000Z</time>
      </trkpt>
      <trkpt lat="47.370196" lon="7.704977">
        <ele>1033.089244</ele>
        <time>2022-08-25T16:58:47.000Z</time>
      </trkpt>
      <trkpt lat="47.370176" lon="7.705108">
        <ele>1033.526464</ele>
        <time>2022-08-25T16:59:06.000Z</time>
      </trkpt>
      <trkpt lat="47.370160" lon="7.705240">
        <ele>1033.963066</ele>
        <time>2022-08-25T16:59:21.000Z</time>
      </trkpt>
      <trkpt lat="47.370156" lon="7.705373">
        <ele>1034.396522</ele>
        <time>2022-08-25T16:59:50.000Z</time>
      </trkpt>
      <trkpt lat="47.370183" lon="7.705662">
        <ele>1035.346375</ele>
        <time>2022-08-25T17:00:30.000Z</time>
      </trkpt>
      <trkpt lat="47.370215" lon="7.705808">
        <ele>1035.846002</ele>
        <time>2022-08-25T17:00:35.000Z</time>
      </trkpt>
      <trkpt lat="47.370228" lon="7.705967">
        <ele>1036.367442</ele>
        <time>2022-08-25T17:00:40.000Z</time>
      </trkpt>
      <trkpt lat="47.370306" lon="7.706074">
        <ele>1036.879276</ele>
        <time>2022-08-25T17:00:45.000Z</time>
      </trkpt>
      <trkpt lat="47.370392" lon="7.706166">
        <ele>1037.389817</ele>
        <time>2022-08-25T17:00:50.000Z</time>
      </trkpt>
      <trkpt lat="47.370489" lon="7.706216">
        <ele>1037.883734</ele>
        <time>2022-08-25T17:00:55.000Z</time>
      </trkpt>
      <trkpt lat="47.370576" lon="7.706267">
        <ele>1038.333734</ele>
        <time>2022-08-25T17:01:00.000Z</time>
      </trkpt>
      <trkpt lat="47.370675" lon="7.706280">
        <ele>1038.811545</ele>
        <time>2022-08-25T17:01:06.000Z</time>
      </trkpt>
      <trkpt lat="47.370780" lon="7.706293">
        <ele>1039.318093</ele>
        <time>2022-08-25T17:01:14.000Z</time>
      </trkpt>
      <trkpt lat="47.370645" lon="7.706295">
        <ele>1039.967125</ele>
        <time>2022-08-25T17:05:06.999Z</time>
      </trkpt>
      <trkpt lat="47.370548" lon="7.706262">
        <ele>1040.445661</ele>
        <time>2022-08-25T17:05:11.999Z</time>
      </trkpt>
      <trkpt lat="47.370448" lon="7.706200">
        <ele>1040.730175</ele>
        <time>2022-08-25T17:05:16.000Z</time>
      </trkpt>
      <trkpt lat="47.370245" lon="7.706129">
        <ele>1041.017052</ele>
        <time>2022-08-25T17:05:35.000Z</time>
      </trkpt>
      <trkpt lat="47.370188" lon="7.706236">
        <ele>1041.143836</ele>
        <time>2022-08-25T17:05:41.000Z</time>
      </trkpt>
      <trkpt lat="47.370180" lon="7.706370">
        <ele>1041.269117</ele>
        <time>2022-08-25T17:05:44.000Z</time>
      </trkpt>
      <trkpt lat="47.370171" lon="7.706538">
        <ele>1041.426068</ele>
        <time>2022-08-25T17:05:47.000Z</time>
      </trkpt>
      <trkpt lat="47.370140" lon="7.706707">
        <ele>1041.589133</ele>
        <time>2022-08-25T17:05:50.000Z</time>
      </trkpt>
      <trkpt lat="47.370127" lon="7.706846">
        <ele>1041.719815</ele>
        <time>2022-08-25T17:05:55.000Z</time>
      </trkpt>
      <trkpt lat="47.370085" lon="7.706966">
        <ele>1041.845615</ele>
        <time>2022-08-25T17:05:59.000Z</time>
      </trkpt>
      <trkpt lat="47.370093" lon="7.707129">
        <ele>1041.997819</ele>
        <time>2022-08-25T17:06:04.000Z</time>
      </trkpt>
      <trkpt lat="47.370074" lon="7.707276">
        <ele>1042.137195</ele>
        <time>2022-08-25T17:06:08.000Z</time>
      </trkpt>
      <trkpt lat="47.370092" lon="7.707437">
        <ele>1042.289167</ele>
        <time>2022-08-25T17:06:14.000Z</time>
      </trkpt>
      <trkpt lat="47.370072" lon="7.707591">
        <ele>1042.435204</ele>
        <time>2022-08-25T17:06:18.000Z</time>
      </trkpt>
      <trkpt lat="47.370052" lon="7.707742">
        <ele>1042.578498</ele>
        <time>2022-08-25T17:06:23.000Z</time>
      </trkpt>
      <trkpt lat="47.370088" lon="7.707597">
        <ele>1042.722328</ele>
        <time>2022-08-25T17:08:53.000Z</time>
      </trkpt>
      <trkpt lat="47.370082" lon="7.707442">
        <ele>1042.866919</ele>
        <time>2022-08-25T17:08:57.000Z</time>
      </trkpt>
      <trkpt lat="47.370069" lon="7.707282">
        <ele>1043.016999</ele>
        <time>2022-08-25T17:09:07.000Z</time>
      </trkpt>
      <trkpt lat="47.370092" lon="7.707127">
        <ele>1043.184704</ele>
        <time>2022-08-25T17:09:11.000Z</time>
      </trkpt>
      <trkpt lat="47.370081" lon="7.706969">
        <ele>1043.385133</ele>
        <time>2022-08-25T17:09:15.000Z</time>
      </trkpt>
      <trkpt lat="47.370119" lon="7.706836">
        <ele>1043.567288</ele>
        <time>2022-08-25T17:09:18.000Z</time>
      </trkpt>
      <trkpt lat="47.370145" lon="7.706647">
        <ele>1043.810655</ele>
        <time>2022-08-25T17:09:22.000Z</time>
      </trkpt>
      <trkpt lat="47.370171" lon="7.706515">
        <ele>1043.984126</ele>
        <time>2022-08-25T17:09:24.000Z</time>
      </trkpt>
      <trkpt lat="47.370175" lon="7.706334">
        <ele>1044.212649</ele>
        <time>2022-08-25T17:09:28.000Z</time>
      </trkpt>
      <trkpt lat="47.370217" lon="7.706197">
        <ele>1044.402414</ele>
        <time>2022-08-25T17:09:32.000Z</time>
      </trkpt>
      <trkpt lat="47.370159" lon="7.706434">
        <ele>1044.720407</ele>
        <time>2022-08-25T17:11:04.000Z</time>
      </trkpt>
      <trkpt lat="47.370158" lon="7.706618">
        <ele>1044.952602</ele>
        <time>2022-08-25T17:11:07.000Z</time>
      </trkpt>
      <trkpt lat="47.370130" lon="7.706749">
        <ele>1045.125946</ele>
        <time>2022-08-25T17:11:10.000Z</time>
      </trkpt>
      <trkpt lat="47.370112" lon="7.706887">
        <ele>1045.303287</ele>
        <time>2022-08-25T17:11:13.000Z</time>
      </trkpt>
      <trkpt lat="47.370081" lon="7.707030">
        <ele>1045.492756</ele>
        <time>2022-08-25T17:11:17.000Z</time>
      </trkpt>
      <trkpt lat="47.370091" lon="7.707181">
        <ele>1045.684210</ele>
        <time>2022-08-25T17:11:20.000Z</time>
      </trkpt>
      <trkpt lat="47.370063" lon="7.707335">
        <ele>1045.885422</ele>
        <time>2022-08-25T17:11:24.000Z</time>
      </trkpt>
      <trkpt lat="47.370084" lon="7.707498">
        <ele>1046.094798</ele>
        <time>2022-08-25T17:11:29.000Z</time>
      </trkpt>
      <trkpt lat="47.370075" lon="7.707635">
        <ele>1046.268489</ele>
        <time>2022-08-25T17:11:32.000Z</time>
      </trkpt>
      <trkpt lat="47.370053" lon="7.707788">
        <ele>1046.469050</ele>
        <time>2022-08-25T17:11:37.000Z</time>
      </trkpt>
      <trkpt lat="47.370047" lon="7.707945">
        <ele>1046.774016</ele>
        <time>2022-08-25T17:11:41.000Z</time>
      </trkpt>
      <trkpt lat="47.370035" lon="7.708087">
        <ele>1047.051542</ele>
        <time>2022-08-25T17:11:45.000Z</time>
      </trkpt>
      <trkpt lat="47.370082" lon="7.708212">
        <ele>1047.328818</ele>
        <time>2022-08-25T17:11:49.000Z</time>
      </trkpt>
      <trkpt lat="47.370067" lon="7.708344">
        <ele>1047.588394</ele>
        <time>2022-08-25T17:11:53.000Z</time>
      </trkpt>
      <trkpt lat="47.370071" lon="7.708482">
        <ele>1047.856272</ele>
        <time>2022-08-25T17:11:56.000Z</time>
      </trkpt>
      <trkpt lat="47.370053" lon="7.708635">
        <ele>1048.157440</ele>
        <time>2022-08-25T17:12:00.000Z</time>
      </trkpt>
      <trkpt lat="47.370026" lon="7.708773">
        <ele>1048.436017</ele>
        <time>2022-08-25T17:12:03.000Z</time>
      </trkpt>
      <trkpt lat="47.370000" lon="7.708916">
        <ele>1048.723168</ele>
        <time>2022-08-25T17:12:06.000Z</time>
      </trkpt>
      <trkpt lat="47.369863" lon="7.709160">
        <ele>1049.337847</ele>
        <time>2022-08-25T17:13:21.000Z</time>
      </trkpt>
      <trkpt lat="47.369855" lon="7.709292">
        <ele>1049.594868</ele>
        <time>2022-08-25T17:13:36.000Z</time>
      </trkpt>
      <trkpt lat="47.369876" lon="7.709452">
        <ele>1049.910942</ele>
        <time>2022-08-25T17:13:42.000Z</time>
      </trkpt>
      <trkpt lat="47.369903" lon="7.709592">
        <ele>1050.193249</ele>
        <time>2022-08-25T17:13:46.000Z</time>
      </trkpt>
      <trkpt lat="47.369928" lon="7.709727">
        <ele>1050.464676</ele>
        <time>2022-08-25T17:13:50.000Z</time>
      </trkpt>
      <trkpt lat="47.369942" lon="7.709885">
        <ele>1050.773709</ele>
        <time>2022-08-25T17:13:54.000Z</time>
      </trkpt>
      <trkpt lat="47.369931" lon="7.710044">
        <ele>1051.083674</ele>
        <time>2022-08-25T17:13:58.000Z</time>
      </trkpt>
      <trkpt lat="47.369896" lon="7.710181">
        <ele>1051.367644</ele>
        <time>2022-08-25T17:14:02.000Z</time>
      </trkpt>
      <trkpt lat="47.369856" lon="7.710341">
        <ele>1051.642949</ele>
        <time>2022-08-25T17:14:07.000Z</time>
      </trkpt>
      <trkpt lat="47.369829" lon="7.710468">
        <ele>1051.738355</ele>
        <time>2022-08-25T17:14:14.000Z</time>
      </trkpt>
      <trkpt lat="47.369856" lon="7.710627">
        <ele>1051.855845</ele>
        <time>2022-08-25T17:14:19.000Z</time>
      </trkpt>
      <trkpt lat="47.369890" lon="7.710761">
        <ele>1051.958408</ele>
        <time>2022-08-25T17:14:24.000Z</time>
      </trkpt>
      <trkpt lat="47.369882" lon="7.710901">
        <ele>1052.059108</ele>
        <time>2022-08-25T17:14:30.000Z</time>
      </trkpt>
      <trkpt lat="47.369901" lon="7.711031">
        <ele>1052.154430</ele>
        <time>2022-08-25T17:14:35.000Z</time>
      </trkpt>
      <trkpt lat="47.369895" lon="7.711400">
        <ele>1052.418984</ele>
        <time>2022-08-25T17:15:17.000Z</time>
      </trkpt>
      <trkpt lat="47.369875" lon="7.711542">
        <ele>1052.522939</ele>
        <time>2022-08-25T17:15:20.001Z</time>
      </trkpt>
      <trkpt lat="47.369827" lon="7.711686">
        <ele>1052.637974</ele>
        <time>2022-08-25T17:15:24.001Z</time>
      </trkpt>
      <trkpt lat="47.369772" lon="7.711810">
        <ele>1052.744214</ele>
        <time>2022-08-25T17:15:28.001Z</time>
      </trkpt>
      <trkpt lat="47.369705" lon="7.711926">
        <ele>1052.853486</ele>
        <time>2022-08-25T17:15:32.000Z</time>
      </trkpt>
      <trkpt lat="47.369765" lon="7.712033">
        <ele>1052.953052</ele>
        <time>2022-08-25T17:15:37.000Z</time>
      </trkpt>
      <trkpt lat="47.369829" lon="7.712192">
        <ele>1053.085623</ele>
        <time>2022-08-25T17:15:41.000Z</time>
      </trkpt>
      <trkpt lat="47.369813" lon="7.712342">
        <ele>1053.194460</ele>
        <time>2022-08-25T17:15:45.000Z</time>
      </trkpt>
      <trkpt lat="47.369802" lon="7.712476">
        <ele>1053.291206</ele>
        <time>2022-08-25T17:15:49.000Z</time>
      </trkpt>
      <trkpt lat="47.369862" lon="7.712590">
        <ele>1053.394687</ele>
        <time>2022-08-25T17:15:53.000Z</time>
      </trkpt>
      <trkpt lat="47.369922" lon="7.712718">
        <ele>1053.506261</ele>
        <time>2022-08-25T17:15:57.000Z</time>
      </trkpt>
      <trkpt lat="47.369963" lon="7.712837">
        <ele>1053.372248</ele>
        <time>2022-08-25T17:16:18.000Z</time>
      </trkpt>
      <trkpt lat="47.370016" lon="7.712955">
        <ele>1053.208903</ele>
        <time>2022-08-25T17:16:32.000Z</time>
      </trkpt>
      <trkpt lat="47.370096" lon="7.713031">
        <ele>1053.046864</ele>
        <time>2022-08-25T17:16:46.000Z</time>
      </trkpt>
      <trkpt lat="47.370177" lon="7.713095">
        <ele>1052.890378</ele>
        <time>2022-08-25T17:16:55.000Z</time>
      </trkpt>
      <trkpt lat="47.370254" lon="7.713201">
        <ele>1052.711056</ele>
        <time>2022-08-25T17:16:59.000Z</time>
      </trkpt>
      <trkpt lat="47.370279" lon="7.713344">
        <ele>1052.540679</ele>
        <time>2022-08-25T17:17:14.000Z</time>
      </trkpt>
      <trkpt lat="47.370291" lon="7.713700">
        <ele>1052.129480</ele>
        <time>2022-08-25T17:18:09.000Z</time>
      </trkpt>
      <trkpt lat="47.370294" lon="7.713850">
        <ele>1051.956361</ele>
        <time>2022-08-25T17:18:18.000Z</time>
      </trkpt>
      <trkpt lat="47.370299" lon="7.714009">
        <ele>1051.772736</ele>
        <time>2022-08-25T17:18:22.000Z</time>
      </trkpt>
      <trkpt lat="47.370318" lon="7.714142">
        <ele>1051.615928</ele>
        <time>2022-08-25T17:18:28.000Z</time>
      </trkpt>
      <trkpt lat="47.370313" lon="7.714292">
        <ele>1051.442675</ele>
        <time>2022-08-25T17:18:40.000Z</time>
      </trkpt>
      <trkpt lat="47.370273" lon="7.714419">
        <ele>1051.281096</ele>
        <time>2022-08-25T17:18:44.000Z</time>
      </trkpt>
      <trkpt lat="47.370261" lon="7.714625">
        <ele>1051.042571</ele>
        <time>2022-08-25T17:19:52.000Z</time>
      </trkpt>
      <trkpt lat="47.370235" lon="7.714863">
        <ele>1050.764459</ele>
        <time>2022-08-25T17:20:49.000Z</time>
      </trkpt>
      <trkpt lat="47.370200" lon="7.715010">
        <ele>1050.584701</ele>
        <time>2022-08-25T17:21:40.000Z</time>
      </trkpt>
      <trkpt lat="47.370149" lon="7.715124">
        <ele>1050.404594</ele>
        <time>2022-08-25T17:22:07.000Z</time>
      </trkpt>
      <trkpt lat="47.370077" lon="7.715348">
        <ele>1049.839717</ele>
        <time>2022-08-25T17:22:53.000Z</time>
      </trkpt>
      <trkpt lat="47.370031" lon="7.715469">
        <ele>1049.523593</ele>
        <time>2022-08-25T17:23:11.000Z</time>
      </trkpt>
      <trkpt lat="47.369969" lon="7.715642">
        <ele>1049.077682</ele>
        <time>2022-08-25T17:25:17.000Z</time>
      </trkpt>
      <trkpt lat="47.369942" lon="7.715771">
        <ele>1048.770078</ele>
        <time>2022-08-25T17:25:35.999Z</time>
      </trkpt>
      <trkpt lat="47.369871" lon="7.715957">
        <ele>1048.283657</ele>
        <time>2022-08-25T17:27:51.999Z</time>
      </trkpt>
      <trkpt lat="47.369831" lon="7.716083">
        <ele>1047.966630</ele>
        <time>2022-08-25T17:28:07.999Z</time>
      </trkpt>
      <trkpt lat="47.369790" lon="7.716258">
        <ele>1047.544760</ele>
        <time>2022-08-25T17:29:47.999Z</time>
      </trkpt>
      <trkpt lat="47.369772" lon="7.716390">
        <ele>1047.237999</ele>
        <time>2022-08-25T17:30:06.000Z</time>
      </trkpt>
      <trkpt lat="47.369738" lon="7.716517">
        <ele>1046.926880</ele>
        <time>2022-08-25T17:30:22.000Z</time>
      </trkpt>
      <trkpt lat="47.369677" lon="7.716615">
        <ele>1046.623642</ele>
        <time>2022-08-25T17:30:42.000Z</time>
      </trkpt>
      <trkpt lat="47.369620" lon="7.716718">
        <ele>1046.320610</ele>
        <time>2022-08-25T17:30:56.000Z</time>
      </trkpt>
      <trkpt lat="47.369603" lon="7.716850">
        <ele>1046.014494</ele>
        <time>2022-08-25T17:31:07.999Z</time>
      </trkpt>
      <trkpt lat="47.369593" lon="7.716984">
        <ele>1045.707363</ele>
        <time>2022-08-25T17:31:18.999Z</time>
      </trkpt>
      <trkpt lat="47.369586" lon="7.717128">
        <ele>1045.378454</ele>
        <time>2022-08-25T17:31:30.999Z</time>
      </trkpt>
      <trkpt lat="47.369588" lon="7.717270">
        <ele>1045.054875</ele>
        <time>2022-08-25T17:31:43.999Z</time>
      </trkpt>
      <trkpt lat="47.369587" lon="7.717407">
        <ele>1044.742739</ele>
        <time>2022-08-25T17:31:53.999Z</time>
      </trkpt>
      <trkpt lat="47.369612" lon="7.717544">
        <ele>1044.419490</ele>
        <time>2022-08-25T17:32:10.000Z</time>
      </trkpt>
      <trkpt lat="47.369639" lon="7.717678">
        <ele>1045.630258</ele>
        <time>2022-08-25T17:32:22.000Z</time>
      </trkpt>
      <trkpt lat="47.369655" lon="7.717927">
        <ele>1047.976995</ele>
        <time>2022-08-25T17:33:26.000Z</time>
      </trkpt>
      <trkpt lat="47.369664" lon="7.718061">
        <ele>1049.240419</ele>
        <time>2022-08-25T17:33:40.000Z</time>
      </trkpt>
      <trkpt lat="47.369664" lon="7.718206">
        <ele>1050.600884</ele>
        <time>2022-08-25T17:33:52.000Z</time>
      </trkpt>
      <trkpt lat="47.369675" lon="7.718348">
        <ele>1051.941887</ele>
        <time>2022-08-25T17:35:33.000Z</time>
      </trkpt>
      <trkpt lat="47.369733" lon="7.718245">
        <ele>1053.198686</ele>
        <time>2022-08-25T17:36:02.000Z</time>
      </trkpt>
      <trkpt lat="47.369769" lon="7.718120">
        <ele>1054.473134</ele>
        <time>2022-08-25T17:36:16.000Z</time>
      </trkpt>
      <trkpt lat="47.369831" lon="7.717896">
        <ele>1056.743550</ele>
        <time>2022-08-25T17:37:25.000Z</time>
      </trkpt>
      <trkpt lat="47.369873" lon="7.717775">
        <ele>1058.019249</ele>
        <time>2022-08-25T17:37:43.000Z</time>
      </trkpt>
      <trkpt lat="47.369920" lon="7.717574">
        <ele>1060.014363</ele>
        <time>2022-08-25T17:38:18.000Z</time>
      </trkpt>
      <trkpt lat="47.369964" lon="7.717692">
        <ele>1061.278205</ele>
        <time>2022-08-25T17:39:37.000Z</time>
      </trkpt>
      <trkpt lat="47.369991" lon="7.717822">
        <ele>1062.553989</ele>
        <time>2022-08-25T17:39:58.000Z</time>
      </trkpt>
      <trkpt lat="47.370041" lon="7.717933">
        <ele>1063.804758</ele>
        <time>2022-08-25T17:40:13.000Z</time>
      </trkpt>
      <trkpt lat="47.370103" lon="7.718044">
        <ele>1065.154706</ele>
        <time>2022-08-25T17:40:34.000Z</time>
      </trkpt>
      <trkpt lat="47.370151" lon="7.718195">
        <ele>1066.719748</ele>
        <time>2022-08-25T17:42:02.999Z</time>
      </trkpt>
      <trkpt lat="47.370214" lon="7.718401">
        <ele>1068.840447</ele>
        <time>2022-08-25T17:43:51.999Z</time>
      </trkpt>
      <trkpt lat="47.370168" lon="7.718537">
        <ele>1068.481698</ele>
        <time>2022-08-25T17:44:09.999Z</time>
      </trkpt>
      <trkpt lat="47.370158" lon="7.718671">
        <ele>1067.368478</ele>
        <time>2022-08-25T17:44:13.999Z</time>
      </trkpt>
      <trkpt lat="47.370122" lon="7.718796">
        <ele>1066.246823</ele>
        <time>2022-08-25T17:44:17.999Z</time>
      </trkpt>
      <trkpt lat="47.370072" lon="7.718936">
        <ele>1064.939860</ele>
        <time>2022-08-25T17:44:20.999Z</time>
      </trkpt>
      <trkpt lat="47.370049" lon="7.719070">
        <ele>1063.798353</ele>
        <time>2022-08-25T17:44:38.999Z</time>
      </trkpt>
      <trkpt lat="47.370023" lon="7.719202">
        <ele>1062.663181</ele>
        <time>2022-08-25T17:44:48.000Z</time>
      </trkpt>
      <trkpt lat="47.369997" lon="7.719350">
        <ele>1061.400603</ele>
        <time>2022-08-25T17:44:53.000Z</time>
      </trkpt>
      <trkpt lat="47.369963" lon="7.719487">
        <ele>1060.195741</ele>
        <time>2022-08-25T17:44:56.000Z</time>
      </trkpt>
      <trkpt lat="47.369951" lon="7.719629">
        <ele>1059.014061</ele>
        <time>2022-08-25T17:45:00.000Z</time>
      </trkpt>
      <trkpt lat="47.369917" lon="7.719754">
        <ele>1057.901718</ele>
        <time>2022-08-25T17:45:12.000Z</time>
      </trkpt>
      <trkpt lat="47.369844" lon="7.720095">
        <ele>1054.948529</ele>
        <time>2022-08-25T17:45:54.999Z</time>
      </trkpt>
      <trkpt lat="47.369800" lon="7.720227">
        <ele>1053.733647</ele>
        <time>2022-08-25T17:46:09.999Z</time>
      </trkpt>
      <trkpt lat="47.369726" lon="7.720469">
        <ele>1051.541041</ele>
        <time>2022-08-25T17:46:31.999Z</time>
      </trkpt>
      <trkpt lat="47.369693" lon="7.720638">
        <ele>1050.088644</ele>
        <time>2022-08-25T17:46:35.999Z</time>
      </trkpt>
      <trkpt lat="47.369641" lon="7.720822">
        <ele>1048.442250</ele>
        <time>2022-08-25T17:46:38.999Z</time>
      </trkpt>
      <trkpt lat="47.369596" lon="7.720943">
        <ele>1047.310573</ele>
        <time>2022-08-25T17:46:40.999Z</time>
      </trkpt>
      <trkpt lat="47.369558" lon="7.721118">
        <ele>1045.940741</ele>
        <time>2022-08-25T17:46:43.999Z</time>
      </trkpt>
      <trkpt lat="47.369514" lon="7.721303">
        <ele>1044.479216</ele>
        <time>2022-08-25T17:46:46.999Z</time>
      </trkpt>
      <trkpt lat="47.369469" lon="7.721442">
        <ele>1043.330841</ele>
        <time>2022-08-25T17:46:49.000Z</time>
      </trkpt>
      <trkpt lat="47.369470" lon="7.721600">
        <ele>1042.153075</ele>
        <time>2022-08-25T17:46:51.000Z</time>
      </trkpt>
      <trkpt lat="47.369471" lon="7.721745">
        <ele>1041.072205</ele>
        <time>2022-08-25T17:46:53.000Z</time>
      </trkpt>
      <trkpt lat="47.369447" lon="7.721886">
        <ele>1039.988523</ele>
        <time>2022-08-25T17:46:55.000Z</time>
      </trkpt>
      <trkpt lat="47.369468" lon="7.722099">
        <ele>1038.384111</ele>
        <time>2022-08-25T17:46:58.000Z</time>
      </trkpt>
      <trkpt lat="47.369484" lon="7.722231">
        <ele>1037.384564</ele>
        <time>2022-08-25T17:47:00.000Z</time>
      </trkpt>
      <trkpt lat="47.369499" lon="7.722416">
        <ele>1035.995749</ele>
        <time>2022-08-25T17:47:03.000Z</time>
      </trkpt>
      <trkpt lat="47.369513" lon="7.722553">
        <ele>1034.963008</ele>
        <time>2022-08-25T17:47:05.000Z</time>
      </trkpt>
      <trkpt lat="47.369535" lon="7.722709">
        <ele>1033.775262</ele>
        <time>2022-08-25T17:47:07.000Z</time>
      </trkpt>
      <trkpt lat="47.369561" lon="7.722873">
        <ele>1032.519781</ele>
        <time>2022-08-25T17:47:10.000Z</time>
      </trkpt>
      <trkpt lat="47.369575" lon="7.723039">
        <ele>1031.272882</ele>
        <time>2022-08-25T17:47:14.000Z</time>
      </trkpt>
      <trkpt lat="47.369598" lon="7.723221">
        <ele>1029.892863</ele>
        <time>2022-08-25T17:47:18.000Z</time>
      </trkpt>
      <trkpt lat="47.369625" lon="7.723388">
        <ele>1028.613090</ele>
        <time>2022-08-25T17:47:21.000Z</time>
      </trkpt>
      <trkpt lat="47.369694" lon="7.723553">
        <ele>1027.293867</ele>
        <time>2022-08-25T17:48:42.999Z</time>
      </trkpt>
      <trkpt lat="47.369704" lon="7.723703">
        <ele>1026.505006</ele>
        <time>2022-08-25T17:48:51.999Z</time>
      </trkpt>
      <trkpt lat="47.369688" lon="7.723881">
        <ele>1025.565225</ele>
        <time>2022-08-25T17:48:55.000Z</time>
      </trkpt>
      <trkpt lat="47.369664" lon="7.724021">
        <ele>1024.809387</ele>
        <time>2022-08-25T17:48:57.000Z</time>
      </trkpt>
      <trkpt lat="47.369643" lon="7.724174">
        <ele>1023.992340</ele>
        <time>2022-08-25T17:49:00.000Z</time>
      </trkpt>
      <trkpt lat="47.369621" lon="7.724304">
        <ele>1023.291029</ele>
        <time>2022-08-25T17:49:02.000Z</time>
      </trkpt>
      <trkpt lat="47.369598" lon="7.724458">
        <ele>1022.465661</ele>
        <time>2022-08-25T17:49:04.000Z</time>
      </trkpt>
      <trkpt lat="47.369574" lon="7.724638">
        <ele>1021.505496</ele>
        <time>2022-08-25T17:49:06.000Z</time>
      </trkpt>
      <trkpt lat="47.369548" lon="7.724849">
        <ele>1020.383037</ele>
        <time>2022-08-25T17:49:08.000Z</time>
      </trkpt>
      <trkpt lat="47.369497" lon="7.725085">
        <ele>1019.086508</ele>
        <time>2022-08-25T17:49:10.000Z</time>
      </trkpt>
      <trkpt lat="47.369469" lon="7.725218">
        <ele>1018.357558</ele>
        <time>2022-08-25T17:49:11.000Z</time>
      </trkpt>
      <trkpt lat="47.369435" lon="7.725344">
        <ele>1017.647683</ele>
        <time>2022-08-25T17:49:12.000Z</time>
      </trkpt>
      <trkpt lat="47.369388" lon="7.725595">
        <ele>1016.284713</ele>
        <time>2022-08-25T17:49:14.000Z</time>
      </trkpt>
      <trkpt lat="47.369356" lon="7.725722">
        <ele>1015.575509</ele>
        <time>2022-08-25T17:49:15.000Z</time>
      </trkpt>
      <trkpt lat="47.369323" lon="7.725854">
        <ele>1014.839081</ele>
        <time>2022-08-25T17:49:16.000Z</time>
      </trkpt>
      <trkpt lat="47.369285" lon="7.725977">
        <ele>1014.131508</ele>
        <time>2022-08-25T17:49:17.000Z</time>
      </trkpt>
      <trkpt lat="47.369248" lon="7.726109">
        <ele>1013.185386</ele>
        <time>2022-08-25T17:49:18.000Z</time>
      </trkpt>
      <trkpt lat="47.369168" lon="7.726193">
        <ele>1011.938127</ele>
        <time>2022-08-25T17:49:19.000Z</time>
      </trkpt>
      <trkpt lat="47.369097" lon="7.726396">
        <ele>1009.972101</ele>
        <time>2022-08-25T17:49:21.000Z</time>
      </trkpt>
      <trkpt lat="47.369029" lon="7.726598">
        <ele>1008.030977</ele>
        <time>2022-08-25T17:49:23.000Z</time>
      </trkpt>
      <trkpt lat="47.368986" lon="7.726724">
        <ele>1006.816855</ele>
        <time>2022-08-25T17:49:25.000Z</time>
      </trkpt>
      <trkpt lat="47.368942" lon="7.726868">
        <ele>1005.457436</ele>
        <time>2022-08-25T17:49:29.000Z</time>
      </trkpt>
      <trkpt lat="47.368228" lon="7.726875">
        <ele>996.385428</ele>
        <time>2022-08-25T17:50:24.999Z</time>
      </trkpt>
      <trkpt lat="47.368380" lon="7.726887">
        <ele>994.451416</ele>
        <time>2022-08-25T17:50:25.999Z</time>
      </trkpt>
      <trkpt lat="47.368289" lon="7.726881">
        <ele>993.294053</ele>
        <time>2022-08-25T17:50:27.999Z</time>
      </trkpt>
      <trkpt lat="47.368170" lon="7.726892">
        <ele>991.779125</ele>
        <time>2022-08-25T17:50:30.999Z</time>
      </trkpt>
      <trkpt lat="47.368041" lon="7.726888">
        <ele>990.907595</ele>
        <time>2022-08-25T17:50:33.999Z</time>
      </trkpt>
      <trkpt lat="47.367930" lon="7.726879">
        <ele>991.046166</ele>
        <time>2022-08-25T17:50:35.999Z</time>
      </trkpt>
      <trkpt lat="47.367831" lon="7.726873">
        <ele>991.169675</ele>
        <time>2022-08-25T17:50:37.999Z</time>
      </trkpt>
      <trkpt lat="47.367558" lon="7.726821">
        <ele>991.512792</ele>
        <time>2022-08-25T17:51:29.000Z</time>
      </trkpt>
      <trkpt lat="47.367442" lon="7.726810">
        <ele>991.657685</ele>
        <time>2022-08-25T17:51:32.000Z</time>
      </trkpt>
      <trkpt lat="47.367332" lon="7.726846">
        <ele>991.798129</ele>
        <time>2022-08-25T17:51:34.000Z</time>
      </trkpt>
      <trkpt lat="47.367220" lon="7.726873">
        <ele>991.939587</ele>
        <time>2022-08-25T17:51:36.000Z</time>
      </trkpt>
      <trkpt lat="47.367102" lon="7.726902">
        <ele>992.088699</ele>
        <time>2022-08-25T17:51:38.000Z</time>
      </trkpt>
      <trkpt lat="47.366980" lon="7.726936">
        <ele>992.243459</ele>
        <time>2022-08-25T17:51:40.000Z</time>
      </trkpt>
      <trkpt lat="47.366859" lon="7.726971">
        <ele>992.397153</ele>
        <time>2022-08-25T17:51:42.000Z</time>
      </trkpt>
      <trkpt lat="47.366762" lon="7.727059">
        <ele>992.539067</ele>
        <time>2022-08-25T17:51:44.000Z</time>
      </trkpt>
      <trkpt lat="47.366683" lon="7.727126">
        <ele>992.652631</ele>
        <time>2022-08-25T17:51:46.000Z</time>
      </trkpt>
      <trkpt lat="47.366596" lon="7.727202">
        <ele>992.778638</ele>
        <time>2022-08-25T17:51:48.999Z</time>
      </trkpt>
      <trkpt lat="47.366508" lon="7.727277">
        <ele>992.905295</ele>
        <time>2022-08-25T17:51:50.999Z</time>
      </trkpt>
      <trkpt lat="47.366423" lon="7.727345">
        <ele>993.025802</ele>
        <time>2022-08-25T17:51:52.999Z</time>
      </trkpt>
      <trkpt lat="47.366345" lon="7.727434">
        <ele>993.316592</ele>
        <time>2022-08-25T17:51:54.999Z</time>
      </trkpt>
      <trkpt lat="47.366257" lon="7.727499">
        <ele>993.743632</ele>
        <time>2022-08-25T17:51:56.999Z</time>
      </trkpt>
      <trkpt lat="47.366175" lon="7.727563">
        <ele>994.146169</ele>
        <time>2022-08-25T17:51:58.999Z</time>
      </trkpt>
      <trkpt lat="47.366088" lon="7.727602">
        <ele>994.540761</ele>
        <time>2022-08-25T17:52:00.999Z</time>
      </trkpt>
      <trkpt lat="47.365975" lon="7.727659">
        <ele>995.059003</ele>
        <time>2022-08-25T17:52:03.999Z</time>
      </trkpt>
      <trkpt lat="47.365874" lon="7.727727">
        <ele>995.540757</ele>
        <time>2022-08-25T17:52:06.999Z</time>
      </trkpt>
      <trkpt lat="47.365778" lon="7.727796">
        <ele>996.004136</ele>
        <time>2022-08-25T17:52:09.999Z</time>
      </trkpt>
      <trkpt lat="47.365668" lon="7.727877">
        <ele>996.537607</ele>
        <time>2022-08-25T17:52:12.999Z</time>
      </trkpt>
      <trkpt lat="47.365574" lon="7.727922">
        <ele>996.966468</ele>
        <time>2022-08-25T17:52:15.999Z</time>
      </trkpt>
      <trkpt lat="47.365466" lon="7.727971">
        <ele>997.456810</ele>
        <time>2022-08-25T17:52:18.999Z</time>
      </trkpt>
      <trkpt lat="47.365355" lon="7.728044">
        <ele>997.984172</ele>
        <time>2022-08-25T17:52:21.999Z</time>
      </trkpt>
      <trkpt lat="47.365249" lon="7.728124">
        <ele>998.500823</ele>
        <time>2022-08-25T17:52:24.999Z</time>
      </trkpt>
      <trkpt lat="47.365148" lon="7.728209">
        <ele>999.005366</ele>
        <time>2022-08-25T17:52:27.999Z</time>
      </trkpt>
      <trkpt lat="47.365065" lon="7.728279">
        <ele>999.420206</ele>
        <time>2022-08-25T17:52:29.999Z</time>
      </trkpt>
      <trkpt lat="47.364970" lon="7.728364">
        <ele>999.902300</ele>
        <time>2022-08-25T17:52:31.999Z</time>
      </trkpt>
      <trkpt lat="47.364879" lon="7.728452">
        <ele>1000.374408</ele>
        <time>2022-08-25T17:52:33.999Z</time>
      </trkpt>
      <trkpt lat="47.364792" lon="7.728570">
        <ele>1000.887134</ele>
        <time>2022-08-25T17:52:35.999Z</time>
      </trkpt>
      <trkpt lat="47.364710" lon="7.728709">
        <ele>1001.470275</ele>
        <time>2022-08-25T17:52:37.999Z</time>
      </trkpt>
      <trkpt lat="47.364686" lon="7.728876">
        <ele>1002.010354</ele>
        <time>2022-08-25T17:52:39.999Z</time>
      </trkpt>
      <trkpt lat="47.364624" lon="7.728986">
        <ele>1002.463076</ele>
        <time>2022-08-25T17:52:41.999Z</time>
      </trkpt>
      <trkpt lat="47.364534" lon="7.729071">
        <ele>1002.962087</ele>
        <time>2022-08-25T17:52:44.999Z</time>
      </trkpt>
      <trkpt lat="47.364436" lon="7.729083">
        <ele>1003.421384</ele>
        <time>2022-08-25T17:52:48.999Z</time>
      </trkpt>
      <trkpt lat="47.364544" lon="7.729171">
        <ele>1003.997540</ele>
        <time>2022-08-25T17:52:59.999Z</time>
      </trkpt>
      <trkpt lat="47.364534" lon="7.729331">
        <ele>1004.505865</ele>
        <time>2022-08-25T17:53:02.999Z</time>
      </trkpt>
      <trkpt lat="47.364525" lon="7.729465">
        <ele>1004.931865</ele>
        <time>2022-08-25T17:53:17.000Z</time>
      </trkpt>
      <trkpt lat="47.364412" lon="7.729512">
        <ele>1005.480194</ele>
        <time>2022-08-25T17:54:06.999Z</time>
      </trkpt>
      <trkpt lat="47.364231" lon="7.729755">
        <ele>1006.622853</ele>
        <time>2022-08-25T17:54:43.999Z</time>
      </trkpt>
      <trkpt lat="47.364202" lon="7.729912">
        <ele>1007.137677</ele>
        <time>2022-08-25T17:54:46.999Z</time>
      </trkpt>
      <trkpt lat="47.364173" lon="7.730067">
        <ele>1007.646400</ele>
        <time>2022-08-25T17:54:49.999Z</time>
      </trkpt>
      <trkpt lat="47.364144" lon="7.730225">
        <ele>1008.164278</ele>
        <time>2022-08-25T17:54:52.999Z</time>
      </trkpt>
      <trkpt lat="47.364113" lon="7.730386">
        <ele>1008.693799</ele>
        <time>2022-08-25T17:54:55.999Z</time>
      </trkpt>
      <trkpt lat="47.364084" lon="7.730529">
        <ele>1009.166038</ele>
        <time>2022-08-25T17:54:58.999Z</time>
      </trkpt>
      <trkpt lat="47.364047" lon="7.730659">
        <ele>1009.035047</ele>
        <time>2022-08-25T17:55:01.999Z</time>
      </trkpt>
      <trkpt lat="47.363972" lon="7.730734">
        <ele>1008.705276</ele>
        <time>2022-08-25T17:55:04.999Z</time>
      </trkpt>
      <trkpt lat="47.363861" lon="7.730702">
        <ele>1008.293555</ele>
        <time>2022-08-25T17:55:08.999Z</time>
      </trkpt>
      <trkpt lat="47.363763" lon="7.730669">
        <ele>1007.927630</ele>
        <time>2022-08-25T17:55:11.999Z</time>
      </trkpt>
      <trkpt lat="47.363669" lon="7.730630">
        <ele>1007.572172</ele>
        <time>2022-08-25T17:55:15.000Z</time>
      </trkpt>
      <trkpt lat="47.363567" lon="7.730580">
        <ele>1007.180914</ele>
        <time>2022-08-25T17:55:18.000Z</time>
      </trkpt>
      <trkpt lat="47.363455" lon="7.730527">
        <ele>1006.752751</ele>
        <time>2022-08-25T17:55:21.000Z</time>
      </trkpt>
      <trkpt lat="47.363347" lon="7.730412">
        <ele>1006.267990</ele>
        <time>2022-08-25T17:55:24.000Z</time>
      </trkpt>
      <trkpt lat="47.363279" lon="7.730317">
        <ele>1005.927172</ele>
        <time>2022-08-25T17:55:26.000Z</time>
      </trkpt>
      <trkpt lat="47.363217" lon="7.730197">
        <ele>1005.555014</ele>
        <time>2022-08-25T17:55:28.000Z</time>
      </trkpt>
      <trkpt lat="47.363167" lon="7.730036">
        <ele>1005.118274</ele>
        <time>2022-08-25T17:55:30.000Z</time>
      </trkpt>
      <trkpt lat="47.363142" lon="7.729825">
        <ele>1004.590079</ele>
        <time>2022-08-25T17:55:32.000Z</time>
      </trkpt>
      <trkpt lat="47.363110" lon="7.729584">
        <ele>1003.984498</ele>
        <time>2022-08-25T17:55:34.000Z</time>
      </trkpt>
      <trkpt lat="47.363069" lon="7.729317">
        <ele>1003.309409</ele>
        <time>2022-08-25T17:55:36.000Z</time>
      </trkpt>
      <trkpt lat="47.363052" lon="7.729182">
        <ele>1002.970814</ele>
        <time>2022-08-25T17:55:37.000Z</time>
      </trkpt>
      <trkpt lat="47.363020" lon="7.728926">
        <ele>1002.244736</ele>
        <time>2022-08-25T17:55:39.000Z</time>
      </trkpt>
      <trkpt lat="47.362981" lon="7.728666">
        <ele>1001.453643</ele>
        <time>2022-08-25T17:55:41.000Z</time>
      </trkpt>
      <trkpt lat="47.362963" lon="7.728517">
        <ele>1001.004024</ele>
        <time>2022-08-25T17:55:42.000Z</time>
      </trkpt>
      <trkpt lat="47.362936" lon="7.728374">
        <ele>1000.563018</ele>
        <time>2022-08-25T17:55:43.000Z</time>
      </trkpt>
      <trkpt lat="47.362883" lon="7.728253">
        <ele>1000.134954</ele>
        <time>2022-08-25T17:55:44.000Z</time>
      </trkpt>
      <trkpt lat="47.362743" lon="7.728100">
        <ele>999.371024</ele>
        <time>2022-08-25T17:55:46.000Z</time>
      </trkpt>
      <trkpt lat="47.362663" lon="7.728030">
        <ele>998.963168</ele>
        <time>2022-08-25T17:55:47.000Z</time>
      </trkpt>
      <trkpt lat="47.362497" lon="7.727954">
        <ele>998.200928</ele>
        <time>2022-08-25T17:55:49.000Z</time>
      </trkpt>
      <trkpt lat="47.362361" lon="7.727956">
        <ele>997.604435</ele>
        <time>2022-08-25T17:55:51.000Z</time>
      </trkpt>
      <trkpt lat="47.362335" lon="7.728084">
        <ele>997.207452</ele>
        <time>2022-08-25T17:57:24.000Z</time>
      </trkpt>
      <trkpt lat="47.362401" lon="7.728198">
        <ele>996.761941</ele>
        <time>2022-08-25T17:57:40.999Z</time>
      </trkpt>
      <trkpt lat="47.362310" lon="7.728100">
        <ele>996.267935</ele>
        <time>2022-08-25T17:58:05.999Z</time>
      </trkpt>
      <trkpt lat="47.362384" lon="7.727688">
        <ele>995.001694</ele>
        <time>2022-08-25T17:58:36.999Z</time>
      </trkpt>
      <trkpt lat="47.362442" lon="7.727914">
        <ele>995.179351</ele>
        <time>2022-08-25T17:59:01.999Z</time>
      </trkpt>
      <trkpt lat="47.362525" lon="7.727992">
        <ele>995.428455</ele>
        <time>2022-08-25T17:59:11.999Z</time>
      </trkpt>
      <trkpt lat="47.362610" lon="7.728046">
        <ele>995.662740</ele>
        <time>2022-08-25T17:59:19.999Z</time>
      </trkpt>
      <trkpt lat="47.362512" lon="7.728070">
        <ele>995.914250</ele>
        <time>2022-08-25T18:18:20.000Z</time>
      </trkpt>
      <trkpt lat="47.362418" lon="7.728032">
        <ele>996.161003</ele>
        <time>2022-08-25T18:18:30.000Z</time>
      </trkpt>
      <trkpt lat="47.362224" lon="7.727985">
        <ele>996.658747</ele>
        <time>2022-08-25T18:25:17.000Z</time>
      </trkpt>
      <trkpt lat="47.362127" lon="7.727970">
        <ele>996.905677</ele>
        <time>2022-08-25T18:25:21.000Z</time>
      </trkpt>
      <trkpt lat="47.362021" lon="7.727968">
        <ele>997.174073</ele>
        <time>2022-08-25T18:25:24.000Z</time>
      </trkpt>
      <trkpt lat="47.361911" lon="7.727953">
        <ele>997.453759</ele>
        <time>2022-08-25T18:25:27.000Z</time>
      </trkpt>
      <trkpt lat="47.361784" lon="7.727945">
        <ele>997.775594</ele>
        <time>2022-08-25T18:25:30.000Z</time>
      </trkpt>
      <trkpt lat="47.361659" lon="7.727946">
        <ele>998.092077</ele>
        <time>2022-08-25T18:25:33.000Z</time>
      </trkpt>
      <trkpt lat="47.361532" lon="7.727930">
        <ele>998.414787</ele>
        <time>2022-08-25T18:25:36.000Z</time>
      </trkpt>
      <trkpt lat="47.361413" lon="7.727917">
        <ele>998.716898</ele>
        <time>2022-08-25T18:25:39.000Z</time>
      </trkpt>
      <trkpt lat="47.361310" lon="7.727889">
        <ele>998.982061</ele>
        <time>2022-08-25T18:25:42.000Z</time>
      </trkpt>
      <trkpt lat="47.361213" lon="7.727871">
        <ele>999.229580</ele>
        <time>2022-08-25T18:25:45.000Z</time>
      </trkpt>
      <trkpt lat="47.361115" lon="7.727838">
        <ele>999.262402</ele>
        <time>2022-08-25T18:25:48.000Z</time>
      </trkpt>
      <trkpt lat="47.361010" lon="7.727800">
        <ele>998.764800</ele>
        <time>2022-08-25T18:25:51.000Z</time>
      </trkpt>
      <trkpt lat="47.360915" lon="7.727745">
        <ele>998.295113</ele>
        <time>2022-08-25T18:25:53.000Z</time>
      </trkpt>
      <trkpt lat="47.360837" lon="7.727667">
        <ele>997.861483</ele>
        <time>2022-08-25T18:25:55.000Z</time>
      </trkpt>
      <trkpt lat="47.360739" lon="7.727578">
        <ele>997.331892</ele>
        <time>2022-08-25T18:25:57.000Z</time>
      </trkpt>
      <trkpt lat="47.360646" lon="7.727516">
        <ele>996.862210</ele>
        <time>2022-08-25T18:25:59.000Z</time>
      </trkpt>
      <trkpt lat="47.360557" lon="7.727451">
        <ele>996.405173</ele>
        <time>2022-08-25T18:26:01.000Z</time>
      </trkpt>
      <trkpt lat="47.360462" lon="7.727382">
        <ele>995.917852</ele>
        <time>2022-08-25T18:26:03.000Z</time>
      </trkpt>
      <trkpt lat="47.360364" lon="7.727318">
        <ele>995.424613</ele>
        <time>2022-08-25T18:26:05.000Z</time>
      </trkpt>
      <trkpt lat="47.360276" lon="7.727210">
        <ele>994.897880</ele>
        <time>2022-08-25T18:26:07.000Z</time>
      </trkpt>
      <trkpt lat="47.360217" lon="7.727070">
        <ele>994.383798</ele>
        <time>2022-08-25T18:26:09.000Z</time>
      </trkpt>
      <trkpt lat="47.360184" lon="7.726936">
        <ele>993.939250</ele>
        <time>2022-08-25T18:26:11.000Z</time>
      </trkpt>
      <trkpt lat="47.360149" lon="7.726794">
        <ele>993.468114</ele>
        <time>2022-08-25T18:26:13.000Z</time>
      </trkpt>
      <trkpt lat="47.360101" lon="7.726628">
        <ele>992.905364</ele>
        <time>2022-08-25T18:26:15.000Z</time>
      </trkpt>
      <trkpt lat="47.360044" lon="7.726438">
        <ele>992.257471</ele>
        <time>2022-08-25T18:26:17.000Z</time>
      </trkpt>
      <trkpt lat="47.359995" lon="7.726209">
        <ele>991.508703</ele>
        <time>2022-08-25T18:26:18.999Z</time>
      </trkpt>
      <trkpt lat="47.359925" lon="7.725959">
        <ele>989.771215</ele>
        <time>2022-08-25T18:26:20.999Z</time>
      </trkpt>
      <trkpt lat="47.359885" lon="7.725819">
        <ele>988.379448</ele>
        <time>2022-08-25T18:26:21.999Z</time>
      </trkpt>
      <trkpt lat="47.359836" lon="7.725671">
        <ele>986.870545</ele>
        <time>2022-08-25T18:26:22.999Z</time>
      </trkpt>
      <trkpt lat="47.359783" lon="7.725521">
        <ele>985.320901</ele>
        <time>2022-08-25T18:26:23.999Z</time>
      </trkpt>
      <trkpt lat="47.359729" lon="7.725359">
        <ele>983.667090</ele>
        <time>2022-08-25T18:26:24.999Z</time>
      </trkpt>
      <trkpt lat="47.359674" lon="7.725208">
        <ele>982.096690</ele>
        <time>2022-08-25T18:26:25.999Z</time>
      </trkpt>
      <trkpt lat="47.359613" lon="7.725053">
        <ele>980.454705</ele>
        <time>2022-08-25T18:26:26.999Z</time>
      </trkpt>
      <trkpt lat="47.359558" lon="7.724887">
        <ele>978.762039</ele>
        <time>2022-08-25T18:26:27.999Z</time>
      </trkpt>
      <trkpt lat="47.359511" lon="7.724700">
        <ele>976.935052</ele>
        <time>2022-08-25T18:26:28.999Z</time>
      </trkpt>
      <trkpt lat="47.359484" lon="7.724527">
        <ele>975.308888</ele>
        <time>2022-08-25T18:26:29.999Z</time>
      </trkpt>
      <trkpt lat="47.359450" lon="7.724359">
        <ele>973.702827</ele>
        <time>2022-08-25T18:26:30.999Z</time>
      </trkpt>
      <trkpt lat="47.359400" lon="7.724201">
        <ele>972.105435</ele>
        <time>2022-08-25T18:26:31.999Z</time>
      </trkpt>
      <trkpt lat="47.359330" lon="7.724051">
        <ele>970.436974</ele>
        <time>2022-08-25T18:26:32.999Z</time>
      </trkpt>
      <trkpt lat="47.359242" lon="7.723908">
        <ele>968.667313</ele>
        <time>2022-08-25T18:26:33.999Z</time>
      </trkpt>
      <trkpt lat="47.359156" lon="7.723771">
        <ele>966.956431</ele>
        <time>2022-08-25T18:26:34.999Z</time>
      </trkpt>
      <trkpt lat="47.359069" lon="7.723641">
        <ele>965.499944</ele>
        <time>2022-08-25T18:26:35.999Z</time>
      </trkpt>
      <trkpt lat="47.358977" lon="7.723530">
        <ele>964.122677</ele>
        <time>2022-08-25T18:26:36.999Z</time>
      </trkpt>
      <trkpt lat="47.358879" lon="7.723445">
        <ele>962.805163</ele>
        <time>2022-08-25T18:26:37.999Z</time>
      </trkpt>
      <trkpt lat="47.358775" lon="7.723376">
        <ele>961.483507</ele>
        <time>2022-08-25T18:26:38.999Z</time>
      </trkpt>
      <trkpt lat="47.358678" lon="7.723318">
        <ele>960.270412</ele>
        <time>2022-08-25T18:26:39.999Z</time>
      </trkpt>
      <trkpt lat="47.358522" lon="7.723199">
        <ele>958.235006</ele>
        <time>2022-08-25T18:26:41.999Z</time>
      </trkpt>
      <trkpt lat="47.358442" lon="7.723098">
        <ele>957.014821</ele>
        <time>2022-08-25T18:26:43.000Z</time>
      </trkpt>
      <trkpt lat="47.358359" lon="7.722979">
        <ele>955.673661</ele>
        <time>2022-08-25T18:26:44.000Z</time>
      </trkpt>
      <trkpt lat="47.358298" lon="7.722829">
        <ele>954.299904</ele>
        <time>2022-08-25T18:26:45.000Z</time>
      </trkpt>
      <trkpt lat="47.358255" lon="7.722659">
        <ele>952.875022</ele>
        <time>2022-08-25T18:26:46.000Z</time>
      </trkpt>
      <trkpt lat="47.358221" lon="7.722480">
        <ele>951.415282</ele>
        <time>2022-08-25T18:26:47.000Z</time>
      </trkpt>
      <trkpt lat="47.358191" lon="7.722297">
        <ele>949.936862</ele>
        <time>2022-08-25T18:26:48.000Z</time>
      </trkpt>
      <trkpt lat="47.358164" lon="7.722114">
        <ele>948.466232</ele>
        <time>2022-08-25T18:26:49.000Z</time>
      </trkpt>
      <trkpt lat="47.358140" lon="7.721949">
        <ele>947.141097</ele>
        <time>2022-08-25T18:26:50.000Z</time>
      </trkpt>
      <trkpt lat="47.358115" lon="7.721793">
        <ele>945.888558</ele>
        <time>2022-08-25T18:26:51.000Z</time>
      </trkpt>
      <trkpt lat="47.358082" lon="7.721668">
        <ele>944.923366</ele>
        <time>2022-08-25T18:26:52.000Z</time>
      </trkpt>
      <trkpt lat="47.357993" lon="7.721457">
        <ele>943.135098</ele>
        <time>2022-08-25T18:26:54.000Z</time>
      </trkpt>
      <trkpt lat="47.357852" lon="7.721310">
        <ele>941.301796</ele>
        <time>2022-08-25T18:26:56.000Z</time>
      </trkpt>
      <trkpt lat="47.357765" lon="7.721255">
        <ele>940.296645</ele>
        <time>2022-08-25T18:26:57.000Z</time>
      </trkpt>
      <trkpt lat="47.357667" lon="7.721208">
        <ele>939.202282</ele>
        <time>2022-08-25T18:26:58.000Z</time>
      </trkpt>
      <trkpt lat="47.357574" lon="7.721172">
        <ele>938.181178</ele>
        <time>2022-08-25T18:26:59.000Z</time>
      </trkpt>
      <trkpt lat="47.357478" lon="7.721141">
        <ele>937.137498</ele>
        <time>2022-08-25T18:27:00.000Z</time>
      </trkpt>
      <trkpt lat="47.357382" lon="7.721119">
        <ele>936.105714</ele>
        <time>2022-08-25T18:27:01.000Z</time>
      </trkpt>
      <trkpt lat="47.357293" lon="7.721099">
        <ele>935.149598</ele>
        <time>2022-08-25T18:27:02.000Z</time>
      </trkpt>
      <trkpt lat="47.357123" lon="7.721034">
        <ele>933.284526</ele>
        <time>2022-08-25T18:27:04.000Z</time>
      </trkpt>
      <trkpt lat="47.356958" lon="7.721000">
        <ele>931.515148</ele>
        <time>2022-08-25T18:27:06.000Z</time>
      </trkpt>
      <trkpt lat="47.356866" lon="7.720998">
        <ele>930.537953</ele>
        <time>2022-08-25T18:27:07.000Z</time>
      </trkpt>
      <trkpt lat="47.356766" lon="7.721029">
        <ele>929.452734</ele>
        <time>2022-08-25T18:27:08.000Z</time>
      </trkpt>
      <trkpt lat="47.356662" lon="7.721065">
        <ele>928.318237</ele>
        <time>2022-08-25T18:27:09.000Z</time>
      </trkpt>
      <trkpt lat="47.356570" lon="7.721072">
        <ele>927.339851</ele>
        <time>2022-08-25T18:27:10.000Z</time>
      </trkpt>
      <trkpt lat="47.356486" lon="7.721140">
        <ele>926.514768</ele>
        <time>2022-08-25T18:27:12.000Z</time>
      </trkpt>
      <trkpt lat="47.356395" lon="7.721172">
        <ele>925.880846</ele>
        <time>2022-08-25T18:27:17.000Z</time>
      </trkpt>
      <trkpt lat="47.356322" lon="7.721267">
        <ele>925.221368</ele>
        <time>2022-08-25T18:27:20.000Z</time>
      </trkpt>
      <trkpt lat="47.356266" lon="7.721448">
        <ele>924.307897</ele>
        <time>2022-08-25T18:27:23.000Z</time>
      </trkpt>
      <trkpt lat="47.356211" lon="7.721598">
        <ele>923.524898</ele>
        <time>2022-08-25T18:27:25.000Z</time>
      </trkpt>
      <trkpt lat="47.356157" lon="7.721786">
        <ele>922.587473</ele>
        <time>2022-08-25T18:27:27.000Z</time>
      </trkpt>
      <trkpt lat="47.356102" lon="7.721991">
        <ele>921.575263</ele>
        <time>2022-08-25T18:27:29.000Z</time>
      </trkpt>
      <trkpt lat="47.356047" lon="7.722218">
        <ele>920.468527</ele>
        <time>2022-08-25T18:27:31.000Z</time>
      </trkpt>
      <trkpt lat="47.356020" lon="7.722348">
        <ele>919.844317</ele>
        <time>2022-08-25T18:27:32.000Z</time>
      </trkpt>
      <trkpt lat="47.355947" lon="7.722597">
        <ele>918.598779</ele>
        <time>2022-08-25T18:27:34.000Z</time>
      </trkpt>
      <trkpt lat="47.355913" lon="7.722738">
        <ele>917.911704</ele>
        <time>2022-08-25T18:27:35.000Z</time>
      </trkpt>
      <trkpt lat="47.355855" lon="7.722997">
        <ele>916.659429</ele>
        <time>2022-08-25T18:27:37.000Z</time>
      </trkpt>
      <trkpt lat="47.355842" lon="7.723142">
        <ele>915.987969</ele>
        <time>2022-08-25T18:27:38.000Z</time>
      </trkpt>
      <trkpt lat="47.355806" lon="7.723272">
        <ele>915.343238</ele>
        <time>2022-08-25T18:27:39.000Z</time>
      </trkpt>
      <trkpt lat="47.355786" lon="7.723411">
        <ele>914.690893</ele>
        <time>2022-08-25T18:27:40.000Z</time>
      </trkpt>
      <trkpt lat="47.355779" lon="7.723560">
        <ele>914.069986</ele>
        <time>2022-08-25T18:27:41.000Z</time>
      </trkpt>
      <trkpt lat="47.355783" lon="7.723719">
        <ele>913.411212</ele>
        <time>2022-08-25T18:27:42.000Z</time>
      </trkpt>
      <trkpt lat="47.355789" lon="7.723867">
        <ele>912.797339</ele>
        <time>2022-08-25T18:27:43.000Z</time>
      </trkpt>
      <trkpt lat="47.355795" lon="7.724014">
        <ele>912.187599</ele>
        <time>2022-08-25T18:27:44.000Z</time>
      </trkpt>
      <trkpt lat="47.355755" lon="7.724268">
        <ele>911.107900</ele>
        <time>2022-08-25T18:27:46.000Z</time>
      </trkpt>
      <trkpt lat="47.355735" lon="7.724410">
        <ele>910.507393</ele>
        <time>2022-08-25T18:27:47.000Z</time>
      </trkpt>
      <trkpt lat="47.355711" lon="7.724552">
        <ele>909.901436</ele>
        <time>2022-08-25T18:27:48.000Z</time>
      </trkpt>
      <trkpt lat="47.355678" lon="7.724701">
        <ele>909.252386</ele>
        <time>2022-08-25T18:27:49.000Z</time>
      </trkpt>
      <trkpt lat="47.355646" lon="7.724881">
        <ele>908.481880</ele>
        <time>2022-08-25T18:27:50.000Z</time>
      </trkpt>
      <trkpt lat="47.355605" lon="7.725040">
        <ele>907.777479</ele>
        <time>2022-08-25T18:27:51.000Z</time>
      </trkpt>
      <trkpt lat="47.355557" lon="7.725189">
        <ele>907.094359</ele>
        <time>2022-08-25T18:27:52.000Z</time>
      </trkpt>
      <trkpt lat="47.355520" lon="7.725349">
        <ele>906.394362</ele>
        <time>2022-08-25T18:27:53.000Z</time>
      </trkpt>
      <trkpt lat="47.355452" lon="7.725486">
        <ele>905.691169</ele>
        <time>2022-08-25T18:27:54.000Z</time>
      </trkpt>
      <trkpt lat="47.355390" lon="7.725633">
        <ele>904.974209</ele>
        <time>2022-08-25T18:27:55.000Z</time>
      </trkpt>
      <trkpt lat="47.355327" lon="7.725785">
        <ele>904.236422</ele>
        <time>2022-08-25T18:27:56.000Z</time>
      </trkpt>
      <trkpt lat="47.355262" lon="7.725941">
        <ele>903.472362</ele>
        <time>2022-08-25T18:27:57.000Z</time>
      </trkpt>
      <trkpt lat="47.355200" lon="7.726052">
        <ele>902.859039</ele>
        <time>2022-08-25T18:27:58.000Z</time>
      </trkpt>
      <trkpt lat="47.355122" lon="7.726159">
        <ele>902.188944</ele>
        <time>2022-08-25T18:27:58.999Z</time>
      </trkpt>
      <trkpt lat="47.355042" lon="7.726267">
        <ele>901.506705</ele>
        <time>2022-08-25T18:27:59.999Z</time>
      </trkpt>
      <trkpt lat="47.354945" lon="7.726409">
        <ele>900.646994</ele>
        <time>2022-08-25T18:28:00.999Z</time>
      </trkpt>
      <trkpt lat="47.354877" lon="7.726547">
        <ele>899.919498</ele>
        <time>2022-08-25T18:28:01.999Z</time>
      </trkpt>
      <trkpt lat="47.354810" lon="7.726686">
        <ele>899.192215</ele>
        <time>2022-08-25T18:28:02.999Z</time>
      </trkpt>
      <trkpt lat="47.354743" lon="7.726821">
        <ele>898.478758</ele>
        <time>2022-08-25T18:28:03.999Z</time>
      </trkpt>
      <trkpt lat="47.354685" lon="7.726943">
        <ele>897.843349</ele>
        <time>2022-08-25T18:28:04.999Z</time>
      </trkpt>
      <trkpt lat="47.354628" lon="7.727056">
        <ele>897.242724</ele>
        <time>2022-08-25T18:28:05.999Z</time>
      </trkpt>
      <trkpt lat="47.354569" lon="7.727180">
        <ele>896.596719</ele>
        <time>2022-08-25T18:28:06.999Z</time>
      </trkpt>
      <trkpt lat="47.354548" lon="7.727344">
        <ele>895.885162</ele>
        <time>2022-08-25T18:28:07.999Z</time>
      </trkpt>
      <trkpt lat="47.354498" lon="7.727462">
        <ele>895.291797</ele>
        <time>2022-08-25T18:28:08.999Z</time>
      </trkpt>
      <trkpt lat="47.354463" lon="7.727605">
        <ele>894.643580</ele>
        <time>2022-08-25T18:28:09.999Z</time>
      </trkpt>
      <trkpt lat="47.354380" lon="7.727781">
        <ele>893.729344</ele>
        <time>2022-08-25T18:28:11.999Z</time>
      </trkpt>
      <trkpt lat="47.354249" lon="7.727783">
        <ele>892.904912</ele>
        <time>2022-08-25T18:28:13.999Z</time>
      </trkpt>
      <trkpt lat="47.354230" lon="7.728098">
        <ele>893.047777</ele>
        <time>2022-08-25T18:28:15.999Z</time>
      </trkpt>
      <trkpt lat="47.354178" lon="7.728207">
        <ele>893.542969</ele>
        <time>2022-08-25T18:28:18.999Z</time>
      </trkpt>
      <trkpt lat="47.354140" lon="7.728331">
        <ele>894.048498</ele>
        <time>2022-08-25T18:28:21.999Z</time>
      </trkpt>
      <trkpt lat="47.354316" lon="7.728645">
        <ele>895.562296</ele>
        <time>2022-08-25T18:28:23.999Z</time>
      </trkpt>
      <trkpt lat="47.354337" lon="7.728821">
        <ele>896.226106</ele>
        <time>2022-08-25T18:28:26.999Z</time>
      </trkpt>
      <trkpt lat="47.354357" lon="7.728963">
        <ele>896.764840</ele>
        <time>2022-08-25T18:28:28.999Z</time>
      </trkpt>
      <trkpt lat="47.354382" lon="7.729116">
        <ele>897.349451</ele>
        <time>2022-08-25T18:28:30.999Z</time>
      </trkpt>
      <trkpt lat="47.354423" lon="7.729260">
        <ele>897.929654</ele>
        <time>2022-08-25T18:28:32.999Z</time>
      </trkpt>
      <trkpt lat="47.354440" lon="7.729403">
        <ele>898.468940</ele>
        <time>2022-08-25T18:28:34.999Z</time>
      </trkpt>
      <trkpt lat="47.354473" lon="7.729540">
        <ele>899.009032</ele>
        <time>2022-08-25T18:28:36.999Z</time>
      </trkpt>
      <trkpt lat="47.354497" lon="7.729704">
        <ele>899.632255</ele>
        <time>2022-08-25T18:28:39.999Z</time>
      </trkpt>
      <trkpt lat="47.354520" lon="7.729848">
        <ele>900.181802</ele>
        <time>2022-08-25T18:28:41.999Z</time>
      </trkpt>
      <trkpt lat="47.354532" lon="7.730006">
        <ele>900.772364</ele>
        <time>2022-08-25T18:28:44.999Z</time>
      </trkpt>
      <trkpt lat="47.354540" lon="7.730170">
        <ele>901.383113</ele>
        <time>2022-08-25T18:28:47.999Z</time>
      </trkpt>
      <trkpt lat="47.354529" lon="7.730349">
        <ele>902.050732</ele>
        <time>2022-08-25T18:28:51.000Z</time>
      </trkpt>
      <trkpt lat="47.354528" lon="7.730524">
        <ele>902.774846</ele>
        <time>2022-08-25T18:28:54.000Z</time>
      </trkpt>
      <trkpt lat="47.354538" lon="7.730705">
        <ele>903.552306</ele>
        <time>2022-08-25T18:28:57.000Z</time>
      </trkpt>
      <trkpt lat="47.354561" lon="7.730847">
        <ele>904.177361</ele>
        <time>2022-08-25T18:28:59.000Z</time>
      </trkpt>
      <trkpt lat="47.354592" lon="7.730988">
        <ele>904.811995</ele>
        <time>2022-08-25T18:29:01.000Z</time>
      </trkpt>
      <trkpt lat="47.354628" lon="7.731122">
        <ele>905.429129</ele>
        <time>2022-08-25T18:29:03.000Z</time>
      </trkpt>
      <trkpt lat="47.354664" lon="7.731247">
        <ele>906.010621</ele>
        <time>2022-08-25T18:29:05.000Z</time>
      </trkpt>
      <trkpt lat="47.354710" lon="7.731435">
        <ele>906.866360</ele>
        <time>2022-08-25T18:29:08.000Z</time>
      </trkpt>
      <trkpt lat="47.354742" lon="7.731560">
        <ele>907.438434</ele>
        <time>2022-08-25T18:29:10.000Z</time>
      </trkpt>
      <trkpt lat="47.354795" lon="7.731746">
        <ele>908.302294</ele>
        <time>2022-08-25T18:29:13.000Z</time>
      </trkpt>
      <trkpt lat="47.354815" lon="7.731935">
        <ele>909.121237</ele>
        <time>2022-08-25T18:29:16.000Z</time>
      </trkpt>
      <trkpt lat="47.354822" lon="7.732115">
        <ele>909.893107</ele>
        <time>2022-08-25T18:29:19.000Z</time>
      </trkpt>
      <trkpt lat="47.354832" lon="7.732251">
        <ele>910.478758</ele>
        <time>2022-08-25T18:29:21.000Z</time>
      </trkpt>
      <trkpt lat="47.354818" lon="7.732434">
        <ele>911.267183</ele>
        <time>2022-08-25T18:29:24.000Z</time>
      </trkpt>
      <trkpt lat="47.354794" lon="7.732635">
        <ele>912.140951</ele>
        <time>2022-08-25T18:29:27.000Z</time>
      </trkpt>
      <trkpt lat="47.354797" lon="7.732842">
        <ele>913.027346</ele>
        <time>2022-08-25T18:29:30.000Z</time>
      </trkpt>
      <trkpt lat="47.354808" lon="7.733029">
        <ele>913.832737</ele>
        <time>2022-08-25T18:29:33.000Z</time>
      </trkpt>
      <trkpt lat="47.354808" lon="7.733222">
        <ele>914.664991</ele>
        <time>2022-08-25T18:29:36.000Z</time>
      </trkpt>
      <trkpt lat="47.354797" lon="7.733424">
        <ele>915.538864</ele>
        <time>2022-08-25T18:29:39.000Z</time>
      </trkpt>
      <trkpt lat="47.354781" lon="7.733557">
        <ele>916.121358</ele>
        <time>2022-08-25T18:29:41.000Z</time>
      </trkpt>
      <trkpt lat="47.354763" lon="7.733746">
        <ele>916.944378</ele>
        <time>2022-08-25T18:29:44.000Z</time>
      </trkpt>
      <trkpt lat="47.354745" lon="7.733881">
        <ele>917.537693</ele>
        <time>2022-08-25T18:29:46.000Z</time>
      </trkpt>
      <trkpt lat="47.354728" lon="7.734041">
        <ele>918.236079</ele>
        <time>2022-08-25T18:29:49.000Z</time>
      </trkpt>
      <trkpt lat="47.354710" lon="7.734192">
        <ele>918.897225</ele>
        <time>2022-08-25T18:29:51.000Z</time>
      </trkpt>
      <trkpt lat="47.354697" lon="7.734345">
        <ele>919.562161</ele>
        <time>2022-08-25T18:29:53.000Z</time>
      </trkpt>
      <trkpt lat="47.354693" lon="7.734487">
        <ele>920.175023</ele>
        <time>2022-08-25T18:29:55.000Z</time>
      </trkpt>
      <trkpt lat="47.354681" lon="7.734685">
        <ele>921.032250</ele>
        <time>2022-08-25T18:29:58.000Z</time>
      </trkpt>
      <trkpt lat="47.354667" lon="7.734820">
        <ele>921.621179</ele>
        <time>2022-08-25T18:30:00.000Z</time>
      </trkpt>
      <trkpt lat="47.354654" lon="7.735016">
        <ele>922.470412</ele>
        <time>2022-08-25T18:30:02.999Z</time>
      </trkpt>
      <trkpt lat="47.354635" lon="7.735151">
        <ele>923.064990</ele>
        <time>2022-08-25T18:30:04.999Z</time>
      </trkpt>
      <trkpt lat="47.354603" lon="7.735334">
        <ele>923.879989</ele>
        <time>2022-08-25T18:30:07.999Z</time>
      </trkpt>
      <trkpt lat="47.354584" lon="7.735469">
        <ele>924.474567</ele>
        <time>2022-08-25T18:30:09.999Z</time>
      </trkpt>
      <trkpt lat="47.354544" lon="7.735660">
        <ele>925.438576</ele>
        <time>2022-08-25T18:30:12.999Z</time>
      </trkpt>
      <trkpt lat="47.354518" lon="7.735788">
        <ele>926.206674</ele>
        <time>2022-08-25T18:30:14.999Z</time>
      </trkpt>
      <trkpt lat="47.354489" lon="7.735915">
        <ele>926.977018</ele>
        <time>2022-08-25T18:30:16.999Z</time>
      </trkpt>
      <trkpt lat="47.354450" lon="7.736083">
        <ele>927.997796</ele>
        <time>2022-08-25T18:30:19.999Z</time>
      </trkpt>
      <trkpt lat="47.354409" lon="7.736270">
        <ele>929.127556</ele>
        <time>2022-08-25T18:30:22.999Z</time>
      </trkpt>
      <trkpt lat="47.354346" lon="7.736425">
        <ele>930.166540</ele>
        <time>2022-08-25T18:30:25.999Z</time>
      </trkpt>
      <trkpt lat="47.354295" lon="7.736535">
        <ele>930.932709</ele>
        <time>2022-08-25T18:30:27.999Z</time>
      </trkpt>
      <trkpt lat="47.354233" lon="7.736707">
        <ele>932.052601</ele>
        <time>2022-08-25T18:30:30.999Z</time>
      </trkpt>
      <trkpt lat="47.354166" lon="7.736866">
        <ele>933.128902</ele>
        <time>2022-08-25T18:30:33.999Z</time>
      </trkpt>
      <trkpt lat="47.354099" lon="7.737023">
        <ele>934.195460</ele>
        <time>2022-08-25T18:30:36.999Z</time>
      </trkpt>
      <trkpt lat="47.354042" lon="7.737186">
        <ele>935.249840</ele>
        <time>2022-08-25T18:30:39.999Z</time>
      </trkpt>
      <trkpt lat="47.353980" lon="7.737321">
        <ele>936.187320</ele>
        <time>2022-08-25T18:30:42.999Z</time>
      </trkpt>
      <trkpt lat="47.353932" lon="7.737469">
        <ele>937.130487</ele>
        <time>2022-08-25T18:30:45.999Z</time>
      </trkpt>
      <trkpt lat="47.353874" lon="7.737619">
        <ele>938.123242</ele>
        <time>2022-08-25T18:30:48.999Z</time>
      </trkpt>
      <trkpt lat="47.353844" lon="7.737786">
        <ele>939.116337</ele>
        <time>2022-08-25T18:30:52.999Z</time>
      </trkpt>
      <trkpt lat="47.353889" lon="7.737938">
        <ele>940.069819</ele>
        <time>2022-08-25T18:30:57.000Z</time>
      </trkpt>
      <trkpt lat="47.353975" lon="7.737982">
        <ele>940.278225</ele>
        <time>2022-08-25T18:31:02.000Z</time>
      </trkpt>
      <trkpt lat="47.354070" lon="7.738016">
        <ele>940.258597</ele>
        <time>2022-08-25T18:31:09.000Z</time>
      </trkpt>
      <trkpt lat="47.354176" lon="7.738039">
        <ele>940.237084</ele>
        <time>2022-08-25T18:31:15.000Z</time>
      </trkpt>
      <trkpt lat="47.354257" lon="7.738125">
        <ele>940.217049</ele>
        <time>2022-08-25T18:31:21.000Z</time>
      </trkpt>
      <trkpt lat="47.354359" lon="7.738170">
        <ele>940.195673</ele>
        <time>2022-08-25T18:31:26.000Z</time>
      </trkpt>
      <trkpt lat="47.354455" lon="7.738174">
        <ele>940.176388</ele>
        <time>2022-08-25T18:31:30.000Z</time>
      </trkpt>
      <trkpt lat="47.354547" lon="7.738215">
        <ele>940.157092</ele>
        <time>2022-08-25T18:31:35.000Z</time>
      </trkpt>
      <trkpt lat="47.354712" lon="7.738331">
        <ele>940.120394</ele>
        <time>2022-08-25T18:31:39.000Z</time>
      </trkpt>
      <trkpt lat="47.354644" lon="7.738463">
        <ele>940.097836</ele>
        <time>2022-08-25T18:31:46.000Z</time>
      </trkpt>
      <trkpt lat="47.354589" lon="7.738617">
        <ele>940.074155</ele>
        <time>2022-08-25T18:31:49.000Z</time>
      </trkpt>
      <trkpt lat="47.354551" lon="7.738750">
        <ele>940.054519</ele>
        <time>2022-08-25T18:31:51.000Z</time>
      </trkpt>
      <trkpt lat="47.354504" lon="7.738912">
        <ele>940.030547</ele>
        <time>2022-08-25T18:31:53.000Z</time>
      </trkpt>
      <trkpt lat="47.354454" lon="7.739104">
        <ele>940.002565</ele>
        <time>2022-08-25T18:31:55.000Z</time>
      </trkpt>
      <trkpt lat="47.354410" lon="7.739300">
        <ele>939.974477</ele>
        <time>2022-08-25T18:31:57.000Z</time>
      </trkpt>
      <trkpt lat="47.354373" lon="7.739496">
        <ele>939.946799</ele>
        <time>2022-08-25T18:31:59.000Z</time>
      </trkpt>
      <trkpt lat="47.354327" lon="7.739695">
        <ele>939.335291</ele>
        <time>2022-08-25T18:32:01.000Z</time>
      </trkpt>
      <trkpt lat="47.354297" lon="7.739921">
        <ele>937.769851</ele>
        <time>2022-08-25T18:32:02.999Z</time>
      </trkpt>
      <trkpt lat="47.354270" lon="7.740067">
        <ele>936.741110</ele>
        <time>2022-08-25T18:32:03.999Z</time>
      </trkpt>
      <trkpt lat="47.354244" lon="7.740196">
        <ele>935.826252</ele>
        <time>2022-08-25T18:32:04.999Z</time>
      </trkpt>
      <trkpt lat="47.354201" lon="7.740322">
        <ele>934.867237</ele>
        <time>2022-08-25T18:32:05.999Z</time>
      </trkpt>
      <trkpt lat="47.354172" lon="7.740449">
        <ele>933.956238</ele>
        <time>2022-08-25T18:32:06.999Z</time>
      </trkpt>
      <trkpt lat="47.354175" lon="7.740644">
        <ele>932.630388</ele>
        <time>2022-08-25T18:32:09.999Z</time>
      </trkpt>
      <trkpt lat="47.354135" lon="7.740836">
        <ele>931.264953</ele>
        <time>2022-08-25T18:32:11.999Z</time>
      </trkpt>
      <trkpt lat="47.354125" lon="7.741068">
        <ele>929.684748</ele>
        <time>2022-08-25T18:32:13.999Z</time>
      </trkpt>
      <trkpt lat="47.354097" lon="7.741287">
        <ele>928.169819</ele>
        <time>2022-08-25T18:32:15.999Z</time>
      </trkpt>
      <trkpt lat="47.354081" lon="7.741487">
        <ele>926.800875</ele>
        <time>2022-08-25T18:32:17.999Z</time>
      </trkpt>
      <trkpt lat="47.354069" lon="7.741668">
        <ele>925.564651</ele>
        <time>2022-08-25T18:32:19.999Z</time>
      </trkpt>
      <trkpt lat="47.354051" lon="7.741871">
        <ele>924.172991</ele>
        <time>2022-08-25T18:32:21.999Z</time>
      </trkpt>
      <trkpt lat="47.354034" lon="7.742062">
        <ele>922.863512</ele>
        <time>2022-08-25T18:32:23.999Z</time>
      </trkpt>
      <trkpt lat="47.354016" lon="7.742272">
        <ele>921.289970</ele>
        <time>2022-08-25T18:32:25.999Z</time>
      </trkpt>
      <trkpt lat="47.353999" lon="7.742517">
        <ele>919.123967</ele>
        <time>2022-08-25T18:32:27.999Z</time>
      </trkpt>
      <trkpt lat="47.353991" lon="7.742653">
        <ele>917.923371</ele>
        <time>2022-08-25T18:32:28.999Z</time>
      </trkpt>
      <trkpt lat="47.353984" lon="7.742797">
        <ele>916.653661</ele>
        <time>2022-08-25T18:32:29.999Z</time>
      </trkpt>
      <trkpt lat="47.353977" lon="7.742952">
        <ele>915.287438</ele>
        <time>2022-08-25T18:32:30.999Z</time>
      </trkpt>
      <trkpt lat="47.353969" lon="7.743110">
        <ele>913.893981</ele>
        <time>2022-08-25T18:32:31.999Z</time>
      </trkpt>
      <trkpt lat="47.353964" lon="7.743268">
        <ele>912.502884</ele>
        <time>2022-08-25T18:32:32.999Z</time>
      </trkpt>
      <trkpt lat="47.353957" lon="7.743405">
        <ele>911.294571</ele>
        <time>2022-08-25T18:32:33.999Z</time>
      </trkpt>
      <trkpt lat="47.353959" lon="7.743666">
        <ele>908.998974</ele>
        <time>2022-08-25T18:32:35.999Z</time>
      </trkpt>
      <trkpt lat="47.353961" lon="7.743916">
        <ele>906.800115</ele>
        <time>2022-08-25T18:32:37.999Z</time>
      </trkpt>
      <trkpt lat="47.353966" lon="7.744052">
        <ele>905.602259</ele>
        <time>2022-08-25T18:32:38.999Z</time>
      </trkpt>
      <trkpt lat="47.353966" lon="7.744196">
        <ele>904.335804</ele>
        <time>2022-08-25T18:32:39.999Z</time>
      </trkpt>
      <trkpt lat="47.353966" lon="7.744344">
        <ele>903.034170</ele>
        <time>2022-08-25T18:32:40.999Z</time>
      </trkpt>
      <trkpt lat="47.353967" lon="7.744479">
        <ele>901.846798</ele>
        <time>2022-08-25T18:32:41.999Z</time>
      </trkpt>
      <trkpt lat="47.353967" lon="7.744619">
        <ele>900.615523</ele>
        <time>2022-08-25T18:32:42.999Z</time>
      </trkpt>
      <trkpt lat="47.353967" lon="7.744766">
        <ele>899.322684</ele>
        <time>2022-08-25T18:32:43.999Z</time>
      </trkpt>
      <trkpt lat="47.353957" lon="7.744905">
        <ele>898.123250</ele>
        <time>2022-08-25T18:32:44.999Z</time>
      </trkpt>
      <trkpt lat="47.353945" lon="7.745046">
        <ele>896.958445</ele>
        <time>2022-08-25T18:32:45.999Z</time>
      </trkpt>
      <trkpt lat="47.353914" lon="7.745296">
        <ele>894.875252</ele>
        <time>2022-08-25T18:32:47.999Z</time>
      </trkpt>
      <trkpt lat="47.353877" lon="7.745549">
        <ele>892.753743</ele>
        <time>2022-08-25T18:32:49.999Z</time>
      </trkpt>
      <trkpt lat="47.353863" lon="7.745682">
        <ele>891.650513</ele>
        <time>2022-08-25T18:32:50.999Z</time>
      </trkpt>
      <trkpt lat="47.353860" lon="7.745939">
        <ele>889.543670</ele>
        <time>2022-08-25T18:32:52.999Z</time>
      </trkpt>
      <trkpt lat="47.353893" lon="7.746182">
        <ele>887.512271</ele>
        <time>2022-08-25T18:32:54.999Z</time>
      </trkpt>
      <trkpt lat="47.353949" lon="7.746418">
        <ele>885.462647</ele>
        <time>2022-08-25T18:32:56.999Z</time>
      </trkpt>
      <trkpt lat="47.353976" lon="7.746688">
        <ele>883.225586</ele>
        <time>2022-08-25T18:32:58.999Z</time>
      </trkpt>
      <trkpt lat="47.353975" lon="7.746902">
        <ele>881.471473</ele>
        <time>2022-08-25T18:33:01.000Z</time>
      </trkpt>
      <trkpt lat="47.353961" lon="7.747132">
        <ele>879.578662</ele>
        <time>2022-08-25T18:33:03.000Z</time>
      </trkpt>
      <trkpt lat="47.353930" lon="7.747266">
        <ele>878.418043</ele>
        <time>2022-08-25T18:33:04.000Z</time>
      </trkpt>
      <trkpt lat="47.353906" lon="7.747414">
        <ele>877.170677</ele>
        <time>2022-08-25T18:33:05.000Z</time>
      </trkpt>
      <trkpt lat="47.353879" lon="7.747550">
        <ele>876.026378</ele>
        <time>2022-08-25T18:33:06.000Z</time>
      </trkpt>
      <trkpt lat="47.353863" lon="7.747690">
        <ele>874.889068</ele>
        <time>2022-08-25T18:33:07.000Z</time>
      </trkpt>
      <trkpt lat="47.353839" lon="7.747950">
        <ele>872.787104</ele>
        <time>2022-08-25T18:33:09.000Z</time>
      </trkpt>
      <trkpt lat="47.353812" lon="7.748198">
        <ele>870.775020</ele>
        <time>2022-08-25T18:33:11.000Z</time>
      </trkpt>
      <trkpt lat="47.353784" lon="7.748475">
        <ele>868.531556</ele>
        <time>2022-08-25T18:33:13.000Z</time>
      </trkpt>
      <trkpt lat="47.353750" lon="7.748617">
        <ele>867.325116</ele>
        <time>2022-08-25T18:33:14.000Z</time>
      </trkpt>
      <trkpt lat="47.353729" lon="7.748751">
        <ele>866.223366</ele>
        <time>2022-08-25T18:33:15.000Z</time>
      </trkpt>
      <trkpt lat="47.353687" lon="7.749003">
        <ele>864.144534</ele>
        <time>2022-08-25T18:33:17.000Z</time>
      </trkpt>
      <trkpt lat="47.353665" lon="7.749149">
        <ele>862.946423</ele>
        <time>2022-08-25T18:33:18.000Z</time>
      </trkpt>
      <trkpt lat="47.353650" lon="7.749283">
        <ele>861.858463</ele>
        <time>2022-08-25T18:33:19.000Z</time>
      </trkpt>
      <trkpt lat="47.353638" lon="7.749427">
        <ele>860.696258</ele>
        <time>2022-08-25T18:33:20.000Z</time>
      </trkpt>
      <trkpt lat="47.353642" lon="7.749574">
        <ele>859.517765</ele>
        <time>2022-08-25T18:33:21.000Z</time>
      </trkpt>
      <trkpt lat="47.353625" lon="7.749712">
        <ele>858.394190</ele>
        <time>2022-08-25T18:33:22.000Z</time>
      </trkpt>
      <trkpt lat="47.353592" lon="7.749845">
        <ele>857.259588</ele>
        <time>2022-08-25T18:33:23.000Z</time>
      </trkpt>
      <trkpt lat="47.353571" lon="7.749981">
        <ele>856.142220</ele>
        <time>2022-08-25T18:33:24.000Z</time>
      </trkpt>
      <trkpt lat="47.353499" lon="7.750199">
        <ele>854.441039</ele>
        <time>2022-08-25T18:33:26.000Z</time>
      </trkpt>
      <trkpt lat="47.353411" lon="7.750432">
        <ele>852.699775</ele>
        <time>2022-08-25T18:33:28.000Z</time>
      </trkpt>
      <trkpt lat="47.353356" lon="7.750541">
        <ele>851.812624</ele>
        <time>2022-08-25T18:33:29.000Z</time>
      </trkpt>
      <trkpt lat="47.353300" lon="7.750651">
        <ele>850.914474</ele>
        <time>2022-08-25T18:33:30.000Z</time>
      </trkpt>
      <trkpt lat="47.353215" lon="7.750862">
        <ele>849.312086</ele>
        <time>2022-08-25T18:33:32.000Z</time>
      </trkpt>
      <trkpt lat="47.353197" lon="7.751068">
        <ele>847.956292</ele>
        <time>2022-08-25T18:33:34.000Z</time>
      </trkpt>
      <trkpt lat="47.353260" lon="7.751267">
        <ele>846.522500</ele>
        <time>2022-08-25T18:33:36.000Z</time>
      </trkpt>
      <trkpt lat="47.353343" lon="7.751464">
        <ele>845.008209</ele>
        <time>2022-08-25T18:33:38.000Z</time>
      </trkpt>
      <trkpt lat="47.353323" lon="7.751645">
        <ele>843.811130</ele>
        <time>2022-08-25T18:33:40.000Z</time>
      </trkpt>
      <trkpt lat="47.353225" lon="7.751809">
        <ele>842.383707</ele>
        <time>2022-08-25T18:33:42.000Z</time>
      </trkpt>
      <trkpt lat="47.353087" lon="7.751848">
        <ele>841.029933</ele>
        <time>2022-08-25T18:33:44.000Z</time>
      </trkpt>
      <trkpt lat="47.352955" lon="7.751724">
        <ele>839.522401</ele>
        <time>2022-08-25T18:33:46.000Z</time>
      </trkpt>
      <trkpt lat="47.352888" lon="7.751504">
        <ele>838.009718</ele>
        <time>2022-08-25T18:33:48.000Z</time>
      </trkpt>
      <trkpt lat="47.352799" lon="7.751316">
        <ele>836.921032</ele>
        <time>2022-08-25T18:33:50.000Z</time>
      </trkpt>
      <trkpt lat="47.352710" lon="7.751140">
        <ele>835.878526</ele>
        <time>2022-08-25T18:33:51.999Z</time>
      </trkpt>
      <trkpt lat="47.352586" lon="7.751002">
        <ele>834.790434</ele>
        <time>2022-08-25T18:33:53.999Z</time>
      </trkpt>
      <trkpt lat="47.352453" lon="7.750876">
        <ele>833.683134</ele>
        <time>2022-08-25T18:33:55.999Z</time>
      </trkpt>
      <trkpt lat="47.352299" lon="7.750798">
        <ele>832.542365</ele>
        <time>2022-08-25T18:33:57.999Z</time>
      </trkpt>
      <trkpt lat="47.352138" lon="7.750772">
        <ele>831.407578</ele>
        <time>2022-08-25T18:33:59.999Z</time>
      </trkpt>
      <trkpt lat="47.351981" lon="7.750799">
        <ele>830.300106</ele>
        <time>2022-08-25T18:34:01.999Z</time>
      </trkpt>
      <trkpt lat="47.351825" lon="7.750725">
        <ele>829.152025</ele>
        <time>2022-08-25T18:34:03.999Z</time>
      </trkpt>
      <trkpt lat="47.351720" lon="7.750526">
        <ele>827.954705</ele>
        <time>2022-08-25T18:34:05.999Z</time>
      </trkpt>
      <trkpt lat="47.351732" lon="7.750299">
        <ele>826.873880</ele>
        <time>2022-08-25T18:34:07.999Z</time>
      </trkpt>
      <trkpt lat="47.351727" lon="7.750093">
        <ele>825.895388</ele>
        <time>2022-08-25T18:34:09.999Z</time>
      </trkpt>
      <trkpt lat="47.351739" lon="7.749893">
        <ele>824.588923</ele>
        <time>2022-08-25T18:34:11.999Z</time>
      </trkpt>
      <trkpt lat="47.351792" lon="7.749710">
        <ele>823.114159</ele>
        <time>2022-08-25T18:34:13.999Z</time>
      </trkpt>
      <trkpt lat="47.351924" lon="7.749572">
        <ele>821.344938</ele>
        <time>2022-08-25T18:34:15.999Z</time>
      </trkpt>
      <trkpt lat="47.352064" lon="7.749460">
        <ele>819.603232</ele>
        <time>2022-08-25T18:34:17.999Z</time>
      </trkpt>
      <trkpt lat="47.352154" lon="7.749373">
        <ele>818.426536</ele>
        <time>2022-08-25T18:34:18.999Z</time>
      </trkpt>
      <trkpt lat="47.352237" lon="7.749294">
        <ele>817.346341</ele>
        <time>2022-08-25T18:34:19.999Z</time>
      </trkpt>
      <trkpt lat="47.352359" lon="7.749139">
        <ele>815.585725</ele>
        <time>2022-08-25T18:34:21.999Z</time>
      </trkpt>
      <trkpt lat="47.352352" lon="7.748983">
        <ele>814.427223</ele>
        <time>2022-08-25T18:34:22.999Z</time>
      </trkpt>
      <trkpt lat="47.352343" lon="7.748838">
        <ele>813.348264</ele>
        <time>2022-08-25T18:34:23.999Z</time>
      </trkpt>
      <trkpt lat="47.352343" lon="7.748690">
        <ele>812.251574</ele>
        <time>2022-08-25T18:34:24.999Z</time>
      </trkpt>
      <trkpt lat="47.352336" lon="7.748536">
        <ele>811.107859</ele>
        <time>2022-08-25T18:34:25.999Z</time>
      </trkpt>
      <trkpt lat="47.352334" lon="7.748378">
        <ele>809.936864</ele>
        <time>2022-08-25T18:34:26.999Z</time>
      </trkpt>
      <trkpt lat="47.352272" lon="7.748154">
        <ele>808.143828</ele>
        <time>2022-08-25T18:34:28.999Z</time>
      </trkpt>
      <trkpt lat="47.352131" lon="7.748088">
        <ele>806.525943</ele>
        <time>2022-08-25T18:34:30.999Z</time>
      </trkpt>
      <trkpt lat="47.351956" lon="7.748174">
        <ele>804.440430</ele>
        <time>2022-08-25T18:34:32.999Z</time>
      </trkpt>
      <trkpt lat="47.351833" lon="7.748242">
        <ele>802.933454</ele>
        <time>2022-08-25T18:34:34.999Z</time>
      </trkpt>
      <trkpt lat="47.351712" lon="7.748236">
        <ele>801.544383</ele>
        <time>2022-08-25T18:34:35.999Z</time>
      </trkpt>
      <trkpt lat="47.351600" lon="7.748212">
        <ele>800.245885</ele>
        <time>2022-08-25T18:34:36.999Z</time>
      </trkpt>
      <trkpt lat="47.351487" lon="7.748195">
        <ele>798.942669</ele>
        <time>2022-08-25T18:34:37.999Z</time>
      </trkpt>
      <trkpt lat="47.351385" lon="7.748197">
        <ele>797.772273</ele>
        <time>2022-08-25T18:34:38.999Z</time>
      </trkpt>
      <trkpt lat="47.351270" lon="7.748202">
        <ele>796.452254</ele>
        <time>2022-08-25T18:34:39.999Z</time>
      </trkpt>
      <trkpt lat="47.351166" lon="7.748203">
        <ele>795.258990</ele>
        <time>2022-08-25T18:34:40.999Z</time>
      </trkpt>
      <trkpt lat="47.350997" lon="7.748259">
        <ele>793.271715</ele>
        <time>2022-08-25T18:34:42.999Z</time>
      </trkpt>
      <trkpt lat="47.350869" lon="7.748456">
        <ele>791.149968</ele>
        <time>2022-08-25T18:34:44.999Z</time>
      </trkpt>
      <trkpt lat="47.350832" lon="7.748601">
        <ele>789.945539</ele>
        <time>2022-08-25T18:34:45.999Z</time>
      </trkpt>
      <trkpt lat="47.350819" lon="7.748748">
        <ele>788.793163</ele>
        <time>2022-08-25T18:34:46.999Z</time>
      </trkpt>
      <trkpt lat="47.350823" lon="7.748899">
        <ele>787.618491</ele>
        <time>2022-08-25T18:34:47.999Z</time>
      </trkpt>
      <trkpt lat="47.350800" lon="7.749059">
        <ele>786.347068</ele>
        <time>2022-08-25T18:34:48.999Z</time>
      </trkpt>
      <trkpt lat="47.350793" lon="7.749204">
        <ele>785.218672</ele>
        <time>2022-08-25T18:34:49.999Z</time>
      </trkpt>
      <trkpt lat="47.350789" lon="7.749337">
        <ele>784.220042</ele>
        <time>2022-08-25T18:34:50.999Z</time>
      </trkpt>
      <trkpt lat="47.350723" lon="7.749601">
        <ele>782.109228</ele>
        <time>2022-08-25T18:34:52.999Z</time>
      </trkpt>
      <trkpt lat="47.350680" lon="7.749746">
        <ele>780.921935</ele>
        <time>2022-08-25T18:34:53.999Z</time>
      </trkpt>
      <trkpt lat="47.350646" lon="7.749891">
        <ele>779.770972</ele>
        <time>2022-08-25T18:34:54.999Z</time>
      </trkpt>
      <trkpt lat="47.350623" lon="7.750049">
        <ele>778.558744</ele>
        <time>2022-08-25T18:34:55.999Z</time>
      </trkpt>
      <trkpt lat="47.350598" lon="7.750215">
        <ele>777.283162</ele>
        <time>2022-08-25T18:34:56.999Z</time>
      </trkpt>
      <trkpt lat="47.350570" lon="7.750383">
        <ele>775.985399</ele>
        <time>2022-08-25T18:34:57.999Z</time>
      </trkpt>
      <trkpt lat="47.350538" lon="7.750548">
        <ele>774.698000</ele>
        <time>2022-08-25T18:34:58.999Z</time>
      </trkpt>
      <trkpt lat="47.350526" lon="7.750685">
        <ele>773.661789</ele>
        <time>2022-08-25T18:34:59.999Z</time>
      </trkpt>
      <trkpt lat="47.350513" lon="7.750950">
        <ele>771.668780</ele>
        <time>2022-08-25T18:35:01.999Z</time>
      </trkpt>
      <trkpt lat="47.350520" lon="7.751103">
        <ele>770.518489</ele>
        <time>2022-08-25T18:35:02.999Z</time>
      </trkpt>
      <trkpt lat="47.350521" lon="7.751270">
        <ele>769.265748</ele>
        <time>2022-08-25T18:35:03.999Z</time>
      </trkpt>
      <trkpt lat="47.350526" lon="7.751438">
        <ele>768.004339</ele>
        <time>2022-08-25T18:35:04.999Z</time>
      </trkpt>
      <trkpt lat="47.350536" lon="7.751615">
        <ele>766.672027</ele>
        <time>2022-08-25T18:35:05.999Z</time>
      </trkpt>
      <trkpt lat="47.350540" lon="7.751788">
        <ele>765.373572</ele>
        <time>2022-08-25T18:35:07.000Z</time>
      </trkpt>
      <trkpt lat="47.350532" lon="7.751951">
        <ele>764.357889</ele>
        <time>2022-08-25T18:35:08.000Z</time>
      </trkpt>
      <trkpt lat="47.350547" lon="7.752131">
        <ele>763.235587</ele>
        <time>2022-08-25T18:35:09.000Z</time>
      </trkpt>
      <trkpt lat="47.350553" lon="7.752309">
        <ele>762.132693</ele>
        <time>2022-08-25T18:35:10.000Z</time>
      </trkpt>
      <trkpt lat="47.350561" lon="7.752497">
        <ele>760.966985</ele>
        <time>2022-08-25T18:35:11.000Z</time>
      </trkpt>
      <trkpt lat="47.350565" lon="7.752686">
        <ele>759.796811</ele>
        <time>2022-08-25T18:35:12.000Z</time>
      </trkpt>
      <trkpt lat="47.350571" lon="7.752883">
        <ele>758.576469</ele>
        <time>2022-08-25T18:35:13.000Z</time>
      </trkpt>
      <trkpt lat="47.350566" lon="7.753058">
        <ele>757.492541</ele>
        <time>2022-08-25T18:35:14.000Z</time>
      </trkpt>
      <trkpt lat="47.350578" lon="7.753228">
        <ele>756.434822</ele>
        <time>2022-08-25T18:35:15.000Z</time>
      </trkpt>
      <trkpt lat="47.350591" lon="7.753419">
        <ele>755.246893</ele>
        <time>2022-08-25T18:35:16.000Z</time>
      </trkpt>
      <trkpt lat="47.350602" lon="7.753602">
        <ele>754.109973</ele>
        <time>2022-08-25T18:35:17.000Z</time>
      </trkpt>
      <trkpt lat="47.350613" lon="7.753782">
        <ele>752.991543</ele>
        <time>2022-08-25T18:35:18.000Z</time>
      </trkpt>
      <trkpt lat="47.350623" lon="7.753964">
        <ele>751.861562</ele>
        <time>2022-08-25T18:35:19.000Z</time>
      </trkpt>
      <trkpt lat="47.350646" lon="7.754140">
        <ele>750.752333</ele>
        <time>2022-08-25T18:35:20.000Z</time>
      </trkpt>
      <trkpt lat="47.350649" lon="7.754319">
        <ele>749.644276</ele>
        <time>2022-08-25T18:35:21.000Z</time>
      </trkpt>
      <trkpt lat="47.350645" lon="7.754492">
        <ele>748.796759</ele>
        <time>2022-08-25T18:35:22.000Z</time>
      </trkpt>
      <trkpt lat="47.350650" lon="7.754666">
        <ele>748.413872</ele>
        <time>2022-08-25T18:35:23.000Z</time>
      </trkpt>
      <trkpt lat="47.350661" lon="7.754838">
        <ele>748.034044</ele>
        <time>2022-08-25T18:35:24.000Z</time>
      </trkpt>
      <trkpt lat="47.350672" lon="7.755007">
        <ele>747.660782</ele>
        <time>2022-08-25T18:35:25.000Z</time>
      </trkpt>
      <trkpt lat="47.350683" lon="7.755168">
        <ele>747.305024</ele>
        <time>2022-08-25T18:35:26.000Z</time>
      </trkpt>
      <trkpt lat="47.350693" lon="7.755316">
        <ele>746.978028</ele>
        <time>2022-08-25T18:35:27.000Z</time>
      </trkpt>
      <trkpt lat="47.350704" lon="7.755464">
        <ele>746.650695</ele>
        <time>2022-08-25T18:35:28.000Z</time>
      </trkpt>
      <trkpt lat="47.350718" lon="7.755604">
        <ele>746.339566</ele>
        <time>2022-08-25T18:35:29.000Z</time>
      </trkpt>
      <trkpt lat="47.350729" lon="7.755756">
        <ele>746.003490</ele>
        <time>2022-08-25T18:35:30.000Z</time>
      </trkpt>
      <trkpt lat="47.350739" lon="7.755910">
        <ele>745.663366</ele>
        <time>2022-08-25T18:35:31.000Z</time>
      </trkpt>
      <trkpt lat="47.350744" lon="7.756064">
        <ele>745.324404</ele>
        <time>2022-08-25T18:35:32.000Z</time>
      </trkpt>
      <trkpt lat="47.350755" lon="7.756233">
        <ele>744.951143</ele>
        <time>2022-08-25T18:35:33.000Z</time>
      </trkpt>
      <trkpt lat="47.350743" lon="7.756402">
        <ele>744.577558</ele>
        <time>2022-08-25T18:35:34.000Z</time>
      </trkpt>
      <trkpt lat="47.350736" lon="7.756558">
        <ele>744.233837</ele>
        <time>2022-08-25T18:35:35.000Z</time>
      </trkpt>
      <trkpt lat="47.350726" lon="7.756692">
        <ele>743.937453</ele>
        <time>2022-08-25T18:35:36.000Z</time>
      </trkpt>
      <trkpt lat="47.350752" lon="7.756934">
        <ele>743.398762</ele>
        <time>2022-08-25T18:35:38.000Z</time>
      </trkpt>
      <trkpt lat="47.350787" lon="7.757072">
        <ele>743.078496</ele>
        <time>2022-08-25T18:35:39.000Z</time>
      </trkpt>
      <trkpt lat="47.350826" lon="7.757219">
        <ele>742.880452</ele>
        <time>2022-08-25T18:35:40.000Z</time>
      </trkpt>
      <trkpt lat="47.350833" lon="7.757358">
        <ele>742.705597</ele>
        <time>2022-08-25T18:35:41.000Z</time>
      </trkpt>
      <trkpt lat="47.350834" lon="7.757493">
        <ele>742.536230</ele>
        <time>2022-08-25T18:35:42.000Z</time>
      </trkpt>
      <trkpt lat="47.350817" lon="7.757742">
        <ele>742.222281</ele>
        <time>2022-08-25T18:35:44.000Z</time>
      </trkpt>
      <trkpt lat="47.350813" lon="7.757876">
        <ele>742.054016</ele>
        <time>2022-08-25T18:35:45.000Z</time>
      </trkpt>
      <trkpt lat="47.350813" lon="7.758089">
        <ele>741.786810</ele>
        <time>2022-08-25T18:35:47.000Z</time>
      </trkpt>
      <trkpt lat="47.350869" lon="7.758300">
        <ele>741.502528</ele>
        <time>2022-08-25T18:35:49.000Z</time>
      </trkpt>
      <trkpt lat="47.350973" lon="7.758461">
        <ele>741.223466</ele>
        <time>2022-08-25T18:35:51.000Z</time>
      </trkpt>
      <trkpt lat="47.351086" lon="7.758615">
        <ele>740.938683</ele>
        <time>2022-08-25T18:35:53.000Z</time>
      </trkpt>
      <trkpt lat="47.351191" lon="7.758753">
        <ele>740.678358</ele>
        <time>2022-08-25T18:35:54.999Z</time>
      </trkpt>
      <trkpt lat="47.351273" lon="7.758917">
        <ele>740.422663</ele>
        <time>2022-08-25T18:35:56.999Z</time>
      </trkpt>
      <trkpt lat="47.351322" lon="7.759067">
        <ele>740.213760</ele>
        <time>2022-08-25T18:35:58.999Z</time>
      </trkpt>
      <trkpt lat="47.351360" lon="7.759200">
        <ele>740.032685</ele>
        <time>2022-08-25T18:36:00.999Z</time>
      </trkpt>
      <trkpt lat="47.351391" lon="7.759341">
        <ele>739.846723</ele>
        <time>2022-08-25T18:36:02.999Z</time>
      </trkpt>
      <trkpt lat="47.351420" lon="7.759469">
        <ele>739.555894</ele>
        <time>2022-08-25T18:36:04.999Z</time>
      </trkpt>
      <trkpt lat="47.351450" lon="7.759603">
        <ele>739.094225</ele>
        <time>2022-08-25T18:36:06.999Z</time>
      </trkpt>
      <trkpt lat="47.351546" lon="7.759712">
        <ele>738.509409</ele>
        <time>2022-08-25T18:36:08.999Z</time>
      </trkpt>
      <trkpt lat="47.351614" lon="7.759831">
        <ele>738.000146</ele>
        <time>2022-08-25T18:36:10.999Z</time>
      </trkpt>
      <trkpt lat="47.351702" lon="7.759904">
        <ele>737.512730</ele>
        <time>2022-08-25T18:36:12.999Z</time>
      </trkpt>
      <trkpt lat="47.351809" lon="7.759955">
        <ele>736.969810</ele>
        <time>2022-08-25T18:36:14.999Z</time>
      </trkpt>
      <trkpt lat="47.351929" lon="7.759986">
        <ele>736.381582</ele>
        <time>2022-08-25T18:36:16.999Z</time>
      </trkpt>
      <trkpt lat="47.352058" lon="7.760026">
        <ele>735.745109</ele>
        <time>2022-08-25T18:36:18.999Z</time>
      </trkpt>
      <trkpt lat="47.352199" lon="7.760046">
        <ele>735.061154</ele>
        <time>2022-08-25T18:36:20.999Z</time>
      </trkpt>
      <trkpt lat="47.352359" lon="7.759995">
        <ele>734.270785</ele>
        <time>2022-08-25T18:36:22.999Z</time>
      </trkpt>
      <trkpt lat="47.352531" lon="7.759959">
        <ele>733.431974</ele>
        <time>2022-08-25T18:36:24.999Z</time>
      </trkpt>
      <trkpt lat="47.352622" lon="7.759940">
        <ele>732.988206</ele>
        <time>2022-08-25T18:36:25.999Z</time>
      </trkpt>
      <trkpt lat="47.352713" lon="7.759939">
        <ele>732.548800</ele>
        <time>2022-08-25T18:36:26.999Z</time>
      </trkpt>
      <trkpt lat="47.352812" lon="7.759971">
        <ele>732.059451</ele>
        <time>2022-08-25T18:36:27.999Z</time>
      </trkpt>
      <trkpt lat="47.352912" lon="7.760004">
        <ele>731.564680</ele>
        <time>2022-08-25T18:36:28.999Z</time>
      </trkpt>
      <trkpt lat="47.353016" lon="7.760040">
        <ele>731.058028</ele>
        <time>2022-08-25T18:36:29.999Z</time>
      </trkpt>
      <trkpt lat="47.353108" lon="7.760126">
        <ele>730.780561</ele>
        <time>2022-08-25T18:36:30.999Z</time>
      </trkpt>
      <trkpt lat="47.353209" lon="7.760167">
        <ele>730.513661</ele>
        <time>2022-08-25T18:36:31.999Z</time>
      </trkpt>
      <trkpt lat="47.353314" lon="7.760212">
        <ele>730.235075</ele>
        <time>2022-08-25T18:36:32.999Z</time>
      </trkpt>
      <trkpt lat="47.353423" lon="7.760259">
        <ele>729.945738</ele>
        <time>2022-08-25T18:36:33.999Z</time>
      </trkpt>
      <trkpt lat="47.353534" lon="7.760310">
        <ele>729.649528</ele>
        <time>2022-08-25T18:36:34.999Z</time>
      </trkpt>
      <trkpt lat="47.353639" lon="7.760369">
        <ele>729.363261</ele>
        <time>2022-08-25T18:36:35.999Z</time>
      </trkpt>
      <trkpt lat="47.353722" lon="7.760448">
        <ele>729.111625</ele>
        <time>2022-08-25T18:36:36.999Z</time>
      </trkpt>
      <trkpt lat="47.353793" lon="7.760545">
        <ele>728.865124</ele>
        <time>2022-08-25T18:36:37.999Z</time>
      </trkpt>
      <trkpt lat="47.353865" lon="7.760657">
        <ele>728.598605</ele>
        <time>2022-08-25T18:36:38.999Z</time>
      </trkpt>
      <trkpt lat="47.353935" lon="7.760763">
        <ele>728.343083</ele>
        <time>2022-08-25T18:36:39.999Z</time>
      </trkpt>
      <trkpt lat="47.354032" lon="7.760945">
        <ele>727.943354</ele>
        <time>2022-08-25T18:36:41.999Z</time>
      </trkpt>
      <trkpt lat="47.354093" lon="7.761130">
        <ele>727.588198</ele>
        <time>2022-08-25T18:36:43.999Z</time>
      </trkpt>
      <trkpt lat="47.354119" lon="7.761324">
        <ele>727.246832</ele>
        <time>2022-08-25T18:36:45.999Z</time>
      </trkpt>
      <trkpt lat="47.354006" lon="7.761521">
        <ele>726.801259</ele>
        <time>2022-08-25T18:36:48.999Z</time>
      </trkpt>
      <trkpt lat="47.353931" lon="7.761637">
        <ele>726.524469</ele>
        <time>2022-08-25T18:36:50.999Z</time>
      </trkpt>
      <trkpt lat="47.353859" lon="7.761735">
        <ele>726.791208</ele>
        <time>2022-08-25T18:36:52.999Z</time>
      </trkpt>
      <trkpt lat="47.353769" lon="7.761862">
        <ele>727.252377</ele>
        <time>2022-08-25T18:36:54.999Z</time>
      </trkpt>
      <trkpt lat="47.353678" lon="7.761992">
        <ele>727.721435</ele>
        <time>2022-08-25T18:36:56.999Z</time>
      </trkpt>
      <trkpt lat="47.353591" lon="7.762121">
        <ele>728.178181</ele>
        <time>2022-08-25T18:36:58.999Z</time>
      </trkpt>
      <trkpt lat="47.353501" lon="7.762248">
        <ele>728.639351</ele>
        <time>2022-08-25T18:37:00.999Z</time>
      </trkpt>
      <trkpt lat="47.353413" lon="7.762381">
        <ele>729.105846</ele>
        <time>2022-08-25T18:37:02.999Z</time>
      </trkpt>
      <trkpt lat="47.353322" lon="7.762512">
        <ele>729.576654</ele>
        <time>2022-08-25T18:37:04.999Z</time>
      </trkpt>
      <trkpt lat="47.353233" lon="7.762642">
        <ele>730.040419</ele>
        <time>2022-08-25T18:37:06.999Z</time>
      </trkpt>
      <trkpt lat="47.353140" lon="7.762767">
        <ele>730.506292</ele>
        <time>2022-08-25T18:37:08.999Z</time>
      </trkpt>
      <trkpt lat="47.353042" lon="7.762887">
        <ele>730.977913</ele>
        <time>2022-08-25T18:37:10.999Z</time>
      </trkpt>
      <trkpt lat="47.352940" lon="7.762997">
        <ele>731.445801</ele>
        <time>2022-08-25T18:37:13.000Z</time>
      </trkpt>
      <trkpt lat="47.352834" lon="7.763093">
        <ele>731.906424</ele>
        <time>2022-08-25T18:37:15.000Z</time>
      </trkpt>
      <trkpt lat="47.352727" lon="7.763170">
        <ele>732.347331</ele>
        <time>2022-08-25T18:37:17.000Z</time>
      </trkpt>
      <trkpt lat="47.352622" lon="7.763258">
        <ele>732.794557</ele>
        <time>2022-08-25T18:37:19.000Z</time>
      </trkpt>
      <trkpt lat="47.352516" lon="7.763312">
        <ele>733.097470</ele>
        <time>2022-08-25T18:37:21.000Z</time>
      </trkpt>
      <trkpt lat="47.352419" lon="7.763378">
        <ele>732.782454</ele>
        <time>2022-08-25T18:37:23.000Z</time>
      </trkpt>
      <trkpt lat="47.352299" lon="7.763444">
        <ele>732.404765</ele>
        <time>2022-08-25T18:37:26.000Z</time>
      </trkpt>
      <trkpt lat="47.352193" lon="7.763502">
        <ele>732.071349</ele>
        <time>2022-08-25T18:37:29.000Z</time>
      </trkpt>
      <trkpt lat="47.352098" lon="7.763545">
        <ele>731.778286</ele>
        <time>2022-08-25T18:37:32.000Z</time>
      </trkpt>
      <trkpt lat="47.351988" lon="7.763615">
        <ele>731.424995</ele>
        <time>2022-08-25T18:37:35.000Z</time>
      </trkpt>
      <trkpt lat="47.351883" lon="7.763719">
        <ele>731.052055</ele>
        <time>2022-08-25T18:37:38.000Z</time>
      </trkpt>
      <trkpt lat="47.351772" lon="7.763843">
        <ele>730.641490</ele>
        <time>2022-08-25T18:37:41.000Z</time>
      </trkpt>
      <trkpt lat="47.351687" lon="7.763963">
        <ele>730.294590</ele>
        <time>2022-08-25T18:37:43.000Z</time>
      </trkpt>
      <trkpt lat="47.351580" lon="7.764061">
        <ele>729.923195</ele>
        <time>2022-08-25T18:37:45.000Z</time>
      </trkpt>
      <trkpt lat="47.351519" lon="7.764269">
        <ele>729.470311</ele>
        <time>2022-08-25T18:37:47.000Z</time>
      </trkpt>
      <trkpt lat="47.351437" lon="7.764440">
        <ele>729.051698</ele>
        <time>2022-08-25T18:37:49.000Z</time>
      </trkpt>
      <trkpt lat="47.351341" lon="7.764624">
        <ele>728.587651</ele>
        <time>2022-08-25T18:37:51.000Z</time>
      </trkpt>
      <trkpt lat="47.351229" lon="7.764828">
        <ele>728.062987</ele>
        <time>2022-08-25T18:37:53.000Z</time>
      </trkpt>
      <trkpt lat="47.351168" lon="7.764940">
        <ele>727.663076</ele>
        <time>2022-08-25T18:37:54.000Z</time>
      </trkpt>
      <trkpt lat="47.351100" lon="7.765049">
        <ele>726.866435</ele>
        <time>2022-08-25T18:37:55.000Z</time>
      </trkpt>
      <trkpt lat="47.351020" lon="7.765166">
        <ele>725.972709</ele>
        <time>2022-08-25T18:37:56.000Z</time>
      </trkpt>
      <trkpt lat="47.350946" lon="7.765283">
        <ele>725.112152</ele>
        <time>2022-08-25T18:37:57.000Z</time>
      </trkpt>
      <trkpt lat="47.350854" lon="7.765366">
        <ele>724.256486</ele>
        <time>2022-08-25T18:37:57.999Z</time>
      </trkpt>
      <trkpt lat="47.350793" lon="7.765467">
        <ele>723.529018</ele>
        <time>2022-08-25T18:37:58.999Z</time>
      </trkpt>
      <trkpt lat="47.350688" lon="7.765642">
        <ele>722.272204</ele>
        <time>2022-08-25T18:38:00.999Z</time>
      </trkpt>
      <trkpt lat="47.350570" lon="7.765838">
        <ele>720.862465</ele>
        <time>2022-08-25T18:38:02.999Z</time>
      </trkpt>
      <trkpt lat="47.350508" lon="7.765937">
        <ele>720.137622</ele>
        <time>2022-08-25T18:38:03.999Z</time>
      </trkpt>
      <trkpt lat="47.350447" lon="7.766038">
        <ele>719.410150</ele>
        <time>2022-08-25T18:38:04.999Z</time>
      </trkpt>
      <trkpt lat="47.350339" lon="7.766212">
        <ele>718.141393</ele>
        <time>2022-08-25T18:38:06.999Z</time>
      </trkpt>
      <trkpt lat="47.350241" lon="7.766371">
        <ele>716.985700</ele>
        <time>2022-08-25T18:38:08.999Z</time>
      </trkpt>
      <trkpt lat="47.350135" lon="7.766542">
        <ele>715.739555</ele>
        <time>2022-08-25T18:38:10.999Z</time>
      </trkpt>
      <trkpt lat="47.350044" lon="7.766689">
        <ele>714.668963</ele>
        <time>2022-08-25T18:38:12.999Z</time>
      </trkpt>
      <trkpt lat="47.349959" lon="7.766839">
        <ele>713.617572</ele>
        <time>2022-08-25T18:38:14.999Z</time>
      </trkpt>
      <trkpt lat="47.349871" lon="7.766993">
        <ele>712.987630</ele>
        <time>2022-08-25T18:38:16.999Z</time>
      </trkpt>
      <trkpt lat="47.349776" lon="7.767146">
        <ele>712.360610</ele>
        <time>2022-08-25T18:38:18.999Z</time>
      </trkpt>
      <trkpt lat="47.349696" lon="7.767277">
        <ele>711.827767</ele>
        <time>2022-08-25T18:38:20.999Z</time>
      </trkpt>
      <trkpt lat="47.349580" lon="7.767384">
        <ele>711.217771</ele>
        <time>2022-08-25T18:38:23.999Z</time>
      </trkpt>
      <trkpt lat="47.349493" lon="7.767508">
        <ele>710.678442</ele>
        <time>2022-08-25T18:38:26.999Z</time>
      </trkpt>
      <trkpt lat="47.349402" lon="7.767673">
        <ele>710.035638</ele>
        <time>2022-08-25T18:38:28.999Z</time>
      </trkpt>
      <trkpt lat="47.349345" lon="7.767802">
        <ele>709.570325</ele>
        <time>2022-08-25T18:38:30.999Z</time>
      </trkpt>
      <trkpt lat="47.349261" lon="7.767943">
        <ele>709.003052</ele>
        <time>2022-08-25T18:38:32.999Z</time>
      </trkpt>
      <trkpt lat="47.349159" lon="7.768072">
        <ele>708.404052</ele>
        <time>2022-08-25T18:38:34.999Z</time>
      </trkpt>
      <trkpt lat="47.349036" lon="7.768191">
        <ele>707.748214</ele>
        <time>2022-08-25T18:38:36.999Z</time>
      </trkpt>
      <trkpt lat="47.348905" lon="7.768297">
        <ele>707.082008</ele>
        <time>2022-08-25T18:38:38.999Z</time>
      </trkpt>
      <trkpt lat="47.348754" lon="7.768392">
        <ele>706.350021</ele>
        <time>2022-08-25T18:38:40.999Z</time>
      </trkpt>
      <trkpt lat="47.348590" lon="7.768485">
        <ele>705.566563</ele>
        <time>2022-08-25T18:38:42.999Z</time>
      </trkpt>
      <trkpt lat="47.348507" lon="7.768537">
        <ele>705.391100</ele>
        <time>2022-08-25T18:38:43.999Z</time>
      </trkpt>
      <trkpt lat="47.348354" lon="7.768645">
        <ele>705.081449</ele>
        <time>2022-08-25T18:38:45.999Z</time>
      </trkpt>
      <trkpt lat="47.348193" lon="7.768755">
        <ele>704.757528</ele>
        <time>2022-08-25T18:38:47.999Z</time>
      </trkpt>
      <trkpt lat="47.348117" lon="7.768828">
        <ele>704.591970</ele>
        <time>2022-08-25T18:38:48.999Z</time>
      </trkpt>
      <trkpt lat="47.347955" lon="7.768913">
        <ele>704.278057</ele>
        <time>2022-08-25T18:38:50.999Z</time>
      </trkpt>
      <trkpt lat="47.347791" lon="7.768988">
        <ele>703.964582</ele>
        <time>2022-08-25T18:38:52.999Z</time>
      </trkpt>
      <trkpt lat="47.347631" lon="7.769019">
        <ele>703.669949</ele>
        <time>2022-08-25T18:38:54.999Z</time>
      </trkpt>
      <trkpt lat="47.347451" lon="7.769047">
        <ele>703.339486</ele>
        <time>2022-08-25T18:38:56.999Z</time>
      </trkpt>
      <trkpt lat="47.347280" lon="7.769081">
        <ele>703.024454</ele>
        <time>2022-08-25T18:38:58.999Z</time>
      </trkpt>
      <trkpt lat="47.347115" lon="7.769115">
        <ele>702.720276</ele>
        <time>2022-08-25T18:39:00.999Z</time>
      </trkpt>
      <trkpt lat="47.346969" lon="7.769183">
        <ele>702.440752</ele>
        <time>2022-08-25T18:39:02.999Z</time>
      </trkpt>
      <trkpt lat="47.346831" lon="7.769267">
        <ele>702.201230</ele>
        <time>2022-08-25T18:39:04.999Z</time>
      </trkpt>
      <trkpt lat="47.346685" lon="7.769261">
        <ele>702.026240</ele>
        <time>2022-08-25T18:39:06.999Z</time>
      </trkpt>
      <trkpt lat="47.346559" lon="7.769317">
        <ele>701.868583</ele>
        <time>2022-08-25T18:39:08.999Z</time>
      </trkpt>
      <trkpt lat="47.346440" lon="7.769369">
        <ele>701.719892</ele>
        <time>2022-08-25T18:39:10.999Z</time>
      </trkpt>
      <trkpt lat="47.346327" lon="7.769418">
        <ele>701.578784</ele>
        <time>2022-08-25T18:39:12.999Z</time>
      </trkpt>
      <trkpt lat="47.346218" lon="7.769465">
        <ele>701.442732</ele>
        <time>2022-08-25T18:39:14.999Z</time>
      </trkpt>
      <trkpt lat="47.346114" lon="7.769512">
        <ele>701.312420</ele>
        <time>2022-08-25T18:39:16.999Z</time>
      </trkpt>
      <trkpt lat="47.346025" lon="7.769552">
        <ele>701.200954</ele>
        <time>2022-08-25T18:39:19.000Z</time>
      </trkpt>
      <trkpt lat="47.346045" lon="7.770099">
        <ele>700.756257</ele>
        <time>2022-08-25T18:40:58.999Z</time>
      </trkpt>
      <trkpt lat="47.346092" lon="7.770252">
        <ele>700.619884</ele>
        <time>2022-08-25T18:41:00.999Z</time>
      </trkpt>
      <trkpt lat="47.346143" lon="7.770422">
        <ele>700.468958</ele>
        <time>2022-08-25T18:41:02.999Z</time>
      </trkpt>
      <trkpt lat="47.346093" lon="7.770541">
        <ele>700.355288</ele>
        <time>2022-08-25T18:41:04.999Z</time>
      </trkpt>
      <trkpt lat="47.345992" lon="7.770644">
        <ele>700.208202</ele>
        <time>2022-08-25T18:41:06.999Z</time>
      </trkpt>
      <trkpt lat="47.345882" lon="7.770723">
        <ele>700.235920</ele>
        <time>2022-08-25T18:41:08.999Z</time>
      </trkpt>
      <trkpt lat="47.345787" lon="7.770824">
        <ele>700.608394</ele>
        <time>2022-08-25T18:41:10.999Z</time>
      </trkpt>
      <trkpt lat="47.345688" lon="7.770906">
        <ele>700.969551</ele>
        <time>2022-08-25T18:41:12.999Z</time>
      </trkpt>
      <trkpt lat="47.345584" lon="7.770993">
        <ele>701.349858</ele>
        <time>2022-08-25T18:41:14.999Z</time>
      </trkpt>
      <trkpt lat="47.345480" lon="7.771090">
        <ele>701.741245</ele>
        <time>2022-08-25T18:41:16.999Z</time>
      </trkpt>
      <trkpt lat="47.345378" lon="7.771181">
        <ele>702.120418</ele>
        <time>2022-08-25T18:41:18.999Z</time>
      </trkpt>
      <trkpt lat="47.345271" lon="7.771270">
        <ele>702.511155</ele>
        <time>2022-08-25T18:41:20.999Z</time>
      </trkpt>
      <trkpt lat="47.345165" lon="7.771360">
        <ele>702.900195</ele>
        <time>2022-08-25T18:41:22.999Z</time>
      </trkpt>
      <trkpt lat="47.345046" lon="7.771430">
        <ele>703.307732</ele>
        <time>2022-08-25T18:41:25.000Z</time>
      </trkpt>
      <trkpt lat="47.344948" lon="7.771517">
        <ele>703.671556</ele>
        <time>2022-08-25T18:41:27.000Z</time>
      </trkpt>
      <trkpt lat="47.344843" lon="7.771569">
        <ele>704.023897</ele>
        <time>2022-08-25T18:41:29.000Z</time>
      </trkpt>
      <trkpt lat="47.344748" lon="7.771629">
        <ele>704.352632</ele>
        <time>2022-08-25T18:41:31.000Z</time>
      </trkpt>
      <trkpt lat="47.344660" lon="7.771669">
        <ele>704.645563</ele>
        <time>2022-08-25T18:41:33.000Z</time>
      </trkpt>
      <trkpt lat="47.344544" lon="7.771727">
        <ele>705.035196</ele>
        <time>2022-08-25T18:41:36.000Z</time>
      </trkpt>
      <trkpt lat="47.344420" lon="7.771753">
        <ele>705.433638</ele>
        <time>2022-08-25T18:41:39.000Z</time>
      </trkpt>
      <trkpt lat="47.344294" lon="7.771779">
        <ele>705.842097</ele>
        <time>2022-08-25T18:41:42.000Z</time>
      </trkpt>
      <trkpt lat="47.344165" lon="7.771780">
        <ele>706.468728</ele>
        <time>2022-08-25T18:41:45.000Z</time>
      </trkpt>
      <trkpt lat="47.344031" lon="7.771776">
        <ele>707.119771</ele>
        <time>2022-08-25T18:41:48.000Z</time>
      </trkpt>
      <trkpt lat="47.343910" lon="7.771767">
        <ele>707.708279</ele>
        <time>2022-08-25T18:41:51.000Z</time>
      </trkpt>
      <trkpt lat="47.343788" lon="7.771708">
        <ele>708.331905</ele>
        <time>2022-08-25T18:41:54.000Z</time>
      </trkpt>
      <trkpt lat="47.343670" lon="7.771654">
        <ele>708.932020</ele>
        <time>2022-08-25T18:41:57.000Z</time>
      </trkpt>
      <trkpt lat="47.343559" lon="7.771590">
        <ele>709.510896</ele>
        <time>2022-08-25T18:42:00.000Z</time>
      </trkpt>
      <trkpt lat="47.343449" lon="7.771508">
        <ele>710.109522</ele>
        <time>2022-08-25T18:42:02.999Z</time>
      </trkpt>
      <trkpt lat="47.343365" lon="7.771444">
        <ele>710.568724</ele>
        <time>2022-08-25T18:42:04.999Z</time>
      </trkpt>
      <trkpt lat="47.343277" lon="7.771370">
        <ele>711.060711</ele>
        <time>2022-08-25T18:42:06.999Z</time>
      </trkpt>
      <trkpt lat="47.343189" lon="7.771301">
        <ele>711.544762</ele>
        <time>2022-08-25T18:42:08.999Z</time>
      </trkpt>
      <trkpt lat="47.343105" lon="7.771214">
        <ele>712.043253</ele>
        <time>2022-08-25T18:42:10.999Z</time>
      </trkpt>
      <trkpt lat="47.343019" lon="7.771134">
        <ele>712.537066</ele>
        <time>2022-08-25T18:42:12.999Z</time>
      </trkpt>
      <trkpt lat="47.342927" lon="7.771056">
        <ele>713.052457</ele>
        <time>2022-08-25T18:42:14.999Z</time>
      </trkpt>
      <trkpt lat="47.342839" lon="7.770973">
        <ele>713.559764</ele>
        <time>2022-08-25T18:42:16.999Z</time>
      </trkpt>
      <trkpt lat="47.342743" lon="7.770894">
        <ele>714.093686</ele>
        <time>2022-08-25T18:42:18.999Z</time>
      </trkpt>
      <trkpt lat="47.342648" lon="7.770818">
        <ele>714.645496</ele>
        <time>2022-08-25T18:42:20.999Z</time>
      </trkpt>
      <trkpt lat="47.342554" lon="7.770743">
        <ele>715.442203</ele>
        <time>2022-08-25T18:42:22.999Z</time>
      </trkpt>
      <trkpt lat="47.342458" lon="7.770675">
        <ele>716.236128</ele>
        <time>2022-08-25T18:42:24.999Z</time>
      </trkpt>
      <trkpt lat="47.342360" lon="7.770626">
        <ele>717.007585</ele>
        <time>2022-08-25T18:42:26.999Z</time>
      </trkpt>
      <trkpt lat="47.342263" lon="7.770657">
        <ele>717.747553</ele>
        <time>2022-08-25T18:42:28.999Z</time>
      </trkpt>
      <trkpt lat="47.342190" lon="7.770737">
        <ele>718.425476</ele>
        <time>2022-08-25T18:42:30.999Z</time>
      </trkpt>
      <trkpt lat="47.342122" lon="7.770846">
        <ele>719.174000</ele>
        <time>2022-08-25T18:42:32.999Z</time>
      </trkpt>
      <trkpt lat="47.342048" lon="7.770940">
        <ele>719.901962</ele>
        <time>2022-08-25T18:42:34.999Z</time>
      </trkpt>
      <trkpt lat="47.341949" lon="7.771065">
        <ele>720.873368</ele>
        <time>2022-08-25T18:42:37.999Z</time>
      </trkpt>
      <trkpt lat="47.341885" lon="7.771160">
        <ele>721.550157</ele>
        <time>2022-08-25T18:42:39.999Z</time>
      </trkpt>
      <trkpt lat="47.341801" lon="7.771274">
        <ele>722.401004</ele>
        <time>2022-08-25T18:42:42.999Z</time>
      </trkpt>
      <trkpt lat="47.341738" lon="7.771393">
        <ele>723.163944</ele>
        <time>2022-08-25T18:42:45.999Z</time>
      </trkpt>
      <trkpt lat="47.341708" lon="7.771537">
        <ele>723.925064</ele>
        <time>2022-08-25T18:42:48.999Z</time>
      </trkpt>
      <trkpt lat="47.341693" lon="7.771694">
        <ele>724.726100</ele>
        <time>2022-08-25T18:42:51.999Z</time>
      </trkpt>
      <trkpt lat="47.341667" lon="7.771841">
        <ele>725.493652</ele>
        <time>2022-08-25T18:42:54.999Z</time>
      </trkpt>
      <trkpt lat="47.341643" lon="7.772020">
        <ele>726.415525</ele>
        <time>2022-08-25T18:42:58.999Z</time>
      </trkpt>
      <trkpt lat="47.341620" lon="7.772168">
        <ele>727.182659</ele>
        <time>2022-08-25T18:43:01.999Z</time>
      </trkpt>
      <trkpt lat="47.341584" lon="7.772307">
        <ele>727.934458</ele>
        <time>2022-08-25T18:43:04.999Z</time>
      </trkpt>
      <trkpt lat="47.341571" lon="7.772451">
        <ele>728.575139</ele>
        <time>2022-08-25T18:43:07.999Z</time>
      </trkpt>
      <trkpt lat="47.341546" lon="7.772588">
        <ele>729.195053</ele>
        <time>2022-08-25T18:43:10.999Z</time>
      </trkpt>
      <trkpt lat="47.341530" lon="7.772730">
        <ele>729.824007</ele>
        <time>2022-08-25T18:43:13.999Z</time>
      </trkpt>
      <trkpt lat="47.341512" lon="7.772880">
        <ele>730.489594</ele>
        <time>2022-08-25T18:43:16.999Z</time>
      </trkpt>
      <trkpt lat="47.341482" lon="7.773028">
        <ele>731.164558</ele>
        <time>2022-08-25T18:43:19.999Z</time>
      </trkpt>
      <trkpt lat="47.341476" lon="7.773184">
        <ele>731.847261</ele>
        <time>2022-08-25T18:43:22.999Z</time>
      </trkpt>
      <trkpt lat="47.341465" lon="7.773334">
        <ele>732.506478</ele>
        <time>2022-08-25T18:43:25.999Z</time>
      </trkpt>
      <trkpt lat="47.341445" lon="7.773482">
        <ele>733.165863</ele>
        <time>2022-08-25T18:43:28.999Z</time>
      </trkpt>
      <trkpt lat="47.341437" lon="7.773646">
        <ele>733.884278</ele>
        <time>2022-08-25T18:43:32.000Z</time>
      </trkpt>
      <trkpt lat="47.341415" lon="7.773785">
        <ele>734.507953</ele>
        <time>2022-08-25T18:43:35.000Z</time>
      </trkpt>
      <trkpt lat="47.341401" lon="7.773949">
        <ele>735.230178</ele>
        <time>2022-08-25T18:43:38.000Z</time>
      </trkpt>
      <trkpt lat="47.341375" lon="7.774100">
        <ele>735.910904</ele>
        <time>2022-08-25T18:43:41.000Z</time>
      </trkpt>
      <trkpt lat="47.341313" lon="7.774224">
        <ele>736.584219</ele>
        <time>2022-08-25T18:43:44.000Z</time>
      </trkpt>
      <trkpt lat="47.341206" lon="7.774271">
        <ele>737.304057</ele>
        <time>2022-08-25T18:43:47.000Z</time>
      </trkpt>
      <trkpt lat="47.341096" lon="7.774242">
        <ele>738.024555</ele>
        <time>2022-08-25T18:43:50.000Z</time>
      </trkpt>
      <trkpt lat="47.340987" lon="7.774194">
        <ele>738.758000</ele>
        <time>2022-08-25T18:43:53.000Z</time>
      </trkpt>
      <trkpt lat="47.340877" lon="7.774140">
        <ele>739.505482</ele>
        <time>2022-08-25T18:43:56.000Z</time>
      </trkpt>
      <trkpt lat="47.340770" lon="7.774078">
        <ele>740.194863</ele>
        <time>2022-08-25T18:43:59.000Z</time>
      </trkpt>
      <trkpt lat="47.340642" lon="7.774041">
        <ele>740.970902</ele>
        <time>2022-08-25T18:44:02.000Z</time>
      </trkpt>
      <trkpt lat="47.340517" lon="7.774008">
        <ele>741.726427</ele>
        <time>2022-08-25T18:44:05.000Z</time>
      </trkpt>
      <trkpt lat="47.340401" lon="7.774010">
        <ele>742.416644</ele>
        <time>2022-08-25T18:44:08.000Z</time>
      </trkpt>
      <trkpt lat="47.340306" lon="7.774085">
        <ele>743.057671</ele>
        <time>2022-08-25T18:44:11.000Z</time>
      </trkpt>
      <trkpt lat="47.340236" lon="7.774220">
        <ele>743.743026</ele>
        <time>2022-08-25T18:44:14.000Z</time>
      </trkpt>
      <trkpt lat="47.340208" lon="7.774399">
        <ele>744.483697</ele>
        <time>2022-08-25T18:44:16.999Z</time>
      </trkpt>
      <trkpt lat="47.340212" lon="7.774578">
        <ele>745.205782</ele>
        <time>2022-08-25T18:44:19.999Z</time>
      </trkpt>
      <trkpt lat="47.340228" lon="7.774767">
        <ele>745.973716</ele>
        <time>2022-08-25T18:44:22.999Z</time>
      </trkpt>
      <trkpt lat="47.340252" lon="7.774950">
        <ele>746.725226</ele>
        <time>2022-08-25T18:44:25.999Z</time>
      </trkpt>
      <trkpt lat="47.340279" lon="7.775086">
        <ele>747.296599</ele>
        <time>2022-08-25T18:44:27.999Z</time>
      </trkpt>
      <trkpt lat="47.340294" lon="7.775267">
        <ele>748.031791</ele>
        <time>2022-08-25T18:44:30.999Z</time>
      </trkpt>
      <trkpt lat="47.340298" lon="7.775410">
        <ele>748.608829</ele>
        <time>2022-08-25T18:44:32.999Z</time>
      </trkpt>
      <trkpt lat="47.340304" lon="7.775607">
        <ele>749.403895</ele>
        <time>2022-08-25T18:44:35.999Z</time>
      </trkpt>
      <trkpt lat="47.340325" lon="7.775759">
        <ele>750.029335</ele>
        <time>2022-08-25T18:44:37.999Z</time>
      </trkpt>
      <trkpt lat="47.340343" lon="7.775930">
        <ele>750.773205</ele>
        <time>2022-08-25T18:44:40.999Z</time>
      </trkpt>
      <trkpt lat="47.340353" lon="7.776118">
        <ele>751.611572</ele>
        <time>2022-08-25T18:44:43.999Z</time>
      </trkpt>
      <trkpt lat="47.340370" lon="7.776301">
        <ele>752.432749</ele>
        <time>2022-08-25T18:44:46.999Z</time>
      </trkpt>
      <trkpt lat="47.340406" lon="7.776472">
        <ele>753.228810</ele>
        <time>2022-08-25T18:44:49.999Z</time>
      </trkpt>
      <trkpt lat="47.340415" lon="7.776666">
        <ele>754.093298</ele>
        <time>2022-08-25T18:44:52.999Z</time>
      </trkpt>
      <trkpt lat="47.340421" lon="7.776802">
        <ele>754.699196</ele>
        <time>2022-08-25T18:44:54.999Z</time>
      </trkpt>
      <trkpt lat="47.340437" lon="7.776984">
        <ele>755.515098</ele>
        <time>2022-08-25T18:44:57.999Z</time>
      </trkpt>
      <trkpt lat="47.340433" lon="7.777151">
        <ele>756.257996</ele>
        <time>2022-08-25T18:45:00.999Z</time>
      </trkpt>
      <trkpt lat="47.340422" lon="7.777342">
        <ele>757.110189</ele>
        <time>2022-08-25T18:45:03.999Z</time>
      </trkpt>
      <trkpt lat="47.340400" lon="7.777531">
        <ele>757.962737</ele>
        <time>2022-08-25T18:45:06.999Z</time>
      </trkpt>
      <trkpt lat="47.340391" lon="7.777716">
        <ele>758.787312</ele>
        <time>2022-08-25T18:45:09.999Z</time>
      </trkpt>
      <trkpt lat="47.340352" lon="7.777894">
        <ele>759.618986</ele>
        <time>2022-08-25T18:45:12.999Z</time>
      </trkpt>
      <trkpt lat="47.340329" lon="7.778068">
        <ele>760.407122</ele>
        <time>2022-08-25T18:45:15.999Z</time>
      </trkpt>
      <trkpt lat="47.340309" lon="7.778254">
        <ele>761.244373</ele>
        <time>2022-08-25T18:45:18.999Z</time>
      </trkpt>
      <trkpt lat="47.340286" lon="7.778430">
        <ele>762.041238</ele>
        <time>2022-08-25T18:45:21.999Z</time>
      </trkpt>
      <trkpt lat="47.340269" lon="7.778610">
        <ele>762.303871</ele>
        <time>2022-08-25T18:45:24.999Z</time>
      </trkpt>
      <trkpt lat="47.340249" lon="7.778790">
        <ele>762.541727</ele>
        <time>2022-08-25T18:45:27.999Z</time>
      </trkpt>
      <trkpt lat="47.340221" lon="7.778984">
        <ele>762.800380</ele>
        <time>2022-08-25T18:45:30.999Z</time>
      </trkpt>
      <trkpt lat="47.340205" lon="7.779174">
        <ele>763.050048</ele>
        <time>2022-08-25T18:45:33.999Z</time>
      </trkpt>
      <trkpt lat="47.340194" lon="7.779308">
        <ele>763.226063</ele>
        <time>2022-08-25T18:45:35.999Z</time>
      </trkpt>
      <trkpt lat="47.340183" lon="7.779440">
        <ele>763.399490</ele>
        <time>2022-08-25T18:45:38.000Z</time>
      </trkpt>
      <trkpt lat="47.340166" lon="7.779638">
        <ele>763.659749</ele>
        <time>2022-08-25T18:45:41.000Z</time>
      </trkpt>
      <trkpt lat="47.340157" lon="7.779771">
        <ele>763.834045</ele>
        <time>2022-08-25T18:45:43.000Z</time>
      </trkpt>
      <trkpt lat="47.340155" lon="7.779911">
        <ele>764.016648</ele>
        <time>2022-08-25T18:45:45.000Z</time>
      </trkpt>
      <trkpt lat="47.340158" lon="7.780051">
        <ele>764.199301</ele>
        <time>2022-08-25T18:45:47.000Z</time>
      </trkpt>
      <trkpt lat="47.340165" lon="7.780186">
        <ele>764.375857</ele>
        <time>2022-08-25T18:45:49.000Z</time>
      </trkpt>
      <trkpt lat="47.340162" lon="7.780359">
        <ele>764.601526</ele>
        <time>2022-08-25T18:45:52.000Z</time>
      </trkpt>
      <trkpt lat="47.340174" lon="7.780500">
        <ele>764.786836</ele>
        <time>2022-08-25T18:45:55.000Z</time>
      </trkpt>
      <trkpt lat="47.340178" lon="7.780657">
        <ele>764.991711</ele>
        <time>2022-08-25T18:45:58.000Z</time>
      </trkpt>
      <trkpt lat="47.340185" lon="7.780823">
        <ele>765.208596</ele>
        <time>2022-08-25T18:46:01.000Z</time>
      </trkpt>
      <trkpt lat="47.340197" lon="7.780987">
        <ele>765.423697</ele>
        <time>2022-08-25T18:46:04.000Z</time>
      </trkpt>
      <trkpt lat="47.340213" lon="7.781155">
        <ele>765.625699</ele>
        <time>2022-08-25T18:46:07.000Z</time>
      </trkpt>
      <trkpt lat="47.340219" lon="7.781322">
        <ele>765.804301</ele>
        <time>2022-08-25T18:46:10.000Z</time>
      </trkpt>
      <trkpt lat="47.340225" lon="7.781487">
        <ele>765.980769</ele>
        <time>2022-08-25T18:46:13.000Z</time>
      </trkpt>
      <trkpt lat="47.340210" lon="7.781652">
        <ele>766.158563</ele>
        <time>2022-08-25T18:46:16.000Z</time>
      </trkpt>
      <trkpt lat="47.340176" lon="7.781813">
        <ele>766.338663</ele>
        <time>2022-08-25T18:46:19.000Z</time>
      </trkpt>
      <trkpt lat="47.340134" lon="7.781988">
        <ele>766.536934</ele>
        <time>2022-08-25T18:46:22.000Z</time>
      </trkpt>
      <trkpt lat="47.340096" lon="7.782176">
        <ele>766.746454</ele>
        <time>2022-08-25T18:46:25.000Z</time>
      </trkpt>
      <trkpt lat="47.340066" lon="7.782314">
        <ele>766.901233</ele>
        <time>2022-08-25T18:46:27.000Z</time>
      </trkpt>
      <trkpt lat="47.340029" lon="7.782457">
        <ele>767.064707</ele>
        <time>2022-08-25T18:46:28.999Z</time>
      </trkpt>
      <trkpt lat="47.340000" lon="7.782608">
        <ele>767.232323</ele>
        <time>2022-08-25T18:46:30.999Z</time>
      </trkpt>
      <trkpt lat="47.339968" lon="7.782758">
        <ele>767.400270</ele>
        <time>2022-08-25T18:46:32.999Z</time>
      </trkpt>
      <trkpt lat="47.339933" lon="7.782906">
        <ele>767.567680</ele>
        <time>2022-08-25T18:46:34.999Z</time>
      </trkpt>
      <trkpt lat="47.339900" lon="7.783055">
        <ele>767.735092</ele>
        <time>2022-08-25T18:46:36.999Z</time>
      </trkpt>
      <trkpt lat="47.339867" lon="7.783202">
        <ele>767.900475</ele>
        <time>2022-08-25T18:46:38.999Z</time>
      </trkpt>
      <trkpt lat="47.339837" lon="7.783342">
        <ele>768.057289</ele>
        <time>2022-08-25T18:46:40.999Z</time>
      </trkpt>
      <trkpt lat="47.339808" lon="7.783498">
        <ele>768.230050</ele>
        <time>2022-08-25T18:46:42.999Z</time>
      </trkpt>
      <trkpt lat="47.339776" lon="7.783647">
        <ele>768.433259</ele>
        <time>2022-08-25T18:46:44.999Z</time>
      </trkpt>
      <trkpt lat="47.339748" lon="7.783804">
        <ele>768.873295</ele>
        <time>2022-08-25T18:46:46.999Z</time>
      </trkpt>
      <trkpt lat="47.339716" lon="7.783957">
        <ele>769.307300</ele>
        <time>2022-08-25T18:46:48.999Z</time>
      </trkpt>
      <trkpt lat="47.339682" lon="7.784114">
        <ele>769.754048</ele>
        <time>2022-08-25T18:46:50.999Z</time>
      </trkpt>
      <trkpt lat="47.339646" lon="7.784269">
        <ele>770.198163</ele>
        <time>2022-08-25T18:46:52.999Z</time>
      </trkpt>
      <trkpt lat="47.339618" lon="7.784423">
        <ele>770.630341</ele>
        <time>2022-08-25T18:46:54.999Z</time>
      </trkpt>
      <trkpt lat="47.339586" lon="7.784567">
        <ele>771.041102</ele>
        <time>2022-08-25T18:46:56.999Z</time>
      </trkpt>
      <trkpt lat="47.339551" lon="7.784715">
        <ele>771.465979</ele>
        <time>2022-08-25T18:46:58.999Z</time>
      </trkpt>
      <trkpt lat="47.339533" lon="7.784861">
        <ele>771.868206</ele>
        <time>2022-08-25T18:47:00.999Z</time>
      </trkpt>
      <trkpt lat="47.339494" lon="7.785000">
        <ele>772.275981</ele>
        <time>2022-08-25T18:47:02.999Z</time>
      </trkpt>
      <trkpt lat="47.339465" lon="7.785138">
        <ele>772.667602</ele>
        <time>2022-08-25T18:47:04.999Z</time>
      </trkpt>
      <trkpt lat="47.339440" lon="7.785278">
        <ele>773.060025</ele>
        <time>2022-08-25T18:47:06.999Z</time>
      </trkpt>
      <trkpt lat="47.339413" lon="7.785421">
        <ele>773.462389</ele>
        <time>2022-08-25T18:47:08.999Z</time>
      </trkpt>
      <trkpt lat="47.339392" lon="7.785561">
        <ele>773.851043</ele>
        <time>2022-08-25T18:47:10.999Z</time>
      </trkpt>
      <trkpt lat="47.339367" lon="7.785702">
        <ele>774.246088</ele>
        <time>2022-08-25T18:47:12.999Z</time>
      </trkpt>
      <trkpt lat="47.339350" lon="7.785845">
        <ele>774.639609</ele>
        <time>2022-08-25T18:47:14.999Z</time>
      </trkpt>
      <trkpt lat="47.339338" lon="7.785983">
        <ele>775.016724</ele>
        <time>2022-08-25T18:47:16.999Z</time>
      </trkpt>
      <trkpt lat="47.339330" lon="7.786124">
        <ele>775.400242</ele>
        <time>2022-08-25T18:47:18.999Z</time>
      </trkpt>
      <trkpt lat="47.339316" lon="7.786264">
        <ele>775.666204</ele>
        <time>2022-08-25T18:47:20.999Z</time>
      </trkpt>
      <trkpt lat="47.339314" lon="7.786402">
        <ele>775.836786</ele>
        <time>2022-08-25T18:47:22.999Z</time>
      </trkpt>
      <trkpt lat="47.339307" lon="7.786540">
        <ele>776.007806</ele>
        <time>2022-08-25T18:47:24.999Z</time>
      </trkpt>
      <trkpt lat="47.339301" lon="7.786679">
        <ele>776.179933</ele>
        <time>2022-08-25T18:47:26.999Z</time>
      </trkpt>
      <trkpt lat="47.339295" lon="7.786811">
        <ele>776.343428</ele>
        <time>2022-08-25T18:47:28.999Z</time>
      </trkpt>
      <trkpt lat="47.339293" lon="7.787006">
        <ele>776.584440</ele>
        <time>2022-08-25T18:47:31.999Z</time>
      </trkpt>
      <trkpt lat="47.339286" lon="7.787141">
        <ele>776.751763</ele>
        <time>2022-08-25T18:47:33.999Z</time>
      </trkpt>
      <trkpt lat="47.339288" lon="7.787338">
        <ele>776.995247</ele>
        <time>2022-08-25T18:47:36.999Z</time>
      </trkpt>
      <trkpt lat="47.339291" lon="7.787524">
        <ele>777.225175</ele>
        <time>2022-08-25T18:47:39.999Z</time>
      </trkpt>
      <trkpt lat="47.339282" lon="7.787696">
        <ele>777.438368</ele>
        <time>2022-08-25T18:47:43.000Z</time>
      </trkpt>
      <trkpt lat="47.339274" lon="7.787874">
        <ele>777.658827</ele>
        <time>2022-08-25T18:47:46.000Z</time>
      </trkpt>
      <trkpt lat="47.339273" lon="7.788007">
        <ele>777.823202</ele>
        <time>2022-08-25T18:47:48.000Z</time>
      </trkpt>
      <trkpt lat="47.339269" lon="7.788201">
        <ele>778.063062</ele>
        <time>2022-08-25T18:47:51.000Z</time>
      </trkpt>
      <trkpt lat="47.339266" lon="7.788397">
        <ele>778.305344</ele>
        <time>2022-08-25T18:47:54.000Z</time>
      </trkpt>
      <trkpt lat="47.339282" lon="7.788591">
        <ele>778.546862</ele>
        <time>2022-08-25T18:47:57.000Z</time>
      </trkpt>
      <trkpt lat="47.339305" lon="7.788777">
        <ele>778.780520</ele>
        <time>2022-08-25T18:48:00.000Z</time>
      </trkpt>
      <trkpt lat="47.339323" lon="7.788910">
        <ele>778.554473</ele>
        <time>2022-08-25T18:48:02.000Z</time>
      </trkpt>
      <trkpt lat="47.339342" lon="7.789056">
        <ele>778.017557</ele>
        <time>2022-08-25T18:48:04.000Z</time>
      </trkpt>
      <trkpt lat="47.339365" lon="7.789226">
        <ele>777.391484</ele>
        <time>2022-08-25T18:48:06.000Z</time>
      </trkpt>
      <trkpt lat="47.339394" lon="7.789414">
        <ele>776.695152</ele>
        <time>2022-08-25T18:48:08.000Z</time>
      </trkpt>
      <trkpt lat="47.339423" lon="7.789623">
        <ele>775.924686</ele>
        <time>2022-08-25T18:48:10.000Z</time>
      </trkpt>
      <trkpt lat="47.339455" lon="7.789843">
        <ele>775.112058</ele>
        <time>2022-08-25T18:48:12.000Z</time>
      </trkpt>
      <trkpt lat="47.339490" lon="7.790077">
        <ele>774.246626</ele>
        <time>2022-08-25T18:48:14.000Z</time>
      </trkpt>
      <trkpt lat="47.339514" lon="7.790332">
        <ele>773.316853</ele>
        <time>2022-08-25T18:48:16.000Z</time>
      </trkpt>
      <trkpt lat="47.339550" lon="7.790597">
        <ele>772.340764</ele>
        <time>2022-08-25T18:48:18.000Z</time>
      </trkpt>
      <trkpt lat="47.339575" lon="7.790734">
        <ele>771.828364</ele>
        <time>2022-08-25T18:48:19.000Z</time>
      </trkpt>
      <trkpt lat="47.339593" lon="7.790875">
        <ele>771.310186</ele>
        <time>2022-08-25T18:48:20.000Z</time>
      </trkpt>
      <trkpt lat="47.339610" lon="7.791017">
        <ele>770.789412</ele>
        <time>2022-08-25T18:48:21.000Z</time>
      </trkpt>
      <trkpt lat="47.339628" lon="7.791160">
        <ele>770.264135</ele>
        <time>2022-08-25T18:48:22.000Z</time>
      </trkpt>
      <trkpt lat="47.339633" lon="7.791310">
        <ele>769.721756</ele>
        <time>2022-08-25T18:48:23.000Z</time>
      </trkpt>
      <trkpt lat="47.339668" lon="7.791453">
        <ele>769.176877</ele>
        <time>2022-08-25T18:48:24.000Z</time>
      </trkpt>
      <trkpt lat="47.339683" lon="7.791601">
        <ele>768.661937</ele>
        <time>2022-08-25T18:48:25.000Z</time>
      </trkpt>
      <trkpt lat="47.339701" lon="7.791753">
        <ele>768.130970</ele>
        <time>2022-08-25T18:48:26.000Z</time>
      </trkpt>
      <trkpt lat="47.339720" lon="7.791905">
        <ele>767.599106</ele>
        <time>2022-08-25T18:48:27.000Z</time>
      </trkpt>
      <trkpt lat="47.339741" lon="7.792055">
        <ele>767.072049</ele>
        <time>2022-08-25T18:48:28.000Z</time>
      </trkpt>
      <trkpt lat="47.339761" lon="7.792203">
        <ele>766.552746</ele>
        <time>2022-08-25T18:48:29.000Z</time>
      </trkpt>
      <trkpt lat="47.339785" lon="7.792355">
        <ele>766.015696</ele>
        <time>2022-08-25T18:48:30.000Z</time>
      </trkpt>
      <trkpt lat="47.339808" lon="7.792510">
        <ele>765.469697</ele>
        <time>2022-08-25T18:48:30.999Z</time>
      </trkpt>
      <trkpt lat="47.339829" lon="7.792660">
        <ele>764.942640</ele>
        <time>2022-08-25T18:48:31.999Z</time>
      </trkpt>
      <trkpt lat="47.339853" lon="7.792810">
        <ele>764.412291</ele>
        <time>2022-08-25T18:48:32.999Z</time>
      </trkpt>
      <trkpt lat="47.339873" lon="7.792962">
        <ele>763.879484</ele>
        <time>2022-08-25T18:48:33.999Z</time>
      </trkpt>
      <trkpt lat="47.339892" lon="7.793114">
        <ele>763.347622</ele>
        <time>2022-08-25T18:48:34.999Z</time>
      </trkpt>
      <trkpt lat="47.339913" lon="7.793264">
        <ele>762.820566</ele>
        <time>2022-08-25T18:48:35.999Z</time>
      </trkpt>
      <trkpt lat="47.339934" lon="7.793413">
        <ele>762.296879</ele>
        <time>2022-08-25T18:48:36.999Z</time>
      </trkpt>
      <trkpt lat="47.339956" lon="7.793563">
        <ele>761.768772</ele>
        <time>2022-08-25T18:48:37.999Z</time>
      </trkpt>
      <trkpt lat="47.339976" lon="7.793716">
        <ele>761.232588</ele>
        <time>2022-08-25T18:48:38.999Z</time>
      </trkpt>
      <trkpt lat="47.339996" lon="7.793860">
        <ele>760.726779</ele>
        <time>2022-08-25T18:48:39.999Z</time>
      </trkpt>
      <trkpt lat="47.340036" lon="7.793996">
        <ele>760.216620</ele>
        <time>2022-08-25T18:48:40.999Z</time>
      </trkpt>
      <trkpt lat="47.340078" lon="7.794138">
        <ele>759.627107</ele>
        <time>2022-08-25T18:48:41.999Z</time>
      </trkpt>
      <trkpt lat="47.340124" lon="7.794275">
        <ele>759.034372</ele>
        <time>2022-08-25T18:48:42.999Z</time>
      </trkpt>
      <trkpt lat="47.340162" lon="7.794412">
        <ele>758.460490</ele>
        <time>2022-08-25T18:48:43.999Z</time>
      </trkpt>
      <trkpt lat="47.340202" lon="7.794547">
        <ele>757.889290</ele>
        <time>2022-08-25T18:48:44.999Z</time>
      </trkpt>
      <trkpt lat="47.340240" lon="7.794684">
        <ele>757.315408</ele>
        <time>2022-08-25T18:48:45.999Z</time>
      </trkpt>
      <trkpt lat="47.340281" lon="7.794818">
        <ele>756.745428</ele>
        <time>2022-08-25T18:48:46.999Z</time>
      </trkpt>
      <trkpt lat="47.340319" lon="7.794955">
        <ele>756.171548</ele>
        <time>2022-08-25T18:48:47.999Z</time>
      </trkpt>
      <trkpt lat="47.340351" lon="7.795096">
        <ele>755.595089</ele>
        <time>2022-08-25T18:48:48.999Z</time>
      </trkpt>
      <trkpt lat="47.340381" lon="7.795236">
        <ele>755.025859</ele>
        <time>2022-08-25T18:48:49.999Z</time>
      </trkpt>
      <trkpt lat="47.340408" lon="7.795378">
        <ele>754.454106</ele>
        <time>2022-08-25T18:48:50.999Z</time>
      </trkpt>
      <trkpt lat="47.340435" lon="7.795522">
        <ele>753.874884</ele>
        <time>2022-08-25T18:48:51.999Z</time>
      </trkpt>
      <trkpt lat="47.340461" lon="7.795664">
        <ele>753.304650</ele>
        <time>2022-08-25T18:48:52.999Z</time>
      </trkpt>
      <trkpt lat="47.340489" lon="7.795812">
        <ele>752.708956</ele>
        <time>2022-08-25T18:48:53.999Z</time>
      </trkpt>
      <trkpt lat="47.340520" lon="7.795959">
        <ele>752.112122</ele>
        <time>2022-08-25T18:48:54.999Z</time>
      </trkpt>
      <trkpt lat="47.340553" lon="7.796109">
        <ele>751.500738</ele>
        <time>2022-08-25T18:48:55.999Z</time>
      </trkpt>
      <trkpt lat="47.340582" lon="7.796264">
        <ele>750.877366</ele>
        <time>2022-08-25T18:48:56.999Z</time>
      </trkpt>
      <trkpt lat="47.340604" lon="7.796421">
        <ele>750.255848</ele>
        <time>2022-08-25T18:48:57.999Z</time>
      </trkpt>
      <trkpt lat="47.340632" lon="7.796576">
        <ele>749.564857</ele>
        <time>2022-08-25T18:48:58.999Z</time>
      </trkpt>
      <trkpt lat="47.340672" lon="7.796730">
        <ele>748.709763</ele>
        <time>2022-08-25T18:48:59.999Z</time>
      </trkpt>
      <trkpt lat="47.340703" lon="7.796894">
        <ele>747.827005</ele>
        <time>2022-08-25T18:49:00.999Z</time>
      </trkpt>
      <trkpt lat="47.340723" lon="7.797060">
        <ele>746.952842</ele>
        <time>2022-08-25T18:49:01.999Z</time>
      </trkpt>
      <trkpt lat="47.340748" lon="7.797226">
        <ele>746.071178</ele>
        <time>2022-08-25T18:49:02.999Z</time>
      </trkpt>
      <trkpt lat="47.340785" lon="7.797390">
        <ele>745.174995</ele>
        <time>2022-08-25T18:49:03.999Z</time>
      </trkpt>
      <trkpt lat="47.340821" lon="7.797555">
        <ele>744.276266</ele>
        <time>2022-08-25T18:49:04.999Z</time>
      </trkpt>
      <trkpt lat="47.340861" lon="7.797718">
        <ele>743.377448</ele>
        <time>2022-08-25T18:49:05.999Z</time>
      </trkpt>
      <trkpt lat="47.340921" lon="7.797867">
        <ele>742.478818</ele>
        <time>2022-08-25T18:49:06.999Z</time>
      </trkpt>
      <trkpt lat="47.340994" lon="7.798008">
        <ele>741.558824</ele>
        <time>2022-08-25T18:49:07.999Z</time>
      </trkpt>
      <trkpt lat="47.341071" lon="7.798145">
        <ele>740.635992</ele>
        <time>2022-08-25T18:49:08.999Z</time>
      </trkpt>
      <trkpt lat="47.341146" lon="7.798287">
        <ele>739.702547</ele>
        <time>2022-08-25T18:49:09.999Z</time>
      </trkpt>
      <trkpt lat="47.341207" lon="7.798443">
        <ele>738.768735</ele>
        <time>2022-08-25T18:49:10.999Z</time>
      </trkpt>
      <trkpt lat="47.341280" lon="7.798591">
        <ele>737.819650</ele>
        <time>2022-08-25T18:49:11.999Z</time>
      </trkpt>
      <trkpt lat="47.341336" lon="7.798757">
        <ele>736.858239</ele>
        <time>2022-08-25T18:49:12.999Z</time>
      </trkpt>
      <trkpt lat="47.341418" lon="7.798908">
        <ele>735.854035</ele>
        <time>2022-08-25T18:49:13.999Z</time>
      </trkpt>
      <trkpt lat="47.341474" lon="7.799080">
        <ele>734.860487</ele>
        <time>2022-08-25T18:49:14.999Z</time>
      </trkpt>
      <trkpt lat="47.341536" lon="7.799249">
        <ele>733.859886</ele>
        <time>2022-08-25T18:49:15.999Z</time>
      </trkpt>
      <trkpt lat="47.341598" lon="7.799418">
        <ele>732.859287</ele>
        <time>2022-08-25T18:49:16.999Z</time>
      </trkpt>
      <trkpt lat="47.341661" lon="7.799585">
        <ele>731.864118</ele>
        <time>2022-08-25T18:49:17.999Z</time>
      </trkpt>
      <trkpt lat="47.341722" lon="7.799760">
        <ele>730.839478</ele>
        <time>2022-08-25T18:49:18.999Z</time>
      </trkpt>
      <trkpt lat="47.341784" lon="7.799929">
        <ele>729.838880</ele>
        <time>2022-08-25T18:49:19.999Z</time>
      </trkpt>
      <trkpt lat="47.341850" lon="7.800104">
        <ele>728.796109</ele>
        <time>2022-08-25T18:49:20.999Z</time>
      </trkpt>
      <trkpt lat="47.341920" lon="7.800276">
        <ele>727.751471</ele>
        <time>2022-08-25T18:49:21.999Z</time>
      </trkpt>
      <trkpt lat="47.341982" lon="7.800449">
        <ele>726.732514</ele>
        <time>2022-08-25T18:49:22.999Z</time>
      </trkpt>
      <trkpt lat="47.342050" lon="7.800620">
        <ele>725.700201</ele>
        <time>2022-08-25T18:49:23.999Z</time>
      </trkpt>
      <trkpt lat="47.342119" lon="7.800791">
        <ele>724.663979</ele>
        <time>2022-08-25T18:49:24.999Z</time>
      </trkpt>
      <trkpt lat="47.342189" lon="7.800959">
        <ele>723.637143</ele>
        <time>2022-08-25T18:49:25.999Z</time>
      </trkpt>
      <trkpt lat="47.342263" lon="7.801126">
        <ele>722.598243</ele>
        <time>2022-08-25T18:49:26.999Z</time>
      </trkpt>
      <trkpt lat="47.342339" lon="7.801292">
        <ele>721.532027</ele>
        <time>2022-08-25T18:49:27.999Z</time>
      </trkpt>
      <trkpt lat="47.342419" lon="7.801449">
        <ele>720.475541</ele>
        <time>2022-08-25T18:49:28.999Z</time>
      </trkpt>
      <trkpt lat="47.342488" lon="7.801619">
        <ele>719.409768</ele>
        <time>2022-08-25T18:49:29.999Z</time>
      </trkpt>
      <trkpt lat="47.342555" lon="7.801790">
        <ele>718.347413</ele>
        <time>2022-08-25T18:49:30.999Z</time>
      </trkpt>
      <trkpt lat="47.342617" lon="7.801964">
        <ele>717.290104</ele>
        <time>2022-08-25T18:49:31.999Z</time>
      </trkpt>
      <trkpt lat="47.342674" lon="7.802149">
        <ele>716.197107</ele>
        <time>2022-08-25T18:49:32.999Z</time>
      </trkpt>
      <trkpt lat="47.342730" lon="7.802321">
        <ele>715.170813</ele>
        <time>2022-08-25T18:49:33.999Z</time>
      </trkpt>
      <trkpt lat="47.342794" lon="7.802514">
        <ele>714.015189</ele>
        <time>2022-08-25T18:49:34.999Z</time>
      </trkpt>
      <trkpt lat="47.342849" lon="7.802699">
        <ele>712.928669</ele>
        <time>2022-08-25T18:49:35.999Z</time>
      </trkpt>
      <trkpt lat="47.342904" lon="7.802879">
        <ele>711.866721</ele>
        <time>2022-08-25T18:49:36.999Z</time>
      </trkpt>
      <trkpt lat="47.342957" lon="7.803065">
        <ele>710.781527</ele>
        <time>2022-08-25T18:49:37.999Z</time>
      </trkpt>
      <trkpt lat="47.343006" lon="7.803260">
        <ele>709.662991</ele>
        <time>2022-08-25T18:49:38.999Z</time>
      </trkpt>
      <trkpt lat="47.343053" lon="7.803450">
        <ele>708.575174</ele>
        <time>2022-08-25T18:49:39.999Z</time>
      </trkpt>
      <trkpt lat="47.343107" lon="7.803630">
        <ele>707.730932</ele>
        <time>2022-08-25T18:49:40.999Z</time>
      </trkpt>
      <trkpt lat="47.343136" lon="7.803827">
        <ele>707.147159</ele>
        <time>2022-08-25T18:49:41.999Z</time>
      </trkpt>
      <trkpt lat="47.343173" lon="7.804030">
        <ele>706.538423</ele>
        <time>2022-08-25T18:49:42.999Z</time>
      </trkpt>
      <trkpt lat="47.343203" lon="7.804229">
        <ele>705.948076</ele>
        <time>2022-08-25T18:49:43.999Z</time>
      </trkpt>
      <trkpt lat="47.343227" lon="7.804428">
        <ele>705.362763</ele>
        <time>2022-08-25T18:49:44.999Z</time>
      </trkpt>
      <trkpt lat="47.343251" lon="7.804633">
        <ele>704.760337</ele>
        <time>2022-08-25T18:49:45.999Z</time>
      </trkpt>
      <trkpt lat="47.343266" lon="7.804839">
        <ele>704.160375</ele>
        <time>2022-08-25T18:49:46.999Z</time>
      </trkpt>
      <trkpt lat="47.343279" lon="7.805034">
        <ele>703.592976</ele>
        <time>2022-08-25T18:49:47.999Z</time>
      </trkpt>
      <trkpt lat="47.343307" lon="7.805229">
        <ele>703.015764</ele>
        <time>2022-08-25T18:49:49.000Z</time>
      </trkpt>
      <trkpt lat="47.343310" lon="7.805421">
        <ele>702.459630</ele>
        <time>2022-08-25T18:49:50.000Z</time>
      </trkpt>
      <trkpt lat="47.343319" lon="7.805603">
        <ele>701.931201</ele>
        <time>2022-08-25T18:49:51.000Z</time>
      </trkpt>
      <trkpt lat="47.343327" lon="7.805787">
        <ele>701.397285</ele>
        <time>2022-08-25T18:49:52.000Z</time>
      </trkpt>
      <trkpt lat="47.343336" lon="7.805954">
        <ele>700.912167</ele>
        <time>2022-08-25T18:49:53.000Z</time>
      </trkpt>
      <trkpt lat="47.343346" lon="7.806134">
        <ele>700.389182</ele>
        <time>2022-08-25T18:49:54.000Z</time>
      </trkpt>
      <trkpt lat="47.343353" lon="7.806314">
        <ele>700.033263</ele>
        <time>2022-08-25T18:49:55.000Z</time>
      </trkpt>
      <trkpt lat="47.343367" lon="7.806479">
        <ele>699.738923</ele>
        <time>2022-08-25T18:49:56.000Z</time>
      </trkpt>
      <trkpt lat="47.343374" lon="7.806647">
        <ele>699.440992</ele>
        <time>2022-08-25T18:49:57.000Z</time>
      </trkpt>
      <trkpt lat="47.343384" lon="7.806817">
        <ele>699.138951</ele>
        <time>2022-08-25T18:49:58.000Z</time>
      </trkpt>
      <trkpt lat="47.343390" lon="7.806978">
        <ele>698.853541</ele>
        <time>2022-08-25T18:49:59.000Z</time>
      </trkpt>
      <trkpt lat="47.343401" lon="7.807138">
        <ele>698.568878</ele>
        <time>2022-08-25T18:50:00.000Z</time>
      </trkpt>
      <trkpt lat="47.343417" lon="7.807292">
        <ele>698.293104</ele>
        <time>2022-08-25T18:50:01.000Z</time>
      </trkpt>
      <trkpt lat="47.343423" lon="7.807451">
        <ele>698.011229</ele>
        <time>2022-08-25T18:50:02.000Z</time>
      </trkpt>
      <trkpt lat="47.343430" lon="7.807604">
        <ele>697.739794</ele>
        <time>2022-08-25T18:50:03.000Z</time>
      </trkpt>
      <trkpt lat="47.343439" lon="7.807756">
        <ele>697.469720</ele>
        <time>2022-08-25T18:50:04.000Z</time>
      </trkpt>
      <trkpt lat="47.343444" lon="7.807902">
        <ele>697.210962</ele>
        <time>2022-08-25T18:50:05.000Z</time>
      </trkpt>
      <trkpt lat="47.343449" lon="7.808049">
        <ele>696.950436</ele>
        <time>2022-08-25T18:50:06.000Z</time>
      </trkpt>
      <trkpt lat="47.343455" lon="7.808195">
        <ele>696.691534</ele>
        <time>2022-08-25T18:50:07.000Z</time>
      </trkpt>
      <trkpt lat="47.343463" lon="7.808338">
        <ele>696.437555</ele>
        <time>2022-08-25T18:50:08.000Z</time>
      </trkpt>
      <trkpt lat="47.343472" lon="7.808480">
        <ele>696.185110</ele>
        <time>2022-08-25T18:50:09.000Z</time>
      </trkpt>
      <trkpt lat="47.343482" lon="7.808623">
        <ele>695.930648</ele>
        <time>2022-08-25T18:50:10.000Z</time>
      </trkpt>
      <trkpt lat="47.343495" lon="7.808761">
        <ele>695.684031</ele>
        <time>2022-08-25T18:50:11.000Z</time>
      </trkpt>
      <trkpt lat="47.343509" lon="7.808899">
        <ele>695.420557</ele>
        <time>2022-08-25T18:50:12.000Z</time>
      </trkpt>
      <trkpt lat="47.343525" lon="7.809036">
        <ele>695.148980</ele>
        <time>2022-08-25T18:50:13.000Z</time>
      </trkpt>
      <trkpt lat="47.343546" lon="7.809168">
        <ele>694.884104</ele>
        <time>2022-08-25T18:50:14.000Z</time>
      </trkpt>
      <trkpt lat="47.343589" lon="7.809419">
        <ele>694.378344</ele>
        <time>2022-08-25T18:50:16.000Z</time>
      </trkpt>
      <trkpt lat="47.343627" lon="7.809673">
        <ele>693.870202</ele>
        <time>2022-08-25T18:50:18.000Z</time>
      </trkpt>
      <trkpt lat="47.343677" lon="7.809921">
        <ele>693.364742</ele>
        <time>2022-08-25T18:50:20.000Z</time>
      </trkpt>
      <trkpt lat="47.343719" lon="7.810168">
        <ele>692.867265</ele>
        <time>2022-08-25T18:50:22.000Z</time>
      </trkpt>
      <trkpt lat="47.343765" lon="7.810420">
        <ele>692.357431</ele>
        <time>2022-08-25T18:50:24.000Z</time>
      </trkpt>
      <trkpt lat="47.343808" lon="7.810668">
        <ele>691.857353</ele>
        <time>2022-08-25T18:50:26.000Z</time>
      </trkpt>
      <trkpt lat="47.343842" lon="7.810915">
        <ele>691.364982</ele>
        <time>2022-08-25T18:50:28.000Z</time>
      </trkpt>
      <trkpt lat="47.343844" lon="7.811172">
        <ele>690.862899</ele>
        <time>2022-08-25T18:50:29.999Z</time>
      </trkpt>
      <trkpt lat="47.343813" lon="7.811428">
        <ele>690.331609</ele>
        <time>2022-08-25T18:50:31.999Z</time>
      </trkpt>
      <trkpt lat="47.343785" lon="7.811682">
        <ele>689.619051</ele>
        <time>2022-08-25T18:50:33.999Z</time>
      </trkpt>
      <trkpt lat="47.343767" lon="7.811929">
        <ele>688.931177</ele>
        <time>2022-08-25T18:50:35.999Z</time>
      </trkpt>
      <trkpt lat="47.343735" lon="7.812181">
        <ele>688.221255</ele>
        <time>2022-08-25T18:50:37.999Z</time>
      </trkpt>
      <trkpt lat="47.343738" lon="7.812315">
        <ele>687.850013</ele>
        <time>2022-08-25T18:50:38.999Z</time>
      </trkpt>
      <trkpt lat="47.343698" lon="7.812566">
        <ele>687.136044</ele>
        <time>2022-08-25T18:50:40.999Z</time>
      </trkpt>
      <trkpt lat="47.343637" lon="7.812804">
        <ele>686.431465</ele>
        <time>2022-08-25T18:50:42.999Z</time>
      </trkpt>
      <trkpt lat="47.343569" lon="7.813041">
        <ele>685.718816</ele>
        <time>2022-08-25T18:50:44.999Z</time>
      </trkpt>
      <trkpt lat="47.343555" lon="7.813292">
        <ele>685.021457</ele>
        <time>2022-08-25T18:50:46.999Z</time>
      </trkpt>
      <trkpt lat="47.343562" lon="7.813555">
        <ele>684.292659</ele>
        <time>2022-08-25T18:50:48.999Z</time>
      </trkpt>
      <trkpt lat="47.343569" lon="7.813692">
        <ele>683.912235</ele>
        <time>2022-08-25T18:50:49.999Z</time>
      </trkpt>
      <trkpt lat="47.343572" lon="7.813831">
        <ele>683.527155</ele>
        <time>2022-08-25T18:50:50.999Z</time>
      </trkpt>
      <trkpt lat="47.343580" lon="7.813974">
        <ele>683.129846</ele>
        <time>2022-08-25T18:50:51.999Z</time>
      </trkpt>
      <trkpt lat="47.343583" lon="7.814120">
        <ele>682.584592</ele>
        <time>2022-08-25T18:50:52.999Z</time>
      </trkpt>
      <trkpt lat="47.343588" lon="7.814272">
        <ele>681.986231</ele>
        <time>2022-08-25T18:50:53.999Z</time>
      </trkpt>
      <trkpt lat="47.343602" lon="7.814421">
        <ele>681.394765</ele>
        <time>2022-08-25T18:50:54.999Z</time>
      </trkpt>
      <trkpt lat="47.343618" lon="7.814574">
        <ele>680.786054</ele>
        <time>2022-08-25T18:50:55.999Z</time>
      </trkpt>
      <trkpt lat="47.343645" lon="7.814728">
        <ele>680.160593</ele>
        <time>2022-08-25T18:50:56.999Z</time>
      </trkpt>
      <trkpt lat="47.343660" lon="7.814883">
        <ele>679.544956</ele>
        <time>2022-08-25T18:50:57.999Z</time>
      </trkpt>
      <trkpt lat="47.343681" lon="7.815032">
        <ele>678.946557</ele>
        <time>2022-08-25T18:50:58.999Z</time>
      </trkpt>
      <trkpt lat="47.343705" lon="7.815187">
        <ele>678.321396</ele>
        <time>2022-08-25T18:50:59.999Z</time>
      </trkpt>
      <trkpt lat="47.343727" lon="7.815344">
        <ele>677.691019</ele>
        <time>2022-08-25T18:51:00.999Z</time>
      </trkpt>
      <trkpt lat="47.343751" lon="7.815502">
        <ele>677.054354</ele>
        <time>2022-08-25T18:51:01.999Z</time>
      </trkpt>
      <trkpt lat="47.343764" lon="7.815664">
        <ele>676.412928</ele>
        <time>2022-08-25T18:51:02.999Z</time>
      </trkpt>
      <trkpt lat="47.343781" lon="7.815825">
        <ele>675.772246</ele>
        <time>2022-08-25T18:51:03.999Z</time>
      </trkpt>
      <trkpt lat="47.343800" lon="7.815987">
        <ele>675.125800</ele>
        <time>2022-08-25T18:51:04.999Z</time>
      </trkpt>
      <trkpt lat="47.343816" lon="7.816153">
        <ele>674.466528</ele>
        <time>2022-08-25T18:51:05.999Z</time>
      </trkpt>
      <trkpt lat="47.343821" lon="7.816328">
        <ele>673.777828</ele>
        <time>2022-08-25T18:51:06.999Z</time>
      </trkpt>
      <trkpt lat="47.343843" lon="7.816497">
        <ele>673.101179</ele>
        <time>2022-08-25T18:51:07.999Z</time>
      </trkpt>
      <trkpt lat="47.343843" lon="7.816675">
        <ele>672.500799</ele>
        <time>2022-08-25T18:51:08.999Z</time>
      </trkpt>
      <trkpt lat="47.343838" lon="7.816855">
        <ele>672.109621</ele>
        <time>2022-08-25T18:51:09.999Z</time>
      </trkpt>
      <trkpt lat="47.343814" lon="7.817021">
        <ele>671.741057</ele>
        <time>2022-08-25T18:51:10.999Z</time>
      </trkpt>
      <trkpt lat="47.343802" lon="7.817176">
        <ele>671.402302</ele>
        <time>2022-08-25T18:51:11.999Z</time>
      </trkpt>
      <trkpt lat="47.343821" lon="7.817318">
        <ele>671.088011</ele>
        <time>2022-08-25T18:51:12.999Z</time>
      </trkpt>
      <trkpt lat="47.343850" lon="7.817456">
        <ele>670.774280</ele>
        <time>2022-08-25T18:51:13.999Z</time>
      </trkpt>
      <trkpt lat="47.343914" lon="7.817564">
        <ele>670.462740</ele>
        <time>2022-08-25T18:51:14.999Z</time>
      </trkpt>
      <trkpt lat="47.343975" lon="7.817689">
        <ele>670.128253</ele>
        <time>2022-08-25T18:51:15.999Z</time>
      </trkpt>
      <trkpt lat="47.344053" lon="7.817788">
        <ele>669.798574</ele>
        <time>2022-08-25T18:51:16.999Z</time>
      </trkpt>
      <trkpt lat="47.344125" lon="7.817889">
        <ele>669.480248</ele>
        <time>2022-08-25T18:51:17.999Z</time>
      </trkpt>
      <trkpt lat="47.344198" lon="7.817994">
        <ele>669.153591</ele>
        <time>2022-08-25T18:51:18.999Z</time>
      </trkpt>
      <trkpt lat="47.344249" lon="7.818125">
        <ele>668.825533</ele>
        <time>2022-08-25T18:51:19.999Z</time>
      </trkpt>
      <trkpt lat="47.344288" lon="7.818256">
        <ele>668.514839</ele>
        <time>2022-08-25T18:51:20.999Z</time>
      </trkpt>
      <trkpt lat="47.344326" lon="7.818380">
        <ele>668.219333</ele>
        <time>2022-08-25T18:51:21.999Z</time>
      </trkpt>
      <trkpt lat="47.344359" lon="7.818504">
        <ele>667.930061</ele>
        <time>2022-08-25T18:51:22.999Z</time>
      </trkpt>
      <trkpt lat="47.344391" lon="7.818759">
        <ele>667.366947</ele>
        <time>2022-08-25T18:51:24.999Z</time>
      </trkpt>
      <trkpt lat="47.344406" lon="7.819005">
        <ele>666.798512</ele>
        <time>2022-08-25T18:51:26.999Z</time>
      </trkpt>
      <trkpt lat="47.344418" lon="7.819244">
        <ele>665.703049</ele>
        <time>2022-08-25T18:51:28.999Z</time>
      </trkpt>
      <trkpt lat="47.344395" lon="7.819483">
        <ele>664.599618</ele>
        <time>2022-08-25T18:51:30.999Z</time>
      </trkpt>
      <trkpt lat="47.344387" lon="7.819720">
        <ele>663.514949</ele>
        <time>2022-08-25T18:51:32.999Z</time>
      </trkpt>
      <trkpt lat="47.344433" lon="7.819965">
        <ele>662.352858</ele>
        <time>2022-08-25T18:51:34.999Z</time>
      </trkpt>
      <trkpt lat="47.344452" lon="7.820099">
        <ele>661.727078</ele>
        <time>2022-08-25T18:51:35.999Z</time>
      </trkpt>
      <trkpt lat="47.344474" lon="7.820239">
        <ele>661.070155</ele>
        <time>2022-08-25T18:51:36.999Z</time>
      </trkpt>
      <trkpt lat="47.344468" lon="7.820385">
        <ele>660.401565</ele>
        <time>2022-08-25T18:51:37.999Z</time>
      </trkpt>
      <trkpt lat="47.344471" lon="7.820531">
        <ele>659.733893</ele>
        <time>2022-08-25T18:51:38.999Z</time>
      </trkpt>
      <trkpt lat="47.344477" lon="7.820688">
        <ele>659.015108</ele>
        <time>2022-08-25T18:51:39.999Z</time>
      </trkpt>
      <trkpt lat="47.344472" lon="7.820840">
        <ele>658.319499</ele>
        <time>2022-08-25T18:51:40.999Z</time>
      </trkpt>
      <trkpt lat="47.344461" lon="7.820994">
        <ele>657.611666</ele>
        <time>2022-08-25T18:51:41.999Z</time>
      </trkpt>
      <trkpt lat="47.344476" lon="7.821155">
        <ele>656.868813</ele>
        <time>2022-08-25T18:51:42.999Z</time>
      </trkpt>
      <trkpt lat="47.344484" lon="7.821323">
        <ele>656.098993</ele>
        <time>2022-08-25T18:51:43.999Z</time>
      </trkpt>
      <trkpt lat="47.344491" lon="7.821499">
        <ele>655.293115</ele>
        <time>2022-08-25T18:51:44.999Z</time>
      </trkpt>
      <trkpt lat="47.344497" lon="7.821679">
        <ele>654.368054</ele>
        <time>2022-08-25T18:51:45.999Z</time>
      </trkpt>
      <trkpt lat="47.344507" lon="7.821859">
        <ele>653.216881</ele>
        <time>2022-08-25T18:51:46.999Z</time>
      </trkpt>
      <trkpt lat="47.344542" lon="7.822033">
        <ele>652.059964</ele>
        <time>2022-08-25T18:51:47.999Z</time>
      </trkpt>
      <trkpt lat="47.344569" lon="7.822194">
        <ele>651.002785</ele>
        <time>2022-08-25T18:51:48.999Z</time>
      </trkpt>
      <trkpt lat="47.344576" lon="7.822337">
        <ele>650.088926</ele>
        <time>2022-08-25T18:51:49.999Z</time>
      </trkpt>
      <trkpt lat="47.344587" lon="7.822502">
        <ele>649.032136</ele>
        <time>2022-08-25T18:51:50.999Z</time>
      </trkpt>
      <trkpt lat="47.344583" lon="7.822659">
        <ele>648.030709</ele>
        <time>2022-08-25T18:51:51.999Z</time>
      </trkpt>
      <trkpt lat="47.344577" lon="7.822832">
        <ele>646.926562</ele>
        <time>2022-08-25T18:51:52.999Z</time>
      </trkpt>
      <trkpt lat="47.344571" lon="7.823008">
        <ele>645.803317</ele>
        <time>2022-08-25T18:51:53.999Z</time>
      </trkpt>
      <trkpt lat="47.344565" lon="7.823190">
        <ele>644.641875</ele>
        <time>2022-08-25T18:51:55.000Z</time>
      </trkpt>
      <trkpt lat="47.344559" lon="7.823377">
        <ele>643.448599</ele>
        <time>2022-08-25T18:51:56.000Z</time>
      </trkpt>
      <trkpt lat="47.344554" lon="7.823570">
        <ele>642.217516</ele>
        <time>2022-08-25T18:51:57.000Z</time>
      </trkpt>
      <trkpt lat="47.344562" lon="7.823771">
        <ele>640.934131</ele>
        <time>2022-08-25T18:51:58.000Z</time>
      </trkpt>
      <trkpt lat="47.344555" lon="7.823968">
        <ele>639.676725</ele>
        <time>2022-08-25T18:51:59.000Z</time>
      </trkpt>
      <trkpt lat="47.344555" lon="7.824170">
        <ele>638.389175</ele>
        <time>2022-08-25T18:52:00.000Z</time>
      </trkpt>
      <trkpt lat="47.344556" lon="7.824367">
        <ele>637.293380</ele>
        <time>2022-08-25T18:52:01.000Z</time>
      </trkpt>
      <trkpt lat="47.344576" lon="7.824559">
        <ele>636.349425</ele>
        <time>2022-08-25T18:52:02.000Z</time>
      </trkpt>
      <trkpt lat="47.344621" lon="7.824748">
        <ele>635.375959</ele>
        <time>2022-08-25T18:52:03.000Z</time>
      </trkpt>
      <trkpt lat="47.344687" lon="7.824926">
        <ele>634.389961</ele>
        <time>2022-08-25T18:52:04.000Z</time>
      </trkpt>
      <trkpt lat="47.344739" lon="7.825118">
        <ele>633.385200</ele>
        <time>2022-08-25T18:52:05.000Z</time>
      </trkpt>
      <trkpt lat="47.344806" lon="7.825307">
        <ele>632.348689</ele>
        <time>2022-08-25T18:52:06.000Z</time>
      </trkpt>
      <trkpt lat="47.344857" lon="7.825503">
        <ele>631.328449</ele>
        <time>2022-08-25T18:52:07.000Z</time>
      </trkpt>
      <trkpt lat="47.344907" lon="7.825703">
        <ele>630.292546</ele>
        <time>2022-08-25T18:52:08.000Z</time>
      </trkpt>
      <trkpt lat="47.344949" lon="7.825906">
        <ele>629.261144</ele>
        <time>2022-08-25T18:52:09.000Z</time>
      </trkpt>
      <trkpt lat="47.344967" lon="7.826112">
        <ele>628.251837</ele>
        <time>2022-08-25T18:52:10.000Z</time>
      </trkpt>
      <trkpt lat="47.344968" lon="7.826311">
        <ele>627.284808</ele>
        <time>2022-08-25T18:52:11.000Z</time>
      </trkpt>
      <trkpt lat="47.344947" lon="7.826497">
        <ele>626.368515</ele>
        <time>2022-08-25T18:52:12.000Z</time>
      </trkpt>
      <trkpt lat="47.344899" lon="7.826669">
        <ele>625.464600</ele>
        <time>2022-08-25T18:52:13.000Z</time>
      </trkpt>
      <trkpt lat="47.344838" lon="7.826842">
        <ele>624.581098</ele>
        <time>2022-08-25T18:52:14.000Z</time>
      </trkpt>
      <trkpt lat="47.344774" lon="7.827015">
        <ele>623.780709</ele>
        <time>2022-08-25T18:52:15.000Z</time>
      </trkpt>
      <trkpt lat="47.344712" lon="7.827183">
        <ele>623.003884</ele>
        <time>2022-08-25T18:52:16.000Z</time>
      </trkpt>
      <trkpt lat="47.344650" lon="7.827351">
        <ele>622.227057</ele>
        <time>2022-08-25T18:52:17.000Z</time>
      </trkpt>
      <trkpt lat="47.344598" lon="7.827523">
        <ele>621.462242</ele>
        <time>2022-08-25T18:52:18.000Z</time>
      </trkpt>
      <trkpt lat="47.344531" lon="7.827682">
        <ele>620.701915</ele>
        <time>2022-08-25T18:52:19.000Z</time>
      </trkpt>
      <trkpt lat="47.344468" lon="7.827846">
        <ele>619.936373</ele>
        <time>2022-08-25T18:52:20.000Z</time>
      </trkpt>
      <trkpt lat="47.344407" lon="7.828011">
        <ele>619.173109</ele>
        <time>2022-08-25T18:52:21.000Z</time>
      </trkpt>
      <trkpt lat="47.344348" lon="7.828174">
        <ele>618.422684</ele>
        <time>2022-08-25T18:52:22.000Z</time>
      </trkpt>
      <trkpt lat="47.344294" lon="7.828340">
        <ele>617.674941</ele>
        <time>2022-08-25T18:52:23.000Z</time>
      </trkpt>
      <trkpt lat="47.344253" lon="7.828513">
        <ele>616.930698</ele>
        <time>2022-08-25T18:52:24.000Z</time>
      </trkpt>
      <trkpt lat="47.344190" lon="7.828668">
        <ele>616.196725</ele>
        <time>2022-08-25T18:52:25.000Z</time>
      </trkpt>
      <trkpt lat="47.344104" lon="7.828798">
        <ele>615.458953</ele>
        <time>2022-08-25T18:52:26.000Z</time>
      </trkpt>
      <trkpt lat="47.344002" lon="7.828902">
        <ele>614.715974</ele>
        <time>2022-08-25T18:52:27.000Z</time>
      </trkpt>
      <trkpt lat="47.343912" lon="7.829024">
        <ele>613.929943</ele>
        <time>2022-08-25T18:52:28.000Z</time>
      </trkpt>
      <trkpt lat="47.343822" lon="7.829151">
        <ele>612.906777</ele>
        <time>2022-08-25T18:52:29.000Z</time>
      </trkpt>
      <trkpt lat="47.343733" lon="7.829277">
        <ele>611.893396</ele>
        <time>2022-08-25T18:52:30.000Z</time>
      </trkpt>
      <trkpt lat="47.343658" lon="7.829417">
        <ele>610.899732</ele>
        <time>2022-08-25T18:52:31.000Z</time>
      </trkpt>
      <trkpt lat="47.343614" lon="7.829589">
        <ele>609.876111</ele>
        <time>2022-08-25T18:52:32.000Z</time>
      </trkpt>
      <trkpt lat="47.343600" lon="7.829789">
        <ele>608.756640</ele>
        <time>2022-08-25T18:52:33.000Z</time>
      </trkpt>
      <trkpt lat="47.343595" lon="7.829979">
        <ele>607.697975</ele>
        <time>2022-08-25T18:52:34.000Z</time>
      </trkpt>
      <trkpt lat="47.343573" lon="7.830170">
        <ele>606.619284</ele>
        <time>2022-08-25T18:52:35.000Z</time>
      </trkpt>
      <trkpt lat="47.343555" lon="7.830358">
        <ele>605.562154</ele>
        <time>2022-08-25T18:52:36.000Z</time>
      </trkpt>
      <trkpt lat="47.343525" lon="7.830541">
        <ele>604.513864</ele>
        <time>2022-08-25T18:52:37.000Z</time>
      </trkpt>
      <trkpt lat="47.343488" lon="7.830725">
        <ele>603.445242</ele>
        <time>2022-08-25T18:52:37.999Z</time>
      </trkpt>
      <trkpt lat="47.343425" lon="7.830878">
        <ele>602.448425</ele>
        <time>2022-08-25T18:52:38.999Z</time>
      </trkpt>
      <trkpt lat="47.343351" lon="7.831004">
        <ele>601.520054</ele>
        <time>2022-08-25T18:52:39.999Z</time>
      </trkpt>
      <trkpt lat="47.343290" lon="7.831116">
        <ele>600.719998</ele>
        <time>2022-08-25T18:52:40.999Z</time>
      </trkpt>
      <trkpt lat="47.343176" lon="7.831233">
        <ele>599.579033</ele>
        <time>2022-08-25T18:52:42.999Z</time>
      </trkpt>
      <trkpt lat="47.343095" lon="7.831351">
        <ele>599.388944</ele>
        <time>2022-08-25T18:52:45.999Z</time>
      </trkpt>
      <trkpt lat="47.343316" lon="7.831164">
        <ele>599.507179</ele>
        <time>2022-08-25T18:53:14.999Z</time>
      </trkpt>
      <trkpt lat="47.343387" lon="7.831067">
        <ele>599.552084</ele>
        <time>2022-08-25T18:53:16.999Z</time>
      </trkpt>
      <trkpt lat="47.343455" lon="7.830969">
        <ele>599.596197</ele>
        <time>2022-08-25T18:53:18.999Z</time>
      </trkpt>
      <trkpt lat="47.343547" lon="7.830826">
        <ele>599.658211</ele>
        <time>2022-08-25T18:53:21.999Z</time>
      </trkpt>
      <trkpt lat="47.343669" lon="7.830803">
        <ele>599.715294</ele>
        <time>2022-08-25T18:53:24.999Z</time>
      </trkpt>
      <trkpt lat="47.343778" lon="7.830877">
        <ele>599.770979</ele>
        <time>2022-08-25T18:53:27.999Z</time>
      </trkpt>
      <trkpt lat="47.343875" lon="7.830962">
        <ele>599.823337</ele>
        <time>2022-08-25T18:53:30.999Z</time>
      </trkpt>
      <trkpt lat="47.343968" lon="7.831054">
        <ele>599.875300</ele>
        <time>2022-08-25T18:53:33.999Z</time>
      </trkpt>
      <trkpt lat="47.344063" lon="7.831127">
        <ele>599.925011</ele>
        <time>2022-08-25T18:53:36.999Z</time>
      </trkpt>
      <trkpt lat="47.344147" lon="7.831192">
        <ele>599.969031</ele>
        <time>2022-08-25T18:53:39.999Z</time>
      </trkpt>
      <trkpt lat="47.344183" lon="7.831317">
        <ele>600.011745</ele>
        <time>2022-08-25T18:53:43.999Z</time>
      </trkpt>
      <trkpt lat="47.344081" lon="7.831403">
        <ele>600.066267</ele>
        <time>2022-08-25T18:53:46.999Z</time>
      </trkpt>
      <trkpt lat="47.344001" lon="7.831506">
        <ele>600.115540</ele>
        <time>2022-08-25T18:53:48.999Z</time>
      </trkpt>
      <trkpt lat="47.343906" lon="7.831650">
        <ele>600.178746</ele>
        <time>2022-08-25T18:53:50.999Z</time>
      </trkpt>
      <trkpt lat="47.343818" lon="7.831822">
        <ele>599.748166</ele>
        <time>2022-08-25T18:53:52.999Z</time>
      </trkpt>
      <trkpt lat="47.343709" lon="7.831987">
        <ele>599.243959</ele>
        <time>2022-08-25T18:53:54.999Z</time>
      </trkpt>
      <trkpt lat="47.343595" lon="7.832170">
        <ele>598.700046</ele>
        <time>2022-08-25T18:53:56.999Z</time>
      </trkpt>
      <trkpt lat="47.343482" lon="7.832330">
        <ele>598.194373</ele>
        <time>2022-08-25T18:53:58.999Z</time>
      </trkpt>
      <trkpt lat="47.343406" lon="7.832435">
        <ele>597.858203</ele>
        <time>2022-08-25T18:54:01.000Z</time>
      </trkpt>
      <trkpt lat="47.343442" lon="7.832659">
        <ele>597.354482</ele>
        <time>2022-08-25T18:54:05.000Z</time>
      </trkpt>
      <trkpt lat="47.343507" lon="7.832768">
        <ele>597.036778</ele>
        <time>2022-08-25T18:54:07.000Z</time>
      </trkpt>
      <trkpt lat="47.343580" lon="7.832889">
        <ele>596.682291</ele>
        <time>2022-08-25T18:54:09.000Z</time>
      </trkpt>
      <trkpt lat="47.343659" lon="7.833021">
        <ele>596.296942</ele>
        <time>2022-08-25T18:54:11.000Z</time>
      </trkpt>
      <trkpt lat="47.343748" lon="7.833158">
        <ele>595.881670</ele>
        <time>2022-08-25T18:54:13.000Z</time>
      </trkpt>
      <trkpt lat="47.343837" lon="7.833290">
        <ele>595.474226</ele>
        <time>2022-08-25T18:54:15.000Z</time>
      </trkpt>
      <trkpt lat="47.343926" lon="7.833421">
        <ele>595.068330</ele>
        <time>2022-08-25T18:54:17.000Z</time>
      </trkpt>
      <trkpt lat="47.344020" lon="7.833550">
        <ele>594.653839</ele>
        <time>2022-08-25T18:54:19.000Z</time>
      </trkpt>
      <trkpt lat="47.344119" lon="7.833674">
        <ele>594.368488</ele>
        <time>2022-08-25T18:54:21.000Z</time>
      </trkpt>
      <trkpt lat="47.344207" lon="7.833809">
        <ele>594.347049</ele>
        <time>2022-08-25T18:54:23.000Z</time>
      </trkpt>
      <trkpt lat="47.344296" lon="7.833938">
        <ele>594.325980</ele>
        <time>2022-08-25T18:54:25.000Z</time>
      </trkpt>
      <trkpt lat="47.344385" lon="7.834065">
        <ele>594.305070</ele>
        <time>2022-08-25T18:54:27.000Z</time>
      </trkpt>
      <trkpt lat="47.344481" lon="7.834174">
        <ele>594.284612</ele>
        <time>2022-08-25T18:54:29.000Z</time>
      </trkpt>
      <trkpt lat="47.344579" lon="7.834276">
        <ele>594.264358</ele>
        <time>2022-08-25T18:54:31.000Z</time>
      </trkpt>
      <trkpt lat="47.344680" lon="7.834374">
        <ele>594.243942</ele>
        <time>2022-08-25T18:54:33.000Z</time>
      </trkpt>
      <trkpt lat="47.344780" lon="7.834471">
        <ele>594.223730</ele>
        <time>2022-08-25T18:54:34.999Z</time>
      </trkpt>
      <trkpt lat="47.344885" lon="7.834558">
        <ele>594.203392</ele>
        <time>2022-08-25T18:54:36.999Z</time>
      </trkpt>
      <trkpt lat="47.344986" lon="7.834647">
        <ele>594.183523</ele>
        <time>2022-08-25T18:54:38.999Z</time>
      </trkpt>
      <trkpt lat="47.345088" lon="7.834733">
        <ele>594.163682</ele>
        <time>2022-08-25T18:54:40.999Z</time>
      </trkpt>
      <trkpt lat="47.345187" lon="7.834812">
        <ele>594.144673</ele>
        <time>2022-08-25T18:54:42.999Z</time>
      </trkpt>
      <trkpt lat="47.345282" lon="7.834892">
        <ele>594.126199</ele>
        <time>2022-08-25T18:54:44.999Z</time>
      </trkpt>
      <trkpt lat="47.345376" lon="7.834955">
        <ele>594.108762</ele>
        <time>2022-08-25T18:54:46.999Z</time>
      </trkpt>
      <trkpt lat="47.345461" lon="7.835014">
        <ele>594.092897</ele>
        <time>2022-08-25T18:54:48.999Z</time>
      </trkpt>
      <trkpt lat="47.345537" lon="7.835141">
        <ele>594.073506</ele>
        <time>2022-08-25T18:54:52.999Z</time>
      </trkpt>
      <trkpt lat="47.345413" lon="7.835167">
        <ele>592.999210</ele>
        <time>2022-08-25T18:54:54.999Z</time>
      </trkpt>
      <trkpt lat="47.345309" lon="7.835201">
        <ele>592.021195</ele>
        <time>2022-08-25T18:54:56.999Z</time>
      </trkpt>
      <trkpt lat="47.345222" lon="7.835309">
        <ele>590.977413</ele>
        <time>2022-08-25T18:54:58.999Z</time>
      </trkpt>
      <trkpt lat="47.345153" lon="7.835480">
        <ele>589.739248</ele>
        <time>2022-08-25T18:55:00.999Z</time>
      </trkpt>
      <trkpt lat="47.345114" lon="7.835706">
        <ele>588.288386</ele>
        <time>2022-08-25T18:55:02.999Z</time>
      </trkpt>
      <trkpt lat="47.345093" lon="7.835836">
        <ele>587.456970</ele>
        <time>2022-08-25T18:55:03.999Z</time>
      </trkpt>
      <trkpt lat="47.345072" lon="7.835978">
        <ele>586.552769</ele>
        <time>2022-08-25T18:55:04.999Z</time>
      </trkpt>
      <trkpt lat="47.345039" lon="7.836128">
        <ele>585.571639</ele>
        <time>2022-08-25T18:55:05.999Z</time>
      </trkpt>
      <trkpt lat="47.345038" lon="7.836269">
        <ele>584.694407</ele>
        <time>2022-08-25T18:55:06.999Z</time>
      </trkpt>
      <trkpt lat="47.345018" lon="7.836427">
        <ele>583.694457</ele>
        <time>2022-08-25T18:55:07.999Z</time>
      </trkpt>
      <trkpt lat="47.344997" lon="7.836593">
        <ele>582.643898</ele>
        <time>2022-08-25T18:55:08.999Z</time>
      </trkpt>
      <trkpt lat="47.344976" lon="7.836764">
        <ele>581.562746</ele>
        <time>2022-08-25T18:55:09.999Z</time>
      </trkpt>
      <trkpt lat="47.344955" lon="7.836931">
        <ele>580.506070</ele>
        <time>2022-08-25T18:55:10.999Z</time>
      </trkpt>
      <trkpt lat="47.344937" lon="7.837074">
        <ele>579.601222</ele>
        <time>2022-08-25T18:55:11.999Z</time>
      </trkpt>
      <trkpt lat="47.344934" lon="7.837343">
        <ele>577.927498</ele>
        <time>2022-08-25T18:55:13.999Z</time>
      </trkpt>
      <trkpt lat="47.344893" lon="7.837528">
        <ele>576.652108</ele>
        <time>2022-08-25T18:55:15.999Z</time>
      </trkpt>
      <trkpt lat="47.344822" lon="7.837737">
        <ele>575.086164</ele>
        <time>2022-08-25T18:55:17.999Z</time>
      </trkpt>
      <trkpt lat="47.344768" lon="7.837930">
        <ele>573.687596</ele>
        <time>2022-08-25T18:55:19.999Z</time>
      </trkpt>
      <trkpt lat="47.344709" lon="7.838144">
        <ele>572.140134</ele>
        <time>2022-08-25T18:55:21.999Z</time>
      </trkpt>
      <trkpt lat="47.344663" lon="7.838369">
        <ele>570.565998</ele>
        <time>2022-08-25T18:55:23.999Z</time>
      </trkpt>
      <trkpt lat="47.344580" lon="7.838582">
        <ele>568.920247</ele>
        <time>2022-08-25T18:55:25.999Z</time>
      </trkpt>
      <trkpt lat="47.344517" lon="7.838792">
        <ele>567.381984</ele>
        <time>2022-08-25T18:55:27.999Z</time>
      </trkpt>
      <trkpt lat="47.344468" lon="7.839005">
        <ele>565.875342</ele>
        <time>2022-08-25T18:55:29.999Z</time>
      </trkpt>
      <trkpt lat="47.344443" lon="7.839218">
        <ele>564.427433</ele>
        <time>2022-08-25T18:55:31.999Z</time>
      </trkpt>
      <trkpt lat="47.344404" lon="7.839455">
        <ele>562.793877</ele>
        <time>2022-08-25T18:55:33.999Z</time>
      </trkpt>
      <trkpt lat="47.344379" lon="7.839696">
        <ele>561.160863</ele>
        <time>2022-08-25T18:55:35.999Z</time>
      </trkpt>
      <trkpt lat="47.344317" lon="7.839958">
        <ele>559.312802</ele>
        <time>2022-08-25T18:55:37.999Z</time>
      </trkpt>
      <trkpt lat="47.344236" lon="7.840186">
        <ele>557.627389</ele>
        <time>2022-08-25T18:55:39.999Z</time>
      </trkpt>
      <trkpt lat="47.344161" lon="7.840411">
        <ele>555.985745</ele>
        <time>2022-08-25T18:55:41.999Z</time>
      </trkpt>
      <trkpt lat="47.344117" lon="7.840536">
        <ele>555.063546</ele>
        <time>2022-08-25T18:55:42.999Z</time>
      </trkpt>
      <trkpt lat="47.344020" lon="7.840745">
        <ele>553.405046</ele>
        <time>2022-08-25T18:55:44.999Z</time>
      </trkpt>
      <trkpt lat="47.343934" lon="7.840960">
        <ele>551.770497</ele>
        <time>2022-08-25T18:55:46.999Z</time>
      </trkpt>
      <trkpt lat="47.343847" lon="7.841153">
        <ele>550.252876</ele>
        <time>2022-08-25T18:55:48.999Z</time>
      </trkpt>
      <trkpt lat="47.343764" lon="7.841323">
        <ele>548.881074</ele>
        <time>2022-08-25T18:55:50.999Z</time>
      </trkpt>
      <trkpt lat="47.343695" lon="7.841454">
        <ele>547.794785</ele>
        <time>2022-08-25T18:55:52.999Z</time>
      </trkpt>
      <trkpt lat="47.343614" lon="7.841579">
        <ele>546.662431</ele>
        <time>2022-08-25T18:55:54.999Z</time>
      </trkpt>
      <trkpt lat="47.343506" lon="7.841657">
        <ele>545.500683</ele>
        <time>2022-08-25T18:55:56.999Z</time>
      </trkpt>
      <trkpt lat="47.343399" lon="7.841661">
        <ele>544.466518</ele>
        <time>2022-08-25T18:55:58.999Z</time>
      </trkpt>
      <trkpt lat="47.343311" lon="7.841577">
        <ele>543.453910</ele>
        <time>2022-08-25T18:56:00.999Z</time>
      </trkpt>
      <trkpt lat="47.343247" lon="7.841463">
        <ele>542.484668</ele>
        <time>2022-08-25T18:56:02.999Z</time>
      </trkpt>
      <trkpt lat="47.343095" lon="7.841546">
        <ele>541.130677</ele>
        <time>2022-08-25T18:56:05.999Z</time>
      </trkpt>
      <trkpt lat="47.342985" lon="7.841695">
        <ele>539.894457</ele>
        <time>2022-08-25T18:56:08.000Z</time>
      </trkpt>
      <trkpt lat="47.342914" lon="7.841884">
        <ele>538.682067</ele>
        <time>2022-08-25T18:56:10.000Z</time>
      </trkpt>
      <trkpt lat="47.342813" lon="7.842109">
        <ele>537.167893</ele>
        <time>2022-08-25T18:56:12.000Z</time>
      </trkpt>
      <trkpt lat="47.342768" lon="7.842235">
        <ele>536.368820</ele>
        <time>2022-08-25T18:56:13.000Z</time>
      </trkpt>
      <trkpt lat="47.342724" lon="7.842360">
        <ele>535.578555</ele>
        <time>2022-08-25T18:56:14.000Z</time>
      </trkpt>
      <trkpt lat="47.342681" lon="7.842479">
        <ele>534.821935</ele>
        <time>2022-08-25T18:56:15.000Z</time>
      </trkpt>
      <trkpt lat="47.342638" lon="7.842600">
        <ele>534.055395</ele>
        <time>2022-08-25T18:56:16.000Z</time>
      </trkpt>
      <trkpt lat="47.342595" lon="7.842720">
        <ele>533.293818</ele>
        <time>2022-08-25T18:56:17.000Z</time>
      </trkpt>
      <trkpt lat="47.342510" lon="7.842875">
        <ele>532.175122</ele>
        <time>2022-08-25T18:56:19.000Z</time>
      </trkpt>
      <trkpt lat="47.342443" lon="7.842975">
        <ele>531.386147</ele>
        <time>2022-08-25T18:56:25.000Z</time>
      </trkpt>
      <trkpt lat="47.342371" lon="7.843080">
        <ele>530.548062</ele>
        <time>2022-08-25T18:56:29.000Z</time>
      </trkpt>
      <trkpt lat="47.342285" lon="7.843182">
        <ele>529.634565</ele>
        <time>2022-08-25T18:56:32.000Z</time>
      </trkpt>
      <trkpt lat="47.342353" lon="7.843085">
        <ele>528.851536</ele>
        <time>2022-08-25T18:56:42.000Z</time>
      </trkpt>
      <trkpt lat="47.342440" lon="7.842994">
        <ele>527.968637</ele>
        <time>2022-08-25T18:56:46.000Z</time>
      </trkpt>
      <trkpt lat="47.342488" lon="7.843123">
        <ele>527.238662</ele>
        <time>2022-08-25T18:56:50.000Z</time>
      </trkpt>
      <trkpt lat="47.342513" lon="7.843273">
        <ele>526.599182</ele>
        <time>2022-08-25T18:56:51.999Z</time>
      </trkpt>
      <trkpt lat="47.342522" lon="7.843445">
        <ele>525.885014</ele>
        <time>2022-08-25T18:56:53.999Z</time>
      </trkpt>
      <trkpt lat="47.342498" lon="7.843621">
        <ele>525.141799</ele>
        <time>2022-08-25T18:56:55.999Z</time>
      </trkpt>
      <trkpt lat="47.342418" lon="7.843745">
        <ele>524.433001</ele>
        <time>2022-08-25T18:56:57.999Z</time>
      </trkpt>
      <trkpt lat="47.342320" lon="7.843852">
        <ele>523.688231</ele>
        <time>2022-08-25T18:56:59.999Z</time>
      </trkpt>
      <trkpt lat="47.342216" lon="7.843972">
        <ele>522.881698</ele>
        <time>2022-08-25T18:57:01.999Z</time>
      </trkpt>
      <trkpt lat="47.342122" lon="7.844108">
        <ele>522.077464</ele>
        <time>2022-08-25T18:57:03.999Z</time>
      </trkpt>
      <trkpt lat="47.342016" lon="7.844249">
        <ele>521.205622</ele>
        <time>2022-08-25T18:57:05.999Z</time>
      </trkpt>
      <trkpt lat="47.341913" lon="7.844395">
        <ele>520.333095</ele>
        <time>2022-08-25T18:57:07.999Z</time>
      </trkpt>
      <trkpt lat="47.341803" lon="7.844516">
        <ele>519.494910</ele>
        <time>2022-08-25T18:57:09.999Z</time>
      </trkpt>
      <trkpt lat="47.341833" lon="7.844812">
        <ele>518.255877</ele>
        <time>2022-08-25T18:57:12.999Z</time>
      </trkpt>
      <trkpt lat="47.341892" lon="7.844977">
        <ele>517.483528</ele>
        <time>2022-08-25T18:57:14.999Z</time>
      </trkpt>
      <trkpt lat="47.341960" lon="7.845164">
        <ele>516.604947</ele>
        <time>2022-08-25T18:57:16.999Z</time>
      </trkpt>
      <trkpt lat="47.342034" lon="7.845371">
        <ele>514.862419</ele>
        <time>2022-08-25T18:57:18.999Z</time>
      </trkpt>
      <trkpt lat="47.342122" lon="7.845588">
        <ele>512.898612</ele>
        <time>2022-08-25T18:57:20.999Z</time>
      </trkpt>
      <trkpt lat="47.342195" lon="7.845816">
        <ele>510.940411</ele>
        <time>2022-08-25T18:57:22.999Z</time>
      </trkpt>
      <trkpt lat="47.342277" lon="7.846046">
        <ele>508.922250</ele>
        <time>2022-08-25T18:57:24.999Z</time>
      </trkpt>
      <trkpt lat="47.342310" lon="7.846170">
        <ele>507.887743</ele>
        <time>2022-08-25T18:57:25.999Z</time>
      </trkpt>
      <trkpt lat="47.342351" lon="7.846298">
        <ele>506.788320</ele>
        <time>2022-08-25T18:57:26.999Z</time>
      </trkpt>
      <trkpt lat="47.342388" lon="7.846421">
        <ele>505.743294</ele>
        <time>2022-08-25T18:57:27.999Z</time>
      </trkpt>
      <trkpt lat="47.342393" lon="7.846558">
        <ele>504.677898</ele>
        <time>2022-08-25T18:57:28.999Z</time>
      </trkpt>
      <trkpt lat="47.342378" lon="7.846760">
        <ele>503.099905</ele>
        <time>2022-08-25T18:57:30.999Z</time>
      </trkpt>
      <trkpt lat="47.342334" lon="7.846976">
        <ele>501.348435</ele>
        <time>2022-08-25T18:57:32.999Z</time>
      </trkpt>
      <trkpt lat="47.342312" lon="7.847230">
        <ele>499.359984</ele>
        <time>2022-08-25T18:57:34.999Z</time>
      </trkpt>
      <trkpt lat="47.342293" lon="7.847368">
        <ele>498.266466</ele>
        <time>2022-08-25T18:57:35.999Z</time>
      </trkpt>
      <trkpt lat="47.342258" lon="7.847503">
        <ele>497.144030</ele>
        <time>2022-08-25T18:57:36.999Z</time>
      </trkpt>
      <trkpt lat="47.342229" lon="7.847651">
        <ele>495.947668</ele>
        <time>2022-08-25T18:57:37.999Z</time>
      </trkpt>
      <trkpt lat="47.342190" lon="7.847806">
        <ele>494.784153</ele>
        <time>2022-08-25T18:57:38.999Z</time>
      </trkpt>
      <trkpt lat="47.342151" lon="7.847959">
        <ele>493.637686</ele>
        <time>2022-08-25T18:57:39.999Z</time>
      </trkpt>
      <trkpt lat="47.342117" lon="7.848096">
        <ele>492.614430</ele>
        <time>2022-08-25T18:57:40.999Z</time>
      </trkpt>
      <trkpt lat="47.342035" lon="7.848298">
        <ele>490.962948</ele>
        <time>2022-08-25T18:57:42.999Z</time>
      </trkpt>
      <trkpt lat="47.341928" lon="7.848510">
        <ele>489.108976</ele>
        <time>2022-08-25T18:57:44.999Z</time>
      </trkpt>
      <trkpt lat="47.341864" lon="7.848644">
        <ele>487.959186</ele>
        <time>2022-08-25T18:57:45.999Z</time>
      </trkpt>
      <trkpt lat="47.341799" lon="7.848753">
        <ele>486.940845</ele>
        <time>2022-08-25T18:57:46.999Z</time>
      </trkpt>
      <trkpt lat="47.341728" lon="7.848865">
        <ele>485.865185</ele>
        <time>2022-08-25T18:57:47.999Z</time>
      </trkpt>
      <trkpt lat="47.341660" lon="7.848981">
        <ele>484.789436</ele>
        <time>2022-08-25T18:57:48.999Z</time>
      </trkpt>
      <trkpt lat="47.341595" lon="7.849082">
        <ele>483.812510</ele>
        <time>2022-08-25T18:57:49.999Z</time>
      </trkpt>
      <trkpt lat="47.341536" lon="7.849182">
        <ele>482.882566</ele>
        <time>2022-08-25T18:57:50.999Z</time>
      </trkpt>
      <trkpt lat="47.341491" lon="7.849310">
        <ele>481.871206</ele>
        <time>2022-08-25T18:57:51.999Z</time>
      </trkpt>
      <trkpt lat="47.341449" lon="7.849447">
        <ele>480.816593</ele>
        <time>2022-08-25T18:57:52.999Z</time>
      </trkpt>
      <trkpt lat="47.341406" lon="7.849597">
        <ele>479.674296</ele>
        <time>2022-08-25T18:57:53.999Z</time>
      </trkpt>
      <trkpt lat="47.341360" lon="7.849747">
        <ele>478.519546</ele>
        <time>2022-08-25T18:57:54.999Z</time>
      </trkpt>
      <trkpt lat="47.341315" lon="7.849892">
        <ele>477.401001</ele>
        <time>2022-08-25T18:57:55.999Z</time>
      </trkpt>
      <trkpt lat="47.341269" lon="7.850044">
        <ele>476.359744</ele>
        <time>2022-08-25T18:57:56.999Z</time>
      </trkpt>
      <trkpt lat="47.341224" lon="7.850198">
        <ele>475.323959</ele>
        <time>2022-08-25T18:57:57.999Z</time>
      </trkpt>
      <trkpt lat="47.341178" lon="7.850347">
        <ele>474.312711</ele>
        <time>2022-08-25T18:57:58.999Z</time>
      </trkpt>
      <trkpt lat="47.341128" lon="7.850505">
        <ele>473.235717</ele>
        <time>2022-08-25T18:57:59.999Z</time>
      </trkpt>
      <trkpt lat="47.341080" lon="7.850668">
        <ele>472.138057</ele>
        <time>2022-08-25T18:58:00.999Z</time>
      </trkpt>
      <trkpt lat="47.341032" lon="7.850824">
        <ele>471.079906</ele>
        <time>2022-08-25T18:58:01.999Z</time>
      </trkpt>
      <trkpt lat="47.340984" lon="7.850980">
        <ele>470.021754</ele>
        <time>2022-08-25T18:58:02.999Z</time>
      </trkpt>
      <trkpt lat="47.340937" lon="7.851117">
        <ele>469.073365</ele>
        <time>2022-08-25T18:58:03.999Z</time>
      </trkpt>
      <trkpt lat="47.340893" lon="7.851252">
        <ele>468.148154</ele>
        <time>2022-08-25T18:58:04.999Z</time>
      </trkpt>
      <trkpt lat="47.340848" lon="7.851384">
        <ele>467.235546</ele>
        <time>2022-08-25T18:58:05.999Z</time>
      </trkpt>
      <trkpt lat="47.340766" lon="7.851588">
        <ele>465.770620</ele>
        <time>2022-08-25T18:58:07.999Z</time>
      </trkpt>
      <trkpt lat="47.340687" lon="7.851744">
        <ele>464.567814</ele>
        <time>2022-08-25T18:58:09.999Z</time>
      </trkpt>
      <trkpt lat="47.340665" lon="7.851919">
        <ele>463.468539</ele>
        <time>2022-08-25T18:58:11.999Z</time>
      </trkpt>
      <trkpt lat="47.340636" lon="7.852077">
        <ele>462.457540</ele>
        <time>2022-08-25T18:58:14.000Z</time>
      </trkpt>
      <trkpt lat="47.340605" lon="7.852241">
        <ele>461.405975</ele>
        <time>2022-08-25T18:58:16.000Z</time>
      </trkpt>
      <trkpt lat="47.340556" lon="7.852385">
        <ele>460.361841</ele>
        <time>2022-08-25T18:58:18.000Z</time>
      </trkpt>
      <trkpt lat="47.340447" lon="7.852506">
        <ele>458.993782</ele>
        <time>2022-08-25T18:58:20.000Z</time>
      </trkpt>
      <trkpt lat="47.340346" lon="7.852612">
        <ele>457.750688</ele>
        <time>2022-08-25T18:58:22.000Z</time>
      </trkpt>
      <trkpt lat="47.340269" lon="7.852715">
        <ele>456.708309</ele>
        <time>2022-08-25T18:58:24.000Z</time>
      </trkpt>
      <trkpt lat="47.340177" lon="7.852834">
        <ele>455.481252</ele>
        <time>2022-08-25T18:58:26.000Z</time>
      </trkpt>
      <trkpt lat="47.340075" lon="7.852983">
        <ele>454.041721</ele>
        <time>2022-08-25T18:58:28.000Z</time>
      </trkpt>
      <trkpt lat="47.340002" lon="7.853162">
        <ele>452.621764</ele>
        <time>2022-08-25T18:58:30.000Z</time>
      </trkpt>
      <trkpt lat="47.339922" lon="7.853360">
        <ele>451.054942</ele>
        <time>2022-08-25T18:58:32.000Z</time>
      </trkpt>
      <trkpt lat="47.339812" lon="7.853523">
        <ele>449.491399</ele>
        <time>2022-08-25T18:58:34.000Z</time>
      </trkpt>
      <trkpt lat="47.339702" lon="7.853693">
        <ele>447.893789</ele>
        <time>2022-08-25T18:58:36.000Z</time>
      </trkpt>
      <trkpt lat="47.339591" lon="7.853885">
        <ele>446.178415</ele>
        <time>2022-08-25T18:58:38.000Z</time>
      </trkpt>
      <trkpt lat="47.339547" lon="7.854002">
        <ele>445.268934</ele>
        <time>2022-08-25T18:58:39.000Z</time>
      </trkpt>
      <trkpt lat="47.339476" lon="7.854109">
        <ele>444.251073</ele>
        <time>2022-08-25T18:58:40.000Z</time>
      </trkpt>
      <trkpt lat="47.339416" lon="7.854234">
        <ele>443.209921</ele>
        <time>2022-08-25T18:58:41.000Z</time>
      </trkpt>
      <trkpt lat="47.339378" lon="7.854369">
        <ele>442.689999</ele>
        <time>2022-08-25T18:58:42.000Z</time>
      </trkpt>
      <trkpt lat="47.339336" lon="7.854548">
        <ele>442.353820</ele>
        <time>2022-08-25T18:58:44.000Z</time>
      </trkpt>
      <trkpt lat="47.339306" lon="7.854690">
        <ele>442.089847</ele>
        <time>2022-08-25T18:58:46.000Z</time>
      </trkpt>
      <trkpt lat="47.339330" lon="7.854851">
        <ele>441.797285</ele>
        <time>2022-08-25T18:58:49.999Z</time>
      </trkpt>
      <trkpt lat="47.339398" lon="7.854979">
        <ele>441.508636</ele>
        <time>2022-08-25T18:58:52.999Z</time>
      </trkpt>
      <trkpt lat="47.339478" lon="7.855140">
        <ele>441.154324</ele>
        <time>2022-08-25T18:58:55.999Z</time>
      </trkpt>
      <trkpt lat="47.339543" lon="7.855246">
        <ele>440.900617</ele>
        <time>2022-08-25T18:58:57.999Z</time>
      </trkpt>
      <trkpt lat="47.339614" lon="7.855348">
        <ele>440.641112</ele>
        <time>2022-08-25T18:58:59.999Z</time>
      </trkpt>
      <trkpt lat="47.339688" lon="7.855458">
        <ele>440.366033</ele>
        <time>2022-08-25T18:59:01.999Z</time>
      </trkpt>
      <trkpt lat="47.339762" lon="7.855565">
        <ele>440.094706</ele>
        <time>2022-08-25T18:59:03.999Z</time>
      </trkpt>
      <trkpt lat="47.339845" lon="7.855669">
        <ele>439.809548</ele>
        <time>2022-08-25T18:59:05.999Z</time>
      </trkpt>
      <trkpt lat="47.339929" lon="7.855787">
        <ele>439.505821</ele>
        <time>2022-08-25T18:59:07.999Z</time>
      </trkpt>
      <trkpt lat="47.340025" lon="7.855905">
        <ele>439.178615</ele>
        <time>2022-08-25T18:59:09.999Z</time>
      </trkpt>
      <trkpt lat="47.340118" lon="7.856034">
        <ele>438.844350</ele>
        <time>2022-08-25T18:59:11.999Z</time>
      </trkpt>
      <trkpt lat="47.340100" lon="7.856216">
        <ele>438.517934</ele>
        <time>2022-08-25T18:59:13.999Z</time>
      </trkpt>
      <trkpt lat="47.340118" lon="7.856393">
        <ele>438.200296</ele>
        <time>2022-08-25T18:59:15.999Z</time>
      </trkpt>
      <trkpt lat="47.340136" lon="7.856575">
        <ele>437.833666</ele>
        <time>2022-08-25T18:59:17.999Z</time>
      </trkpt>
      <trkpt lat="47.340145" lon="7.856757">
        <ele>437.462110</ele>
        <time>2022-08-25T18:59:19.999Z</time>
      </trkpt>
      <trkpt lat="47.340130" lon="7.856933">
        <ele>437.100933</ele>
        <time>2022-08-25T18:59:21.999Z</time>
      </trkpt>
      <trkpt lat="47.340101" lon="7.857090">
        <ele>436.769602</ele>
        <time>2022-08-25T18:59:23.999Z</time>
      </trkpt>
      <trkpt lat="47.340052" lon="7.857244">
        <ele>436.423197</ele>
        <time>2022-08-25T18:59:26.999Z</time>
      </trkpt>
      <trkpt lat="47.340015" lon="7.857376">
        <ele>436.132345</ele>
        <time>2022-08-25T18:59:36.999Z</time>
      </trkpt>
      <trkpt lat="47.339970" lon="7.857522">
        <ele>435.805769</ele>
        <time>2022-08-25T18:59:41.999Z</time>
      </trkpt>
      <trkpt lat="47.339876" lon="7.857620">
        <ele>435.459954</ele>
        <time>2022-08-25T18:59:44.999Z</time>
      </trkpt>
      <trkpt lat="47.339789" lon="7.857710">
        <ele>435.140714</ele>
        <time>2022-08-25T18:59:46.999Z</time>
      </trkpt>
      <trkpt lat="47.339681" lon="7.857786">
        <ele>434.781201</ele>
        <time>2022-08-25T18:59:48.999Z</time>
      </trkpt>
      <trkpt lat="47.339593" lon="7.857895">
        <ele>434.435992</ele>
        <time>2022-08-25T18:59:50.999Z</time>
      </trkpt>
      <trkpt lat="47.339502" lon="7.858008">
        <ele>434.078642</ele>
        <time>2022-08-25T18:59:52.999Z</time>
      </trkpt>
      <trkpt lat="47.339423" lon="7.858135">
        <ele>433.727626</ele>
        <time>2022-08-25T18:59:54.999Z</time>
      </trkpt>
      <trkpt lat="47.339331" lon="7.858266">
        <ele>433.343490</ele>
        <time>2022-08-25T18:59:56.999Z</time>
      </trkpt>
      <trkpt lat="47.339248" lon="7.858389">
        <ele>432.990054</ele>
        <time>2022-08-25T18:59:58.999Z</time>
      </trkpt>
      <trkpt lat="47.339169" lon="7.858495">
        <ele>432.683187</ele>
        <time>2022-08-25T19:00:00.999Z</time>
      </trkpt>
      <trkpt lat="47.339087" lon="7.858625">
        <ele>432.390397</ele>
        <time>2022-08-25T19:00:02.999Z</time>
      </trkpt>
      <trkpt lat="47.339006" lon="7.858753">
        <ele>432.101677</ele>
        <time>2022-08-25T19:00:04.999Z</time>
      </trkpt>
      <trkpt lat="47.338924" lon="7.858881">
        <ele>431.811291</ele>
        <time>2022-08-25T19:00:06.999Z</time>
      </trkpt>
      <trkpt lat="47.338842" lon="7.858987">
        <ele>431.546088</ele>
        <time>2022-08-25T19:00:08.999Z</time>
      </trkpt>
      <trkpt lat="47.338747" lon="7.859085">
        <ele>431.264104</ele>
        <time>2022-08-25T19:00:10.999Z</time>
      </trkpt>
      <trkpt lat="47.338650" lon="7.859171">
        <ele>430.988809</ele>
        <time>2022-08-25T19:00:12.999Z</time>
      </trkpt>
      <trkpt lat="47.338548" lon="7.859250">
        <ele>430.708566</ele>
        <time>2022-08-25T19:00:14.999Z</time>
      </trkpt>
      <trkpt lat="47.338457" lon="7.859344">
        <ele>430.438334</ele>
        <time>2022-08-25T19:00:16.999Z</time>
      </trkpt>
      <trkpt lat="47.338382" lon="7.859454">
        <ele>430.181085</ele>
        <time>2022-08-25T19:00:19.000Z</time>
      </trkpt>
      <trkpt lat="47.338291" lon="7.859550">
        <ele>429.908949</ele>
        <time>2022-08-25T19:00:21.000Z</time>
      </trkpt>
      <trkpt lat="47.338342" lon="7.859777">
        <ele>429.514684</ele>
        <time>2022-08-25T19:00:25.000Z</time>
      </trkpt>
      <trkpt lat="47.338406" lon="7.859882">
        <ele>429.281862</ele>
        <time>2022-08-25T19:00:28.000Z</time>
      </trkpt>
      <trkpt lat="47.338326" lon="7.859760">
        <ele>429.001986</ele>
        <time>2022-08-25T19:00:33.000Z</time>
      </trkpt>
      <trkpt lat="47.338246" lon="7.859679">
        <ele>428.765957</ele>
        <time>2022-08-25T19:00:36.000Z</time>
      </trkpt>
      <trkpt lat="47.338143" lon="7.859725">
        <ele>428.504158</ele>
        <time>2022-08-25T19:00:37.000Z</time>
      </trkpt>
      <trkpt lat="47.338070" lon="7.859805">
        <ele>428.270195</ele>
        <time>2022-08-25T19:00:39.000Z</time>
      </trkpt>
      <trkpt lat="47.337992" lon="7.859889">
        <ele>427.999583</ele>
        <time>2022-08-25T19:00:41.000Z</time>
      </trkpt>
      <trkpt lat="47.337882" lon="7.860010">
        <ele>427.615089</ele>
        <time>2022-08-25T19:00:44.000Z</time>
      </trkpt>
      <trkpt lat="47.337809" lon="7.860114">
        <ele>427.330725</ele>
        <time>2022-08-25T19:00:46.000Z</time>
      </trkpt>
      <trkpt lat="47.337728" lon="7.860207">
        <ele>427.043109</ele>
        <time>2022-08-25T19:00:48.000Z</time>
      </trkpt>
      <trkpt lat="47.337640" lon="7.860272">
        <ele>426.767324</ele>
        <time>2022-08-25T19:00:50.000Z</time>
      </trkpt>
      <trkpt lat="47.337548" lon="7.860372">
        <ele>426.447103</ele>
        <time>2022-08-25T19:00:52.000Z</time>
      </trkpt>
      <trkpt lat="47.337453" lon="7.860476">
        <ele>426.115605</ele>
        <time>2022-08-25T19:00:54.000Z</time>
      </trkpt>
      <trkpt lat="47.337334" lon="7.860554">
        <ele>425.750695</ele>
        <time>2022-08-25T19:00:56.000Z</time>
      </trkpt>
      <trkpt lat="47.337217" lon="7.860639">
        <ele>425.385224</ele>
        <time>2022-08-25T19:00:58.000Z</time>
      </trkpt>
      <trkpt lat="47.337085" lon="7.860736">
        <ele>424.971970</ele>
        <time>2022-08-25T19:01:00.000Z</time>
      </trkpt>
      <trkpt lat="47.336950" lon="7.860833">
        <ele>424.551172</ele>
        <time>2022-08-25T19:01:02.000Z</time>
      </trkpt>
      <trkpt lat="47.336807" lon="7.860940">
        <ele>424.101845</ele>
        <time>2022-08-25T19:01:04.000Z</time>
      </trkpt>
      <trkpt lat="47.336655" lon="7.861053">
        <ele>423.624867</ele>
        <time>2022-08-25T19:01:06.000Z</time>
      </trkpt>
      <trkpt lat="47.336502" lon="7.861167">
        <ele>423.320882</ele>
        <time>2022-08-25T19:01:07.999Z</time>
      </trkpt>
      <trkpt lat="47.336354" lon="7.861277">
        <ele>423.307089</ele>
        <time>2022-08-25T19:01:09.999Z</time>
      </trkpt>
      <trkpt lat="47.336241" lon="7.861444">
        <ele>423.293777</ele>
        <time>2022-08-25T19:01:11.999Z</time>
      </trkpt>
      <trkpt lat="47.336113" lon="7.861492">
        <ele>423.282784</ele>
        <time>2022-08-25T19:01:13.999Z</time>
      </trkpt>
      <trkpt lat="47.336007" lon="7.861578">
        <ele>423.272715</ele>
        <time>2022-08-25T19:01:15.999Z</time>
      </trkpt>
      <trkpt lat="47.335904" lon="7.861590">
        <ele>423.264116</ele>
        <time>2022-08-25T19:01:17.999Z</time>
      </trkpt>
      <trkpt lat="47.335773" lon="7.861626">
        <ele>423.253024</ele>
        <time>2022-08-25T19:01:20.999Z</time>
      </trkpt>
      <trkpt lat="47.335693" lon="7.861702">
        <ele>423.245105</ele>
        <time>2022-08-25T19:01:23.999Z</time>
      </trkpt>
      <trkpt lat="47.335611" lon="7.861768">
        <ele>423.237330</ele>
        <time>2022-08-25T19:01:27.999Z</time>
      </trkpt>
      <trkpt lat="47.335692" lon="7.861849">
        <ele>423.229186</ele>
        <time>2022-08-25T19:01:41.999Z</time>
      </trkpt>
      <trkpt lat="47.335803" lon="7.861937">
        <ele>423.218697</ele>
        <time>2022-08-25T19:01:44.999Z</time>
      </trkpt>
      <trkpt lat="47.335874" lon="7.862041">
        <ele>423.210370</ele>
        <time>2022-08-25T19:01:46.999Z</time>
      </trkpt>
      <trkpt lat="47.335923" lon="7.862206">
        <ele>423.200208</ele>
        <time>2022-08-25T19:01:48.999Z</time>
      </trkpt>
      <trkpt lat="47.336028" lon="7.862329">
        <ele>423.189050</ele>
        <time>2022-08-25T19:01:50.999Z</time>
      </trkpt>
      <trkpt lat="47.336130" lon="7.862419">
        <ele>423.179157</ele>
        <time>2022-08-25T19:01:52.999Z</time>
      </trkpt>
      <trkpt lat="47.336229" lon="7.862503">
        <ele>423.031489</ele>
        <time>2022-08-25T19:01:54.999Z</time>
      </trkpt>
      <trkpt lat="47.336330" lon="7.862590">
        <ele>422.827329</ele>
        <time>2022-08-25T19:01:56.999Z</time>
      </trkpt>
      <trkpt lat="47.336431" lon="7.862690">
        <ele>422.614999</ele>
        <time>2022-08-25T19:01:58.999Z</time>
      </trkpt>
      <trkpt lat="47.336530" lon="7.862787">
        <ele>422.407544</ele>
        <time>2022-08-25T19:02:00.999Z</time>
      </trkpt>
      <trkpt lat="47.336629" lon="7.862886">
        <ele>422.198771</ele>
        <time>2022-08-25T19:02:02.999Z</time>
      </trkpt>
      <trkpt lat="47.336729" lon="7.862988">
        <ele>421.986553</ele>
        <time>2022-08-25T19:02:04.999Z</time>
      </trkpt>
      <trkpt lat="47.336828" lon="7.863090">
        <ele>421.775768</ele>
        <time>2022-08-25T19:02:06.999Z</time>
      </trkpt>
      <trkpt lat="47.336917" lon="7.863191">
        <ele>421.579767</ele>
        <time>2022-08-25T19:02:08.999Z</time>
      </trkpt>
      <trkpt lat="47.337012" lon="7.863308">
        <ele>421.363751</ele>
        <time>2022-08-25T19:02:10.999Z</time>
      </trkpt>
      <trkpt lat="47.337104" lon="7.863422">
        <ele>421.154029</ele>
        <time>2022-08-25T19:02:12.999Z</time>
      </trkpt>
      <trkpt lat="47.337209" lon="7.863523">
        <ele>420.935224</ele>
        <time>2022-08-25T19:02:14.999Z</time>
      </trkpt>
      <trkpt lat="47.337301" lon="7.863643">
        <ele>420.720869</ele>
        <time>2022-08-25T19:02:16.999Z</time>
      </trkpt>
      <trkpt lat="47.337384" lon="7.863767">
        <ele>420.514679</ele>
        <time>2022-08-25T19:02:18.999Z</time>
      </trkpt>
      <trkpt lat="47.337468" lon="7.863874">
        <ele>420.320961</ele>
        <time>2022-08-25T19:02:20.999Z</time>
      </trkpt>
      <trkpt lat="47.337548" lon="7.863980">
        <ele>420.133266</ele>
        <time>2022-08-25T19:02:22.999Z</time>
      </trkpt>
      <trkpt lat="47.337623" lon="7.864094">
        <ele>420.022873</ele>
        <time>2022-08-25T19:02:25.000Z</time>
      </trkpt>
      <trkpt lat="47.337697" lon="7.864217">
        <ele>419.993513</ele>
        <time>2022-08-25T19:02:27.000Z</time>
      </trkpt>
      <trkpt lat="47.337773" lon="7.864343">
        <ele>419.963402</ele>
        <time>2022-08-25T19:02:29.000Z</time>
      </trkpt>
      <trkpt lat="47.337849" lon="7.864471">
        <ele>419.933025</ele>
        <time>2022-08-25T19:02:31.000Z</time>
      </trkpt>
      <trkpt lat="47.337922" lon="7.864600">
        <ele>419.903025</ele>
        <time>2022-08-25T19:02:33.000Z</time>
      </trkpt>
      <trkpt lat="47.337997" lon="7.864733">
        <ele>419.872139</ele>
        <time>2022-08-25T19:02:35.000Z</time>
      </trkpt>
      <trkpt lat="47.338075" lon="7.864878">
        <ele>419.839093</ele>
        <time>2022-08-25T19:02:37.000Z</time>
      </trkpt>
      <trkpt lat="47.338149" lon="7.865022">
        <ele>419.806834</ele>
        <time>2022-08-25T19:02:39.000Z</time>
      </trkpt>
      <trkpt lat="47.338225" lon="7.865172">
        <ele>419.773402</ele>
        <time>2022-08-25T19:02:41.000Z</time>
      </trkpt>
      <trkpt lat="47.338301" lon="7.865320">
        <ele>419.740256</ele>
        <time>2022-08-25T19:02:43.000Z</time>
      </trkpt>
      <trkpt lat="47.338378" lon="7.865471">
        <ele>419.706524</ele>
        <time>2022-08-25T19:02:45.000Z</time>
      </trkpt>
      <trkpt lat="47.338452" lon="7.865621">
        <ele>419.673405</ele>
        <time>2022-08-25T19:02:47.000Z</time>
      </trkpt>
      <trkpt lat="47.338526" lon="7.865776">
        <ele>419.639560</ele>
        <time>2022-08-25T19:02:49.000Z</time>
      </trkpt>
      <trkpt lat="47.338599" lon="7.865924">
        <ele>419.606885</ele>
        <time>2022-08-25T19:02:51.000Z</time>
      </trkpt>
      <trkpt lat="47.338676" lon="7.866066">
        <ele>419.574422</ele>
        <time>2022-08-25T19:02:53.000Z</time>
      </trkpt>
      <trkpt lat="47.338752" lon="7.866207">
        <ele>419.510306</ele>
        <time>2022-08-25T19:02:55.000Z</time>
      </trkpt>
      <trkpt lat="47.338826" lon="7.866347">
        <ele>419.429496</ele>
        <time>2022-08-25T19:02:57.000Z</time>
      </trkpt>
      <trkpt lat="47.338901" lon="7.866493">
        <ele>419.346112</ele>
        <time>2022-08-25T19:02:59.000Z</time>
      </trkpt>
      <trkpt lat="47.338979" lon="7.866612">
        <ele>419.270760</ele>
        <time>2022-08-25T19:03:01.000Z</time>
      </trkpt>
      <trkpt lat="47.339048" lon="7.866755">
        <ele>419.190863</ele>
        <time>2022-08-25T19:03:03.000Z</time>
      </trkpt>
      <trkpt lat="47.339114" lon="7.866898">
        <ele>419.112117</ele>
        <time>2022-08-25T19:03:05.000Z</time>
      </trkpt>
      <trkpt lat="47.339187" lon="7.867038">
        <ele>419.031719</ele>
        <time>2022-08-25T19:03:06.999Z</time>
      </trkpt>
      <trkpt lat="47.339264" lon="7.867166">
        <ele>418.953819</ele>
        <time>2022-08-25T19:03:08.999Z</time>
      </trkpt>
      <trkpt lat="47.339337" lon="7.867304">
        <ele>418.874140</ele>
        <time>2022-08-25T19:03:10.999Z</time>
      </trkpt>
      <trkpt lat="47.339414" lon="7.867442">
        <ele>418.792781</ele>
        <time>2022-08-25T19:03:12.999Z</time>
      </trkpt>
      <trkpt lat="47.339502" lon="7.867574">
        <ele>418.708504</ele>
        <time>2022-08-25T19:03:14.999Z</time>
      </trkpt>
      <trkpt lat="47.339570" lon="7.867713">
        <ele>418.630478</ele>
        <time>2022-08-25T19:03:16.999Z</time>
      </trkpt>
      <trkpt lat="47.339647" lon="7.867856">
        <ele>418.547350</ele>
        <time>2022-08-25T19:03:18.999Z</time>
      </trkpt>
      <trkpt lat="47.339721" lon="7.868015">
        <ele>418.459561</ele>
        <time>2022-08-25T19:03:20.999Z</time>
      </trkpt>
      <trkpt lat="47.339802" lon="7.868154">
        <ele>418.376124</ele>
        <time>2022-08-25T19:03:22.999Z</time>
      </trkpt>
      <trkpt lat="47.339869" lon="7.868290">
        <ele>418.347620</ele>
        <time>2022-08-25T19:03:24.999Z</time>
      </trkpt>
      <trkpt lat="47.339933" lon="7.868418">
        <ele>418.338132</ele>
        <time>2022-08-25T19:03:26.999Z</time>
      </trkpt>
      <trkpt lat="47.339990" lon="7.868551">
        <ele>418.328745</ele>
        <time>2022-08-25T19:03:28.999Z</time>
      </trkpt>
      <trkpt lat="47.340053" lon="7.868688">
        <ele>418.318870</ele>
        <time>2022-08-25T19:03:30.999Z</time>
      </trkpt>
      <trkpt lat="47.340126" lon="7.868821">
        <ele>418.308661</ele>
        <time>2022-08-25T19:03:32.999Z</time>
      </trkpt>
      <trkpt lat="47.340202" lon="7.868960">
        <ele>418.298008</ele>
        <time>2022-08-25T19:03:34.999Z</time>
      </trkpt>
      <trkpt lat="47.340273" lon="7.869098">
        <ele>418.287673</ele>
        <time>2022-08-25T19:03:36.999Z</time>
      </trkpt>
      <trkpt lat="47.340347" lon="7.869244">
        <ele>418.276799</ele>
        <time>2022-08-25T19:03:38.999Z</time>
      </trkpt>
      <trkpt lat="47.340425" lon="7.869384">
        <ele>418.265988</ele>
        <time>2022-08-25T19:03:40.999Z</time>
      </trkpt>
      <trkpt lat="47.340482" lon="7.869534">
        <ele>418.255730</ele>
        <time>2022-08-25T19:03:42.999Z</time>
      </trkpt>
      <trkpt lat="47.340562" lon="7.869669">
        <ele>418.245034</ele>
        <time>2022-08-25T19:03:44.999Z</time>
      </trkpt>
      <trkpt lat="47.340631" lon="7.869815">
        <ele>418.234417</ele>
        <time>2022-08-25T19:03:46.999Z</time>
      </trkpt>
      <trkpt lat="47.340704" lon="7.869961">
        <ele>418.223594</ele>
        <time>2022-08-25T19:03:48.999Z</time>
      </trkpt>
      <trkpt lat="47.340775" lon="7.870107">
        <ele>418.212876</ele>
        <time>2022-08-25T19:03:50.999Z</time>
      </trkpt>
      <trkpt lat="47.340858" lon="7.870241">
        <ele>418.202047</ele>
        <time>2022-08-25T19:03:52.999Z</time>
      </trkpt>
      <trkpt lat="47.340922" lon="7.870387">
        <ele>418.165076</ele>
        <time>2022-08-25T19:03:54.999Z</time>
      </trkpt>
      <trkpt lat="47.340993" lon="7.870525">
        <ele>418.098292</ele>
        <time>2022-08-25T19:03:56.999Z</time>
      </trkpt>
      <trkpt lat="47.341057" lon="7.870667">
        <ele>418.032559</ele>
        <time>2022-08-25T19:03:58.999Z</time>
      </trkpt>
      <trkpt lat="47.341137" lon="7.870787">
        <ele>417.967676</ele>
        <time>2022-08-25T19:04:00.999Z</time>
      </trkpt>
      <trkpt lat="47.341203" lon="7.870901">
        <ele>417.909883</ele>
        <time>2022-08-25T19:04:02.999Z</time>
      </trkpt>
      <trkpt lat="47.341257" lon="7.871012">
        <ele>417.857216</ele>
        <time>2022-08-25T19:04:04.999Z</time>
      </trkpt>
      <trkpt lat="47.341320" lon="7.871121">
        <ele>417.801996</ele>
        <time>2022-08-25T19:04:06.999Z</time>
      </trkpt>
      <trkpt lat="47.341378" lon="7.871247">
        <ele>417.743286</ele>
        <time>2022-08-25T19:04:08.999Z</time>
      </trkpt>
      <trkpt lat="47.341444" lon="7.871384">
        <ele>417.678497</ele>
        <time>2022-08-25T19:04:10.999Z</time>
      </trkpt>
      <trkpt lat="47.341512" lon="7.871528">
        <ele>417.610847</ele>
        <time>2022-08-25T19:04:12.999Z</time>
      </trkpt>
      <trkpt lat="47.341593" lon="7.871669">
        <ele>417.539600</ele>
        <time>2022-08-25T19:04:14.999Z</time>
      </trkpt>
      <trkpt lat="47.341666" lon="7.871822">
        <ele>417.467477</ele>
        <time>2022-08-25T19:04:16.999Z</time>
      </trkpt>
      <trkpt lat="47.341744" lon="7.871969">
        <ele>417.395515</ele>
        <time>2022-08-25T19:04:18.999Z</time>
      </trkpt>
      <trkpt lat="47.341819" lon="7.872123">
        <ele>417.322418</ele>
        <time>2022-08-25T19:04:20.999Z</time>
      </trkpt>
      <trkpt lat="47.341892" lon="7.872277">
        <ele>417.249980</ele>
        <time>2022-08-25T19:04:22.999Z</time>
      </trkpt>
      <trkpt lat="47.341976" lon="7.872425">
        <ele>417.175570</ele>
        <time>2022-08-25T19:04:24.999Z</time>
      </trkpt>
      <trkpt lat="47.342053" lon="7.872571">
        <ele>417.091191</ele>
        <time>2022-08-25T19:04:26.999Z</time>
      </trkpt>
      <trkpt lat="47.342129" lon="7.872723">
        <ele>417.004634</ele>
        <time>2022-08-25T19:04:28.999Z</time>
      </trkpt>
      <trkpt lat="47.342206" lon="7.872873">
        <ele>416.918406</ele>
        <time>2022-08-25T19:04:31.000Z</time>
      </trkpt>
      <trkpt lat="47.342283" lon="7.873020">
        <ele>416.833270</ele>
        <time>2022-08-25T19:04:33.000Z</time>
      </trkpt>
      <trkpt lat="47.342344" lon="7.873181">
        <ele>416.748749</ele>
        <time>2022-08-25T19:04:35.000Z</time>
      </trkpt>
      <trkpt lat="47.342415" lon="7.873325">
        <ele>416.667148</ele>
        <time>2022-08-25T19:04:37.000Z</time>
      </trkpt>
      <trkpt lat="47.342482" lon="7.873467">
        <ele>416.587862</ele>
        <time>2022-08-25T19:04:39.000Z</time>
      </trkpt>
      <trkpt lat="47.342550" lon="7.873609">
        <ele>416.508188</ele>
        <time>2022-08-25T19:04:41.000Z</time>
      </trkpt>
      <trkpt lat="47.342621" lon="7.873757">
        <ele>416.425097</ele>
        <time>2022-08-25T19:04:43.000Z</time>
      </trkpt>
      <trkpt lat="47.342691" lon="7.873907">
        <ele>416.341643</ele>
        <time>2022-08-25T19:04:45.000Z</time>
      </trkpt>
      <trkpt lat="47.342761" lon="7.874059">
        <ele>416.257433</ele>
        <time>2022-08-25T19:04:47.000Z</time>
      </trkpt>
      <trkpt lat="47.342831" lon="7.874212">
        <ele>416.172843</ele>
        <time>2022-08-25T19:04:49.000Z</time>
      </trkpt>
      <trkpt lat="47.342904" lon="7.874360">
        <ele>416.088964</ele>
        <time>2022-08-25T19:04:51.000Z</time>
      </trkpt>
      <trkpt lat="47.342964" lon="7.874522">
        <ele>416.004370</ele>
        <time>2022-08-25T19:04:53.000Z</time>
      </trkpt>
      <trkpt lat="47.343016" lon="7.874696">
        <ele>415.901842</ele>
        <time>2022-08-25T19:04:55.000Z</time>
      </trkpt>
      <trkpt lat="47.343087" lon="7.874851">
        <ele>415.783115</ele>
        <time>2022-08-25T19:04:57.000Z</time>
      </trkpt>
      <trkpt lat="47.343142" lon="7.875014">
        <ele>415.667563</ele>
        <time>2022-08-25T19:04:59.000Z</time>
      </trkpt>
      <trkpt lat="47.343198" lon="7.875175">
        <ele>415.552721</ele>
        <time>2022-08-25T19:05:01.000Z</time>
      </trkpt>
      <trkpt lat="47.343234" lon="7.875348">
        <ele>415.437877</ele>
        <time>2022-08-25T19:05:03.000Z</time>
      </trkpt>
      <trkpt lat="47.343291" lon="7.875508">
        <ele>415.323167</ele>
        <time>2022-08-25T19:05:05.000Z</time>
      </trkpt>
      <trkpt lat="47.343335" lon="7.875674">
        <ele>415.210054</ele>
        <time>2022-08-25T19:05:07.000Z</time>
      </trkpt>
      <trkpt lat="47.343382" lon="7.875843">
        <ele>415.094128</ele>
        <time>2022-08-25T19:05:09.000Z</time>
      </trkpt>
      <trkpt lat="47.343421" lon="7.876016">
        <ele>414.978429</ele>
        <time>2022-08-25T19:05:11.000Z</time>
      </trkpt>
      <trkpt lat="47.343444" lon="7.876194">
        <ele>414.863439</ele>
        <time>2022-08-25T19:05:13.000Z</time>
      </trkpt>
      <trkpt lat="47.343480" lon="7.876371">
        <ele>414.746167</ele>
        <time>2022-08-25T19:05:14.999Z</time>
      </trkpt>
      <trkpt lat="47.343509" lon="7.876545">
        <ele>414.632459</ele>
        <time>2022-08-25T19:05:16.999Z</time>
      </trkpt>
      <trkpt lat="47.343538" lon="7.876719">
        <ele>414.518751</ele>
        <time>2022-08-25T19:05:18.999Z</time>
      </trkpt>
      <trkpt lat="47.343564" lon="7.876884">
        <ele>414.411252</ele>
        <time>2022-08-25T19:05:20.999Z</time>
      </trkpt>
      <trkpt lat="47.343604" lon="7.877046">
        <ele>414.301838</ele>
        <time>2022-08-25T19:05:22.999Z</time>
      </trkpt>
      <trkpt lat="47.343628" lon="7.877200">
        <ele>414.156300</ele>
        <time>2022-08-25T19:05:24.999Z</time>
      </trkpt>
      <trkpt lat="47.343655" lon="7.877356">
        <ele>413.989185</ele>
        <time>2022-08-25T19:05:26.999Z</time>
      </trkpt>
      <trkpt lat="47.343682" lon="7.877514">
        <ele>413.820058</ele>
        <time>2022-08-25T19:05:28.999Z</time>
      </trkpt>
      <trkpt lat="47.343711" lon="7.877675">
        <ele>413.647148</ele>
        <time>2022-08-25T19:05:30.999Z</time>
      </trkpt>
      <trkpt lat="47.343739" lon="7.877844">
        <ele>413.466571</ele>
        <time>2022-08-25T19:05:32.999Z</time>
      </trkpt>
      <trkpt lat="47.343768" lon="7.878015">
        <ele>413.283611</ele>
        <time>2022-08-25T19:05:34.999Z</time>
      </trkpt>
      <trkpt lat="47.343780" lon="7.878190">
        <ele>413.101046</ele>
        <time>2022-08-25T19:05:36.999Z</time>
      </trkpt>
      <trkpt lat="47.343814" lon="7.878359">
        <ele>412.918068</ele>
        <time>2022-08-25T19:05:38.999Z</time>
      </trkpt>
      <trkpt lat="47.343841" lon="7.878536">
        <ele>412.729757</ele>
        <time>2022-08-25T19:05:40.999Z</time>
      </trkpt>
      <trkpt lat="47.343872" lon="7.878710">
        <ele>412.543020</ele>
        <time>2022-08-25T19:05:42.999Z</time>
      </trkpt>
      <trkpt lat="47.343899" lon="7.878883">
        <ele>412.358758</ele>
        <time>2022-08-25T19:05:44.999Z</time>
      </trkpt>
      <trkpt lat="47.343922" lon="7.879055">
        <ele>412.176792</ele>
        <time>2022-08-25T19:05:46.999Z</time>
      </trkpt>
      <trkpt lat="47.343946" lon="7.879223">
        <ele>411.998587</ele>
        <time>2022-08-25T19:05:48.999Z</time>
      </trkpt>
      <trkpt lat="47.343977" lon="7.879387">
        <ele>411.821869</ele>
        <time>2022-08-25T19:05:50.999Z</time>
      </trkpt>
      <trkpt lat="47.344001" lon="7.879553">
        <ele>411.645695</ele>
        <time>2022-08-25T19:05:52.999Z</time>
      </trkpt>
      <trkpt lat="47.344021" lon="7.879719">
        <ele>411.479673</ele>
        <time>2022-08-25T19:05:54.999Z</time>
      </trkpt>
      <trkpt lat="47.344048" lon="7.879889">
        <ele>411.333083</ele>
        <time>2022-08-25T19:05:56.999Z</time>
      </trkpt>
      <trkpt lat="47.344080" lon="7.880056">
        <ele>411.187381</ele>
        <time>2022-08-25T19:05:58.999Z</time>
      </trkpt>
      <trkpt lat="47.344108" lon="7.880230">
        <ele>411.037238</ele>
        <time>2022-08-25T19:06:00.999Z</time>
      </trkpt>
      <trkpt lat="47.344136" lon="7.880402">
        <ele>410.888728</ele>
        <time>2022-08-25T19:06:02.999Z</time>
      </trkpt>
      <trkpt lat="47.344170" lon="7.880578">
        <ele>410.735082</ele>
        <time>2022-08-25T19:06:04.999Z</time>
      </trkpt>
      <trkpt lat="47.344192" lon="7.880753">
        <ele>410.585655</ele>
        <time>2022-08-25T19:06:06.999Z</time>
      </trkpt>
      <trkpt lat="47.344220" lon="7.880923">
        <ele>410.438778</ele>
        <time>2022-08-25T19:06:08.999Z</time>
      </trkpt>
      <trkpt lat="47.344251" lon="7.881094">
        <ele>410.290167</ele>
        <time>2022-08-25T19:06:10.999Z</time>
      </trkpt>
      <trkpt lat="47.344280" lon="7.881270">
        <ele>410.138103</ele>
        <time>2022-08-25T19:06:12.999Z</time>
      </trkpt>
      <trkpt lat="47.344309" lon="7.881441">
        <ele>409.990114</ele>
        <time>2022-08-25T19:06:14.999Z</time>
      </trkpt>
      <trkpt lat="47.344340" lon="7.881613">
        <ele>409.840693</ele>
        <time>2022-08-25T19:06:16.999Z</time>
      </trkpt>
      <trkpt lat="47.344364" lon="7.881785">
        <ele>409.693262</ele>
        <time>2022-08-25T19:06:18.999Z</time>
      </trkpt>
      <trkpt lat="47.344388" lon="7.881960">
        <ele>409.543365</ele>
        <time>2022-08-25T19:06:20.999Z</time>
      </trkpt>
      <trkpt lat="47.344425" lon="7.882135">
        <ele>409.389460</ele>
        <time>2022-08-25T19:06:22.999Z</time>
      </trkpt>
      <trkpt lat="47.344453" lon="7.882310">
        <ele>409.270758</ele>
        <time>2022-08-25T19:06:24.999Z</time>
      </trkpt>
      <trkpt lat="47.344478" lon="7.882487">
        <ele>409.215676</ele>
        <time>2022-08-25T19:06:26.999Z</time>
      </trkpt>
      <trkpt lat="47.344503" lon="7.882658">
        <ele>409.162382</ele>
        <time>2022-08-25T19:06:28.999Z</time>
      </trkpt>
      <trkpt lat="47.344533" lon="7.882825">
        <ele>409.109747</ele>
        <time>2022-08-25T19:06:30.999Z</time>
      </trkpt>
      <trkpt lat="47.344559" lon="7.882988">
        <ele>409.058732</ele>
        <time>2022-08-25T19:06:32.999Z</time>
      </trkpt>
      <trkpt lat="47.344586" lon="7.883159">
        <ele>409.005241</ele>
        <time>2022-08-25T19:06:34.999Z</time>
      </trkpt>
      <trkpt lat="47.344613" lon="7.883332">
        <ele>408.951156</ele>
        <time>2022-08-25T19:06:37.000Z</time>
      </trkpt>
      <trkpt lat="47.344641" lon="7.883509">
        <ele>408.895783</ele>
        <time>2022-08-25T19:06:39.000Z</time>
      </trkpt>
      <trkpt lat="47.344666" lon="7.883689">
        <ele>408.839806</ele>
        <time>2022-08-25T19:06:41.000Z</time>
      </trkpt>
      <trkpt lat="47.344699" lon="7.883867">
        <ele>408.783585</ele>
        <time>2022-08-25T19:06:43.000Z</time>
      </trkpt>
      <trkpt lat="47.344726" lon="7.884044">
        <ele>408.728312</ele>
        <time>2022-08-25T19:06:45.000Z</time>
      </trkpt>
      <trkpt lat="47.344759" lon="7.884221">
        <ele>408.672385</ele>
        <time>2022-08-25T19:06:47.000Z</time>
      </trkpt>
      <trkpt lat="47.344790" lon="7.884398">
        <ele>408.616690</ele>
        <time>2022-08-25T19:06:49.000Z</time>
      </trkpt>
      <trkpt lat="47.344820" lon="7.884573">
        <ele>408.561696</ele>
        <time>2022-08-25T19:06:51.000Z</time>
      </trkpt>
      <trkpt lat="47.344830" lon="7.884754">
        <ele>408.506371</ele>
        <time>2022-08-25T19:06:53.000Z</time>
      </trkpt>
      <trkpt lat="47.344867" lon="7.884928">
        <ele>408.478576</ele>
        <time>2022-08-25T19:06:55.000Z</time>
      </trkpt>
      <trkpt lat="47.344911" lon="7.885097">
        <ele>408.475103</ele>
        <time>2022-08-25T19:06:57.000Z</time>
      </trkpt>
      <trkpt lat="47.344948" lon="7.885254">
        <ele>408.471915</ele>
        <time>2022-08-25T19:06:59.000Z</time>
      </trkpt>
      <trkpt lat="47.344993" lon="7.885394">
        <ele>408.468943</ele>
        <time>2022-08-25T19:07:01.000Z</time>
      </trkpt>
      <trkpt lat="47.344913" lon="7.885519">
        <ele>408.465645</ele>
        <time>2022-08-25T19:07:03.000Z</time>
      </trkpt>
      <trkpt lat="47.344843" lon="7.885701">
        <ele>408.461631</ele>
        <time>2022-08-25T19:07:06.000Z</time>
      </trkpt>
      <trkpt lat="47.344800" lon="7.885821">
        <ele>408.459028</ele>
        <time>2022-08-25T19:07:08.000Z</time>
      </trkpt>
      <trkpt lat="47.344823" lon="7.885998">
        <ele>408.455571</ele>
        <time>2022-08-25T19:07:10.000Z</time>
      </trkpt>
      <trkpt lat="47.344913" lon="7.886140">
        <ele>408.451842</ele>
        <time>2022-08-25T19:07:12.000Z</time>
      </trkpt>
      <trkpt lat="47.345026" lon="7.886257">
        <ele>408.447934</ele>
        <time>2022-08-25T19:07:14.000Z</time>
      </trkpt>
      <trkpt lat="47.345099" lon="7.886437">
        <ele>408.443911</ele>
        <time>2022-08-25T19:07:16.000Z</time>
      </trkpt>
      <trkpt lat="47.345175" lon="7.886602">
        <ele>408.440084</ele>
        <time>2022-08-25T19:07:18.000Z</time>
      </trkpt>
      <trkpt lat="47.345238" lon="7.886755">
        <ele>408.436650</ele>
        <time>2022-08-25T19:07:20.000Z</time>
      </trkpt>
      <trkpt lat="47.345307" lon="7.886920">
        <ele>408.432931</ele>
        <time>2022-08-25T19:07:22.000Z</time>
      </trkpt>
      <trkpt lat="47.345375" lon="7.887078">
        <ele>408.434356</ele>
        <time>2022-08-25T19:07:23.999Z</time>
      </trkpt>
      <trkpt lat="47.345449" lon="7.887255">
        <ele>408.537621</ele>
        <time>2022-08-25T19:07:25.999Z</time>
      </trkpt>
      <trkpt lat="47.345511" lon="7.887407">
        <ele>408.625710</ele>
        <time>2022-08-25T19:07:27.999Z</time>
      </trkpt>
      <trkpt lat="47.345582" lon="7.887563">
        <ele>408.719016</ele>
        <time>2022-08-25T19:07:29.999Z</time>
      </trkpt>
      <trkpt lat="47.345647" lon="7.887719">
        <ele>408.809944</ele>
        <time>2022-08-25T19:07:31.999Z</time>
      </trkpt>
      <trkpt lat="47.345707" lon="7.887875">
        <ele>408.899008</ele>
        <time>2022-08-25T19:07:33.999Z</time>
      </trkpt>
      <trkpt lat="47.345770" lon="7.888014">
        <ele>408.982038</ele>
        <time>2022-08-25T19:07:35.999Z</time>
      </trkpt>
      <trkpt lat="47.345832" lon="7.888145">
        <ele>409.061376</ele>
        <time>2022-08-25T19:07:37.999Z</time>
      </trkpt>
      <trkpt lat="47.345887" lon="7.888295">
        <ele>409.146058</ele>
        <time>2022-08-25T19:07:39.999Z</time>
      </trkpt>
      <trkpt lat="47.345942" lon="7.888418">
        <ele>409.219227</ele>
        <time>2022-08-25T19:07:41.999Z</time>
      </trkpt>
      <trkpt lat="47.345989" lon="7.888549">
        <ele>409.292825</ele>
        <time>2022-08-25T19:07:43.999Z</time>
      </trkpt>
      <trkpt lat="47.346030" lon="7.888673">
        <ele>409.361331</ele>
        <time>2022-08-25T19:07:45.999Z</time>
      </trkpt>
      <trkpt lat="47.346090" lon="7.888827">
        <ele>409.449531</ele>
        <time>2022-08-25T19:07:48.999Z</time>
      </trkpt>
      <trkpt lat="47.346138" lon="7.888952">
        <ele>409.520868</ele>
        <time>2022-08-25T19:07:50.999Z</time>
      </trkpt>
      <trkpt lat="47.346157" lon="7.889119">
        <ele>409.604945</ele>
        <time>2022-08-25T19:07:53.999Z</time>
      </trkpt>
      <trkpt lat="47.346175" lon="7.889270">
        <ele>409.681068</ele>
        <time>2022-08-25T19:07:56.999Z</time>
      </trkpt>
      <trkpt lat="47.346291" lon="7.889429">
        <ele>409.717896</ele>
        <time>2022-08-25T19:08:00.999Z</time>
      </trkpt>
      <trkpt lat="47.346385" lon="7.889588">
        <ele>409.655262</ele>
        <time>2022-08-25T19:08:02.999Z</time>
      </trkpt>
      <trkpt lat="47.346468" lon="7.889745">
        <ele>409.596154</ele>
        <time>2022-08-25T19:08:04.999Z</time>
      </trkpt>
      <trkpt lat="47.346548" lon="7.889895">
        <ele>409.539492</ele>
        <time>2022-08-25T19:08:06.999Z</time>
      </trkpt>
      <trkpt lat="47.346629" lon="7.890046">
        <ele>409.482326</ele>
        <time>2022-08-25T19:08:08.999Z</time>
      </trkpt>
      <trkpt lat="47.346706" lon="7.890191">
        <ele>409.427643</ele>
        <time>2022-08-25T19:08:10.999Z</time>
      </trkpt>
      <trkpt lat="47.346786" lon="7.890343">
        <ele>409.370514</ele>
        <time>2022-08-25T19:08:12.999Z</time>
      </trkpt>
      <trkpt lat="47.346856" lon="7.890504">
        <ele>409.313733</ele>
        <time>2022-08-25T19:08:14.999Z</time>
      </trkpt>
      <trkpt lat="47.346940" lon="7.890642">
        <ele>409.258670</ele>
        <time>2022-08-25T19:08:16.999Z</time>
      </trkpt>
      <trkpt lat="47.347012" lon="7.890796">
        <ele>409.203134</ele>
        <time>2022-08-25T19:08:18.999Z</time>
      </trkpt>
      <trkpt lat="47.347096" lon="7.890947">
        <ele>409.145143</ele>
        <time>2022-08-25T19:08:20.999Z</time>
      </trkpt>
      <trkpt lat="47.347173" lon="7.891086">
        <ele>409.091851</ele>
        <time>2022-08-25T19:08:22.999Z</time>
      </trkpt>
      <trkpt lat="47.347265" lon="7.891239">
        <ele>409.031133</ele>
        <time>2022-08-25T19:08:24.999Z</time>
      </trkpt>
      <trkpt lat="47.347340" lon="7.891377">
        <ele>408.978623</ele>
        <time>2022-08-25T19:08:26.999Z</time>
      </trkpt>
      <trkpt lat="47.347429" lon="7.891510">
        <ele>408.779675</ele>
        <time>2022-08-25T19:08:28.999Z</time>
      </trkpt>
      <trkpt lat="47.347523" lon="7.891633">
        <ele>408.507995</ele>
        <time>2022-08-25T19:08:30.999Z</time>
      </trkpt>
      <trkpt lat="47.347626" lon="7.891749">
        <ele>408.227799</ele>
        <time>2022-08-25T19:08:32.999Z</time>
      </trkpt>
      <trkpt lat="47.347725" lon="7.891856">
        <ele>407.962428</ele>
        <time>2022-08-25T19:08:34.999Z</time>
      </trkpt>
      <trkpt lat="47.347830" lon="7.891921">
        <ele>407.716185</ele>
        <time>2022-08-25T19:08:36.999Z</time>
      </trkpt>
      <trkpt lat="47.347930" lon="7.891993">
        <ele>407.475560</ele>
        <time>2022-08-25T19:08:38.999Z</time>
      </trkpt>
      <trkpt lat="47.348024" lon="7.892039">
        <ele>407.261388</ele>
        <time>2022-08-25T19:08:40.999Z</time>
      </trkpt>
      <trkpt lat="47.348124" lon="7.892140">
        <ele>406.999334</ele>
        <time>2022-08-25T19:08:44.000Z</time>
      </trkpt>
      <trkpt lat="47.348069" lon="7.892294">
        <ele>406.744251</ele>
        <time>2022-08-25T19:08:46.000Z</time>
      </trkpt>
      <trkpt lat="47.347987" lon="7.892399">
        <ele>406.509475</ele>
        <time>2022-08-25T19:08:48.000Z</time>
      </trkpt>
      <trkpt lat="47.347860" lon="7.892460">
        <ele>406.220641</ele>
        <time>2022-08-25T19:08:50.000Z</time>
      </trkpt>
      <trkpt lat="47.347747" lon="7.892581">
        <ele>405.918720</ele>
        <time>2022-08-25T19:08:52.000Z</time>
      </trkpt>
      <trkpt lat="47.347631" lon="7.892704">
        <ele>405.609823</ele>
        <time>2022-08-25T19:08:54.000Z</time>
      </trkpt>
      <trkpt lat="47.347500" lon="7.892843">
        <ele>405.260901</ele>
        <time>2022-08-25T19:08:56.000Z</time>
      </trkpt>
      <trkpt lat="47.347389" lon="7.892984">
        <ele>405.039939</ele>
        <time>2022-08-25T19:08:58.000Z</time>
      </trkpt>
      <trkpt lat="47.347278" lon="7.893103">
        <ele>404.969488</ele>
        <time>2022-08-25T19:09:00.000Z</time>
      </trkpt>
      <trkpt lat="47.347172" lon="7.893222">
        <ele>404.901099</ele>
        <time>2022-08-25T19:09:02.000Z</time>
      </trkpt>
      <trkpt lat="47.347065" lon="7.893329">
        <ele>404.834728</ele>
        <time>2022-08-25T19:09:04.000Z</time>
      </trkpt>
      <trkpt lat="47.346966" lon="7.893432">
        <ele>404.772529</ele>
        <time>2022-08-25T19:09:06.000Z</time>
      </trkpt>
      <trkpt lat="47.346866" lon="7.893529">
        <ele>404.711080</ele>
        <time>2022-08-25T19:09:08.000Z</time>
      </trkpt>
      <trkpt lat="47.346776" lon="7.893655">
        <ele>404.647379</ele>
        <time>2022-08-25T19:09:10.000Z</time>
      </trkpt>
      <trkpt lat="47.346676" lon="7.893735">
        <ele>404.588969</ele>
        <time>2022-08-25T19:09:12.000Z</time>
      </trkpt>
      <trkpt lat="47.346595" lon="7.893812">
        <ele>404.539493</ele>
        <time>2022-08-25T19:09:14.000Z</time>
      </trkpt>
      <trkpt lat="47.346515" lon="7.893913">
        <ele>404.485432</ele>
        <time>2022-08-25T19:09:16.000Z</time>
      </trkpt>
      <trkpt lat="47.346430" lon="7.894013">
        <ele>404.429613</ele>
        <time>2022-08-25T19:09:18.000Z</time>
      </trkpt>
      <trkpt lat="47.346336" lon="7.894108">
        <ele>404.371110</ele>
        <time>2022-08-25T19:09:20.000Z</time>
      </trkpt>
      <trkpt lat="47.346252" lon="7.894209">
        <ele>404.315472</ele>
        <time>2022-08-25T19:09:22.000Z</time>
      </trkpt>
      <trkpt lat="47.346282" lon="7.894409">
        <ele>404.244200</ele>
        <time>2022-08-25T19:09:25.000Z</time>
      </trkpt>
      <trkpt lat="47.346377" lon="7.894545">
        <ele>404.176236</ele>
        <time>2022-08-25T19:09:28.000Z</time>
      </trkpt>
      <trkpt lat="47.346443" lon="7.894645">
        <ele>404.146132</ele>
        <time>2022-08-25T19:09:30.000Z</time>
      </trkpt>
      <trkpt lat="47.346529" lon="7.894773">
        <ele>404.146132</ele>
        <time>2022-08-25T19:09:33.000Z</time>
      </trkpt>
      <trkpt lat="47.346600" lon="7.894856">
        <ele>404.146132</ele>
        <time>2022-08-25T19:09:40.999Z</time>
      </trkpt>
      <trkpt lat="47.346704" lon="7.894927">
        <ele>404.146132</ele>
        <time>2022-08-25T19:09:45.018Z</time>
      </trkpt>
      <trkpt lat="47.346820" lon="7.894993">
        <ele>404.146132</ele>
        <time>2022-08-25T19:09:47.999Z</time>
      </trkpt>
      <trkpt lat="47.347014" lon="7.894796">
        <ele>404.146132</ele>
        <time>2022-08-25T19:09:48.999Z</time>
      </trkpt>
      <trkpt lat="47.346816" lon="7.894429">
        <ele>404.146132</ele>
        <time>2022-08-25T19:09:58.999Z</time>
      </trkpt>
    </trkseg>
  </trk>
</gpx>